GFSMW_sfc_wetblb_000.txt.gz
Wetbulb
48.95 49.56 50.93 53.43 55.35 56.61 56.56 58.98 57.43 52.51 52.86 52.50 51.23 49.73 45.81 44.80 44.01 43.93 43.84 43.61 43.37 43.28 42.43 41.80 41.50 41.87 40.16 38.79 39.61 39.08 38.87 38.99 39.51 37.96 38.00 39.71 40.37 38.82 40.42 40.65 39.87 41.18 40.94
47.39 49.25 51.86 53.47 55.45 56.38 57.13 57.14 54.64 52.62 52.80 52.13 49.08 47.97 46.28 44.52 43.33 42.13 41.23 41.63 41.85 42.28 42.17 40.42 39.93 39.62 39.12 37.83 37.76 37.54 37.19 38.14 38.34 35.83 35.38 34.02 36.31 38.45 39.87 39.22 40.04 38.72 40.22
47.34 48.49 51.08 52.96 53.78 54.37 54.34 54.96 53.57 52.60 52.58 51.04 49.48 47.16 46.48 44.78 42.55 41.07 40.08 40.01 40.72 40.99 40.56 39.57 38.80 38.29 37.61 36.41 36.17 35.81 35.44 34.51 36.40 36.55 35.72 32.12 30.53 34.88 36.45 37.53 37.10 38.76 37.27
47.53 48.44 50.46 50.26 51.44 51.13 51.89 52.59 52.90 52.03 51.39 50.64 48.27 46.72 44.59 42.81 42.89 41.54 39.41 38.79 39.46 39.41 39.49 38.89 37.82 36.92 36.64 35.04 35.32 36.82 34.99 34.40 32.94 35.19 38.58 35.56 34.72 30.32 29.67 34.23 36.76 35.31 37.30
48.30 49.15 50.39 50.61 50.26 50.01 50.28 50.83 51.07 50.68 49.14 48.34 46.70 45.01 43.83 43.17 42.16 39.79 37.63 37.10 37.19 38.03 38.08 37.47 36.33 35.66 35.48 34.41 34.00 33.66 32.95 33.83 33.05 33.21 33.53 32.77 33.07 32.74 30.41 28.37 30.88 35.00 36.35
46.99 48.71 48.86 49.38 47.67 46.81 47.05 47.52 48.37 46.93 47.20 46.45 45.36 44.67 42.89 40.81 39.32 37.65 36.70 36.36 36.15 36.32 36.19 36.49 35.02 34.41 34.10 33.77 33.66 33.16 32.54 32.10 32.31 32.34 31.99 32.24 30.96 30.64 29.90 29.34 30.03 30.08 33.18
46.82 47.62 48.06 47.54 45.63 44.98 45.10 45.63 46.04 44.20 44.71 44.43 43.68 42.53 40.70 38.90 37.23 36.42 35.83 35.11 34.63 34.30 33.99 34.32 33.40 33.01 32.99 33.48 32.98 32.16 31.62 31.57 30.81 30.18 30.86 31.83 31.67 31.96 32.07 30.60 28.72 28.49 31.63
47.68 48.00 47.75 46.84 45.76 45.30 44.24 43.88 43.80 41.71 41.73 41.10 39.37 38.27 37.74 36.87 36.02 35.42 34.80 34.29 33.80 33.63 33.49 33.10 32.69 32.37 32.47 32.22 31.67 31.28 31.07 31.36 30.20 29.25 29.42 30.25 31.00 31.90 31.71 29.82 28.49 26.49 28.14
47.21 47.32 46.77 46.23 45.42 44.40 43.02 43.05 42.03 39.98 39.21 38.37 37.46 35.91 35.75 35.59 34.60 33.98 33.88 33.38 33.45 35.57 32.76 32.21 31.76 31.50 31.45 31.34 30.58 30.29 29.84 29.76 29.54 29.02 28.78 28.61 29.94 30.18 30.72 30.83 30.58 28.17 24.19
46.64 46.83 46.91 46.03 45.30 43.72 42.08 41.12 40.61 39.21 37.28 36.21 35.71 35.01 34.14 33.90 33.33 33.07 32.46 32.40 32.31 32.31 31.96 31.53 31.16 30.89 30.73 30.54 29.86 29.51 30.09 29.22 29.17 30.63 27.78 27.71 29.30 29.90 30.72 30.37 30.46 30.07 27.82
46.24 46.92 46.94 46.46 44.11 42.44 41.09 39.70 38.72 37.40 35.72 34.83 33.69 33.13 32.85 32.77 32.38 32.08 31.68 31.74 31.49 31.29 31.22 31.14 30.75 30.35 30.25 30.12 29.13 28.87 29.42 29.02 28.30 27.72 28.24 28.32 29.10 29.69 29.79 30.23 30.13 29.32 29.05
46.50 47.07 46.91 44.64 43.37 41.72 39.95 38.61 37.11 36.03 34.71 33.75 33.03 32.40 32.17 31.89 31.63 31.19 31.20 31.43 30.81 31.06 30.78 30.64 30.57 30.50 30.27 29.76 28.67 28.21 28.54 27.91 27.16 27.36 27.79 28.34 31.03 28.50 28.98 29.23 28.64 28.94 29.19
45.15 45.91 44.73 43.89 42.61 40.66 38.78 37.09 35.98 34.50 33.68 33.27 32.19 31.58 31.07 30.91 30.56 30.64 30.98 31.41 30.90 30.50 30.42 30.70 30.32 30.23 30.25 29.32 29.12 28.46 28.13 27.73 27.43 27.28 27.19 27.68 28.09 27.19 28.05 28.41 28.52 29.45 30.88
45.65 45.47 44.03 42.55 41.37 40.16 38.14 36.07 34.04 33.59 32.86 32.36 31.45 30.65 30.36 30.33 30.32 30.78 31.01 31.14 30.94 30.32 30.11 30.11 29.67 29.53 29.12 29.42 29.21 29.07 28.08 27.63 28.35 28.37 28.35 27.82 27.71 27.59 28.15 29.24 29.98 29.85 27.90
44.63 44.58 43.14 41.94 40.80 38.97 36.63 34.75 33.29 32.60 32.17 31.50 30.92 30.45 30.49 30.70 30.88 31.10 31.03 30.96 30.32 29.92 29.32 28.85 28.39 28.16 29.09 31.85 31.99 31.38 29.24 27.67 26.89 27.23 27.71 28.59 30.74 33.83 33.06 31.16 29.18 29.09 28.39
44.83 44.28 43.62 41.90 39.77 38.27 35.63 34.33 32.35 31.67 32.07 30.95 30.49 31.00 31.03 31.09 31.09 30.73 30.24 29.44 29.15 28.20 28.11 27.26 26.97 26.51 30.22 34.82 36.24 34.62 30.24 27.56 26.00 25.59 26.86 27.81 31.38 30.84 34.25 34.16 34.35 33.42 29.93
44.71 43.69 42.61 41.48 39.23 37.04 35.41 32.64 31.58 31.30 30.83 30.53 30.64 30.85 31.09 30.85 30.41 29.73 28.97 27.96 26.79 26.50 26.42 26.28 25.92 25.40 25.53 34.65 35.18 35.36 30.28 26.91 26.00 26.55 26.97 27.84 30.19 30.74 28.36 31.55 33.83 33.26 34.08
43.89 42.58 40.44 38.01 36.46 34.27 32.97 31.63 31.11 30.43 30.16 29.98 30.17 30.73 30.93 29.98 29.30 28.53 26.95 25.97 26.09 26.01 25.99 25.51 25.25 24.51 27.04 33.42 34.12 34.57 27.91 25.78 25.57 26.58 26.54 26.29 26.73 28.28 30.17 29.49 28.86 30.43 27.99
40.38 39.21 37.77 36.17 34.24 32.95 32.04 31.23 29.89 29.53 29.62 29.39 29.79 30.47 30.10 28.92 27.75 26.23 25.35 25.90 25.63 25.02 24.55 25.35 24.46 23.27 23.72 31.91 33.09 32.04 27.29 26.65 25.84 26.47 26.69 27.65 28.07 31.75 33.92 30.78 29.35 25.16 24.58
36.50 34.96 34.17 33.49 32.15 29.81 30.95 30.26 28.91 28.69 28.40 29.13 29.29 28.97 28.22 27.31 26.05 25.08 24.85 25.13 24.21 24.54 25.29 24.84 24.02 26.90 22.91 29.32 32.41 31.61 27.96 25.18 25.66 26.09 27.51 31.50 30.82 33.56 34.79 28.70 25.02 21.69 22.63
33.71 33.67 33.29 31.41 29.68 29.69 30.26 28.11 27.38 26.96 28.15 28.48 27.89 27.79 27.00 26.05 25.39 24.53 24.14 23.41 23.10 23.49 22.36 22.45 22.21 22.20 23.47 24.34 32.02 32.53 29.01 27.50 27.06 27.32 27.78 28.02 32.85 32.68 31.74 30.58 23.64 24.66 27.83
32.60 32.01 30.47 28.92 28.63 29.58 29.70 26.59 25.98 26.49 27.00 27.31 26.91 25.94 25.18 26.61 26.76 23.63 23.06 22.61 21.90 21.06 20.75 20.81 21.26 23.27 22.97 29.12 30.55 32.49 32.95 32.73 28.95 28.09 27.13 29.28 31.18 30.19 29.44 27.20 29.25 29.49 27.92
30.65 30.67 29.47 28.14 27.36 27.64 27.14 25.13 24.72 26.05 25.96 25.35 24.51 24.24 24.48 24.52 23.43 22.29 21.78 22.24 21.31 20.50 21.08 23.45 23.11 23.64 25.31 23.68 30.45 31.99 32.82 32.14 29.17 28.50 30.71 29.69 29.04 28.14 25.90 27.22 27.97 27.58 22.15
30.00 29.60 28.32 26.26 24.95 25.11 25.29 24.87 25.35 25.74 24.75 23.58 22.92 22.86 22.28 23.84 22.27 23.27 23.66 21.71 20.96 20.53 23.51 23.71 22.99 22.74 24.04 24.88 26.27 28.18 27.05 30.26 29.31 29.69 24.28 26.49 26.43 26.50 25.52 24.21 23.92 22.68 22.96
29.65 29.14 27.17 25.16 23.62 23.90 24.09 24.50 24.72 24.46 23.31 22.26 22.19 21.44 22.69 20.92 21.15 22.26 21.60 23.76 22.56 24.93 24.33 23.61 23.65 22.68 23.14 25.67 30.27 29.52 28.29 28.29 28.56 27.51 22.96 21.63 21.10 20.18 21.01 21.40 21.99 22.45 22.45
29.72 27.96 25.93 24.38 23.18 23.61 23.65 23.80 24.36 23.48 22.19 21.81 22.13 21.88 22.53 20.67 21.63 20.80 21.52 27.24 28.78 29.72 29.70 29.59 27.84 26.29 29.31 30.51 30.60 31.21 30.70 30.18 29.16 23.22 20.19 19.12 19.23 19.32 19.69 19.80 20.36 21.17 21.78

GFSMW_sfc_wetblb_003.txt.gz
Wetbulb
46.72 48.83 49.90 52.01 54.09 54.35 54.48 60.16 57.76 52.99 53.33 52.13 50.44 49.48 47.09 46.45 45.02 45.04 42.89 42.40 42.28 42.04 41.03 40.63 40.27 39.67 38.08 36.82 37.14 36.98 36.36 36.54 37.29 35.91 36.47 37.70 38.20 37.28 37.56 37.78 36.99 37.49 38.61
46.65 47.63 48.96 52.34 54.55 54.88 55.19 55.09 52.42 52.13 52.91 52.43 48.53 48.48 47.21 44.72 41.17 40.53 40.22 40.94 41.09 41.18 40.86 39.51 38.52 37.64 36.83 35.69 35.15 35.27 34.79 34.94 36.34 34.09 33.83 32.17 34.53 36.58 38.50 36.35 37.72 35.94 37.56
46.40 46.20 48.80 52.03 53.66 54.13 54.47 51.27 51.13 51.19 51.00 49.02 48.32 47.08 45.55 42.43 39.90 38.75 38.50 38.97 39.95 39.95 39.23 38.22 37.34 36.31 35.60 34.45 33.89 33.56 32.97 32.15 33.48 34.72 32.82 28.61 28.30 32.18 34.28 35.68 34.77 36.19 34.66
46.39 47.18 49.93 51.65 53.06 53.36 53.59 51.39 51.58 51.09 49.73 50.26 48.77 46.47 42.71 40.24 39.78 38.56 37.41 37.61 38.54 38.29 38.31 37.39 36.22 35.25 34.81 33.34 33.29 34.71 32.49 32.30 30.72 32.94 35.87 33.37 32.46 28.83 27.75 32.19 34.37 33.31 35.41
47.27 48.08 50.96 52.58 52.79 51.45 52.12 51.67 51.18 50.32 48.45 47.15 46.65 44.48 42.57 41.58 39.69 37.20 36.02 35.91 36.13 36.81 36.80 36.06 34.88 34.20 33.85 32.67 32.15 31.61 30.90 31.73 30.84 30.92 30.95 30.38 30.81 30.67 28.33 26.05 28.72 32.93 33.87
46.22 48.15 49.36 50.06 49.40 49.64 50.52 50.62 50.19 47.67 46.98 46.02 44.52 44.48 42.41 40.46 38.04 35.62 35.04 34.92 35.02 35.11 34.91 35.09 33.79 33.09 32.62 32.04 31.71 31.14 30.72 30.28 30.20 29.97 29.67 29.78 28.68 27.92 26.76 26.24 27.39 27.44 30.09
45.92 47.58 48.30 49.16 47.93 47.78 48.61 49.31 49.00 46.05 45.22 44.56 44.06 43.10 41.39 40.22 37.89 36.17 35.46 34.47 33.84 33.55 33.13 33.21 32.31 31.83 31.62 31.90 31.21 30.53 29.92 29.77 28.85 28.12 28.63 29.88 29.47 29.73 29.17 27.85 26.37 25.74 28.61
46.79 48.26 49.25 48.80 47.60 46.72 47.17 47.68 46.98 44.22 43.94 43.46 42.14 40.84 39.18 38.15 36.86 35.94 34.92 33.95 33.41 33.09 32.76 32.18 31.67 31.30 31.27 30.85 30.19 29.96 29.63 29.81 28.62 27.67 27.63 28.39 28.73 29.38 29.13 27.64 25.87 23.49 25.34
46.24 47.91 47.55 46.37 45.18 44.55 44.25 45.26 43.82 41.21 41.15 39.92 37.93 36.54 35.97 35.72 34.69 33.76 33.49 33.01 32.84 34.47 31.94 31.35 30.89 30.42 30.39 30.20 29.48 29.22 28.72 28.43 28.19 27.75 27.38 26.91 28.22 28.64 28.44 28.49 28.21 25.42 21.80
46.47 46.89 45.63 44.27 43.71 42.48 40.99 40.95 42.03 40.31 37.50 36.44 35.71 35.03 33.97 33.68 33.22 32.96 32.28 32.12 31.68 31.61 31.17 30.59 30.18 30.03 29.87 29.52 28.82 28.46 28.92 28.04 28.25 29.41 26.89 26.47 27.67 27.89 28.59 28.56 28.57 28.24 26.04
45.88 45.36 45.05 43.99 42.61 40.93 39.86 38.25 38.27 37.27 35.39 34.59 33.52 32.97 32.47 32.38 32.05 31.59 31.22 31.16 30.94 30.80 30.52 30.25 29.91 29.48 29.17 28.97 28.10 27.86 28.78 27.95 27.42 27.16 26.87 27.28 27.95 27.48 28.21 28.23 28.37 27.80 27.65
45.56 45.52 44.50 42.50 41.85 40.29 38.43 37.00 35.79 35.34 33.77 32.98 32.48 31.87 31.69 31.43 30.94 30.67 30.62 30.91 30.28 30.36 29.99 29.77 29.52 29.23 29.14 28.51 27.53 27.20 27.53 27.14 26.56 26.72 26.64 27.24 30.34 26.91 26.93 27.30 27.06 27.59 28.16
44.79 43.85 42.86 42.36 41.02 39.35 37.61 36.01 34.98 33.50 32.76 32.84 32.01 31.10 30.71 30.55 30.08 30.11 30.46 30.76 30.21 29.63 29.41 29.13 28.50 28.56 28.76 27.97 27.69 27.57 27.55 27.13 26.79 26.55 25.97 26.57 26.67 25.65 26.26 26.76 27.12 28.11 30.58
44.80 43.96 42.77 41.01 39.98 38.70 36.99 35.11 33.40 33.53 32.62 32.40 31.07 30.37 30.13 30.04 29.95 30.23 30.36 30.35 29.73 28.83 28.25 28.18 28.30 28.16 27.84 28.08 28.36 28.70 27.62 26.93 27.72 27.47 27.16 26.88 26.71 26.17 26.59 27.97 28.17 29.77 27.57
43.72 43.67 41.80 40.44 39.00 37.17 34.85 33.88 32.95 32.72 32.39 31.33 30.68 30.08 30.01 30.20 30.38 30.35 29.94 29.66 28.92 28.08 27.87 28.28 27.48 26.81 27.77 30.77 30.70 29.87 28.07 26.44 25.56 25.71 26.02 27.57 29.73 33.36 32.66 30.66 29.48 28.35 27.50
43.83 43.42 42.38 40.59 38.44 36.58 34.25 33.36 32.06 31.54 31.85 30.60 30.04 30.48 30.57 30.67 30.46 29.58 28.87 28.21 27.60 27.47 27.39 26.44 25.96 25.48 29.13 33.76 35.56 33.90 28.37 25.66 24.67 24.39 25.79 26.35 30.11 29.84 33.51 33.46 33.80 32.83 29.44
43.63 42.70 41.89 40.50 37.58 35.37 34.04 31.72 30.85 30.84 30.42 30.13 30.24 30.53 30.74 30.36 29.14 28.62 28.02 27.30 26.00 25.52 25.56 25.24 25.02 24.58 24.28 33.71 34.67 34.79 27.33 25.11 24.49 26.07 25.94 26.55 29.09 30.12 27.66 30.94 33.32 33.34 34.85
42.99 41.93 40.08 37.47 35.70 32.96 31.86 30.92 30.85 30.41 30.03 29.59 29.85 30.39 30.43 29.28 28.72 27.41 25.86 24.86 24.91 24.81 24.38 24.93 24.54 23.33 25.64 32.91 33.66 34.07 26.27 24.90 24.65 25.70 25.32 25.15 25.77 27.25 29.74 30.46 30.03 27.33 26.28
41.34 39.62 38.62 35.71 33.53 32.11 31.38 30.76 29.38 29.01 29.11 28.77 29.35 30.13 29.60 28.01 26.72 25.10 24.14 24.56 23.87 23.78 24.17 23.95 23.07 22.01 22.88 31.47 32.65 31.91 25.68 25.18 24.68 25.48 25.80 26.08 27.90 31.63 34.33 29.53 25.59 24.35 24.28
37.06 35.42 34.59 33.60 31.81 30.19 30.89 29.88 28.15 28.28 28.14 29.09 28.76 28.14 27.44 26.18 24.78 24.00 23.59 23.69 23.39 24.34 23.87 23.48 22.86 25.93 22.28 29.18 32.19 31.53 27.42 24.58 25.59 25.92 26.30 31.56 30.35 33.22 33.25 27.67 24.76 20.69 22.20
33.13 33.77 33.60 31.51 29.53 29.69 30.54 28.48 27.63 27.10 27.71 28.00 27.24 26.64 25.73 24.74 23.91 23.21 22.77 22.65 21.79 22.10 20.99 21.94 21.39 21.51 23.22 24.41 31.88 32.63 28.86 27.25 27.59 27.00 26.60 26.84 32.10 32.06 31.50 30.61 23.72 24.30 28.25
31.52 31.84 30.56 28.87 27.90 28.95 29.52 26.85 26.14 26.05 26.49 26.42 25.58 24.34 23.56 26.13 25.30 22.67 21.83 21.21 20.64 20.21 20.04 20.19 21.01 22.98 22.43 28.98 30.32 32.42 32.73 32.49 26.84 26.46 26.79 28.35 31.07 30.23 29.35 27.35 28.92 29.66 27.84
29.47 30.23 29.17 27.25 26.40 26.90 27.96 25.14 23.79 25.16 24.90 24.16 23.15 22.68 23.78 23.51 23.19 21.10 20.67 21.45 20.52 19.94 20.21 22.86 21.77 22.66 24.92 23.62 30.10 31.69 32.28 31.93 29.57 27.77 29.50 29.74 28.94 27.88 25.59 27.06 28.12 27.34 21.47
28.34 28.72 27.76 25.88 23.98 24.48 24.77 24.03 24.35 24.68 23.70 21.78 21.52 22.12 21.87 21.78 20.97 22.90 23.26 21.13 20.51 19.88 22.85 22.90 22.24 21.94 23.22 24.13 25.49 26.84 26.63 30.48 28.67 28.92 22.28 26.15 25.97 26.04 25.17 23.68 23.34 22.09 22.25
28.34 27.78 26.34 24.88 22.79 23.04 22.98 23.45 23.83 23.50 22.10 21.30 21.72 21.19 22.13 19.85 19.99 21.65 20.60 23.30 21.89 23.53 23.48 22.73 22.98 22.00 22.34 25.07 29.79 29.36 28.50 27.54 28.20 27.33 22.36 20.80 20.34 19.72 20.17 20.43 20.92 21.41 21.54
27.35 25.49 24.09 23.17 21.86 22.41 22.37 22.67 23.21 22.51 21.64 21.37 22.05 21.87 21.78 19.80 21.02 19.93 20.27 26.19 28.11 29.11 29.16 29.03 27.27 25.85 28.75 30.01 30.33 31.31 30.40 30.11 28.90 23.07 19.55 18.66 18.64 18.44 18.86 18.89 19.34 20.06 20.62

GFSMW_sfc_wetblb_006.txt.gz
Wetbulb
48.97 48.14 48.58 50.95 53.42 53.79 58.31 61.65 60.13 55.04 53.81 53.33 51.37 50.28 48.23 46.50 45.32 45.16 44.62 43.78 41.47 41.12 40.34 39.50 38.47 37.58 36.41 34.61 35.10 34.77 34.21 34.30 35.90 34.00 35.00 36.04 36.77 36.86 36.49 35.40 35.77 35.51 36.44
45.39 47.14 47.79 50.03 52.73 53.01 56.58 58.66 56.22 53.24 54.14 54.72 51.48 48.92 46.98 43.85 43.08 43.00 42.37 40.78 40.21 40.32 39.89 38.15 36.88 36.03 35.09 33.93 33.28 33.12 32.77 32.76 33.75 31.42 31.81 29.85 32.41 34.42 36.22 34.31 35.56 33.30 35.46
46.06 46.05 46.34 49.48 52.12 52.40 54.43 54.22 52.65 53.41 53.17 49.16 46.50 44.91 43.89 42.84 41.66 40.37 38.19 38.38 39.08 38.81 37.98 36.89 35.89 34.84 34.32 32.95 32.29 31.99 31.52 30.92 31.64 33.05 30.69 26.72 25.71 29.68 32.78 33.50 33.13 33.41 32.57
45.37 46.25 46.25 49.31 51.78 52.40 52.13 50.35 50.91 51.96 50.42 49.80 47.58 44.82 42.76 42.09 40.46 37.18 36.46 36.75 37.58 37.29 37.01 36.12 35.05 34.14 33.55 32.07 32.43 32.85 30.88 30.96 29.27 31.11 34.04 31.10 30.50 26.49 25.99 30.34 32.63 31.06 33.15
46.33 46.02 47.36 50.44 51.94 52.27 49.37 49.86 50.91 51.17 50.10 50.66 48.85 46.66 43.50 40.91 37.20 35.78 35.06 34.82 35.03 35.76 35.69 34.91 33.89 33.16 32.86 31.46 30.93 30.24 29.56 30.25 29.45 29.20 29.07 28.68 28.88 28.53 26.05 24.10 26.43 30.55 31.47
44.65 46.13 48.00 51.14 51.08 50.90 49.25 50.09 51.00 49.58 49.37 48.73 47.42 45.99 43.02 38.42 36.28 34.13 33.99 33.98 33.99 34.13 34.00 34.08 32.72 32.04 31.65 30.91 30.49 29.97 29.53 29.07 28.76 28.48 28.23 28.26 27.09 26.57 25.15 23.76 25.64 25.89 27.87
43.32 45.89 48.42 51.00 50.46 50.30 49.41 50.28 51.24 48.05 47.06 45.57 43.40 44.34 41.11 38.71 36.56 34.97 34.39 33.45 33.19 32.68 32.18 32.10 31.45 30.91 30.76 30.94 30.43 29.71 28.92 28.64 27.70 26.92 27.42 28.45 28.19 28.40 27.62 26.01 25.17 24.30 27.04
42.96 46.61 48.98 51.19 50.79 50.42 49.57 50.36 49.93 46.48 44.67 43.50 41.86 40.71 39.55 38.45 36.19 35.48 34.34 33.54 32.78 32.23 31.53 31.14 30.77 30.45 30.52 30.09 29.39 29.20 28.81 28.49 27.55 26.68 26.59 27.37 27.77 28.12 27.92 25.95 24.81 22.50 23.00
43.37 46.15 48.55 49.93 49.38 49.26 49.22 48.46 46.97 44.18 43.21 41.80 40.29 37.93 37.28 36.89 35.82 33.91 33.08 32.24 32.08 33.22 30.70 30.44 30.09 29.85 29.79 29.41 28.65 28.29 27.86 27.28 27.26 26.98 26.64 26.28 27.26 27.82 27.73 27.32 26.60 24.12 20.59
43.55 46.17 47.09 45.82 46.18 46.23 44.21 44.62 45.24 43.34 39.90 38.24 37.45 35.77 34.34 33.82 32.86 32.34 31.66 31.30 30.74 30.58 30.23 29.84 29.61 29.44 29.13 28.59 27.81 27.38 27.80 27.23 27.40 28.66 26.42 25.79 26.71 27.10 27.54 27.11 27.25 26.53 24.60
44.03 46.10 45.55 44.43 42.46 41.31 41.91 40.47 39.90 38.47 36.25 35.38 34.21 33.76 32.62 32.18 31.49 30.85 30.42 30.25 29.99 29.87 29.72 29.68 29.32 28.77 28.20 27.68 26.94 26.67 27.92 27.11 26.83 26.81 26.68 26.47 26.84 26.69 26.96 26.80 26.69 26.26 26.26
44.42 44.10 42.59 42.16 41.67 39.64 38.98 37.61 36.95 35.68 34.12 33.35 33.15 32.23 32.18 31.03 30.21 29.66 29.65 30.07 29.33 29.43 29.31 29.10 28.79 28.29 28.01 27.14 26.27 26.77 27.18 26.54 26.11 26.31 25.99 26.08 29.36 26.32 26.32 26.13 25.42 26.03 26.78
42.35 41.02 41.49 41.05 39.66 37.76 36.44 35.22 34.92 33.22 32.63 32.83 32.39 31.49 30.60 29.89 29.06 29.15 29.53 29.73 29.24 28.68 28.58 28.44 27.85 27.49 27.58 27.11 26.94 26.90 26.99 26.62 26.16 25.68 25.00 25.35 25.34 24.85 25.57 25.34 25.46 26.59 28.26
42.51 41.89 40.72 39.67 38.40 36.89 35.03 33.67 32.02 32.74 32.06 32.25 31.73 30.15 29.46 29.06 28.94 29.23 29.24 29.19 28.57 28.01 27.64 27.56 27.27 27.22 26.82 27.14 27.38 28.20 27.11 26.06 26.10 25.84 25.36 25.13 25.18 25.08 25.48 26.06 26.57 28.16 26.52
42.43 42.00 40.21 38.56 36.42 35.03 33.31 32.62 31.95 31.80 32.14 31.55 30.88 29.93 29.12 29.28 29.35 29.10 28.65 28.41 28.13 27.44 27.37 26.95 26.24 25.75 26.84 29.71 29.52 29.44 27.63 25.18 24.40 24.55 25.03 26.01 28.35 32.45 31.72 29.70 27.57 27.27 26.59
43.30 42.20 40.78 38.60 36.71 34.64 32.89 32.53 31.31 31.00 32.09 31.30 29.57 29.49 29.55 29.68 29.04 28.22 27.65 27.94 27.29 26.58 26.24 25.30 24.94 24.36 28.16 32.88 35.20 33.76 27.42 25.46 24.70 23.43 24.67 25.08 29.25 28.51 33.34 33.36 33.79 32.99 31.19
43.03 41.79 40.38 38.92 35.99 34.03 33.23 31.48 30.72 31.25 30.71 29.77 29.41 29.59 29.82 29.04 28.01 27.46 27.43 27.03 25.27 24.62 24.01 23.79 23.62 23.00 23.15 32.84 34.47 34.69 27.77 25.51 24.15 25.56 25.81 26.20 28.45 29.32 26.57 30.56 33.35 32.88 32.44
43.10 41.63 39.59 36.26 34.08 32.57 31.02 30.56 30.76 30.14 29.71 29.03 29.11 29.59 29.09 27.85 27.27 26.56 25.61 24.48 23.70 23.21 23.02 22.77 22.63 22.04 24.63 32.47 33.28 33.80 26.93 24.93 24.54 25.67 24.81 24.36 25.08 26.44 29.57 30.06 29.82 25.96 25.03
42.04 40.14 38.63 35.44 33.17 31.64 31.15 30.50 29.29 29.08 29.08 28.19 28.41 28.74 28.34 27.02 26.11 24.65 23.70 23.05 22.52 22.10 21.67 22.51 21.77 21.03 22.08 31.08 32.32 31.73 25.95 25.68 25.07 25.75 25.31 25.30 26.68 31.40 33.70 29.85 25.80 24.67 23.95
37.83 35.97 34.56 33.17 31.44 30.11 30.95 29.75 28.26 28.29 27.66 27.84 27.63 27.59 27.07 25.70 23.87 23.23 22.55 22.27 21.53 22.92 23.21 23.14 22.16 25.09 21.47 28.93 31.75 31.37 27.20 24.74 25.73 26.25 26.59 30.84 30.20 32.81 33.49 28.02 25.07 21.28 22.33
33.66 33.88 33.66 30.94 29.09 30.07 30.51 28.20 27.64 26.63 26.84 26.96 26.34 25.37 24.67 23.64 22.80 21.89 21.22 20.42 20.36 21.42 20.16 21.39 20.89 21.22 23.00 24.04 31.34 32.25 28.31 26.87 27.30 26.06 26.78 27.30 31.52 32.23 31.50 30.57 23.72 24.06 28.16
31.51 31.73 30.20 28.34 28.25 29.66 29.89 27.16 25.22 25.13 25.65 25.32 24.21 23.20 23.02 25.42 23.94 20.93 19.96 19.96 19.75 19.50 19.30 19.81 21.01 22.84 21.85 28.16 29.82 31.90 32.29 31.94 27.21 27.06 26.81 26.96 31.09 30.17 29.14 27.21 28.73 29.60 27.81
29.99 30.41 28.92 27.44 26.66 27.21 28.36 25.01 22.78 24.51 23.86 22.89 22.15 22.49 22.57 22.58 22.32 19.93 19.66 20.70 19.74 19.46 19.80 22.45 21.41 22.05 24.71 23.29 29.59 31.13 31.89 31.88 29.50 27.28 29.43 29.79 29.02 27.64 25.27 26.71 27.75 26.90 20.88
28.42 28.92 27.89 25.81 23.97 24.40 24.10 23.80 23.63 23.64 22.69 21.04 20.98 21.33 22.30 20.30 19.70 22.62 22.62 20.72 20.05 19.40 21.84 22.23 21.85 21.32 22.68 23.44 25.05 25.83 26.13 30.65 27.93 28.76 22.86 26.27 25.67 25.56 24.72 23.00 22.61 21.48 21.62
27.88 27.73 26.29 24.69 22.59 23.29 22.67 22.73 23.02 22.70 21.49 20.71 21.12 21.16 21.12 19.10 19.16 21.22 19.98 22.67 21.00 21.99 22.76 22.20 22.43 21.51 21.77 24.70 29.30 28.87 28.56 26.96 27.92 27.06 22.18 20.18 19.74 18.98 19.30 19.76 20.37 20.82 20.93
26.68 25.32 24.36 23.15 21.79 22.29 21.89 22.00 22.46 21.90 21.10 20.79 21.72 22.39 20.83 19.25 20.63 19.45 19.70 25.73 27.37 28.68 28.66 28.48 26.68 25.33 28.00 29.41 29.75 30.75 29.92 29.67 28.52 22.70 18.86 17.95 18.12 17.74 18.09 18.21 18.66 19.47 19.95

GFSMW_sfc_wetblb_009.txt.gz
Wetbulb
52.46 53.50 52.68 53.43 54.62 57.09 59.31 63.23 63.14 60.97 59.03 57.07 53.82 52.19 49.56 48.23 47.28 47.12 46.38 45.78 45.17 45.76 45.15 43.78 43.15 42.92 41.60 40.80 40.81 41.58 40.33 39.80 40.97 40.40 41.58 43.03 43.75 45.13 45.44 42.83 43.82 41.52 41.77
50.96 51.92 51.77 52.61 54.61 56.68 59.99 62.05 61.85 58.46 58.80 58.00 57.10 53.84 49.33 46.10 45.17 44.97 44.30 44.12 44.52 44.68 43.92 43.21 41.90 41.57 40.76 40.06 39.71 39.79 39.85 39.03 39.63 37.40 38.41 36.81 40.30 42.08 41.27 41.98 41.59 40.34 41.01
49.38 51.51 50.77 51.86 54.21 55.84 59.02 60.37 58.12 57.64 57.95 54.57 51.29 46.00 44.52 43.77 43.00 42.48 42.17 42.52 43.87 43.11 42.59 41.98 41.29 40.49 40.62 39.05 38.65 38.84 38.42 37.23 38.15 38.35 37.37 35.19 34.14 35.08 39.72 40.49 41.04 39.16 38.80
49.34 51.24 50.68 50.52 53.23 55.65 58.24 57.63 56.23 56.95 53.39 53.02 50.78 48.50 48.58 45.41 44.28 42.20 41.44 42.00 42.38 41.70 41.28 40.81 40.35 39.74 39.25 38.61 38.20 37.91 37.81 38.14 35.62 38.04 37.09 37.36 36.61 32.86 32.17 37.77 37.97 38.06 36.63
48.99 50.16 50.58 51.56 53.10 54.95 55.59 55.09 55.07 54.40 52.02 52.10 51.86 48.36 45.95 44.93 41.77 40.45 40.46 40.31 40.40 40.60 39.98 39.75 39.27 38.69 38.27 37.54 37.52 36.98 36.83 36.85 36.29 35.64 35.60 35.65 35.52 35.83 32.95 29.99 33.43 35.47 36.75
48.59 49.83 50.64 51.28 53.23 54.40 53.02 53.57 53.35 53.25 51.64 50.85 50.21 47.70 43.37 41.55 39.51 39.44 38.97 38.96 39.10 38.89 38.63 38.10 38.00 37.67 37.42 37.18 36.89 36.63 36.33 35.85 35.44 35.58 35.04 34.45 33.15 32.69 31.56 30.19 31.39 31.38 33.90
46.84 46.99 48.54 51.01 52.89 52.92 51.93 52.71 53.12 50.78 51.45 50.89 48.22 46.57 44.11 43.15 41.44 39.99 39.25 38.14 37.74 37.58 37.16 37.26 36.91 36.64 36.74 36.44 36.70 36.30 35.77 35.38 35.20 34.51 34.66 34.66 33.95 34.03 32.81 31.47 30.49 29.56 31.94
46.23 46.20 48.95 51.52 52.97 52.94 51.83 52.95 51.84 49.67 49.60 47.38 46.68 45.35 43.56 42.18 41.35 40.41 39.55 38.98 38.49 37.49 36.77 36.17 36.22 35.93 35.99 35.90 35.78 35.98 35.78 35.27 35.13 33.69 33.96 33.90 34.17 33.92 33.32 31.74 29.67 27.78 29.98
45.66 46.56 48.84 51.55 52.84 52.29 51.88 52.68 51.72 49.35 46.83 45.07 43.30 41.72 41.26 41.28 40.35 39.46 39.10 38.04 37.29 36.18 35.75 35.91 35.48 35.37 35.36 35.08 34.82 35.17 34.70 34.50 34.59 34.27 33.96 33.14 33.75 33.80 33.72 33.29 32.11 28.84 24.86
44.62 46.24 48.80 51.07 52.29 52.68 51.68 52.30 50.75 47.06 45.05 43.23 43.44 41.97 40.89 40.41 39.04 38.16 36.94 36.59 36.03 35.48 35.20 35.02 35.00 34.76 34.59 34.32 34.17 34.09 34.03 33.81 34.31 34.26 33.11 32.95 33.11 33.12 33.46 33.06 32.51 31.43 28.49
44.17 46.30 48.85 49.86 50.63 49.83 49.97 49.05 45.92 43.36 41.75 41.76 40.51 39.62 38.29 37.55 37.16 36.53 35.59 35.26 34.99 34.87 34.66 34.49 34.16 33.98 33.73 33.58 33.50 33.16 33.44 32.83 32.91 33.11 32.32 31.67 32.25 31.95 32.29 32.61 32.18 30.90 30.26
43.91 46.80 46.34 45.26 46.56 47.14 46.42 46.22 43.18 41.27 40.06 38.91 38.26 37.19 36.40 35.73 35.14 34.57 34.43 34.72 33.99 34.35 33.97 33.75 33.45 33.13 32.81 32.63 32.29 32.32 32.82 32.26 31.55 31.36 31.05 30.66 31.19 30.59 31.14 31.03 30.32 30.33 30.98
42.41 42.59 43.55 44.53 44.35 43.17 42.14 42.08 39.98 37.00 37.04 36.87 36.16 35.38 34.77 34.59 33.81 33.56 33.77 33.67 33.44 33.12 33.15 33.17 32.59 31.99 31.79 31.75 31.88 32.33 32.77 32.05 31.36 30.80 30.09 29.62 29.52 29.01 29.81 30.30 30.11 30.48 30.48
42.02 42.21 42.15 41.72 41.32 40.52 39.52 38.31 36.52 36.69 35.95 35.60 35.21 34.28 33.92 33.70 33.47 33.19 32.97 32.78 32.89 32.61 32.45 32.06 31.49 31.07 30.92 31.16 31.69 32.85 32.94 32.04 31.32 30.65 30.26 29.76 29.29 28.92 29.84 30.25 30.31 30.50 30.00
41.75 41.51 40.46 39.20 37.88 36.99 36.74 36.33 35.24 35.31 35.44 34.50 33.98 33.04 33.03 33.19 32.89 32.31 31.97 31.98 32.26 31.84 31.64 31.03 30.36 30.24 30.69 31.67 33.68 34.23 33.21 31.82 30.63 30.48 30.24 30.48 31.15 32.85 32.98 31.76 31.20 30.68 30.45
42.27 41.22 39.75 38.20 37.40 36.96 35.64 34.83 34.06 34.01 34.94 33.89 32.39 32.56 32.70 32.53 31.64 31.39 31.13 31.34 30.95 30.74 30.45 29.58 29.19 29.04 29.89 32.61 35.09 34.91 33.27 31.69 30.18 29.43 30.26 30.44 30.98 31.06 33.10 33.25 33.71 33.53 31.85
42.39 40.57 39.41 38.26 36.25 35.40 34.85 33.72 33.36 33.88 33.30 32.39 32.23 32.36 32.29 31.14 30.65 30.54 30.66 30.11 29.54 29.55 28.80 28.59 28.30 27.88 28.17 32.81 34.36 34.45 32.80 30.90 30.31 30.18 30.10 29.88 30.51 31.71 30.18 31.87 33.51 34.51 33.27
42.35 40.89 39.13 36.25 35.00 34.77 33.42 32.85 33.30 32.78 32.17 31.82 31.82 31.88 31.07 29.90 29.70 29.78 29.33 28.90 28.80 28.26 28.01 27.58 27.17 27.08 28.00 32.16 33.08 33.52 31.87 30.83 30.52 30.46 30.14 29.44 29.57 30.41 30.95 31.49 32.22 30.31 29.73
42.94 40.62 38.99 36.18 34.73 33.59 33.40 32.46 31.86 31.80 31.69 31.15 30.96 30.77 30.31 29.19 29.14 28.40 28.01 27.81 27.74 27.24 26.71 27.09 26.72 26.35 27.78 30.88 32.00 32.26 30.84 30.09 30.04 30.42 30.36 29.90 30.10 31.88 33.50 31.34 28.87 27.73 27.47
39.54 37.23 36.13 34.71 33.14 32.32 33.08 31.94 31.06 31.24 30.17 30.23 29.68 29.97 29.63 28.87 27.91 27.51 27.05 26.40 26.51 26.81 27.10 26.77 26.79 27.22 26.62 29.29 31.47 31.77 30.35 29.14 29.16 30.21 30.38 31.10 31.04 32.59 33.43 29.72 27.66 24.79 25.32
35.51 35.28 35.19 32.82 31.40 32.47 32.73 30.54 30.25 28.92 28.89 29.04 28.57 28.03 27.99 27.07 26.84 26.26 25.94 25.37 25.53 25.40 25.03 25.84 26.45 26.59 27.17 27.91 30.97 31.80 30.32 29.42 29.33 28.77 29.08 29.60 31.49 32.34 31.58 30.60 26.74 25.69 29.12
32.37 32.50 31.07 30.01 30.93 31.97 31.40 29.08 27.24 27.74 28.09 27.85 27.10 26.58 26.84 27.72 25.93 25.26 24.70 24.59 24.48 24.31 24.39 24.90 25.95 26.97 26.79 28.63 29.83 31.50 31.96 32.04 29.16 28.78 28.81 29.41 31.36 30.32 29.26 27.94 28.52 29.62 28.64
30.42 31.18 29.79 28.69 29.23 30.43 30.22 27.04 25.86 27.07 26.45 26.17 25.26 25.34 25.64 25.56 25.35 24.58 24.15 25.18 24.31 23.83 23.99 24.90 24.72 25.04 26.75 26.88 29.38 30.87 31.46 31.57 30.20 29.37 30.12 30.04 29.08 27.73 26.15 26.68 27.83 27.03 23.24
29.37 29.91 29.15 27.48 26.12 27.19 27.60 26.58 26.24 26.24 25.75 24.79 24.69 25.13 24.53 23.64 23.83 25.50 25.31 24.53 23.94 23.66 24.49 24.46 23.95 24.35 24.92 25.83 27.27 28.51 29.32 30.76 29.22 29.48 27.92 27.06 26.02 25.63 25.27 23.92 24.03 23.49 23.16
29.26 29.49 27.90 26.08 24.59 25.52 24.92 25.58 25.29 25.71 24.34 23.89 24.20 24.31 23.53 23.16 23.32 24.18 24.10 25.42 25.25 25.67 25.68 25.06 24.92 23.80 23.64 25.80 29.42 29.31 29.17 28.54 28.77 27.99 24.52 22.32 21.56 21.01 21.25 21.74 22.13 22.56 22.43
27.48 26.57 25.87 24.64 23.78 24.20 23.77 24.01 24.65 24.89 24.02 23.58 24.53 24.24 23.58 23.23 23.64 23.09 23.31 26.37 27.45 28.10 28.00 27.89 27.16 26.55 27.97 29.01 29.49 30.45 29.69 29.34 28.20 23.97 20.57 19.78 20.11 19.46 19.59 19.48 20.17 21.05 21.69

GFSMW_sfc_wetblb_012.txt.gz
Wetbulb
56.54 57.69 59.07 60.16 60.20 60.51 60.91 61.91 63.98 66.15 67.06 65.87 63.84 59.83 57.93 55.62 54.13 51.92 51.20 49.83 49.06 49.96 51.10 49.85 48.65 48.17 46.87 45.72 45.28 45.45 44.28 44.02 44.46 44.73 46.82 47.40 47.93 48.90 49.43 45.95 46.72 45.56 44.92
53.98 55.84 57.38 58.86 58.83 59.92 61.27 62.65 64.74 65.93 66.39 65.15 64.77 62.74 58.77 55.91 53.52 47.62 46.87 46.83 47.37 48.79 50.19 49.21 47.71 46.87 45.85 45.03 44.51 44.52 44.28 43.63 43.39 41.57 43.13 42.27 44.24 46.00 45.97 46.08 44.66 43.67 43.96
51.48 53.87 55.58 57.26 58.58 59.34 60.98 62.87 64.55 65.15 65.20 64.70 63.60 59.13 53.67 50.15 45.45 44.00 43.80 44.81 46.46 47.63 48.54 47.71 46.69 46.04 45.73 44.15 43.97 43.66 42.69 42.00 42.76 41.97 40.97 39.85 39.72 39.50 44.54 44.10 43.67 43.27 42.51
50.84 52.06 54.22 55.48 57.32 58.87 61.29 63.48 64.25 63.90 64.32 63.42 58.20 54.99 55.39 52.47 47.53 45.05 43.10 44.45 46.04 47.36 46.80 46.19 45.84 44.99 44.59 43.66 42.61 42.53 42.40 42.48 40.51 42.88 40.85 40.83 39.76 37.00 36.73 42.36 42.08 41.76 40.90
50.82 51.68 52.58 54.23 56.76 58.81 60.67 63.12 63.48 63.11 62.35 59.25 58.44 59.40 56.92 53.47 46.23 42.96 42.73 43.76 46.04 46.21 45.40 45.19 44.69 43.84 43.39 42.82 42.32 41.81 41.62 41.84 41.26 40.18 39.75 39.86 39.64 39.27 36.69 34.94 38.47 40.50 41.41
51.07 52.08 54.38 54.90 55.80 58.75 60.36 62.16 61.91 61.85 59.33 57.96 60.00 58.54 54.46 46.29 41.81 42.52 41.87 43.56 45.12 44.49 44.10 43.81 43.72 43.21 42.56 42.06 41.80 41.49 40.68 41.31 40.74 40.41 39.55 38.22 37.19 36.91 36.32 35.21 36.16 36.20 38.69
50.33 51.31 52.74 54.18 55.16 57.01 59.05 60.79 61.15 58.92 57.58 56.30 56.07 53.35 49.94 45.38 42.92 43.63 43.62 44.71 43.81 43.25 42.67 42.81 42.31 42.16 41.76 41.42 41.36 41.12 41.05 40.54 39.80 39.07 38.81 38.71 37.88 37.89 36.87 35.47 34.88 34.49 36.85
51.26 50.78 52.43 54.13 55.16 56.65 58.18 59.56 60.09 57.10 56.48 56.17 52.45 48.98 45.71 47.16 45.42 46.16 46.41 45.74 44.80 43.71 42.82 42.19 41.66 41.01 40.70 40.54 40.72 41.09 40.95 40.35 39.77 38.31 38.45 37.99 38.13 38.10 37.21 35.36 33.67 31.74 33.94
50.29 50.64 52.37 53.79 55.48 56.62 57.60 58.47 59.33 58.08 56.39 54.65 51.23 48.20 46.42 46.88 46.20 45.58 46.84 45.70 44.32 42.09 41.69 41.37 40.59 40.39 39.99 39.77 39.88 40.50 39.68 39.15 39.19 38.49 38.47 37.67 37.77 37.73 37.45 36.76 35.71 32.64 28.70
49.70 50.79 51.26 53.46 55.62 57.15 57.64 58.51 58.60 57.05 55.03 51.81 49.65 43.70 46.25 46.37 45.13 45.69 44.60 43.43 42.17 41.13 40.67 40.27 39.98 39.59 39.27 39.25 39.25 39.22 38.84 38.09 38.95 38.01 37.31 36.95 37.11 36.72 36.66 36.11 35.57 34.78 32.07
49.49 50.35 50.77 53.24 55.62 56.82 57.16 57.24 56.72 54.86 51.74 49.16 43.13 43.35 43.00 43.34 43.56 44.42 43.31 42.13 40.99 40.36 39.83 39.47 39.08 38.79 38.56 38.58 38.58 38.11 37.70 37.02 37.21 37.26 36.17 35.40 35.85 35.02 35.13 35.10 34.64 33.76 33.33
49.30 49.90 50.67 53.17 54.76 55.40 55.93 55.73 54.29 51.76 49.29 43.55 43.25 41.99 42.55 43.29 43.31 42.15 41.37 40.80 39.67 39.72 39.06 38.62 38.40 37.94 37.57 37.62 37.16 36.62 37.08 36.43 35.88 35.78 35.16 34.41 34.23 33.48 33.97 33.73 32.92 32.89 33.46
48.71 48.54 49.14 50.91 52.80 54.24 54.59 52.07 50.67 45.79 43.90 43.10 42.57 42.95 43.23 42.72 41.36 40.26 39.80 39.60 38.98 38.32 38.14 38.19 37.48 36.80 36.44 36.35 36.20 36.14 36.50 36.54 36.05 35.42 34.44 33.80 33.09 32.30 32.88 32.71 32.69 33.13 33.05
47.84 47.46 48.33 50.33 52.25 53.27 51.03 45.88 42.06 41.39 41.66 42.25 43.72 42.26 41.75 40.88 39.89 39.18 38.67 38.33 38.13 37.75 37.46 37.16 36.37 35.79 35.61 35.32 35.22 36.16 36.61 36.58 36.01 35.31 34.50 33.75 32.70 32.28 32.42 32.68 32.93 32.89 32.37
48.08 46.67 47.06 48.55 49.49 46.91 43.11 39.99 38.48 39.07 40.97 42.13 41.58 40.10 39.78 39.31 38.52 37.95 37.35 37.32 37.54 36.89 36.80 35.88 35.37 35.33 35.05 34.82 35.61 36.66 36.55 35.85 35.14 34.86 34.37 33.92 33.51 33.32 33.82 32.87 32.28 32.07 31.09
47.18 46.24 46.06 46.46 44.46 40.37 38.99 37.82 37.41 38.64 39.56 40.64 38.83 37.83 37.80 37.66 37.17 36.78 36.52 36.63 35.87 35.86 35.35 34.71 34.27 34.16 33.74 32.56 34.64 35.26 35.21 34.94 34.03 33.12 33.46 33.84 33.65 33.37 34.11 34.06 33.87 33.15 31.26
46.35 45.15 44.62 43.59 41.37 39.38 38.18 37.16 38.10 39.36 40.24 37.71 37.47 37.23 36.96 35.89 36.03 36.10 35.94 35.25 35.09 34.97 34.20 33.83 33.63 33.09 33.03 32.54 33.93 34.39 34.36 33.91 33.28 32.92 32.75 32.54 33.02 33.52 32.26 32.56 33.79 34.33 35.30
45.88 45.03 42.19 41.00 40.42 40.46 39.60 39.30 39.41 38.63 37.65 36.87 36.48 36.48 35.86 34.83 35.20 35.26 34.46 34.27 34.44 33.80 33.91 33.19 32.72 32.32 32.21 31.61 32.87 33.63 33.89 33.45 33.20 33.08 32.84 32.30 32.24 32.30 31.86 31.72 32.47 32.23 31.97
46.56 45.24 42.70 40.55 40.18 38.87 38.86 38.52 37.75 37.54 36.82 35.84 35.54 35.42 35.06 34.30 34.27 33.69 33.48 33.31 33.32 33.35 33.04 32.65 31.69 31.26 32.05 30.71 31.91 32.72 32.74 32.48 32.45 32.81 32.98 32.52 31.66 32.55 33.50 31.87 30.79 29.64 29.90
42.42 40.22 39.15 38.98 38.60 38.23 38.63 37.28 36.09 36.25 35.23 35.06 34.56 34.88 35.10 34.12 33.47 33.18 32.70 32.05 33.08 32.25 32.37 31.58 31.63 29.95 30.75 30.63 31.39 32.14 32.07 31.27 31.42 32.25 32.56 32.86 32.16 32.94 33.49 30.91 29.01 27.36 27.52
41.45 40.39 39.94 38.61 36.93 38.12 37.85 35.90 35.61 34.06 34.27 34.46 34.13 33.64 33.86 33.28 32.92 32.27 32.17 31.96 31.95 31.45 31.23 30.66 31.41 30.80 30.54 30.49 31.16 31.68 31.45 30.84 30.28 30.53 30.34 31.30 32.31 32.63 32.04 31.32 28.45 27.18 29.37
36.39 37.19 36.00 35.26 36.23 36.96 36.48 34.18 32.17 33.34 33.42 33.29 32.40 32.13 32.21 31.35 31.60 31.46 31.13 31.04 31.09 30.35 29.93 30.00 30.47 31.11 30.78 30.24 30.32 31.36 31.77 32.06 30.00 29.45 30.36 31.06 31.82 30.87 30.26 29.10 28.96 29.94 29.62
35.53 35.97 34.83 34.51 35.63 36.22 34.41 30.53 31.30 32.84 32.59 31.93 31.01 30.81 30.92 30.62 30.86 31.12 30.58 30.88 30.15 29.29 28.79 28.51 28.49 28.86 29.69 29.99 30.16 30.96 31.82 31.95 30.48 30.38 31.00 31.39 30.19 29.09 27.79 27.97 28.51 27.98 26.53
33.00 33.96 33.38 32.59 32.57 34.02 32.94 31.71 32.17 32.74 32.02 30.62 30.21 30.20 29.98 29.92 30.39 30.32 30.21 29.97 29.09 28.60 28.02 27.68 27.20 27.81 28.18 28.74 29.65 30.09 30.62 31.30 30.44 30.41 30.30 29.28 28.05 27.51 27.12 26.77 27.00 26.73 26.24
33.19 33.06 31.55 30.80 30.07 31.44 31.18 31.39 31.73 32.38 30.82 30.17 29.85 29.89 29.91 29.84 29.46 29.06 29.42 29.26 29.65 28.82 27.64 27.60 27.43 26.45 26.06 27.64 29.65 29.97 29.49 29.75 29.59 28.97 27.46 25.68 24.99 24.42 24.69 25.16 25.57 26.04 25.77
31.81 30.88 30.49 29.87 29.63 29.87 29.44 30.13 31.30 31.49 30.40 29.28 29.47 29.57 29.38 29.20 28.87 28.77 28.76 27.25 27.08 27.68 27.61 27.57 27.35 27.67 28.50 28.95 29.47 29.89 30.24 29.64 28.96 25.74 23.92 23.33 23.52 22.81 22.89 22.63 23.05 23.94 24.57

GFSMW_sfc_wetblb_015.txt.gz
Wetbulb
55.66 58.04 58.82 59.54 59.43 60.96 61.18 61.74 61.87 63.55 64.82 67.14 67.92 66.46 65.02 65.02 64.22 60.98 58.02 55.89 53.49 53.68 53.83 52.59 51.08 50.73 49.12 47.76 47.51 47.14 46.05 45.22 45.28 46.61 46.98 48.36 47.41 48.98 49.37 49.13 46.61 46.67 45.81
53.44 55.20 57.12 58.64 59.31 60.13 61.25 61.31 62.12 63.73 65.57 68.11 67.73 65.76 64.39 61.98 59.59 55.61 51.92 50.57 50.16 51.18 51.73 51.89 50.42 49.29 48.16 47.19 46.81 46.74 45.83 44.99 44.35 41.79 44.73 43.45 45.06 46.24 46.46 47.02 45.92 44.83 45.54
51.15 53.26 54.86 56.74 59.50 59.76 60.72 61.31 62.58 64.67 66.46 67.40 65.97 62.82 59.41 53.59 52.56 50.89 48.82 47.55 48.36 49.46 50.27 50.79 49.26 48.78 48.58 46.60 46.07 45.64 44.43 43.56 43.99 42.91 41.33 40.17 40.34 40.05 45.65 45.41 44.78 44.52 43.96
50.46 51.67 52.88 54.92 57.63 59.78 61.68 62.19 63.48 64.97 66.28 66.82 64.46 61.08 56.00 53.01 53.17 49.37 46.67 46.07 47.45 47.60 48.88 49.07 48.42 47.66 46.81 45.81 44.61 44.30 43.91 44.37 41.69 43.39 41.57 41.31 40.24 36.78 36.54 43.78 43.77 43.93 41.55
51.25 51.48 52.40 54.12 56.04 58.80 61.12 62.51 63.50 64.64 65.56 65.24 65.27 61.36 57.83 58.43 53.01 46.90 44.62 44.63 45.29 46.78 47.29 47.73 47.32 46.36 46.01 45.01 44.20 43.72 42.86 42.56 41.72 40.86 40.28 40.30 40.63 40.19 37.06 35.06 38.87 41.25 42.36
50.67 52.08 53.26 54.18 55.15 57.89 61.08 62.25 62.98 63.75 64.97 64.93 63.15 59.39 60.28 53.37 47.75 44.72 42.77 43.37 44.17 45.40 46.82 46.48 46.28 45.60 44.56 43.84 43.38 43.17 42.46 41.77 41.12 40.71 40.11 38.79 37.52 37.26 36.90 35.52 36.07 36.12 38.97
50.24 50.96 51.88 52.98 55.04 56.36 59.35 61.51 62.47 62.69 63.67 63.19 60.68 60.87 59.63 51.56 47.82 45.56 43.56 42.88 43.53 43.96 45.05 45.52 44.47 44.19 43.93 43.31 43.04 42.45 41.76 41.26 40.45 40.02 39.36 39.46 38.64 38.71 37.54 36.10 34.95 34.28 36.90
51.36 52.11 53.03 52.45 54.99 56.97 58.95 59.92 61.51 62.06 62.05 60.90 60.93 61.24 54.04 51.65 48.32 45.80 44.14 44.99 44.48 45.65 45.11 44.71 44.23 43.17 42.48 42.15 42.08 41.83 41.49 40.93 40.47 39.84 39.64 39.03 38.95 39.13 38.13 36.03 34.09 31.39 33.18
50.53 51.38 52.96 53.49 53.74 55.94 57.31 59.68 61.06 62.11 60.51 59.65 58.53 54.31 51.54 48.44 47.03 46.22 45.63 46.04 46.20 45.17 44.24 43.62 42.55 42.09 41.69 41.46 41.05 40.90 40.08 39.81 40.00 39.50 39.62 38.79 38.97 38.88 38.27 37.38 36.05 32.68 28.30
49.27 50.90 52.24 53.26 54.27 56.38 57.75 59.60 61.05 60.44 59.56 57.41 52.02 49.78 47.38 46.43 46.76 46.48 46.04 45.24 44.58 43.77 42.87 42.21 41.73 41.10 40.79 40.51 40.03 40.02 39.76 38.68 39.46 39.26 37.96 37.72 37.86 37.45 37.28 36.46 35.85 34.71 31.77
49.32 50.59 51.75 53.19 54.37 56.74 57.88 58.85 60.32 59.10 57.97 53.33 49.34 47.13 45.79 47.08 45.14 45.28 44.48 43.35 43.36 42.69 41.75 41.22 40.77 40.24 39.97 39.68 39.11 38.96 38.66 38.00 38.17 38.37 37.66 36.36 36.62 35.69 35.28 35.07 34.54 33.40 32.89
49.09 50.71 51.24 52.93 54.12 56.38 57.52 58.11 59.44 58.22 55.62 51.50 47.52 44.97 44.54 44.14 44.28 43.39 43.23 43.02 41.95 41.86 40.95 40.48 39.96 39.56 38.91 38.50 37.97 37.60 38.02 37.30 36.73 36.82 36.95 35.78 35.76 34.34 34.29 33.82 32.99 32.58 32.95
47.36 49.56 50.78 51.94 54.30 55.96 56.84 57.33 56.90 54.63 51.11 46.77 43.64 43.09 42.43 42.56 42.45 42.26 41.46 41.98 41.06 40.16 39.79 39.68 39.08 38.24 37.54 37.21 37.31 36.94 36.79 37.01 37.03 36.65 35.62 34.85 34.22 32.88 33.02 32.86 32.35 32.86 33.60
47.00 49.61 49.83 51.07 53.47 54.49 55.27 54.71 53.28 51.17 46.69 43.91 42.48 41.43 41.42 41.42 40.82 40.27 41.10 40.40 39.85 39.12 39.10 38.73 37.77 37.00 36.48 36.25 36.20 36.66 36.91 37.25 37.25 36.72 36.04 34.86 33.87 32.67 32.33 31.83 31.93 32.53 31.37
47.84 48.98 48.59 50.35 51.96 51.79 51.59 48.28 47.41 46.12 44.39 42.56 41.42 41.65 41.36 41.06 40.65 40.03 39.52 39.33 39.34 38.63 38.15 37.04 36.46 36.05 35.74 35.61 34.78 36.01 36.21 35.85 35.64 35.68 35.30 34.99 35.22 34.76 34.43 32.75 32.15 31.55 30.20
46.33 48.37 48.46 49.35 49.65 47.07 44.58 43.22 42.93 42.17 42.44 41.37 40.60 39.89 39.87 39.72 38.81 38.24 37.66 38.07 37.47 36.95 36.39 35.80 35.04 34.70 34.77 33.15 34.63 35.11 34.16 34.28 34.08 33.44 33.70 34.07 34.62 34.42 35.10 35.31 34.98 33.52 30.26
45.95 47.47 47.54 47.91 43.99 41.32 39.72 38.69 39.77 40.12 39.18 38.31 38.09 39.60 38.33 37.77 37.44 37.38 37.39 36.72 36.20 36.13 35.22 34.41 34.15 33.85 34.17 32.73 33.80 34.55 33.33 33.03 33.49 33.13 32.85 32.72 33.51 33.85 32.66 33.40 34.18 33.84 34.82
46.34 46.41 46.41 42.21 39.23 38.91 38.75 39.12 38.29 37.94 37.58 36.56 37.98 37.42 37.56 36.42 36.71 36.81 36.11 35.51 35.60 34.80 34.09 33.57 33.43 33.20 33.61 31.53 32.82 33.70 32.67 32.96 33.26 33.26 32.99 32.21 32.08 32.48 32.39 31.47 30.93 31.70 31.52
46.49 44.47 41.28 39.37 38.33 38.56 38.23 37.81 37.82 38.46 36.39 35.06 36.32 36.07 36.60 36.18 35.84 35.17 34.69 34.54 34.00 33.39 33.07 33.02 32.76 32.25 32.43 31.46 31.89 32.51 31.60 31.65 31.89 33.00 32.88 32.65 32.03 33.54 34.28 31.30 29.54 29.22 29.08
40.95 38.59 38.38 38.29 38.47 38.36 38.85 38.14 36.79 37.71 36.16 36.19 36.37 36.80 36.66 35.70 34.69 34.10 33.25 33.21 33.28 32.32 32.38 32.05 32.48 31.79 30.86 32.18 31.55 32.02 30.90 30.01 30.61 31.48 31.92 33.69 32.62 33.90 33.85 30.80 28.51 26.17 26.73
39.78 39.61 39.52 38.70 39.32 40.49 40.23 38.17 37.53 35.72 36.06 36.26 35.69 35.54 35.23 34.23 33.78 32.96 32.83 32.67 32.12 31.98 31.80 31.32 32.20 31.98 31.82 30.99 31.59 31.79 30.37 29.80 29.59 29.54 29.73 30.93 33.20 33.10 33.35 32.51 28.35 26.98 29.03
39.05 38.86 38.42 38.38 39.49 39.49 38.34 35.77 34.11 35.08 35.07 34.34 33.35 32.94 32.82 32.86 32.94 32.23 31.97 31.74 31.44 30.91 30.75 30.58 30.73 31.78 31.70 31.72 31.22 31.28 31.97 32.38 29.79 28.99 29.99 30.35 32.37 32.46 31.82 30.15 30.13 30.63 30.40
36.34 37.78 36.91 37.00 37.33 36.41 34.79 32.03 32.70 33.37 33.29 33.02 32.28 31.59 31.65 31.75 32.21 31.80 31.29 30.72 30.56 29.69 29.43 28.91 28.66 29.10 30.12 30.23 31.39 31.55 32.21 32.24 30.51 30.57 31.09 31.94 31.40 30.99 28.85 29.07 29.88 29.79 26.39
35.98 36.44 35.91 34.34 32.70 32.92 32.78 31.94 32.27 33.33 33.18 31.56 30.73 30.90 30.59 30.85 31.03 30.92 30.72 30.21 29.35 28.74 28.17 27.83 27.34 27.72 28.17 28.59 29.32 29.16 29.69 30.86 30.49 30.29 29.25 29.42 29.75 29.23 28.34 27.17 27.00 26.40 26.23
35.71 35.06 32.57 30.52 29.86 31.22 31.44 32.88 33.83 33.87 31.71 31.15 30.79 30.58 30.71 31.04 30.38 30.08 29.83 29.06 29.67 28.29 26.94 26.86 26.35 25.56 25.15 26.95 29.49 29.20 28.51 29.15 29.49 29.17 26.63 25.47 24.91 24.22 24.36 24.73 24.94 25.25 25.42
33.00 31.27 30.33 30.05 30.40 31.34 31.93 32.81 33.56 33.04 31.45 30.05 30.19 30.51 30.30 29.97 29.44 28.93 28.67 28.80 27.83 27.71 28.09 28.00 26.95 26.71 28.29 29.19 29.31 29.58 30.25 30.45 30.11 25.90 23.36 23.00 23.04 22.61 22.69 22.49 22.59 23.42 24.22

GFSMW_sfc_wetblb_018.txt.gz
Wetbulb
52.15 52.64 54.09 54.60 54.27 54.69 55.57 57.41 57.62 58.05 62.35 66.50 65.91 66.33 64.54 64.52 63.95 60.66 58.59 54.45 52.12 50.41 49.98 49.56 46.72 45.73 43.44 41.96 42.31 41.44 40.61 39.27 39.13 39.32 40.00 40.87 41.99 43.07 42.84 42.92 40.62 40.90 40.38
48.95 50.59 52.08 53.36 54.59 54.36 54.29 56.06 57.03 58.37 59.35 64.30 66.92 66.18 64.39 63.37 59.39 56.70 53.48 51.06 50.25 50.30 50.57 48.82 45.29 43.73 42.58 41.99 41.30 40.81 40.29 39.21 38.50 36.03 37.14 35.61 38.49 40.15 40.81 40.00 40.59 38.45 39.21
47.57 48.71 49.27 51.43 53.27 54.93 54.51 56.13 56.79 57.75 60.30 61.72 65.32 61.35 56.77 54.83 52.31 49.91 46.28 47.00 47.29 48.13 49.66 48.12 45.14 43.46 42.86 41.04 40.25 39.59 39.05 37.98 37.81 37.46 35.66 33.04 32.46 33.31 37.57 38.50 38.13 38.33 36.85
47.04 48.34 49.02 49.13 50.58 54.56 56.16 55.70 56.87 58.13 60.85 65.28 62.64 58.82 57.41 52.58 51.34 49.13 48.53 44.67 45.79 46.65 48.27 47.41 45.63 42.72 42.06 40.14 39.30 40.39 38.30 38.29 36.06 37.40 39.01 35.55 34.40 30.88 30.15 35.57 36.45 37.00 37.58
46.27 46.55 47.24 49.04 49.82 50.12 54.56 56.36 56.78 58.63 62.41 64.75 62.25 58.53 54.00 54.52 49.30 46.27 45.80 43.98 46.24 46.64 46.98 46.52 44.72 41.64 40.97 38.93 38.92 38.32 37.40 37.18 36.32 35.53 34.93 34.47 34.32 33.67 31.06 28.83 31.73 34.79 36.14
44.56 45.75 47.07 49.03 48.83 49.40 51.02 55.44 56.82 58.51 61.65 64.16 61.91 58.89 54.93 52.77 45.17 44.51 43.71 44.89 45.17 45.17 43.64 45.49 43.91 40.45 39.63 39.01 38.40 37.93 37.33 36.54 36.09 35.78 35.24 34.31 32.68 31.68 30.69 28.95 29.16 29.92 33.00
43.43 45.40 47.45 48.33 48.74 48.89 49.90 55.50 56.75 58.69 60.97 62.28 62.07 58.64 56.01 48.76 44.03 43.29 43.73 43.09 43.30 43.60 44.05 43.80 42.64 39.19 39.39 39.31 38.84 37.73 36.97 36.21 35.03 34.39 34.34 34.69 34.12 34.27 32.94 30.97 29.54 28.49 31.14
43.80 46.07 46.74 48.75 48.93 49.70 51.40 54.42 56.62 58.26 60.05 61.64 58.61 57.02 50.52 46.49 45.13 44.58 43.35 43.44 43.34 43.32 43.72 42.55 39.92 38.77 38.85 38.38 37.94 37.10 36.63 35.75 34.84 34.07 34.07 34.30 34.22 34.53 33.63 31.61 29.05 27.72 27.49
44.83 44.43 45.73 48.19 49.22 49.09 51.41 54.74 57.72 58.62 59.94 60.43 57.50 53.40 49.01 46.70 45.16 44.76 44.13 43.92 43.53 43.43 42.73 41.40 37.87 37.53 37.59 37.42 36.85 36.08 35.32 34.78 34.45 33.88 33.58 33.37 33.87 33.60 32.91 32.29 30.98 27.47 25.02
44.49 44.91 46.48 47.86 49.40 49.78 50.84 54.84 57.81 58.74 59.70 59.00 56.89 50.44 47.72 46.03 45.05 44.76 44.18 44.14 43.19 42.88 41.18 38.79 37.06 36.77 36.63 36.39 36.00 35.26 35.36 34.26 33.85 34.62 32.91 32.44 32.64 32.03 31.76 31.06 30.63 29.30 26.51
43.56 45.29 46.54 47.61 49.27 49.55 51.19 53.11 55.99 57.35 58.14 49.92 49.66 47.94 45.25 45.60 45.47 45.02 44.20 42.48 42.24 41.40 40.12 37.27 36.48 36.10 35.85 35.93 34.97 34.56 34.93 33.99 33.71 33.24 32.99 32.49 32.33 31.00 30.26 29.67 29.33 28.25 27.48
43.40 45.42 46.04 47.09 48.53 48.76 51.41 53.27 56.85 57.31 49.88 47.92 46.60 45.18 45.88 45.32 44.50 42.92 42.10 41.76 40.78 40.20 39.50 36.74 36.56 36.05 35.89 34.61 34.30 33.31 33.75 33.55 32.45 32.41 32.14 32.02 34.43 29.53 29.24 28.33 27.56 27.16 27.34
42.49 43.07 46.10 47.67 48.85 50.09 53.70 55.01 56.34 52.23 47.74 46.71 45.26 44.77 43.94 43.05 42.32 41.23 40.99 40.81 39.62 38.47 36.16 36.00 35.98 35.44 35.35 34.66 33.77 33.02 32.90 32.96 32.35 32.14 31.17 30.83 30.24 28.24 27.75 27.30 26.82 27.71 30.66
44.51 44.58 46.29 47.23 48.71 51.45 53.11 53.71 48.47 46.70 44.61 42.89 43.52 42.54 42.53 41.64 40.42 39.61 39.67 39.28 38.18 37.32 35.29 35.07 34.88 34.91 35.16 34.75 33.77 33.45 33.00 32.25 32.87 33.16 32.16 30.93 30.03 28.79 27.37 28.27 27.43 29.29 27.44
43.91 45.38 46.18 46.76 48.40 48.17 48.38 47.39 44.35 43.13 41.17 41.18 41.34 40.58 40.54 40.15 39.32 38.29 38.06 38.05 37.55 35.12 34.48 34.10 34.02 34.22 33.97 34.74 32.61 33.32 32.52 30.99 30.51 30.73 31.22 31.14 33.01 35.73 34.38 31.98 28.27 28.46 27.44
44.33 45.68 46.72 46.72 46.48 44.51 43.59 44.23 42.41 41.67 41.80 41.51 39.28 38.86 38.48 38.50 37.38 37.31 36.66 36.06 34.15 32.95 34.47 33.84 32.78 32.33 34.15 35.10 34.97 34.26 31.21 30.47 28.90 28.21 29.01 29.99 33.30 32.65 35.51 35.42 35.45 33.77 29.51
44.38 44.40 46.57 42.56 41.05 40.10 40.80 40.54 40.98 41.40 39.60 38.28 37.70 37.34 37.48 36.54 36.38 36.01 34.75 33.44 33.02 33.48 32.40 31.82 31.60 32.00 31.78 34.31 33.58 34.15 30.59 29.03 28.01 27.90 28.48 29.44 32.26 32.20 29.29 32.35 34.12 33.19 34.42
44.59 45.34 41.08 38.78 38.24 38.66 38.53 38.04 37.89 37.45 36.97 36.34 36.50 36.80 36.32 35.47 35.50 34.49 33.71 33.42 32.32 31.40 30.79 30.99 31.84 31.53 32.45 33.20 32.79 33.48 28.85 27.56 27.63 27.74 28.05 27.29 27.24 28.46 30.73 29.13 26.79 27.82 28.56
40.36 39.06 38.03 37.52 37.66 37.40 37.38 37.22 36.76 36.96 36.19 35.89 36.42 35.81 35.63 34.81 33.97 33.13 31.25 31.55 30.83 30.86 31.21 31.39 30.48 28.56 27.80 32.23 32.07 31.49 27.31 26.40 25.89 28.17 27.95 28.39 27.65 32.86 34.61 30.18 24.64 26.79 26.53
37.42 36.99 37.79 38.01 37.42 37.79 38.70 37.40 35.69 35.76 35.07 34.97 35.35 35.28 34.94 33.85 31.43 31.21 29.60 31.08 31.61 30.42 30.31 29.07 27.96 30.97 26.40 32.04 32.11 31.01 27.70 24.68 25.07 26.24 27.31 32.38 31.23 33.72 34.20 29.76 27.75 24.46 24.72
37.92 38.47 37.81 36.75 37.71 39.34 38.67 36.46 36.11 35.20 35.68 36.00 34.67 33.57 32.74 31.86 31.31 31.25 31.01 28.83 27.51 27.35 26.54 26.68 27.09 27.02 27.53 26.61 32.08 32.05 27.72 26.15 25.95 25.61 25.76 26.98 32.57 33.29 33.64 33.40 26.50 25.79 28.57
38.86 38.97 38.38 38.46 38.89 38.11 35.39 32.91 31.59 32.31 32.79 32.58 31.79 31.31 31.79 32.20 30.53 27.26 26.96 26.87 26.30 25.78 25.17 24.71 24.64 25.55 25.45 31.33 30.92 31.99 31.95 31.91 26.47 25.57 26.17 26.33 32.34 32.53 32.18 30.45 30.63 31.14 30.90
35.32 35.88 33.94 32.48 32.87 32.80 31.68 29.57 29.94 31.22 31.73 31.11 30.06 28.57 28.31 28.30 28.11 26.86 26.03 25.23 25.61 24.40 23.68 24.05 22.76 23.07 25.31 24.51 31.43 31.68 31.76 31.30 28.21 27.07 29.97 31.58 31.46 30.74 28.39 29.35 30.32 29.62 22.90
33.08 32.47 31.35 30.24 29.77 30.38 30.24 30.83 32.22 32.32 30.66 27.89 27.11 26.58 26.33 26.56 26.65 26.40 25.56 23.88 23.11 22.32 22.78 22.45 21.78 21.73 22.45 22.74 24.22 25.90 24.92 29.01 27.97 29.29 24.98 28.74 28.87 29.07 27.55 25.61 24.63 23.13 23.47
32.42 31.91 29.78 28.37 29.01 30.93 30.36 32.27 31.95 30.78 28.03 26.82 26.03 26.25 26.42 25.21 23.82 24.22 23.58 23.79 23.70 24.05 22.13 21.90 22.15 20.42 20.02 23.49 28.56 28.16 26.40 25.75 28.71 28.75 23.80 22.14 20.93 20.76 21.64 21.95 22.11 22.50 22.73
29.82 29.32 29.36 29.61 30.26 31.08 31.02 30.54 30.21 29.08 27.73 25.64 25.20 24.88 23.82 23.89 23.62 22.52 22.39 29.11 28.36 28.41 28.24 28.12 25.78 24.35 27.28 28.99 29.28 29.40 30.03 30.85 30.59 24.82 20.19 18.51 19.01 19.71 20.45 20.60 20.82 21.59 22.29

GFSMW_sfc_wetblb_021.txt.gz
Wetbulb
49.71 50.13 50.93 51.33 50.89 51.57 51.80 54.23 60.65 65.95 66.87 65.99 65.16 65.28 64.91 64.07 63.86 63.61 59.41 54.47 52.40 51.31 49.24 46.59 44.69 43.84 42.35 40.83 40.77 40.01 38.57 37.68 36.97 37.19 38.27 39.78 40.38 41.05 41.43 40.91 38.88 39.50 39.27
46.73 48.81 49.50 48.99 50.75 52.07 51.86 51.88 56.01 63.51 66.25 66.16 65.95 66.04 64.86 61.96 61.89 58.15 55.38 53.40 51.91 50.09 48.11 46.68 44.69 42.77 41.23 40.43 39.99 40.19 38.68 37.53 36.49 35.29 35.90 34.41 37.19 37.82 38.69 38.33 39.13 36.77 37.54
44.75 45.90 46.62 48.12 48.15 49.87 51.54 52.84 53.67 56.73 65.28 65.91 65.10 59.55 56.46 53.73 51.93 53.49 51.84 50.76 50.77 49.35 46.91 45.57 44.22 43.96 41.33 39.72 38.70 38.45 38.74 36.67 36.45 35.24 35.48 32.68 32.38 31.82 35.83 36.51 36.23 35.96 35.20
46.43 46.98 46.59 45.90 46.63 47.59 50.97 52.38 54.38 55.01 57.49 64.89 64.00 61.65 60.73 57.61 52.50 50.18 47.74 49.12 49.05 47.65 46.21 44.97 44.14 44.33 41.25 38.93 38.28 39.13 37.19 37.46 35.20 36.25 37.48 34.21 33.45 30.48 29.93 33.87 34.44 34.89 35.59
43.47 44.16 45.09 46.60 47.91 46.79 48.89 51.79 52.85 54.65 56.86 64.23 63.02 62.37 60.36 52.76 49.36 47.35 46.20 47.54 47.39 47.01 45.42 44.67 43.34 43.40 41.97 37.86 37.87 36.80 36.29 36.20 35.31 34.79 34.13 33.51 33.15 31.89 30.16 28.23 30.84 32.89 34.16
42.38 43.55 44.87 46.02 46.03 46.42 45.75 49.65 51.86 53.52 60.41 62.95 61.71 61.69 56.48 48.06 46.47 46.63 45.00 46.61 46.21 46.07 46.30 44.91 43.13 42.30 40.22 38.81 37.15 36.42 35.96 35.49 35.18 34.88 34.38 33.63 32.13 31.00 29.78 28.00 27.69 28.36 31.08
40.19 42.79 45.59 46.46 46.73 47.19 47.81 47.52 51.62 52.68 60.71 61.90 60.09 57.05 54.00 49.73 48.32 46.85 45.98 45.25 44.84 45.15 44.33 44.15 41.83 39.42 40.46 37.88 37.34 36.45 35.55 34.95 34.23 33.64 33.47 33.73 33.17 33.21 31.90 29.96 28.24 27.21 28.91
40.76 43.97 46.37 46.42 46.36 47.22 48.01 48.14 49.76 52.48 59.86 61.17 59.15 56.29 52.90 49.16 48.02 47.84 46.98 46.16 45.28 44.85 44.56 42.83 41.77 40.98 40.27 37.39 36.67 35.85 35.25 34.49 33.92 33.20 33.27 33.50 33.38 33.52 32.71 30.87 28.28 25.42 26.07
40.67 44.57 45.79 46.10 46.47 46.84 47.22 47.83 49.71 53.76 58.90 60.96 58.99 55.06 49.73 47.48 46.17 45.68 45.48 46.05 45.14 44.83 43.80 42.10 40.98 39.95 39.24 36.58 35.90 35.04 33.95 33.51 33.33 32.89 32.88 32.61 32.88 32.42 31.57 31.00 29.91 26.59 22.85
39.23 42.36 44.81 46.01 46.63 46.82 47.22 47.84 50.38 55.78 58.07 57.35 56.40 50.75 47.80 47.06 45.53 44.03 44.52 44.51 43.88 43.73 42.12 40.64 39.46 38.42 37.86 35.54 34.97 33.66 33.60 33.21 32.81 33.42 32.07 31.42 31.62 31.06 30.71 29.92 29.26 27.91 25.17
42.39 43.66 44.79 45.81 46.47 46.85 47.02 47.67 52.16 55.91 55.90 53.57 50.03 48.31 47.24 46.03 45.23 44.26 44.19 43.93 43.77 42.27 40.63 40.14 39.11 38.07 35.61 34.36 33.90 33.47 33.46 33.00 32.69 32.29 32.09 31.78 31.46 30.44 29.66 28.51 27.91 26.80 25.59
42.83 42.43 43.77 45.26 45.62 45.98 46.73 47.83 51.26 53.75 49.94 49.21 47.63 46.86 46.50 45.71 45.08 44.32 43.77 43.45 41.62 41.38 40.26 39.49 38.19 36.90 34.75 33.66 32.83 32.64 32.70 32.25 32.14 31.97 31.38 31.24 33.63 28.92 28.36 27.42 26.34 25.53 25.80
44.03 43.04 43.48 44.96 45.71 45.94 46.93 50.00 51.64 47.24 46.70 47.48 46.59 45.73 45.11 44.72 43.81 42.53 42.01 41.78 40.59 39.49 39.47 37.90 36.44 35.58 33.75 33.02 32.22 32.27 32.26 32.75 31.89 31.29 30.33 30.19 29.40 27.82 27.07 26.43 25.74 26.45 29.25
44.08 44.00 44.04 45.35 45.55 47.64 49.20 48.28 46.05 45.93 45.44 46.26 45.58 44.25 43.61 42.28 40.85 41.00 40.16 40.06 39.65 38.43 37.13 36.67 35.65 34.14 33.56 33.40 33.03 33.58 33.04 31.84 31.72 31.29 30.85 29.93 28.91 27.65 26.71 26.84 26.65 27.81 26.07
43.95 44.57 43.20 43.66 44.15 44.22 44.48 43.85 43.46 45.75 46.86 44.16 43.52 41.92 41.11 41.09 39.89 39.62 39.07 39.02 38.91 37.34 36.12 34.78 34.10 32.61 32.78 34.22 33.48 33.75 32.07 30.73 30.25 30.30 29.79 29.80 32.05 35.28 33.93 31.29 27.66 26.77 26.12
42.45 43.61 44.24 43.94 41.70 43.15 42.47 42.82 42.46 43.21 43.04 41.38 39.86 39.01 38.43 38.43 38.32 37.92 37.42 36.25 35.29 34.71 34.12 33.50 31.82 31.30 34.67 37.05 36.61 33.99 31.27 30.80 28.68 27.28 27.92 28.40 32.78 32.16 35.32 35.25 35.14 33.58 27.56
44.13 44.32 42.18 38.10 39.41 40.61 42.21 41.33 40.74 40.00 38.25 37.11 37.08 37.14 37.29 36.74 37.80 35.96 34.58 33.85 33.03 33.05 32.46 31.94 31.71 30.95 33.12 36.09 35.30 34.70 30.59 28.00 26.58 26.90 27.14 28.20 31.11 31.43 27.69 31.65 34.26 33.62 34.45
43.60 39.53 37.01 36.85 37.25 37.68 37.81 38.16 37.88 37.33 36.51 35.98 36.37 36.60 36.22 35.92 35.50 35.48 34.34 33.19 32.19 31.71 31.08 30.46 30.52 30.69 33.40 34.96 34.11 33.92 26.71 26.47 26.44 26.64 26.25 25.55 25.44 27.12 30.00 28.09 27.44 28.20 27.79
37.00 37.06 37.16 36.57 36.69 36.84 37.64 36.80 36.57 36.72 36.53 36.15 36.55 37.28 37.04 35.67 34.62 33.22 32.79 32.87 31.74 30.04 29.39 29.66 30.23 29.19 29.38 33.43 33.02 30.53 26.60 26.30 25.47 26.67 26.69 27.46 26.60 32.15 34.04 29.75 24.45 25.36 25.81
37.39 36.43 36.89 37.60 36.85 36.70 38.04 37.20 36.76 36.76 35.87 36.02 35.96 35.98 35.51 34.56 33.15 32.46 31.06 29.94 29.81 30.06 31.08 28.20 26.72 30.79 25.10 33.01 32.45 30.37 27.26 24.78 25.04 25.68 26.72 31.26 30.56 33.26 33.84 29.55 26.06 23.70 23.75
36.81 38.19 38.39 37.49 37.88 38.35 37.94 35.81 35.56 34.32 35.51 35.90 35.48 34.94 33.85 31.92 31.05 29.78 30.24 30.28 29.27 27.54 25.16 24.76 24.31 24.61 25.78 26.22 31.98 32.25 26.68 25.93 25.45 25.31 25.48 26.46 32.14 33.03 33.48 32.93 26.56 25.81 28.69
37.43 38.11 37.53 37.00 37.50 38.05 36.40 34.92 34.26 35.93 35.09 33.35 31.66 30.74 30.73 31.67 30.86 29.41 27.01 25.43 24.63 23.33 22.75 22.76 22.87 23.31 23.70 30.93 30.74 32.45 32.09 31.27 25.88 25.34 25.43 25.83 31.91 32.04 31.65 29.74 30.58 31.18 29.53
37.93 37.88 36.48 34.59 34.23 33.60 32.57 29.73 30.06 31.44 31.35 30.76 29.85 29.59 29.57 28.33 26.93 24.89 24.02 23.32 23.24 22.45 22.07 22.80 21.02 21.27 23.32 22.53 30.35 30.37 31.04 30.48 27.26 25.81 28.88 31.47 30.88 29.67 26.96 28.63 29.46 28.57 22.41
30.50 31.43 30.99 29.28 29.14 30.84 31.05 30.71 31.17 31.31 30.33 28.50 26.46 25.29 25.32 24.78 24.35 24.45 23.93 22.23 21.49 20.78 21.56 21.43 20.16 19.52 20.83 21.67 23.00 25.24 24.27 28.18 27.48 28.49 25.76 27.90 27.21 26.93 26.16 24.47 23.92 22.70 22.50
31.37 31.20 30.08 29.32 29.41 30.90 30.75 31.05 30.80 30.22 26.80 24.77 24.43 24.56 24.39 22.99 22.25 23.14 22.38 23.04 22.23 22.43 21.13 21.08 21.45 19.83 19.76 23.26 28.19 27.82 26.37 25.52 28.02 28.31 23.08 20.69 20.12 19.67 20.65 21.24 21.51 21.72 21.93
29.86 29.68 29.59 29.80 30.16 30.46 29.96 29.77 29.10 27.30 26.14 23.80 23.79 23.26 22.48 22.16 21.93 21.20 21.47 29.44 28.65 29.27 28.77 28.31 25.40 24.19 27.06 28.83 29.25 29.53 30.25 31.04 30.14 22.47 19.05 17.89 18.19 18.57 19.16 19.47 19.59 20.21 21.11

GFSMW_sfc_wetblb_024.txt.gz
Wetbulb
48.77 48.94 49.44 49.24 49.14 49.81 50.10 52.16 62.02 65.76 66.12 65.36 64.67 64.10 63.91 63.82 62.85 64.77 62.84 59.47 57.51 55.61 51.18 46.88 44.77 42.92 42.17 40.83 40.06 39.03 37.69 36.53 35.74 36.91 37.75 38.65 38.72 39.19 39.27 38.75 38.04 38.33 37.60
44.81 46.85 48.13 48.19 48.81 50.10 49.50 49.09 55.87 64.56 66.03 66.04 65.90 64.68 64.48 62.65 63.35 60.04 59.29 58.12 56.07 53.11 50.01 47.71 44.24 42.67 41.06 39.96 39.49 39.35 37.67 36.40 35.02 35.19 35.39 34.17 36.57 37.10 36.88 36.77 37.50 35.24 36.31
45.67 45.60 45.44 46.76 46.85 47.13 48.50 50.31 50.67 60.69 65.97 66.11 64.69 59.57 56.99 55.90 54.52 55.47 55.87 54.44 54.17 51.60 49.90 47.44 44.40 41.71 41.11 40.08 38.95 38.90 38.55 36.01 35.13 34.43 35.54 32.10 32.72 31.56 34.42 35.04 34.73 34.42 34.05
43.32 45.78 45.01 44.92 45.33 46.08 47.15 49.05 50.91 53.45 64.08 65.11 64.27 61.55 61.29 59.73 55.85 56.96 52.95 52.71 52.13 49.99 48.29 46.45 44.45 42.31 41.50 41.35 38.32 39.07 37.72 37.13 34.83 35.09 36.27 33.44 33.09 30.49 30.54 33.09 33.42 33.69 34.29
42.23 43.12 43.65 45.08 46.09 45.25 44.68 46.81 49.62 51.90 58.15 64.37 64.37 62.14 61.45 61.45 53.16 50.42 50.91 50.28 49.16 48.31 46.98 45.96 44.49 42.87 41.08 41.05 40.46 36.68 36.88 36.12 35.27 34.65 33.59 32.75 32.27 31.07 29.90 28.78 30.48 32.55 32.77
41.11 41.96 43.26 44.03 43.66 45.00 45.09 44.55 46.70 49.44 52.68 63.25 63.70 62.37 61.32 51.88 49.77 48.55 48.01 47.84 47.26 46.38 46.26 45.48 44.86 44.07 41.61 40.68 39.42 37.34 36.23 35.25 34.80 34.35 33.91 33.33 32.01 30.76 29.60 27.95 27.39 28.10 30.86
39.95 41.00 43.02 45.55 45.93 46.39 46.81 47.45 47.66 48.77 50.68 59.89 62.52 62.24 57.89 53.29 51.93 49.41 48.92 46.92 46.35 45.04 45.25 45.39 43.70 42.73 40.89 38.56 37.53 37.64 36.19 34.30 33.68 33.17 33.07 33.22 32.71 32.59 31.27 29.61 27.83 27.10 28.80
38.65 39.37 42.77 44.67 45.67 47.37 47.34 46.86 47.48 48.05 49.66 58.46 60.51 61.31 57.96 54.05 53.27 51.43 49.82 47.82 46.08 45.50 45.79 45.03 43.15 42.34 41.40 39.47 38.71 37.16 36.83 33.81 32.97 32.38 32.61 32.80 32.75 32.89 32.14 30.50 28.06 25.02 25.44
40.50 39.90 40.36 44.48 45.22 45.60 46.15 46.35 46.93 47.59 49.40 58.15 58.83 56.46 51.80 50.86 50.09 49.27 47.90 46.85 46.89 45.94 44.81 43.36 42.24 42.34 41.18 39.90 38.17 37.00 35.33 33.17 32.49 32.10 32.17 32.28 32.27 31.92 31.23 30.71 29.56 26.31 22.72
41.18 41.60 42.78 44.02 45.22 46.16 46.07 45.94 46.57 47.54 49.61 57.16 58.43 54.92 50.20 50.37 49.34 48.42 47.73 46.94 45.87 44.77 43.02 42.21 41.76 41.38 40.10 38.48 37.67 35.79 35.00 32.75 32.02 32.44 31.45 31.01 31.15 30.87 30.69 29.53 28.85 27.65 25.14
41.85 41.68 42.38 43.15 45.03 45.88 45.53 45.89 46.50 48.53 51.53 55.78 55.94 49.22 48.62 47.68 48.17 47.27 46.76 45.08 44.95 43.18 42.15 41.71 41.16 40.26 38.63 37.16 36.39 35.18 34.53 32.12 31.55 31.60 32.07 31.62 31.53 30.58 29.58 28.47 27.58 26.35 24.91
45.20 43.70 44.60 42.12 43.34 45.04 45.45 45.51 46.86 49.19 52.13 50.90 48.83 47.81 46.94 46.44 46.14 45.43 44.82 44.22 42.23 42.34 41.60 40.70 40.03 39.50 37.39 36.28 35.61 34.31 34.21 31.75 31.26 31.37 31.64 31.35 33.34 29.23 28.21 27.23 26.21 25.29 24.88
45.31 45.21 45.26 44.90 44.90 45.20 46.00 48.16 49.45 49.43 48.13 47.10 46.64 45.52 45.16 45.36 45.05 44.60 42.86 43.16 41.69 41.05 40.75 39.86 38.85 36.75 35.77 34.76 33.94 33.46 31.68 31.10 31.39 31.69 31.83 31.67 29.84 28.25 27.40 26.15 25.15 25.11 28.14
43.00 44.90 44.91 45.45 44.84 46.20 43.32 42.59 43.09 43.71 44.70 45.52 45.16 44.16 45.67 45.12 44.07 42.64 42.80 41.32 41.14 40.29 39.68 38.83 37.01 35.75 34.69 34.07 33.62 32.09 30.98 31.00 31.60 32.39 31.27 30.10 29.46 27.60 26.51 26.36 25.73 26.89 25.37
42.79 42.66 43.54 44.47 43.56 41.60 40.57 40.92 42.29 43.92 43.75 43.83 43.82 42.25 41.78 41.34 40.62 40.19 39.76 40.08 39.36 38.19 37.05 35.91 34.84 34.35 34.07 34.39 33.73 32.00 31.00 31.40 31.01 31.08 30.48 30.03 30.66 34.90 33.40 30.51 27.35 26.67 25.90
43.76 43.99 43.24 42.15 40.76 39.77 39.91 40.41 40.44 41.10 41.17 41.72 40.69 40.37 39.02 38.96 38.27 37.93 36.53 35.70 35.32 34.85 34.53 33.64 33.32 33.51 35.92 38.27 37.12 33.83 31.74 30.83 29.43 28.65 27.67 27.43 31.75 31.50 35.20 35.49 35.08 33.06 27.20
42.48 43.71 40.31 37.22 38.33 40.93 40.99 39.07 38.68 39.39 38.66 37.92 38.13 37.68 37.09 35.92 35.62 35.42 35.15 34.29 33.33 33.47 32.45 32.04 32.14 33.19 34.62 37.13 36.46 34.28 30.27 28.70 26.89 26.56 26.36 27.13 29.62 29.24 27.10 30.98 33.97 33.19 34.55
36.19 36.07 36.14 36.21 37.45 38.03 37.93 37.61 37.63 37.20 36.90 36.35 36.57 36.62 36.23 35.89 36.23 35.52 34.01 33.23 33.07 32.37 32.12 31.80 32.14 33.05 34.41 35.86 35.29 33.03 27.27 25.79 25.14 25.78 24.74 24.55 25.53 27.07 29.88 28.29 26.72 27.73 27.91
35.91 35.99 36.48 36.77 37.12 36.75 37.50 36.58 36.02 35.96 36.21 36.26 36.61 37.10 37.19 36.26 35.59 34.24 33.31 33.80 33.31 32.36 31.58 31.83 30.86 31.61 31.85 34.52 33.95 29.79 25.69 25.64 24.94 25.74 25.62 26.87 26.21 31.44 33.68 28.94 25.22 25.82 25.89
36.93 36.72 36.70 36.80 36.85 37.16 37.90 37.23 36.69 36.20 35.52 36.26 36.30 36.66 36.48 35.74 34.61 34.18 33.49 32.89 31.78 30.22 30.63 29.27 29.04 31.09 26.37 33.72 32.78 29.89 26.13 24.08 24.71 24.96 25.96 30.37 29.70 32.69 33.52 29.33 26.24 23.40 23.34
37.71 38.39 38.22 37.45 37.53 37.81 37.49 35.44 34.34 33.03 35.75 36.31 35.59 34.85 34.74 33.44 32.50 31.25 30.82 29.81 29.03 28.45 26.68 24.63 24.01 24.44 24.38 24.87 32.22 32.41 26.36 25.63 25.32 24.81 25.01 25.88 31.38 32.82 33.03 32.44 25.09 24.96 27.82
37.83 37.57 35.65 34.90 36.37 37.89 36.84 35.04 33.24 34.13 34.25 34.07 33.28 32.11 31.46 31.52 30.48 29.01 28.34 26.84 24.19 22.15 21.31 21.37 21.30 22.53 22.33 30.69 31.10 32.48 31.79 30.95 25.56 24.95 25.07 25.09 31.43 31.71 30.87 28.43 29.80 30.58 28.93
37.10 36.55 34.65 32.43 32.46 32.83 34.10 32.62 32.19 32.57 31.57 30.48 29.44 29.26 29.32 28.65 26.88 24.01 22.16 21.77 21.98 21.40 21.24 22.78 20.71 20.89 23.01 22.18 28.75 29.85 30.63 30.34 27.09 25.85 28.08 31.47 30.44 28.78 25.76 27.71 28.63 27.90 21.48
32.52 31.98 30.03 30.08 29.11 30.58 30.86 29.50 29.20 31.20 29.99 28.17 26.73 25.11 24.56 23.77 23.22 23.84 23.24 21.75 21.28 20.80 21.59 21.50 20.18 19.06 20.65 21.48 23.03 25.13 24.36 28.29 27.75 28.48 25.04 26.94 25.96 25.83 25.31 23.63 23.21 22.25 21.78
30.96 30.85 29.26 29.00 28.98 30.06 29.87 30.45 29.74 28.19 25.57 24.53 24.00 23.68 23.37 21.75 21.47 22.38 21.77 22.76 21.07 21.82 20.94 20.76 21.22 19.45 19.47 23.23 27.90 27.62 26.36 25.35 27.81 26.27 21.53 19.59 19.21 18.73 19.60 20.30 20.76 20.87 20.88
30.30 29.76 29.55 29.63 29.54 29.48 28.97 27.02 26.70 26.48 25.17 23.47 23.26 22.28 21.59 21.08 21.53 21.11 21.51 29.78 29.37 29.85 29.16 28.82 25.25 24.26 27.40 29.22 29.45 29.88 30.26 29.89 29.65 21.25 18.10 16.81 17.14 17.38 17.98 18.30 18.53 19.05 19.79

GFSMW_sfc_wetblb_027.txt.gz
Wetbulb
47.33 47.06 48.21 48.79 48.59 48.59 48.51 50.70 60.52 64.26 65.60 65.08 64.46 63.87 62.81 63.06 62.61 63.31 63.25 60.50 60.04 57.28 53.74 50.09 47.00 45.81 44.67 41.09 40.02 38.29 36.84 35.63 35.51 37.07 37.52 37.56 37.87 37.48 37.67 37.41 37.28 37.21 36.42
43.95 45.24 46.90 46.99 47.83 48.84 48.43 47.69 53.25 62.66 65.12 65.53 65.23 64.36 64.31 63.81 63.03 62.66 61.81 60.77 58.48 56.89 52.99 49.99 47.43 45.53 43.23 40.05 39.44 39.12 36.94 35.51 34.31 35.15 35.21 34.33 36.22 36.06 35.88 35.71 36.65 34.64 35.46
44.86 45.40 43.65 45.72 46.36 46.19 47.51 48.85 48.57 55.49 64.20 65.75 63.86 58.93 58.47 56.79 56.57 57.48 57.47 58.04 57.78 56.30 53.98 50.36 48.16 45.56 43.79 41.09 39.69 39.01 38.58 35.60 33.93 34.01 35.82 31.93 32.41 32.04 33.58 33.76 33.87 33.63 33.62
42.78 43.85 44.61 43.70 44.13 45.16 45.96 47.18 48.65 49.90 58.77 65.16 63.59 61.30 61.32 60.11 61.10 57.70 58.41 55.27 55.66 54.87 53.24 50.16 47.24 45.20 44.13 41.26 40.33 39.95 38.21 37.12 34.67 34.14 35.26 32.74 33.25 31.18 30.15 32.33 32.76 32.94 33.46
40.42 41.45 42.26 43.44 44.61 44.52 44.18 44.60 46.17 48.67 51.73 62.70 64.49 62.70 61.27 61.95 60.76 53.96 54.54 53.77 52.85 52.68 50.84 49.78 46.91 44.63 44.06 42.76 40.36 38.08 37.19 36.76 35.57 34.80 33.15 32.13 31.64 30.64 30.06 29.02 30.07 31.95 32.20
37.68 39.36 40.69 42.34 42.56 42.43 43.59 43.34 43.94 45.79 49.26 58.47 63.40 62.56 61.46 55.90 53.46 51.72 53.85 51.31 49.94 47.89 47.31 47.63 46.71 44.94 43.62 43.11 41.81 39.31 38.60 37.25 35.22 34.34 33.70 33.26 32.29 30.87 29.80 28.19 27.52 27.74 30.13
38.52 39.44 40.26 40.91 43.39 45.52 46.20 46.84 47.11 47.81 47.67 50.25 61.26 62.28 61.12 55.96 55.57 54.39 54.32 51.21 47.30 46.22 45.05 45.77 45.29 44.69 43.86 43.56 41.49 39.52 38.08 36.97 35.04 34.97 32.79 33.08 32.40 32.14 30.89 29.57 27.48 27.06 28.19
38.58 40.05 40.43 40.32 41.29 44.01 45.20 45.76 46.01 46.58 47.41 50.81 56.65 61.64 59.73 57.34 55.91 53.99 53.84 52.48 50.77 49.47 46.58 46.13 45.10 43.77 42.85 41.09 40.74 39.18 36.23 36.63 35.86 34.83 34.72 32.24 32.43 32.36 31.72 30.40 28.20 25.08 25.08
40.03 40.65 41.30 42.48 43.37 43.59 44.47 44.39 45.12 46.11 46.81 48.81 55.42 59.18 58.99 54.39 53.98 53.03 52.68 52.29 50.34 47.03 45.98 44.97 42.43 43.12 42.51 40.63 40.31 39.14 36.01 36.41 34.07 34.44 34.39 31.80 31.78 31.71 31.20 30.73 29.59 27.08 23.28
40.26 41.97 41.81 42.00 43.33 44.65 44.85 44.58 44.94 45.69 46.97 47.95 53.25 57.25 55.67 53.18 51.94 49.61 48.93 47.25 46.61 46.14 44.00 43.14 42.47 42.33 41.36 40.35 39.57 37.28 35.53 34.42 34.67 34.33 33.47 31.95 30.89 30.35 30.05 29.48 28.93 27.86 25.95
44.98 45.48 42.59 41.68 41.89 42.68 43.52 43.97 44.12 45.29 46.81 49.04 52.37 52.31 49.86 49.76 48.78 48.38 46.98 45.81 45.84 45.24 43.77 43.08 42.69 41.33 39.90 39.09 37.80 37.42 35.70 34.81 34.11 33.69 32.29 32.49 30.66 29.77 29.37 28.77 28.58 26.74 25.27
46.13 46.81 43.68 42.60 43.28 43.67 45.20 45.21 46.82 47.72 48.58 50.00 53.86 50.34 47.31 46.86 46.81 47.33 45.78 44.67 44.12 43.90 43.11 42.74 41.61 40.37 39.21 38.49 36.91 36.17 35.23 34.13 33.45 33.04 32.91 32.48 32.55 29.24 29.56 28.81 26.49 25.81 24.96
45.41 42.26 42.32 42.18 42.66 44.14 45.17 45.10 45.56 44.82 47.02 47.85 46.43 46.03 45.24 45.66 45.66 44.70 44.52 44.66 42.94 43.31 42.49 41.49 39.68 37.93 37.17 36.31 35.92 35.51 34.24 33.78 33.09 32.45 31.54 31.04 29.66 28.57 27.81 26.76 25.73 25.20 27.38
42.67 44.43 42.26 42.60 44.19 45.47 43.78 42.85 43.32 43.23 44.03 44.69 44.29 43.76 44.25 44.68 44.87 44.88 44.03 43.05 42.42 41.44 40.12 38.09 36.88 36.10 35.53 34.99 34.44 33.93 32.84 32.52 32.41 32.14 31.57 31.07 30.66 28.50 27.46 26.30 25.36 25.90 24.76
40.21 43.34 44.26 43.76 44.47 41.42 40.35 40.43 40.13 41.51 42.24 41.92 41.30 40.89 43.05 43.44 43.94 41.89 41.04 40.80 39.89 37.94 36.48 35.99 35.73 35.32 35.39 35.42 34.03 33.65 32.65 31.57 30.98 31.09 30.77 30.20 30.44 33.80 32.41 29.37 26.85 26.14 25.46
38.37 41.53 43.61 42.34 39.96 39.11 38.79 38.73 37.35 37.25 38.50 37.90 37.56 39.91 39.96 39.34 38.40 36.94 36.45 36.63 36.15 36.23 36.27 35.71 34.93 34.57 36.12 37.87 36.82 33.88 31.39 30.75 29.95 29.03 28.43 27.68 30.30 30.35 33.98 34.73 35.17 32.51 25.10
36.73 35.99 35.73 36.61 39.76 39.85 38.86 37.58 37.58 38.03 36.77 36.46 37.37 37.56 36.97 36.00 35.80 36.18 36.32 35.88 35.02 34.88 33.70 33.79 34.43 35.06 36.38 38.13 36.68 34.38 30.58 28.96 28.18 28.19 27.30 27.50 29.07 29.02 26.78 30.72 33.39 32.83 34.40
35.09 35.54 35.85 36.55 37.53 37.91 37.70 38.19 37.84 36.89 36.20 35.99 36.03 36.45 36.34 35.96 36.25 35.95 35.42 34.30 33.95 33.04 32.70 32.41 32.54 32.51 34.51 36.37 35.48 32.35 28.97 27.62 26.43 26.82 24.85 24.66 25.46 26.66 28.92 27.83 26.34 27.05 27.33
36.30 36.24 36.55 36.95 37.12 37.25 37.32 36.73 35.21 36.69 36.61 36.12 36.78 37.52 37.37 36.35 35.74 34.12 33.31 33.64 33.02 32.80 32.72 32.90 32.61 32.76 33.34 35.89 35.36 30.40 27.00 26.12 25.71 26.12 25.49 26.32 25.78 30.72 33.32 28.55 24.21 25.80 26.03
37.26 37.09 37.16 37.51 37.32 37.61 38.08 36.24 34.93 35.09 34.22 34.74 35.56 36.37 36.54 35.23 34.05 34.37 33.93 33.93 33.56 32.22 32.99 31.65 31.28 33.14 30.11 34.72 34.11 30.47 26.38 23.89 24.89 24.94 25.89 29.76 29.06 32.27 33.32 27.97 25.18 22.62 22.88
37.91 38.08 37.86 37.19 37.13 37.38 36.69 34.51 34.06 31.98 34.99 35.55 35.69 35.25 35.43 34.59 34.30 33.73 33.13 32.03 30.76 29.58 27.51 25.63 24.74 24.44 26.16 24.92 32.44 32.73 26.13 25.67 25.47 25.18 25.20 26.00 30.91 32.52 33.14 32.26 23.82 24.42 26.96
36.97 36.54 34.48 34.63 36.76 37.59 35.62 33.65 33.08 34.93 34.95 33.95 32.73 32.42 32.82 33.68 31.55 29.44 28.21 27.04 25.43 23.95 22.42 21.50 21.54 21.77 21.29 31.26 31.63 31.95 31.12 30.11 25.83 25.29 25.37 24.93 31.37 32.04 31.05 28.29 29.05 29.94 28.75
36.23 35.73 33.16 31.91 33.06 35.08 35.48 32.95 32.87 32.91 31.99 30.40 29.28 28.91 28.59 27.71 25.40 24.66 22.70 22.48 21.89 21.23 21.23 22.57 20.34 20.82 22.89 22.06 28.28 29.54 30.37 29.97 27.28 26.18 28.58 31.53 30.28 28.63 25.56 27.13 28.22 27.51 20.61
31.39 32.46 31.37 29.53 29.20 30.45 30.61 30.63 30.48 30.61 29.37 27.02 24.37 23.76 23.24 22.41 21.89 23.47 22.99 21.26 20.53 20.11 21.29 21.08 19.69 18.57 20.51 21.37 23.23 25.40 24.27 28.25 27.84 28.15 24.15 26.15 25.57 25.35 24.67 22.91 22.41 21.41 20.97
30.56 30.73 29.00 27.61 27.56 29.57 29.39 28.60 28.00 26.06 24.22 23.05 22.80 22.15 22.02 20.55 20.48 21.79 21.10 21.91 19.94 21.53 20.86 20.62 21.04 19.66 19.47 23.58 28.12 27.73 26.44 25.22 27.75 25.46 20.65 18.76 18.25 17.86 18.49 19.23 19.76 19.87 20.02
30.33 29.86 29.75 29.25 28.35 29.14 27.41 25.04 25.33 24.71 23.64 22.62 22.51 21.86 20.95 20.91 21.55 21.59 21.84 30.63 30.06 30.32 29.70 28.48 24.88 24.47 27.37 29.17 29.45 29.62 29.77 29.32 28.82 20.91 17.28 16.01 16.32 16.46 16.95 17.29 17.56 18.10 18.89

GFSMW_sfc_wetblb_030.txt.gz
Wetbulb
46.92 46.45 46.73 47.77 48.05 48.12 47.90 49.34 54.62 61.93 66.13 66.34 65.15 64.59 63.30 63.32 62.13 62.92 61.89 60.39 59.55 57.70 56.06 53.36 50.10 45.50 43.85 43.35 42.37 38.56 36.81 35.50 36.08 37.50 36.91 36.45 36.70 36.39 36.59 36.63 36.69 36.56 35.63
43.74 44.05 45.24 45.62 46.21 47.68 47.43 47.50 50.04 57.91 63.74 65.52 65.44 64.64 64.64 64.14 63.73 63.20 62.61 61.43 59.63 58.30 56.20 53.63 50.71 47.90 45.27 42.97 41.82 38.86 36.67 35.13 34.93 35.33 35.21 34.04 35.65 35.30 35.14 35.09 36.33 34.28 34.76
42.84 43.97 42.89 43.55 44.22 44.86 46.50 47.41 47.58 52.77 61.52 64.77 64.85 59.91 59.11 58.24 59.32 59.58 61.13 60.40 59.67 58.09 55.99 52.93 50.83 48.30 47.44 44.50 42.60 39.85 38.71 35.30 33.49 34.06 36.26 31.85 32.98 32.72 32.81 32.97 33.23 32.98 32.90
38.77 40.57 41.14 41.32 42.30 43.65 44.72 46.25 47.25 48.02 54.12 62.95 63.51 62.60 62.10 61.12 60.97 61.77 61.88 58.56 58.70 57.78 55.48 53.31 52.28 49.35 47.13 45.18 43.02 41.97 39.45 37.12 34.30 33.42 34.77 32.39 33.71 32.23 30.19 31.77 31.99 32.03 32.69
36.73 38.70 39.14 40.70 42.07 42.49 42.11 43.28 45.17 46.54 48.92 57.39 63.70 62.14 61.78 62.13 60.10 60.86 60.40 58.68 57.13 56.91 55.82 53.38 52.06 48.68 48.05 46.30 44.47 41.49 40.73 38.37 35.66 34.71 32.60 31.91 31.08 30.29 30.52 29.05 30.06 31.42 31.94
38.15 40.01 41.66 42.93 43.09 42.29 43.85 42.69 42.04 44.00 46.12 50.09 61.20 62.49 61.73 61.07 56.01 54.96 57.65 56.53 55.06 54.57 53.92 52.36 49.57 48.74 47.05 45.33 44.01 42.65 41.58 40.16 38.75 35.24 34.29 34.53 32.97 30.95 29.87 28.60 27.77 28.60 29.99
38.01 39.80 41.05 42.19 43.35 42.58 42.92 45.00 45.25 44.94 45.22 46.41 55.90 62.05 61.79 60.94 56.80 56.33 57.30 54.98 52.75 50.37 49.59 50.15 48.06 46.25 46.09 45.21 44.18 43.03 41.21 39.41 38.47 36.94 36.18 34.47 33.59 32.53 31.37 29.93 27.32 27.47 28.04
38.33 40.16 41.50 41.66 42.08 43.28 43.58 43.89 44.21 44.01 44.92 46.24 48.21 57.16 61.36 59.50 57.79 56.16 57.04 55.91 54.41 53.26 51.90 48.43 48.28 46.52 45.10 43.91 43.84 43.32 41.08 39.65 38.66 36.62 36.15 34.72 34.86 33.75 32.61 31.16 28.40 25.28 25.23
38.73 40.40 42.12 42.37 42.18 42.85 43.07 43.57 44.18 44.21 44.41 45.30 46.96 51.21 56.56 56.14 55.55 54.67 55.65 55.58 54.32 52.98 47.99 48.41 47.56 45.58 44.38 43.20 42.83 40.53 38.98 38.13 37.14 36.07 35.28 34.89 34.48 32.96 34.09 32.74 30.35 27.95 23.84
40.19 42.87 45.53 43.70 41.88 42.14 42.43 42.22 43.48 43.88 45.00 45.69 46.60 49.70 53.48 57.63 53.95 51.63 52.03 51.90 50.78 48.20 47.61 46.31 45.17 44.69 42.90 41.42 41.09 38.60 37.91 37.06 35.35 35.77 34.48 34.15 33.06 33.30 33.07 32.17 30.36 28.64 26.61
42.41 44.45 44.79 43.47 42.17 43.04 43.82 44.39 45.16 45.72 47.12 47.28 47.34 48.51 51.78 55.00 51.17 49.65 48.80 47.29 46.31 46.04 45.02 44.70 44.02 42.96 42.16 41.00 39.36 37.43 36.69 35.70 35.41 34.85 34.51 33.51 33.22 32.35 30.55 30.13 28.76 27.92 26.82
44.98 43.86 42.17 41.99 41.67 42.37 43.91 44.64 44.40 44.87 45.21 46.29 47.52 49.16 52.81 48.46 49.00 49.18 46.08 45.53 44.00 43.58 44.11 43.22 42.48 41.02 40.26 39.02 37.55 36.64 36.42 35.66 34.73 34.12 33.93 33.23 33.51 31.74 31.33 30.42 27.41 26.31 25.07
43.87 41.55 42.17 44.02 42.48 42.71 43.07 43.33 43.13 43.52 43.82 45.10 45.62 47.41 49.20 47.86 47.22 46.73 45.50 45.40 44.48 43.97 43.74 43.33 41.31 39.73 38.91 37.68 36.96 36.40 36.08 35.65 35.45 34.73 33.70 32.71 32.04 30.41 29.76 29.41 27.68 25.98 27.73
38.43 38.43 40.63 43.05 42.31 42.27 40.63 40.35 41.21 42.66 42.98 44.26 44.76 44.73 46.32 46.64 46.20 45.08 44.19 43.53 43.30 42.29 41.42 40.03 38.91 38.19 37.64 37.06 36.53 35.36 34.24 33.81 33.36 33.06 32.38 31.84 31.51 30.82 30.08 28.99 27.14 26.37 24.96
36.48 36.55 37.18 39.18 39.77 38.86 38.41 38.51 37.54 38.83 41.60 41.49 41.60 41.96 43.83 44.77 43.43 42.28 41.48 40.80 39.48 38.17 37.67 37.26 36.96 37.10 36.85 36.80 35.61 35.08 34.35 33.46 32.00 31.72 31.24 31.06 31.80 33.12 32.27 30.17 27.93 26.83 25.31
36.11 36.33 35.98 36.51 38.49 39.06 38.79 38.64 38.09 37.70 37.44 36.83 37.41 38.83 38.45 38.84 39.17 38.31 37.73 37.35 37.03 37.21 37.31 37.15 37.25 36.92 37.34 38.86 37.77 34.26 31.95 31.40 30.49 29.77 28.92 28.91 30.60 31.29 33.41 34.16 34.77 31.51 25.14
34.95 34.48 35.33 36.36 37.55 37.49 38.14 37.69 37.71 37.89 36.65 35.92 35.85 36.50 35.99 35.64 36.27 36.75 36.69 36.50 35.97 36.14 36.12 36.91 36.47 36.61 37.45 38.68 37.26 34.96 31.16 30.15 29.09 28.70 28.24 28.76 29.61 29.30 26.74 30.09 33.20 32.77 34.28
35.65 35.56 35.11 36.46 37.25 37.47 37.22 37.59 37.81 36.89 36.74 36.35 36.27 36.59 36.51 36.18 36.37 35.88 34.92 34.51 34.69 34.57 34.12 33.88 34.40 34.66 36.90 38.02 37.22 34.91 29.90 28.91 28.68 28.59 26.92 26.41 26.56 27.65 28.43 27.72 27.04 27.42 27.21
36.67 36.42 36.85 37.08 37.45 37.21 37.22 36.16 36.13 35.90 35.55 35.78 37.02 37.18 36.95 35.68 34.90 33.73 33.29 33.07 32.60 32.73 32.57 33.32 32.87 32.30 32.79 36.85 34.49 30.65 28.44 27.72 26.97 27.15 26.48 26.89 26.23 30.03 32.58 28.67 24.28 25.81 25.86
37.40 37.02 37.67 37.55 36.91 36.44 36.19 34.98 35.28 35.38 34.59 34.70 34.65 35.56 35.12 34.24 32.60 32.46 32.11 32.81 32.73 31.95 32.33 32.06 32.30 35.49 32.67 35.86 34.57 29.94 27.37 24.92 25.07 25.02 26.38 29.48 28.43 31.78 32.78 28.47 25.97 22.41 22.59
36.81 37.00 36.58 36.80 36.96 37.10 36.57 34.79 34.75 32.08 34.88 36.17 35.48 35.26 35.20 34.11 33.16 32.42 33.02 32.13 31.18 30.36 29.60 28.43 26.86 27.25 26.94 28.47 33.56 33.77 26.05 25.36 24.99 24.87 24.84 25.85 30.21 32.12 32.75 32.38 23.64 24.10 26.62
35.27 35.49 34.57 34.56 36.53 36.97 35.65 34.20 33.57 34.67 34.75 34.03 33.06 32.73 33.20 34.35 32.70 30.60 29.31 28.01 26.30 24.73 22.91 22.17 21.81 22.20 22.33 31.71 32.62 32.09 30.81 30.02 26.01 25.35 25.44 25.02 30.95 31.41 30.63 27.80 28.94 29.58 27.51
35.62 34.66 33.15 32.72 33.95 35.30 34.76 32.38 31.95 31.93 30.95 29.77 28.49 28.17 26.83 25.23 24.34 22.81 21.59 21.78 21.37 21.12 21.22 22.36 19.80 19.94 22.35 21.50 29.54 29.89 30.31 29.77 27.00 26.12 28.51 30.53 29.25 27.57 24.33 26.38 27.39 26.17 19.55
32.00 32.22 31.43 30.07 29.19 30.11 30.23 29.85 30.04 29.68 28.31 25.74 22.57 22.17 21.84 20.86 20.78 23.02 22.43 20.88 20.25 20.15 21.33 20.96 19.10 18.19 20.20 20.87 22.87 25.08 23.84 27.99 27.52 27.88 23.31 25.52 24.65 24.33 23.61 21.86 21.36 20.34 20.04
29.47 29.29 27.76 28.65 28.52 29.51 28.67 26.81 25.79 24.79 23.42 22.19 22.02 21.33 21.12 19.90 20.23 21.44 20.53 21.59 18.81 20.85 20.15 19.66 20.30 19.05 18.96 23.33 27.41 27.10 26.22 24.84 27.33 24.05 19.76 17.89 17.36 16.79 17.50 18.12 18.69 18.83 19.14
30.76 30.23 28.36 27.31 28.11 28.60 27.04 24.07 24.45 23.91 22.72 21.98 22.11 21.34 21.07 20.98 21.99 21.87 22.12 31.36 30.59 30.73 29.58 27.84 24.45 24.39 27.33 29.06 29.09 29.23 29.01 28.47 27.84 19.85 16.30 15.04 15.26 15.46 16.02 16.50 16.86 17.28 18.02

GFSMW_sfc_wetblb_033.txt.gz
Wetbulb
47.97 49.49 50.32 50.88 50.97 51.49 51.61 52.19 53.44 60.00 67.06 66.99 65.75 65.15 64.78 64.66 64.64 65.41 64.84 63.48 63.53 62.48 62.18 62.16 60.70 56.93 54.48 51.63 48.83 46.23 43.78 43.47 45.14 45.09 44.64 45.07 44.66 45.98 47.07 47.28 46.16 45.30 44.17
45.47 46.24 47.11 47.92 48.31 49.36 50.62 51.25 51.74 54.39 61.58 66.37 66.40 65.89 65.41 65.34 65.23 65.01 64.74 63.57 63.05 61.87 61.38 60.74 58.56 55.36 53.42 49.82 47.13 44.42 41.37 43.71 44.66 45.05 44.59 42.74 43.54 43.41 43.38 44.48 44.35 44.06 43.12
41.79 43.48 44.23 45.01 46.11 46.80 48.22 49.71 51.01 52.20 57.01 64.23 66.54 64.66 63.81 62.63 63.86 63.32 63.73 63.67 63.11 61.61 61.32 60.15 59.15 56.73 54.15 49.51 46.30 44.61 43.25 42.92 42.36 43.51 46.16 40.67 42.72 42.23 41.63 41.80 42.32 42.19 41.90
42.53 43.47 44.11 45.84 46.12 46.43 46.56 47.57 49.46 50.98 53.14 62.48 64.83 64.10 62.25 61.50 62.94 63.63 64.22 64.40 63.08 61.60 61.15 60.04 58.50 56.58 54.62 52.55 49.29 47.21 45.94 45.40 41.83 39.85 39.96 40.98 43.44 42.53 39.37 40.13 40.42 40.42 40.45
41.28 43.06 44.63 45.67 46.54 47.00 47.49 46.95 46.75 48.26 50.66 54.79 64.16 64.39 63.28 63.79 64.39 63.86 63.60 63.39 61.96 61.99 60.81 59.24 57.66 55.78 54.62 53.42 50.74 46.73 45.95 45.01 43.02 43.00 38.41 38.47 39.18 39.70 41.34 38.99 38.54 38.33 39.73
41.23 43.25 45.33 46.89 48.04 48.28 48.26 48.45 48.65 47.63 47.95 49.34 53.63 63.26 63.48 63.19 62.99 62.05 62.22 62.22 60.67 60.71 60.05 58.23 57.20 56.36 54.09 51.41 50.01 48.39 47.50 45.39 44.29 41.01 40.72 39.06 40.65 39.22 39.12 38.12 36.98 39.29 38.30
41.26 43.22 45.56 46.41 47.48 47.44 48.30 48.25 48.25 48.62 48.86 49.51 49.64 53.58 61.54 63.23 62.53 61.78 61.72 60.90 58.71 58.16 58.39 57.60 56.17 55.72 53.66 52.64 50.66 48.80 47.52 46.40 44.58 42.39 39.87 40.47 38.99 38.63 37.04 38.15 35.88 36.87 37.08
41.91 43.46 45.75 46.59 46.60 46.42 47.24 47.17 47.29 47.70 48.50 49.03 49.74 51.43 53.78 60.93 62.03 61.20 60.83 60.69 59.45 58.98 59.31 57.16 56.52 55.10 52.82 51.44 49.89 48.62 48.00 46.36 44.14 42.58 40.64 39.79 38.10 37.30 37.42 37.15 35.80 34.02 35.14
42.70 44.26 46.65 47.09 46.70 45.98 46.27 45.69 46.01 46.81 47.71 48.46 49.73 50.32 51.89 55.33 58.60 59.23 59.76 60.41 59.96 58.49 57.81 55.52 54.78 53.12 51.24 50.19 48.72 47.69 45.36 44.27 42.36 41.54 39.84 39.36 36.82 37.06 35.95 35.90 36.52 36.34 33.36
42.76 45.79 46.21 46.37 46.15 45.81 46.28 47.83 48.00 47.89 48.61 49.76 50.18 50.68 51.85 53.08 56.65 57.17 57.64 57.93 57.90 56.17 53.21 52.58 51.86 50.62 49.70 48.34 47.35 45.48 42.95 41.24 40.57 38.67 36.63 35.94 35.94 35.53 35.36 35.73 34.03 34.30 33.32
45.18 45.05 44.22 44.85 45.47 45.91 46.27 46.82 47.38 47.16 48.04 48.23 48.66 49.89 51.89 53.46 55.06 53.75 54.40 54.75 53.54 51.91 50.86 50.19 48.84 47.98 46.61 46.18 45.46 43.89 41.09 37.99 37.57 36.75 35.65 35.02 34.52 34.54 33.79 33.50 32.22 32.17 32.40
44.57 42.21 41.79 43.54 45.10 44.59 44.82 45.07 45.02 45.59 46.39 46.81 47.90 49.03 51.59 52.47 51.02 51.76 51.12 49.79 48.89 47.80 47.75 46.66 46.01 45.41 44.54 43.82 42.41 40.25 38.92 37.32 35.74 36.03 35.45 34.47 35.38 33.91 33.55 32.95 31.66 31.32 30.60
40.43 39.43 39.32 41.27 42.49 41.96 41.58 41.60 41.75 41.64 43.57 45.40 47.14 48.26 49.09 49.93 49.38 48.94 47.35 47.35 46.51 45.90 45.51 44.93 43.27 42.67 41.27 40.12 39.26 37.79 37.67 37.18 36.53 35.87 35.27 34.07 33.72 32.55 32.13 31.56 31.30 30.47 30.67
38.42 37.97 37.58 37.94 39.84 40.39 40.67 40.16 39.35 39.37 40.47 43.18 45.32 46.12 47.23 48.21 47.91 46.86 45.13 45.15 45.31 44.98 44.87 43.58 41.03 39.68 38.77 38.16 37.84 37.68 36.93 35.52 35.07 34.57 34.07 33.59 33.27 32.74 32.13 31.68 31.24 30.94 29.54
37.63 36.61 36.11 37.39 38.96 38.80 39.36 39.80 39.50 38.99 39.42 39.59 40.24 40.95 43.40 43.88 42.97 41.72 41.22 41.31 41.32 40.23 39.94 39.07 38.31 38.10 37.78 37.67 36.52 36.22 35.32 33.95 33.58 33.26 32.91 32.27 32.38 33.34 32.87 32.08 30.88 30.54 29.87
36.15 36.05 36.05 37.10 37.72 37.63 38.20 38.67 38.50 37.93 37.98 37.57 37.02 37.99 38.66 39.18 38.71 38.58 38.46 38.30 38.17 38.17 38.29 37.59 37.88 37.96 38.91 40.38 39.13 35.44 32.93 32.14 31.32 30.43 30.92 31.38 32.92 33.28 34.81 35.32 35.19 33.59 31.31
35.95 36.27 35.34 36.61 37.17 37.14 37.76 37.48 37.36 37.99 37.45 36.86 36.95 37.36 37.46 37.04 37.26 37.47 37.13 36.68 36.77 37.57 37.43 37.85 38.30 37.65 38.04 39.61 38.61 36.47 32.84 31.81 31.29 30.92 30.27 30.28 31.72 31.51 30.06 30.83 32.37 33.05 34.00
35.83 35.56 36.14 36.92 37.45 37.65 37.17 37.29 37.77 37.64 37.35 37.10 37.07 37.22 36.79 36.22 36.17 35.81 35.57 35.84 35.91 35.47 35.38 35.66 35.93 36.18 37.87 39.31 38.18 35.78 31.51 30.67 30.46 29.95 29.54 29.85 29.77 29.95 30.51 31.16 31.09 31.32 31.04
36.74 37.12 37.58 37.39 37.29 36.74 36.68 36.82 36.27 36.16 35.64 35.16 35.69 35.99 35.71 34.75 34.43 33.73 33.80 34.26 33.57 33.20 32.54 32.84 32.62 32.77 33.56 37.14 35.94 31.70 29.83 28.99 28.48 29.10 29.34 29.23 29.22 30.08 31.77 31.46 30.11 29.56 29.68
37.50 37.34 37.18 37.37 36.91 36.05 35.27 35.25 34.95 35.51 34.61 35.03 35.49 35.45 35.04 34.10 32.56 32.65 32.30 33.16 33.12 32.21 33.09 32.05 32.01 35.15 33.13 34.48 33.20 30.18 29.07 27.92 28.10 28.71 28.82 29.75 30.37 31.17 32.34 31.68 29.94 26.52 27.04
36.44 37.31 37.44 37.18 36.77 37.04 36.59 34.92 34.51 32.60 35.34 35.58 35.27 35.11 35.12 33.84 32.89 32.24 32.34 32.00 31.62 31.29 30.03 29.81 30.07 30.40 31.50 33.72 35.07 32.19 28.85 28.38 27.93 27.82 27.72 28.75 30.15 31.78 32.63 31.92 27.29 27.00 29.49
35.37 35.24 35.66 36.24 36.88 36.99 35.82 34.28 33.60 34.62 34.56 34.35 33.83 33.76 33.75 34.56 33.46 31.67 30.40 29.03 28.12 26.39 25.32 25.14 25.22 26.02 27.63 33.52 33.54 32.64 31.32 30.86 28.51 27.67 28.64 28.87 30.85 30.79 29.72 28.41 28.40 29.17 28.27
35.96 35.23 33.38 33.32 35.10 35.36 34.71 31.70 30.93 31.36 30.78 29.50 27.53 26.83 26.46 26.32 26.35 25.88 25.44 25.56 25.52 25.05 24.80 24.79 23.57 23.82 25.05 26.30 30.78 30.99 30.71 29.92 29.08 29.06 29.69 29.53 28.16 27.06 25.04 25.74 26.80 26.01 23.42
33.38 33.21 32.19 29.99 29.10 30.05 31.24 31.09 30.74 30.15 27.26 25.53 25.07 25.30 25.07 24.41 24.84 25.94 25.73 24.94 24.24 24.03 24.12 23.50 22.30 22.47 23.63 24.78 26.41 27.68 27.77 28.65 28.83 28.67 26.95 26.24 24.81 23.70 23.76 22.84 22.83 22.95 23.03
31.97 30.94 29.99 29.61 29.31 29.29 28.11 28.03 27.42 27.05 25.45 24.62 24.51 24.24 23.83 23.60 23.91 24.38 24.57 24.70 23.48 24.80 23.57 22.95 23.33 22.86 23.32 26.21 29.04 28.71 28.48 28.29 28.43 25.46 23.13 21.63 20.79 20.40 20.48 20.99 21.54 22.08 22.14
31.46 30.26 29.71 28.61 28.87 28.46 26.77 25.95 26.41 26.16 25.25 24.31 24.38 24.69 24.57 25.01 25.54 26.08 26.23 31.67 31.19 30.84 29.70 28.29 26.48 26.30 27.96 29.05 28.80 28.93 28.61 27.77 27.28 22.42 19.83 19.24 19.17 18.74 18.98 19.23 19.87 20.49 20.74

GFSMW_sfc_wetblb_036.txt.gz
Wetbulb
53.50 53.13 53.64 54.10 54.60 55.57 56.87 57.77 57.95 59.08 62.17 66.29 66.81 66.05 65.28 66.34 66.34 67.28 69.40 69.04 68.25 67.46 66.54 65.49 65.10 65.40 64.01 62.58 59.61 57.21 52.69 50.81 51.62 49.71 49.15 49.14 49.49 50.82 52.63 52.51 51.21 50.50 50.12
49.82 49.43 51.09 51.55 51.89 53.13 54.57 55.65 56.43 57.27 58.50 62.00 66.25 67.64 67.26 66.72 66.82 66.55 66.32 68.59 68.04 67.57 66.43 65.64 65.05 64.55 63.11 62.36 59.68 55.66 51.73 50.65 49.79 50.36 50.34 46.61 46.75 48.01 50.19 51.31 50.26 49.84 49.13
48.56 50.47 51.90 52.84 53.53 52.72 52.50 52.96 54.30 55.64 57.05 58.75 63.44 66.59 67.61 67.35 66.40 65.68 65.35 65.62 68.01 67.25 66.82 65.92 65.38 64.46 62.91 61.84 59.78 55.59 53.11 48.96 48.11 51.20 51.28 46.80 46.62 46.63 47.25 47.96 48.83 48.53 47.70
49.47 50.94 51.97 53.08 53.78 53.72 53.79 53.46 52.98 53.37 54.92 56.80 58.85 62.40 63.90 63.11 64.38 64.98 66.02 65.46 65.87 66.84 66.81 65.75 65.05 63.88 61.96 60.72 59.11 56.54 54.29 53.67 48.05 47.59 47.99 47.54 49.80 46.07 42.86 45.03 46.29 47.17 46.20
48.25 49.74 51.39 52.38 53.96 54.22 54.30 54.33 54.32 53.15 53.36 54.97 57.64 61.43 62.99 63.42 64.06 64.68 65.38 65.27 64.99 65.03 65.69 65.07 64.58 63.26 61.25 61.11 59.26 56.45 54.69 54.28 52.25 48.73 44.73 44.53 43.32 44.42 46.34 44.32 42.42 44.32 45.07
48.38 50.14 52.42 53.38 53.68 55.03 55.13 55.16 54.09 54.17 54.55 53.56 54.80 57.66 61.50 63.01 62.81 63.96 64.53 64.98 64.81 63.54 63.85 63.83 64.05 63.32 61.65 60.75 60.09 57.89 55.14 53.30 53.16 49.50 44.77 43.78 43.93 42.43 43.00 44.44 44.59 43.12 43.51
48.83 50.10 51.45 51.96 52.53 53.05 53.57 53.69 53.67 53.40 54.17 54.28 54.65 54.42 55.89 60.82 62.71 63.29 63.66 63.64 63.60 62.25 61.81 62.61 62.41 62.56 62.10 61.14 60.52 57.25 53.11 51.27 49.27 48.81 47.23 46.19 46.32 44.54 44.10 46.04 42.09 41.67 40.49
49.38 50.46 51.15 51.51 51.69 51.75 52.32 52.63 52.71 52.41 52.81 53.27 53.89 54.69 55.50 55.81 57.90 62.08 62.68 63.00 62.95 63.37 63.11 61.90 61.98 61.90 61.46 60.72 59.48 57.32 54.84 53.18 51.37 49.86 47.89 45.23 44.20 43.15 39.62 42.35 37.14 35.97 37.43
48.95 50.12 50.43 50.61 50.80 51.12 51.29 51.67 52.09 52.65 53.28 53.74 54.57 54.86 55.48 55.46 56.10 58.41 60.69 61.28 62.63 62.74 63.10 62.38 61.29 60.95 60.14 59.53 58.02 56.57 55.14 53.62 52.71 50.37 47.23 43.17 41.17 41.16 39.93 39.26 41.37 39.60 35.42
49.36 49.47 48.80 48.84 50.19 50.82 51.13 51.76 51.79 51.41 52.17 52.91 53.29 53.58 54.70 55.53 56.55 57.47 58.18 58.60 60.76 61.05 60.55 60.89 60.41 59.14 57.64 55.78 54.57 53.50 53.34 51.46 48.82 47.45 42.84 39.89 38.44 38.00 37.88 36.68 35.63 36.76 35.33
48.37 47.32 46.72 47.76 49.43 49.98 49.92 49.87 49.81 49.62 50.43 51.33 51.99 53.01 54.30 55.69 55.48 55.07 54.52 54.66 56.14 57.10 57.30 57.22 56.89 56.41 53.77 52.16 51.08 50.24 48.53 46.99 43.44 41.35 39.24 36.82 37.30 35.76 35.57 35.14 34.40 33.61 34.25
46.43 45.74 45.10 46.30 46.91 46.71 47.05 47.17 47.35 47.19 47.85 49.23 50.69 52.15 53.65 54.54 54.24 52.91 53.17 53.79 53.85 54.03 53.17 52.42 52.29 52.23 51.04 49.84 48.53 47.27 45.79 43.19 41.39 40.78 39.21 37.88 36.56 35.06 34.99 34.96 33.69 33.16 32.41
45.10 44.51 44.08 43.70 42.94 42.22 43.48 45.26 45.55 45.00 46.07 47.75 49.48 50.74 51.88 53.00 53.35 52.10 51.81 51.59 50.36 49.45 48.50 48.44 48.28 48.16 48.17 47.06 46.09 43.81 42.63 39.18 38.65 37.08 37.47 36.19 35.07 33.69 33.72 32.92 32.45 32.03 32.80
43.17 42.55 42.68 43.03 42.34 41.75 42.53 43.72 44.24 44.19 44.46 45.36 46.45 46.79 48.32 49.78 49.87 49.39 48.52 48.55 48.12 47.35 46.48 46.15 45.22 43.97 43.78 42.34 39.89 39.45 38.55 37.71 37.48 36.71 36.56 36.83 34.67 33.47 33.09 33.08 32.40 32.67 32.77
41.67 41.17 40.80 41.53 40.39 40.59 41.91 42.17 42.61 42.61 42.08 42.11 42.29 43.42 45.09 45.63 45.38 44.68 44.50 43.76 43.04 42.71 41.77 40.48 39.57 39.50 39.18 38.64 38.02 37.50 36.47 36.10 35.59 34.82 34.31 34.14 34.96 36.23 34.56 34.15 32.60 32.46 31.36
40.19 40.09 39.87 39.46 38.73 38.96 39.08 39.19 40.27 40.61 41.80 40.85 39.54 41.16 42.36 42.43 41.13 41.96 41.49 41.31 41.10 41.07 39.42 38.90 38.88 39.04 39.08 40.09 39.44 37.27 36.01 34.76 33.78 31.97 32.26 32.89 34.14 34.84 36.08 36.63 35.76 34.28 33.37
39.20 39.02 38.85 38.24 38.23 37.86 38.07 37.76 39.40 40.33 40.14 39.47 38.51 39.28 39.78 39.13 38.28 38.46 38.38 37.99 38.10 38.54 38.48 38.66 39.02 38.88 39.64 41.02 39.60 37.45 34.31 32.87 32.10 31.78 31.50 32.42 33.61 32.78 31.75 32.79 33.73 34.55 35.77
39.26 39.09 38.33 37.77 37.91 37.74 37.83 38.34 38.32 38.30 37.87 37.74 37.63 38.17 38.34 36.80 36.49 36.25 35.83 35.24 35.42 35.73 35.90 35.65 37.29 37.68 38.78 39.81 38.54 36.23 32.24 31.67 31.56 31.73 32.08 31.67 31.12 31.68 31.22 31.37 31.57 32.03 32.72
40.20 38.88 38.11 38.14 37.27 36.30 37.54 37.04 36.89 36.59 36.26 36.05 36.36 36.86 36.51 35.52 35.12 34.38 34.08 34.46 33.52 33.11 32.71 33.37 33.41 32.69 33.39 37.07 36.09 32.59 31.19 29.85 29.73 31.36 31.77 31.37 30.85 30.73 32.09 32.10 31.75 31.59 32.33
40.68 39.30 38.75 38.32 36.50 36.63 37.51 36.44 35.82 35.80 34.87 35.31 35.50 35.76 35.95 34.77 33.32 33.33 32.65 33.67 33.45 32.52 33.42 32.23 32.18 34.70 32.58 33.71 33.30 32.09 31.31 30.15 30.35 30.89 31.08 30.23 30.94 30.95 32.15 32.67 31.92 29.83 30.23
40.33 39.72 39.60 38.52 38.03 38.08 37.75 35.57 35.32 33.37 35.77 36.48 36.19 35.94 35.68 34.86 34.10 33.36 34.11 33.83 33.38 32.70 32.09 31.96 31.99 33.13 34.51 34.23 33.49 32.13 31.60 31.01 30.44 29.79 29.75 30.74 30.32 31.64 32.62 32.01 31.17 29.36 30.62
39.54 39.43 39.72 38.73 38.95 38.74 38.02 35.84 34.60 35.43 35.70 35.83 35.23 35.07 35.71 35.96 35.33 34.36 33.54 33.25 32.80 31.36 30.15 29.80 30.01 31.58 34.08 34.33 33.51 32.90 32.09 31.05 29.86 29.37 30.62 31.10 30.82 30.89 30.04 29.48 29.04 29.46 29.61
39.82 39.97 39.81 38.19 37.64 37.66 38.08 34.64 33.36 34.03 33.74 34.12 32.53 33.25 32.87 32.38 32.83 32.41 31.73 31.35 31.53 30.75 29.74 28.97 28.59 28.25 28.67 30.77 31.24 31.46 30.91 30.62 30.78 30.83 30.68 29.61 28.37 27.64 27.18 26.49 27.27 27.19 26.77
39.08 39.28 38.55 38.45 36.62 36.40 36.88 36.35 35.49 35.95 33.96 32.08 31.49 31.78 31.52 31.14 31.54 31.41 31.56 31.33 30.89 30.06 29.01 28.16 27.39 27.52 27.76 29.08 30.38 30.45 31.00 29.88 30.18 29.73 30.24 27.49 25.72 24.46 25.12 25.01 25.62 25.95 26.29
37.73 38.20 38.24 36.81 36.57 36.08 35.83 35.67 34.55 33.55 32.29 31.58 31.03 30.64 30.53 30.43 30.10 30.12 30.49 29.70 29.55 29.68 28.65 27.79 28.05 27.76 27.68 29.07 30.40 30.11 30.06 30.62 29.63 28.75 27.07 25.31 24.69 24.38 24.56 24.85 25.26 25.96 26.08
36.49 34.43 37.03 35.28 34.68 35.66 34.22 32.91 32.62 32.89 31.92 30.55 30.33 30.60 30.49 30.88 31.28 31.32 31.16 31.96 31.52 30.68 29.69 28.37 28.83 28.75 28.83 29.23 29.02 29.01 28.75 27.95 27.62 25.80 23.82 23.55 23.66 22.98 23.16 23.26 24.13 25.09 24.85

GFSMW_sfc_wetblb_039.txt.gz
Wetbulb
54.25 55.34 55.58 55.89 56.16 56.98 57.61 58.34 59.04 59.92 60.79 63.73 65.89 67.81 66.96 66.93 67.11 67.63 69.76 70.17 69.59 68.83 67.94 66.88 66.19 66.26 65.60 64.97 63.84 61.28 58.19 56.77 56.70 51.89 50.99 51.69 51.41 51.67 53.68 53.47 52.44 51.94 51.47
52.56 52.64 52.58 53.70 53.80 53.98 55.52 56.87 57.76 58.84 59.57 60.44 62.70 67.19 67.96 66.63 66.77 67.37 67.37 68.63 69.64 69.31 68.45 67.28 66.20 65.66 64.97 64.80 63.40 60.68 57.30 55.28 54.47 51.40 51.73 47.86 48.13 48.71 50.33 52.18 51.24 50.63 50.11
49.58 51.21 52.53 53.77 54.85 54.42 54.29 54.25 54.99 56.30 57.82 59.11 60.21 61.86 66.80 68.13 67.06 66.15 66.23 67.12 67.95 69.28 68.01 67.70 66.91 66.06 65.20 63.95 63.37 61.04 57.69 53.77 52.85 54.38 53.22 50.13 48.23 46.56 48.12 49.56 50.43 49.62 49.08
50.86 51.77 52.55 53.47 54.61 55.32 56.44 55.97 55.56 55.04 55.14 56.65 57.05 58.27 61.10 63.03 65.76 66.03 67.32 67.34 67.34 67.39 67.85 66.55 66.22 65.90 65.13 63.96 63.17 61.71 57.80 55.64 50.66 50.75 51.94 52.73 51.64 46.90 42.50 46.24 47.40 48.67 47.85
50.47 51.23 52.78 53.93 55.27 56.23 56.41 56.93 56.50 55.67 55.99 54.82 55.35 56.19 57.71 61.31 64.60 64.99 64.77 65.23 66.84 65.96 66.15 66.28 65.94 64.48 64.71 64.11 62.62 61.14 56.87 56.73 54.53 51.28 49.41 49.03 47.32 47.71 46.62 41.75 42.15 45.83 46.53
50.57 51.94 53.57 54.66 54.80 56.08 56.14 56.28 55.73 55.66 56.02 56.01 55.04 55.06 56.45 59.52 61.94 63.16 63.11 63.79 65.10 66.20 64.64 64.14 64.55 64.53 63.60 62.97 61.90 61.10 58.25 56.63 56.43 52.49 49.43 47.82 45.46 43.15 43.22 44.16 42.53 41.41 43.38
50.53 51.21 52.57 53.05 53.67 53.87 54.32 54.55 54.51 54.28 55.23 55.11 55.48 55.79 55.40 55.97 58.00 61.34 62.82 63.29 63.85 64.77 63.50 63.17 63.17 62.92 62.90 62.70 61.74 60.84 58.86 57.17 55.70 54.13 50.85 48.50 48.73 46.08 45.71 44.89 42.40 42.62 42.10
50.90 51.46 52.18 52.30 52.75 52.90 53.23 53.31 53.41 53.45 54.52 54.85 54.64 55.31 55.80 55.70 56.07 56.65 58.65 62.01 62.63 63.31 64.75 63.48 62.16 62.29 62.35 61.77 61.26 60.14 59.81 58.10 55.94 54.79 52.15 48.94 48.09 45.68 45.79 45.32 40.74 37.65 37.75
50.03 51.18 51.36 51.27 51.51 52.07 52.28 52.48 52.59 52.79 53.36 53.66 54.20 54.70 55.45 55.74 55.88 56.42 57.36 58.86 60.82 61.49 62.47 63.39 62.25 61.17 61.58 60.95 60.05 58.98 57.74 55.54 54.50 53.26 51.84 50.64 49.04 46.02 42.20 42.79 42.48 42.13 34.27
50.13 50.40 49.90 49.67 50.85 51.53 51.96 52.33 52.21 51.45 51.97 52.81 53.47 53.46 54.47 55.52 56.47 56.72 56.76 57.71 58.74 59.37 60.57 60.78 60.02 59.41 59.67 59.63 58.57 57.14 56.13 54.53 53.45 52.56 51.59 48.09 42.73 40.99 39.38 38.38 38.17 38.56 37.88
49.36 48.82 48.47 48.91 49.93 50.25 50.12 50.04 50.05 49.58 49.96 50.69 51.65 52.62 53.74 54.78 55.72 55.39 55.27 54.57 54.75 55.42 56.17 56.43 56.62 56.86 57.20 56.05 54.37 53.76 53.04 52.71 51.10 47.61 45.49 41.23 40.17 38.76 38.29 36.96 36.76 35.50 36.20
48.13 47.89 47.21 47.28 47.46 46.50 46.81 47.64 48.37 47.86 48.20 49.13 50.36 51.66 53.05 53.95 54.44 53.94 53.22 53.14 52.96 53.17 52.55 52.44 52.49 52.68 52.90 52.43 51.47 50.04 48.35 48.43 44.61 43.50 41.40 39.09 39.30 36.18 36.76 36.53 34.37 34.13 34.37
47.21 46.78 46.50 45.72 45.61 44.36 44.64 45.44 46.71 46.34 46.50 47.32 48.20 49.50 50.41 51.43 51.60 51.18 51.53 52.00 51.74 51.13 50.38 49.73 48.52 48.34 48.10 48.08 47.94 46.18 45.09 44.09 42.46 41.17 39.44 36.75 36.36 35.46 34.80 34.49 33.57 33.48 34.03
45.38 44.99 44.76 44.91 44.20 43.22 43.01 42.84 43.55 44.83 44.50 44.97 45.37 46.05 47.10 47.60 47.68 47.65 47.79 47.51 48.07 47.76 46.49 45.39 43.37 43.79 42.08 41.20 41.13 40.19 39.48 38.44 38.14 38.06 37.50 37.16 36.44 35.12 34.12 33.90 33.05 32.73 32.12
44.01 43.33 42.92 43.30 42.48 41.72 40.94 40.67 41.31 42.53 43.65 43.36 43.04 43.62 45.10 45.05 45.06 44.96 44.60 44.36 44.23 43.57 43.61 42.00 41.11 40.44 39.78 39.77 38.82 38.04 37.16 36.29 35.71 35.99 35.88 35.60 36.24 37.03 35.95 34.11 32.86 32.83 32.43
42.76 42.44 42.23 40.95 39.56 38.98 38.76 39.26 39.92 40.63 41.92 41.61 41.26 42.22 42.79 42.26 41.60 41.81 41.76 41.47 41.11 41.36 41.45 40.72 40.15 39.71 39.74 40.44 39.84 38.03 36.75 35.89 34.33 33.33 33.62 34.90 36.12 37.09 37.71 37.13 36.53 35.41 33.27
41.81 41.32 40.61 39.14 38.52 37.97 38.30 38.17 39.04 40.20 39.73 39.43 39.49 40.08 40.15 39.19 38.92 39.03 38.17 38.14 38.58 38.88 38.65 39.34 39.66 39.38 39.79 40.96 39.87 37.96 34.61 33.77 32.47 32.31 32.13 32.37 34.36 33.62 32.98 34.83 35.09 36.18 36.38
41.58 41.16 39.63 38.38 38.11 38.18 38.08 38.28 38.40 38.13 38.05 38.22 38.74 38.97 38.62 37.87 37.54 36.96 36.24 35.95 35.69 35.29 35.02 34.35 34.69 35.91 38.15 39.39 38.23 36.30 32.05 31.62 31.45 32.00 31.95 31.84 31.55 31.68 31.24 31.14 31.71 32.13 32.43
42.49 40.66 39.54 38.74 37.57 37.20 37.95 37.74 37.15 36.86 36.46 35.99 36.02 37.18 36.98 35.99 35.54 34.90 34.80 34.88 33.78 33.18 32.75 33.33 32.89 32.47 33.69 37.13 36.56 33.43 31.74 30.87 30.89 31.49 31.64 31.33 30.94 31.89 32.26 31.62 31.84 30.73 30.92
42.46 40.31 40.04 38.46 37.57 37.70 38.16 36.98 36.25 35.92 35.29 35.77 36.06 36.43 35.23 35.20 33.86 33.93 33.23 34.47 34.08 32.94 33.55 31.47 32.18 34.00 32.40 34.77 34.11 32.71 31.51 30.09 30.27 31.04 31.22 30.76 31.01 31.31 32.09 31.61 31.34 29.45 29.36
42.27 41.45 41.12 39.21 38.51 38.78 38.30 36.23 35.86 34.18 36.36 36.83 36.89 36.63 36.33 35.77 35.17 34.30 34.00 33.71 33.25 32.47 32.23 32.19 32.38 33.65 34.44 33.61 33.74 33.04 31.41 30.63 29.93 29.26 28.89 29.98 30.84 32.00 32.52 32.14 30.04 28.91 29.90
41.59 42.13 41.19 40.22 39.51 39.52 38.55 36.64 35.46 36.54 37.18 37.05 36.75 36.63 36.91 36.89 36.56 35.12 34.49 34.59 34.05 32.03 31.12 30.95 30.98 32.63 33.23 34.24 33.41 33.48 32.67 31.68 29.19 28.70 29.47 30.23 31.12 30.78 30.41 29.62 30.17 29.81 29.43
42.46 42.59 42.05 40.54 40.41 40.15 39.61 37.05 36.14 37.16 37.35 36.16 36.05 35.51 34.74 34.58 34.61 33.56 32.87 32.22 32.60 31.53 30.16 29.36 29.15 28.44 29.20 30.38 31.49 31.69 31.39 31.34 30.06 30.23 30.58 30.00 29.17 28.86 28.11 28.22 27.73 27.96 25.58
42.23 42.48 42.02 40.22 39.05 40.15 39.41 39.05 37.95 38.52 37.06 34.13 33.06 33.06 32.55 32.54 32.65 32.43 32.49 31.86 31.34 30.13 29.02 28.01 27.56 27.79 27.94 28.92 30.05 30.15 30.64 30.85 30.39 30.18 30.26 28.13 27.51 27.06 26.07 25.74 25.68 25.01 24.81
42.41 42.03 41.35 41.34 40.04 39.70 39.65 39.45 38.28 35.92 34.02 32.98 32.44 32.04 31.99 31.78 31.03 31.35 31.28 30.10 29.53 29.57 28.56 27.84 27.71 26.98 27.29 28.58 30.02 29.55 28.93 29.12 29.40 28.17 27.25 25.27 24.29 23.69 24.13 24.22 24.50 24.84 25.17
41.26 40.00 40.35 39.56 38.82 38.92 38.48 37.75 36.20 35.38 33.42 31.55 31.36 31.74 31.78 31.85 31.98 31.77 30.50 32.15 31.50 30.89 30.23 29.85 28.91 28.60 28.82 29.90 29.86 29.66 29.59 29.18 28.76 25.13 23.87 22.98 23.25 22.73 22.89 23.00 23.68 24.76 25.49

GFSMW_sfc_wetblb_042.txt.gz
Wetbulb
49.33 50.08 51.50 50.93 50.65 51.23 52.13 52.83 53.80 55.20 55.57 56.69 60.98 65.61 65.23 65.20 66.07 67.06 66.74 66.79 67.60 65.51 64.23 63.69 62.65 62.91 63.52 63.54 62.52 58.53 54.92 52.71 51.17 46.79 44.81 45.52 46.04 46.07 48.61 48.66 47.83 48.04 48.07
47.00 47.90 49.50 49.70 50.36 49.60 49.93 50.75 52.05 53.46 54.72 54.75 55.65 59.70 65.58 65.69 65.88 65.39 66.50 66.77 66.43 66.14 64.95 64.31 63.23 62.42 61.81 61.60 61.35 59.02 53.99 51.84 50.28 44.99 44.37 41.70 43.42 44.23 45.37 47.56 47.60 46.00 46.75
45.49 47.11 48.22 49.28 50.00 49.92 50.30 50.89 50.97 51.46 51.73 52.71 54.24 54.73 55.73 63.97 63.05 63.01 64.50 65.90 66.61 65.75 65.69 65.72 63.55 62.68 61.36 61.17 61.13 59.56 56.33 52.33 49.04 49.10 46.96 43.95 42.44 40.89 43.16 44.81 46.54 45.49 44.44
47.26 49.05 49.44 49.67 49.41 51.25 52.51 53.13 53.05 52.25 52.31 51.39 50.82 50.88 51.51 53.04 60.85 64.20 64.76 64.87 65.23 65.46 66.17 65.71 65.09 64.78 62.05 60.77 60.71 60.51 57.70 52.94 49.72 47.43 50.82 48.12 46.16 41.69 38.59 43.57 45.33 45.97 45.16
46.62 48.19 49.44 50.84 50.96 52.58 52.27 52.83 53.20 52.66 51.89 51.46 50.12 49.37 49.99 51.88 53.81 59.25 61.48 63.00 64.41 65.25 64.84 65.08 64.89 64.44 63.94 62.76 59.94 59.47 57.89 54.79 51.66 49.82 47.41 47.08 43.79 43.14 41.60 36.90 40.35 43.57 44.44
46.69 48.02 50.45 50.39 50.57 51.39 51.37 51.35 51.24 51.37 51.93 51.46 51.36 49.61 48.70 49.62 50.91 54.66 58.16 59.55 59.78 62.10 63.17 63.52 64.03 63.64 63.44 63.22 62.70 60.48 59.08 55.67 53.56 50.44 49.75 47.53 45.67 42.61 41.45 41.14 37.96 39.62 40.81
46.37 47.15 48.01 48.51 49.05 48.90 49.78 50.38 50.07 50.02 50.85 50.69 50.30 50.26 50.20 49.87 49.38 49.94 52.22 57.22 59.81 59.90 61.01 61.56 61.59 62.25 62.88 62.82 62.21 60.27 59.27 56.06 54.58 53.13 51.07 48.80 49.60 47.21 45.85 44.81 40.06 38.44 38.81
45.98 47.70 47.88 47.48 47.59 48.87 49.10 48.96 49.09 49.10 49.77 49.86 50.09 50.62 50.80 50.76 50.77 50.93 51.34 51.76 54.34 58.06 60.14 60.66 60.13 60.04 60.68 61.99 61.55 60.65 59.82 58.27 55.90 55.12 52.25 49.58 48.22 48.54 47.27 47.89 44.73 39.66 37.03
45.85 46.77 47.02 46.62 46.81 47.44 47.82 47.97 48.11 48.19 48.57 48.93 49.41 49.20 49.75 50.49 50.86 51.30 51.87 52.23 53.70 57.01 56.65 56.94 59.22 59.03 60.94 60.86 60.33 59.94 58.86 58.59 56.60 55.60 53.78 49.94 49.26 48.71 47.53 46.93 47.25 45.71 36.32
45.96 46.39 45.71 45.40 46.40 47.06 46.96 46.98 47.32 46.59 47.06 47.36 47.47 48.71 48.84 50.41 51.32 51.74 51.45 51.82 52.20 53.22 53.34 54.41 54.90 56.18 58.28 59.11 58.59 57.58 57.15 55.47 53.70 52.61 51.41 50.20 45.35 44.30 44.27 42.81 42.18 43.42 41.41
45.68 44.95 44.55 44.75 45.41 45.06 44.63 45.05 45.46 45.32 44.89 45.36 45.92 46.70 48.17 49.94 51.01 50.78 50.25 50.70 52.29 52.83 52.65 52.53 52.03 53.81 54.22 54.95 54.06 53.43 52.76 52.24 50.97 49.06 48.61 43.14 42.15 40.91 39.83 39.28 38.89 38.45 39.42
45.31 44.84 43.97 43.55 43.27 42.42 42.62 42.97 43.94 43.45 43.22 43.96 44.42 45.83 47.37 48.36 50.20 48.15 48.14 49.96 51.10 51.11 49.75 50.00 49.74 49.72 49.94 50.63 50.06 49.43 48.41 48.78 45.78 43.74 42.17 40.42 40.10 38.99 38.49 37.21 36.16 36.52 37.43
44.39 43.73 43.08 42.28 41.53 41.13 41.31 41.76 41.79 41.59 41.84 42.43 42.51 43.50 44.30 44.43 44.93 44.19 44.54 45.48 45.83 45.21 43.94 43.13 43.55 43.76 44.23 45.22 43.65 43.41 43.60 43.46 42.89 41.72 40.15 39.27 37.89 36.28 36.06 36.18 35.67 35.90 35.83
43.65 42.30 41.38 40.90 40.27 40.87 41.10 40.81 40.29 40.75 40.92 41.43 40.96 41.20 42.01 41.82 42.21 42.43 42.40 42.54 42.04 41.25 40.34 39.80 39.05 39.08 39.03 39.76 39.40 39.66 38.75 38.30 38.17 38.15 37.91 37.44 36.88 35.87 35.61 35.76 33.84 33.65 33.24
42.25 41.26 40.07 38.79 38.41 39.42 39.48 39.96 40.11 41.05 41.50 40.08 40.15 40.47 41.29 40.71 40.47 40.46 40.38 40.55 41.05 40.62 39.70 38.65 38.53 38.97 39.65 39.31 38.09 37.56 37.21 36.43 35.91 36.15 36.51 36.49 37.58 37.63 36.60 34.78 33.35 33.37 32.47
41.41 40.89 39.90 38.27 38.56 38.10 37.99 38.36 39.25 39.79 40.64 39.99 39.67 41.01 39.93 40.32 39.75 39.95 39.87 38.56 39.16 39.73 40.41 40.15 39.90 39.50 40.12 40.77 39.97 37.04 35.32 34.98 34.27 32.82 32.91 34.21 36.61 38.69 39.14 38.12 37.04 35.13 33.03
40.57 39.29 37.35 36.76 37.59 37.41 37.86 37.63 38.54 39.42 39.18 38.80 39.08 39.30 38.97 37.72 37.62 37.53 37.05 36.96 36.59 36.59 36.43 37.70 38.60 38.52 39.15 40.32 39.24 37.26 33.58 32.55 32.24 32.19 32.19 32.80 34.49 33.71 33.08 36.89 37.05 36.76 36.89
40.30 38.46 36.64 36.15 37.06 37.45 37.82 38.10 38.08 37.52 37.29 37.33 37.32 37.72 37.28 36.48 36.47 36.16 35.61 35.12 35.02 34.52 34.26 33.91 34.59 35.73 37.70 39.39 38.16 35.95 31.75 31.62 31.64 31.76 31.70 31.34 31.34 31.84 31.52 31.43 31.64 31.42 30.93
38.76 37.17 37.02 36.23 36.75 36.71 37.83 37.46 36.90 36.70 36.34 35.65 35.24 35.82 35.45 35.36 35.21 34.60 33.97 34.23 33.42 32.81 32.42 32.68 32.60 33.07 34.30 36.98 36.13 31.61 28.09 28.95 30.09 31.58 31.97 31.55 31.33 32.95 33.10 30.09 28.33 28.01 28.10
38.85 37.47 36.97 37.39 36.80 37.14 37.46 36.66 35.94 35.86 35.25 35.79 35.62 35.71 35.77 35.08 33.67 33.82 33.20 33.73 32.73 32.09 32.33 31.71 32.34 33.43 28.09 34.84 34.33 31.90 29.93 28.10 28.77 29.14 29.26 31.52 30.00 31.99 32.52 29.48 27.29 26.15 25.27
38.83 38.67 37.66 37.80 37.41 38.35 37.55 35.91 35.59 34.02 36.39 37.09 36.85 36.38 36.22 34.74 34.20 33.73 33.22 32.97 32.02 29.79 23.25 28.31 30.65 31.59 28.81 30.34 34.88 34.22 27.54 26.04 25.76 25.32 25.46 27.20 31.92 32.43 32.59 32.09 25.66 26.24 27.42
39.67 39.48 38.15 38.14 38.56 39.24 38.06 36.19 35.26 36.70 36.97 36.95 36.57 36.50 36.53 36.62 34.99 32.72 31.53 27.35 27.12 25.30 24.85 25.02 24.69 25.81 27.73 33.21 33.24 33.39 32.21 31.54 25.70 25.31 25.57 27.41 31.37 30.59 30.53 28.80 30.05 30.02 28.78
39.70 40.36 40.28 38.89 38.45 39.05 38.63 36.28 35.89 36.66 35.92 33.71 32.64 32.28 31.92 31.69 31.45 28.00 26.35 25.26 25.98 24.78 23.69 23.89 22.21 21.62 23.92 24.41 31.35 31.67 31.56 31.05 26.99 26.41 28.99 29.89 29.70 29.38 26.05 28.11 28.77 28.36 21.37
39.98 40.18 39.42 37.48 36.57 37.32 37.02 35.50 34.60 34.91 34.22 29.15 27.60 27.54 27.42 27.10 26.76 26.56 25.53 24.36 23.68 22.86 23.13 22.75 21.83 20.88 22.25 23.32 25.02 26.09 24.82 29.92 27.85 28.24 25.14 27.92 28.17 27.67 26.04 24.82 23.65 22.17 21.10
40.39 40.68 39.61 37.91 37.04 37.03 36.43 35.43 35.33 33.39 29.15 27.54 26.78 26.72 26.94 25.83 25.30 26.78 26.77 24.11 24.24 25.56 22.28 22.20 22.28 20.95 21.46 25.54 28.79 27.97 26.28 25.06 27.56 26.39 23.13 21.66 20.54 19.52 20.82 21.03 21.25 21.27 21.84
40.06 40.43 39.84 39.89 39.20 38.02 37.64 34.86 33.32 30.62 28.39 26.39 25.74 25.12 25.01 25.83 25.69 25.04 24.67 31.91 30.89 30.93 30.59 30.31 26.94 25.53 28.86 30.08 30.21 30.15 30.02 29.97 29.54 22.84 20.09 17.94 17.97 18.48 19.93 20.61 21.12 22.01 24.65

GFSMW_sfc_wetblb_045.txt.gz
Wetbulb
48.14 48.76 48.11 48.40 49.60 49.31 49.59 49.51 50.90 51.77 53.48 55.97 62.66 64.05 64.55 63.92 63.25 65.27 65.94 65.03 65.45 64.55 62.87 62.95 61.53 63.52 63.01 62.86 62.44 60.44 55.57 51.65 50.11 47.00 44.37 44.38 44.44 45.45 47.46 47.83 47.91 49.58 50.52
45.02 47.06 48.27 48.68 48.89 48.91 49.21 49.34 49.61 49.90 50.23 51.91 52.87 59.43 64.06 64.23 65.60 65.53 65.42 65.90 65.11 64.99 64.61 64.01 61.84 61.25 62.84 62.01 61.66 59.69 54.13 53.06 49.94 46.86 42.43 40.82 42.75 43.99 44.72 46.47 47.57 47.15 47.95
44.25 44.34 46.88 48.27 49.16 49.36 49.88 50.97 50.40 50.33 50.49 49.81 50.33 50.78 52.76 60.87 61.95 62.03 62.46 63.89 64.70 64.91 64.76 63.71 62.31 61.22 60.24 61.31 61.98 60.56 57.66 54.47 51.23 48.70 46.47 41.61 41.28 40.68 42.32 44.05 46.00 46.11 45.52
45.41 47.16 48.21 48.86 49.14 49.78 51.06 51.79 52.17 51.53 51.17 49.86 48.46 47.20 47.75 48.75 56.38 61.57 63.10 63.48 64.18 64.70 64.82 64.40 63.58 62.63 62.29 60.92 59.67 60.68 59.14 55.36 51.82 49.64 49.30 48.45 45.27 41.44 40.32 42.31 43.45 45.48 45.45
45.28 46.98 48.53 50.30 50.95 51.09 50.97 50.90 51.13 50.75 50.66 50.34 49.72 47.24 46.45 47.84 49.63 51.34 55.98 61.76 63.47 64.12 64.17 64.19 63.66 61.74 62.30 62.20 61.11 59.69 57.38 55.66 54.90 51.80 48.41 46.53 45.41 42.56 40.50 39.55 41.93 45.26 45.59
45.00 47.01 48.92 49.46 49.81 49.91 49.98 49.85 49.75 50.15 50.28 49.73 49.02 48.38 47.65 46.82 47.00 47.83 48.74 51.89 57.42 60.53 63.19 64.08 63.95 62.61 61.61 61.99 61.61 60.67 59.17 57.97 55.10 51.55 50.01 48.35 47.39 46.79 42.74 42.97 43.01 44.33 45.06
44.11 45.38 46.64 46.94 47.99 48.04 48.51 49.51 48.61 48.56 48.83 48.99 49.53 49.15 48.41 47.98 47.68 47.92 47.97 48.94 50.86 55.46 58.70 61.31 60.86 60.46 60.49 60.64 60.53 60.21 59.96 59.04 56.47 53.45 51.89 51.35 50.83 49.52 47.39 46.01 42.89 42.40 43.52
43.31 45.95 46.21 45.50 45.79 46.89 46.74 46.96 47.19 47.03 47.61 47.43 47.67 48.12 48.07 48.76 49.50 49.57 49.54 49.97 51.21 53.82 55.63 56.52 59.60 59.14 59.01 59.72 60.97 58.65 58.34 56.75 56.14 55.60 53.12 52.24 51.83 50.50 48.46 48.43 45.44 41.13 39.94
45.30 45.60 44.90 44.80 45.33 45.67 45.77 45.65 45.64 45.58 45.85 45.88 45.91 46.18 46.75 47.78 48.97 50.27 50.72 50.92 51.06 53.29 52.46 53.66 54.54 57.43 58.67 57.78 58.07 59.38 58.66 57.25 55.45 54.96 54.85 52.79 51.21 50.12 48.65 48.93 48.55 46.69 42.99
44.96 44.17 43.69 43.97 44.61 43.97 43.66 44.20 44.64 44.03 43.93 44.10 44.15 45.81 46.21 48.06 49.86 49.72 49.11 49.30 49.92 50.56 50.55 50.58 51.10 52.36 53.59 55.14 56.40 56.75 55.56 55.85 54.64 53.76 53.20 50.34 48.52 48.47 47.12 46.17 45.70 46.11 44.69
43.56 42.86 42.53 42.96 42.36 42.18 42.29 42.61 42.92 42.30 41.74 42.31 42.86 43.85 45.53 47.40 48.98 47.02 47.26 48.14 49.11 48.35 48.03 48.46 48.48 48.59 49.55 50.36 50.83 50.86 52.13 51.96 50.94 50.00 50.30 46.12 45.05 42.74 41.61 41.37 41.68 42.22 42.93
43.74 43.16 42.49 41.29 40.50 40.56 40.92 40.31 40.72 40.66 40.71 41.57 41.83 42.75 43.50 43.85 45.76 44.40 42.91 44.31 44.22 42.51 41.83 42.16 43.01 44.12 45.79 46.51 47.96 47.54 47.26 47.39 45.30 45.11 43.24 41.15 41.27 39.42 39.25 38.94 38.10 38.62 38.81
43.16 41.99 41.23 40.33 39.70 39.65 39.52 39.53 39.61 39.47 40.23 40.79 40.64 41.30 41.16 41.17 40.91 41.14 41.54 41.49 40.79 39.61 39.26 38.99 38.62 38.92 41.03 41.77 42.11 42.13 41.87 42.25 42.06 41.70 41.07 39.62 38.72 37.36 37.12 37.16 37.03 37.11 37.62
42.53 40.95 39.53 38.81 38.71 38.58 38.65 39.84 40.57 39.78 39.53 40.06 39.70 39.73 39.31 39.19 39.44 39.83 39.94 40.26 39.73 38.67 38.20 38.05 38.02 38.35 38.18 37.95 38.22 38.32 38.32 38.30 38.01 38.14 38.05 37.78 37.58 36.72 36.22 35.60 34.50 34.15 34.25
40.86 40.43 38.42 36.89 36.48 36.84 38.43 39.54 39.83 40.72 41.06 39.30 39.66 40.27 39.92 38.81 38.75 38.74 38.59 38.83 39.46 40.20 40.40 39.28 39.70 39.76 39.88 38.96 35.53 35.27 34.81 34.84 35.82 36.26 36.90 37.24 38.11 38.38 37.32 35.31 33.87 33.79 33.15
40.34 39.27 37.94 37.13 36.44 36.78 37.41 38.51 39.11 39.23 40.32 39.32 39.21 40.14 39.50 38.78 38.38 38.65 38.59 38.60 38.64 38.95 38.61 38.57 39.06 37.73 38.98 40.22 39.30 35.91 34.59 34.35 34.19 33.31 33.80 34.97 36.00 38.42 39.69 38.47 37.27 35.78 33.48
39.69 38.02 36.68 35.96 36.55 36.30 37.89 37.50 38.07 38.96 38.84 38.45 38.25 38.24 37.96 37.33 37.12 37.21 36.78 36.54 36.29 36.28 35.77 36.67 37.79 37.91 38.32 39.51 38.73 37.17 33.51 32.81 32.12 32.33 32.33 32.53 33.86 33.23 32.17 35.97 36.92 36.68 37.34
38.76 37.03 35.84 35.14 35.58 37.65 37.91 38.08 37.99 37.35 36.91 36.59 36.81 37.06 37.01 36.50 36.44 36.11 35.62 35.43 35.26 34.26 34.12 34.22 35.04 36.64 38.14 38.96 37.67 35.68 28.11 29.40 30.30 30.63 28.90 30.56 30.31 31.79 31.80 31.43 31.29 31.03 30.65
37.91 36.40 35.61 34.91 36.47 37.13 37.85 37.40 36.86 36.73 36.22 35.44 35.47 35.84 36.14 35.57 35.41 34.69 34.32 34.13 32.73 31.87 32.00 32.77 33.14 33.15 34.49 36.45 35.64 30.04 24.63 24.97 26.03 27.84 29.19 29.36 29.34 32.80 32.79 29.88 28.54 28.13 27.98
37.39 35.81 35.12 35.42 36.53 36.76 37.63 36.63 36.13 35.90 35.27 35.29 35.40 36.02 36.01 35.24 33.86 33.58 32.69 33.17 32.85 32.02 32.24 31.34 25.95 32.29 23.17 35.29 34.61 30.52 27.78 25.23 26.06 26.30 26.52 32.24 29.53 33.04 33.35 27.30 24.97 24.26 23.93
37.24 36.69 35.66 35.37 36.23 36.07 37.12 35.68 35.61 34.20 36.47 36.69 36.25 35.91 35.57 34.64 34.05 33.48 33.45 32.16 25.82 22.81 26.70 29.44 30.44 26.57 27.20 29.89 35.04 33.32 26.32 24.50 24.17 24.02 24.53 26.77 32.28 32.29 32.26 31.64 24.67 25.71 26.92
37.83 37.15 36.06 37.25 37.96 37.90 37.28 35.81 35.21 36.68 36.98 37.00 36.70 36.34 34.53 34.47 33.57 31.99 30.62 25.86 24.60 23.64 23.39 23.25 22.81 23.98 25.51 32.37 32.74 32.92 32.28 30.86 25.42 25.16 25.96 26.48 31.28 30.58 30.59 28.63 29.71 29.58 27.96
38.45 38.34 37.18 37.70 38.27 38.67 37.77 35.68 35.99 36.80 36.67 33.93 32.78 32.50 32.81 32.65 31.68 29.35 27.95 24.57 23.86 22.97 22.47 23.12 21.06 20.69 23.05 23.17 31.51 32.24 32.26 31.41 26.73 25.77 28.91 30.23 29.96 29.42 26.37 27.63 28.54 27.86 20.83
39.03 39.30 38.10 37.12 37.02 38.36 38.25 36.82 36.09 35.00 33.25 31.14 28.21 25.92 25.17 25.06 24.77 24.62 24.74 22.97 22.16 21.56 22.20 21.96 20.95 19.74 21.32 23.36 24.57 25.56 24.31 28.75 27.28 28.08 23.80 27.44 28.65 27.85 25.99 24.14 23.28 21.76 20.74
40.15 40.37 39.39 38.23 37.38 37.12 36.31 35.24 34.59 33.40 31.49 26.29 25.23 25.13 25.48 23.78 24.74 26.12 23.36 23.65 23.21 23.92 21.53 21.64 21.74 20.36 21.07 24.96 28.66 28.05 26.15 24.77 27.49 26.19 22.11 21.00 20.07 19.04 20.35 20.75 20.96 21.24 21.82
40.33 39.57 40.30 39.36 38.59 38.35 37.23 35.09 35.36 32.27 27.23 25.30 24.83 24.16 23.35 23.10 24.27 24.53 24.19 31.54 30.88 31.28 30.98 30.66 26.29 25.43 28.73 30.28 30.26 30.32 30.36 30.29 30.23 23.23 19.82 17.69 17.37 17.83 19.30 19.82 20.26 20.98 21.75

GFSMW_sfc_wetblb_048.txt.gz
Wetbulb
45.74 46.58 46.76 46.90 48.37 48.35 48.38 48.97 50.24 49.97 56.63 62.12 63.12 63.02 64.06 63.98 63.62 64.22 65.22 65.12 65.88 64.54 61.81 61.38 60.64 61.34 62.06 62.29 61.68 60.40 57.98 53.76 50.33 49.62 48.06 46.13 45.65 45.09 46.67 47.29 51.86 52.78 52.18
44.19 46.17 46.86 47.14 48.37 48.81 49.65 49.16 49.11 49.61 49.81 50.76 51.95 59.87 63.23 63.65 64.57 64.45 64.05 64.60 64.48 64.33 64.36 62.07 61.18 60.48 62.14 61.07 60.57 60.01 57.05 56.22 51.50 49.55 44.78 45.92 45.27 44.23 45.44 45.35 47.49 48.99 51.58
44.00 44.85 45.73 47.41 48.53 48.99 49.71 50.89 50.95 50.21 49.72 49.50 49.82 50.05 50.81 58.13 61.13 61.41 61.99 63.75 64.17 64.27 63.26 63.50 62.22 60.43 61.20 61.61 61.25 60.57 58.18 58.15 51.96 50.64 49.40 41.00 42.91 41.52 42.35 43.09 45.17 46.34 45.94
42.96 45.86 47.00 47.69 48.46 49.01 49.75 50.62 50.82 50.01 50.46 49.28 48.12 46.65 46.70 47.04 51.52 58.37 60.88 62.29 62.52 63.20 63.73 63.58 62.93 62.65 60.91 60.21 60.62 61.35 60.51 56.80 53.81 50.52 50.82 49.31 45.33 42.53 43.27 41.90 41.67 43.99 44.55
44.58 46.08 47.45 48.92 50.03 49.57 48.64 48.55 48.95 49.25 49.06 48.70 48.24 47.01 46.25 46.25 47.31 48.48 49.38 52.13 56.91 61.14 62.86 63.52 63.28 61.71 61.53 61.19 60.17 58.27 58.63 58.51 58.97 50.66 49.68 48.33 46.30 43.79 42.95 42.05 42.41 46.41 45.46
44.09 46.08 47.40 49.08 48.67 48.61 48.14 47.89 48.18 47.82 48.28 48.37 48.10 47.35 46.52 46.40 46.88 46.79 46.99 47.94 50.34 54.15 57.58 60.87 62.10 62.00 60.70 59.91 59.80 59.01 57.73 58.49 57.34 56.17 53.40 50.82 48.49 48.81 44.19 40.95 42.28 42.85 46.71
43.43 45.01 45.68 46.22 46.80 46.76 46.81 47.95 47.08 46.37 46.82 46.81 46.89 46.88 46.48 46.92 47.57 47.62 48.03 48.86 49.80 51.98 53.31 55.11 57.70 59.27 59.56 59.81 59.24 58.47 58.16 57.38 56.92 56.11 54.29 53.75 51.98 51.30 49.79 48.94 47.16 43.57 44.90
42.09 44.92 45.00 44.45 45.28 45.76 45.58 45.52 45.32 44.94 45.14 44.84 45.01 45.54 45.97 46.82 48.47 49.03 49.60 49.96 50.29 51.37 52.08 53.01 54.24 55.86 57.33 57.73 57.96 57.66 57.34 57.66 56.83 56.78 54.47 54.10 53.22 51.93 51.11 49.58 47.27 43.13 41.51
43.32 44.57 43.97 43.87 44.05 43.72 43.39 43.75 43.70 43.36 43.36 43.41 43.63 44.45 45.61 46.95 48.69 48.91 48.91 48.96 49.25 51.52 50.34 50.69 51.47 52.55 53.73 55.55 56.44 57.91 57.22 55.17 54.56 54.16 55.50 53.07 52.94 51.77 51.27 50.55 49.68 48.53 43.97
44.44 43.10 42.56 43.12 42.71 42.55 42.40 42.69 42.41 41.66 41.70 42.20 42.57 44.69 45.60 48.58 48.41 47.66 46.93 47.64 47.77 47.59 47.52 47.81 48.16 48.79 50.19 51.25 52.23 54.01 54.03 53.29 53.72 53.98 53.74 52.94 49.89 49.23 48.61 47.87 47.56 47.22 47.00
43.03 41.68 41.70 42.02 41.37 41.38 41.24 41.00 40.89 40.63 40.54 41.15 41.80 42.74 43.23 44.65 44.48 43.42 43.91 44.82 42.74 42.16 41.93 43.29 44.22 44.89 45.45 46.45 47.45 47.27 47.45 48.57 49.25 47.99 49.11 47.04 46.10 44.87 44.15 43.68 43.36 43.16 43.31
42.98 41.78 41.08 40.33 39.92 39.74 39.35 39.11 39.52 39.68 39.78 40.35 40.85 41.42 41.47 41.69 41.67 40.92 40.71 41.01 39.78 39.66 39.22 39.35 39.64 40.43 41.25 41.44 42.35 43.46 43.83 45.06 44.17 43.78 43.00 41.21 41.83 40.03 39.87 39.77 39.49 39.78 40.23
42.20 41.00 40.15 39.72 39.05 38.58 38.49 38.48 38.64 38.41 39.00 39.79 39.99 39.68 39.27 39.32 39.08 39.38 39.86 39.89 39.00 38.27 38.13 38.22 37.98 38.02 38.41 38.34 38.53 39.95 40.08 40.00 39.94 40.27 40.19 39.53 39.34 38.32 37.94 37.73 37.49 37.14 37.98
41.45 39.85 38.92 38.50 38.08 37.89 37.78 38.24 38.54 39.17 38.76 39.13 38.96 38.01 37.95 38.08 38.17 38.59 38.78 39.30 38.60 37.71 37.59 37.80 37.97 37.97 36.90 36.43 36.23 36.02 35.28 36.15 37.51 37.72 37.62 37.48 37.24 36.77 36.33 35.51 34.56 34.53 34.73
40.49 39.88 37.94 36.58 36.02 36.29 37.13 37.78 39.18 40.38 40.93 38.72 39.26 39.27 39.36 38.27 38.33 37.86 38.37 38.22 37.94 37.89 38.18 37.68 37.73 37.86 38.99 38.04 34.20 34.34 34.02 34.61 35.29 35.81 37.05 38.40 39.30 39.77 38.44 35.81 34.16 33.96 33.36
40.15 39.33 37.95 36.61 35.90 35.74 36.03 38.58 39.08 39.16 40.17 39.32 39.22 39.43 38.98 38.79 38.59 38.33 38.34 37.93 37.64 37.91 38.41 38.15 37.85 38.21 38.64 39.63 38.60 35.86 34.60 34.57 34.17 33.36 33.41 34.83 36.01 37.29 40.42 39.46 38.60 37.00 33.89
39.24 37.88 36.84 35.93 35.52 35.36 37.19 37.77 38.17 39.05 38.69 38.04 38.07 38.06 38.00 37.36 37.29 37.34 36.89 36.25 35.77 36.06 35.87 36.27 37.69 38.01 38.46 39.31 38.27 36.28 33.40 32.52 31.86 31.02 29.06 31.08 33.05 32.63 32.52 35.26 36.23 36.33 37.89
38.76 37.22 35.87 35.05 35.37 36.58 37.45 37.61 38.12 37.52 37.07 36.91 36.80 37.45 37.25 36.63 36.68 36.24 35.49 34.73 34.45 34.11 34.27 34.31 34.94 36.12 37.72 38.65 37.33 34.84 26.05 24.09 22.51 23.05 21.80 22.59 26.50 31.49 31.83 27.83 28.06 28.43 28.32
37.93 36.49 35.62 34.81 35.85 36.76 38.00 37.59 36.98 36.80 36.31 35.62 35.80 36.45 36.64 35.93 35.55 34.47 33.64 33.24 32.44 32.49 32.49 33.18 33.37 32.87 28.56 35.64 34.60 27.69 19.56 21.86 22.29 25.77 26.66 26.87 26.77 32.58 33.69 27.41 25.71 25.61 25.74
37.04 35.57 35.00 35.06 35.77 37.23 37.68 36.76 36.06 35.86 35.16 35.42 35.78 36.44 36.35 35.37 33.82 33.26 32.41 33.01 32.39 32.01 28.91 23.67 21.00 31.22 20.45 35.46 34.05 29.27 26.38 24.01 24.43 24.12 24.98 32.69 30.36 33.61 33.77 26.23 24.53 23.36 23.89
36.34 35.93 35.34 34.77 35.17 35.89 37.27 35.79 35.61 34.36 36.04 36.25 36.38 36.06 35.59 34.24 33.82 33.05 32.74 29.42 27.88 28.94 29.16 29.89 30.14 24.20 26.62 28.93 34.23 32.88 26.23 24.39 24.15 24.16 24.88 26.63 32.64 32.30 31.83 31.39 24.49 25.49 26.61
36.29 35.67 34.75 35.45 36.06 36.10 36.65 35.51 34.16 36.53 36.82 36.67 36.22 35.20 34.62 34.25 33.75 31.38 29.83 25.56 22.62 22.47 22.88 23.11 22.43 22.85 23.43 31.70 32.08 32.86 32.14 30.41 25.57 25.42 25.93 26.04 31.26 30.95 30.70 27.96 29.72 29.95 28.15
36.88 36.54 35.78 36.02 36.55 36.41 35.46 35.27 35.67 36.75 36.57 36.10 35.64 32.24 31.53 31.58 30.21 27.01 26.11 26.28 24.81 22.22 21.91 23.18 20.83 20.44 22.83 22.76 31.12 32.26 32.59 32.01 26.61 25.72 28.79 30.97 30.95 30.34 26.75 27.73 28.83 26.42 20.62
37.59 37.51 36.86 36.33 36.74 37.29 36.30 35.01 36.41 36.73 34.25 31.89 30.62 29.97 28.80 27.53 26.03 25.65 24.53 22.78 21.94 21.18 22.16 21.80 20.96 19.57 21.05 23.18 24.36 25.70 24.13 28.44 27.34 28.08 23.33 26.57 27.35 27.09 25.39 23.53 22.81 21.54 20.54
39.58 38.96 37.96 37.58 37.27 37.99 36.72 35.48 35.36 34.27 31.79 30.10 27.69 24.26 24.19 24.39 22.60 23.57 22.30 23.30 22.22 22.57 21.41 21.34 21.40 20.09 20.79 24.28 28.72 28.12 26.05 24.84 27.66 26.56 22.20 20.17 19.32 18.77 19.76 20.31 20.74 21.02 22.00
40.55 39.63 39.02 38.98 38.74 38.47 37.82 35.87 35.33 34.20 32.00 27.29 24.69 23.86 23.26 22.25 23.93 25.04 24.45 30.86 30.59 31.74 31.16 30.18 25.45 25.08 28.59 30.71 30.49 30.38 30.56 30.58 30.57 23.93 19.76 17.09 16.70 17.07 18.52 19.00 19.26 19.73 20.89

GFSMW_sfc_wetblb_051.txt.gz
Wetbulb
44.77 44.29 45.15 45.92 47.19 47.25 47.42 48.32 51.80 50.02 60.84 62.73 62.50 62.21 62.97 63.16 63.18 64.11 64.94 65.37 65.30 62.87 61.22 61.38 60.82 61.13 61.20 61.26 60.62 59.27 58.55 56.97 51.04 49.32 48.00 47.00 47.75 45.71 46.35 46.91 50.59 53.83 54.15
42.82 44.34 45.35 45.52 47.38 47.50 47.84 48.16 48.27 48.53 48.58 51.10 53.56 61.01 62.12 62.99 63.51 63.75 63.96 64.45 64.55 64.51 63.53 61.45 60.80 60.25 60.76 60.24 60.00 59.58 57.47 56.10 52.35 51.46 46.86 48.27 48.66 45.03 45.91 45.08 47.36 49.10 53.27
43.01 43.98 44.49 45.93 46.98 47.83 48.83 49.73 49.60 49.09 48.78 48.31 48.52 48.81 49.40 54.62 60.32 61.10 61.90 62.95 63.93 63.86 63.34 63.66 62.40 60.80 59.88 60.13 60.08 59.42 58.54 58.81 51.79 51.47 54.51 46.15 45.22 43.40 44.37 42.61 43.93 46.11 47.07
42.08 44.18 45.36 45.82 47.15 48.07 49.06 49.33 48.91 48.82 48.94 48.39 47.55 46.41 46.22 46.28 48.06 51.40 54.70 53.96 59.62 61.63 62.39 62.46 62.10 61.92 60.36 59.49 60.07 60.54 60.09 57.07 56.42 49.52 51.57 51.11 48.12 47.18 46.26 44.66 42.56 42.23 44.70
42.15 44.35 45.66 47.11 48.22 48.34 47.46 47.39 47.94 48.39 48.34 48.07 47.53 46.66 46.24 46.48 47.36 47.58 47.82 48.68 50.45 52.76 57.84 60.23 61.10 60.94 60.50 60.34 59.29 57.95 57.97 58.14 59.03 54.58 48.81 50.82 48.62 46.63 46.26 50.01 48.41 44.91 46.32
42.18 44.62 46.16 47.94 47.24 46.76 46.39 46.51 46.82 46.59 47.26 47.55 47.27 46.73 46.29 46.49 47.01 47.11 47.36 48.58 49.56 52.61 53.94 55.19 57.72 60.43 60.10 59.33 59.25 58.08 57.30 58.05 57.87 58.00 54.87 52.18 49.94 49.22 46.81 45.73 49.01 46.52 47.34
42.94 44.05 45.52 45.70 45.67 45.35 45.64 46.33 45.77 45.01 45.09 45.02 45.35 45.61 45.47 45.96 46.65 47.14 47.37 48.33 49.95 50.96 50.97 52.42 53.56 55.86 59.72 60.35 59.50 57.35 57.33 56.68 57.13 56.57 56.03 54.73 54.85 53.54 51.03 49.55 48.93 46.22 46.26
42.15 44.01 44.72 44.49 44.59 44.75 44.45 44.44 44.24 43.55 43.60 43.45 43.77 44.40 45.27 46.05 47.74 48.31 48.88 48.83 48.90 49.76 50.13 50.47 51.33 52.22 54.16 55.94 56.02 55.98 56.12 56.25 57.32 56.30 54.38 52.94 54.13 52.82 51.68 50.31 47.82 45.45 43.44
42.33 43.61 43.30 43.41 43.38 42.86 42.84 42.96 42.58 42.03 42.24 42.22 42.98 44.24 45.28 46.28 47.49 46.88 47.17 47.40 47.40 49.73 48.39 48.43 48.82 49.45 51.18 52.41 55.84 57.72 56.85 56.41 55.40 55.89 55.23 53.28 51.33 50.61 51.40 51.23 50.57 48.71 44.24
42.62 42.55 42.18 42.57 41.94 41.88 41.70 41.31 41.24 40.56 40.65 41.21 42.00 43.32 43.94 45.63 45.22 45.25 45.21 44.79 43.67 43.71 44.13 45.33 45.45 45.92 46.40 47.87 49.49 50.38 50.74 51.90 51.43 51.44 52.16 52.02 49.63 49.55 49.09 48.45 48.24 47.95 47.51
42.97 41.61 41.50 41.43 40.92 40.76 40.23 39.88 39.79 39.66 39.50 40.17 41.18 41.29 41.78 42.38 41.97 41.63 41.62 40.96 40.23 40.06 39.96 40.49 41.23 41.58 41.58 42.67 44.31 44.62 44.80 46.20 46.47 45.72 45.63 43.53 44.00 43.33 42.74 42.88 42.72 42.84 43.14
42.81 41.46 41.36 40.18 39.91 39.10 38.81 38.65 38.67 38.63 38.68 39.52 40.54 40.19 40.41 40.52 40.34 39.81 39.62 39.56 38.62 38.69 38.52 38.77 38.74 38.77 39.01 39.02 39.43 40.28 40.64 40.76 40.27 42.34 42.42 40.97 41.99 40.33 40.03 39.98 39.39 39.40 40.09
42.27 40.98 40.19 39.61 39.02 38.34 37.93 37.98 38.00 37.74 38.39 39.24 39.18 38.67 38.47 38.52 38.28 38.43 38.76 38.68 38.09 37.59 37.75 37.93 37.31 36.76 36.92 36.70 36.76 36.86 37.25 38.80 38.62 38.06 37.35 37.60 38.41 37.86 37.87 37.65 37.09 36.85 37.48
41.65 40.20 39.90 39.40 38.73 38.22 37.88 38.09 37.95 38.00 38.34 38.83 37.94 37.19 37.11 37.33 37.25 37.85 38.01 38.22 37.91 37.33 37.16 37.02 36.98 37.20 35.86 35.17 34.93 34.72 34.30 35.41 36.80 36.98 36.77 36.57 36.91 36.57 35.86 34.91 34.75 34.72 34.75
39.83 39.34 38.62 37.63 37.01 36.57 37.48 37.54 38.00 39.09 40.61 38.79 37.84 37.66 38.36 38.36 38.16 38.66 39.19 38.56 37.11 37.09 36.83 37.06 38.51 38.69 38.50 38.06 34.96 35.36 35.56 35.64 35.66 35.73 36.32 37.85 40.12 40.72 39.05 35.83 34.31 34.33 33.74
40.95 39.76 38.44 37.24 36.08 36.10 35.96 37.58 38.15 39.28 40.24 39.58 39.27 39.36 39.10 39.08 38.53 38.54 38.15 37.96 37.52 37.84 38.20 38.29 37.74 37.97 38.06 39.55 38.41 36.26 34.69 34.48 33.85 32.79 32.69 34.65 35.82 36.26 40.06 40.03 39.69 37.54 32.66
40.84 39.33 38.25 37.14 36.05 35.17 36.39 36.86 38.08 39.30 38.83 38.26 38.29 38.30 38.13 37.66 37.57 37.48 36.91 36.15 35.89 36.38 36.16 36.77 37.85 37.44 37.51 38.76 37.73 35.99 32.98 31.69 28.42 25.78 25.35 30.58 31.94 31.66 28.27 32.92 34.26 34.07 35.62
39.52 38.15 36.88 35.94 35.86 36.42 36.93 37.18 37.55 37.78 37.55 37.15 37.20 37.69 37.50 36.93 36.94 36.32 35.24 34.56 34.61 34.37 34.60 34.64 34.22 33.11 36.08 37.65 36.77 33.70 23.37 23.51 25.35 23.93 18.78 19.32 21.40 26.46 27.87 26.07 26.45 26.73 26.49
38.43 37.14 36.50 35.79 35.76 35.92 36.36 36.10 36.98 36.93 36.60 36.05 36.21 36.86 37.03 36.28 35.75 34.34 33.45 33.33 33.14 32.94 32.65 32.61 30.35 25.21 25.43 35.29 34.07 26.92 18.98 21.57 21.62 24.64 24.63 25.60 26.20 33.73 33.87 27.04 25.37 24.92 25.37
37.70 36.27 35.14 35.09 35.35 35.69 36.31 36.39 36.25 36.22 35.52 35.75 36.16 36.73 36.87 35.70 33.97 33.27 32.73 33.03 32.84 31.25 27.15 23.47 20.13 30.68 20.23 34.94 33.41 28.04 25.36 22.59 23.03 23.47 24.82 31.72 30.88 33.46 33.24 26.04 24.28 23.07 23.81
36.19 35.80 35.41 35.16 35.47 36.18 36.58 36.17 35.92 34.61 36.17 36.54 36.66 36.43 35.75 34.31 33.67 32.82 32.74 31.73 30.21 29.77 27.07 25.64 22.86 22.79 26.24 27.58 34.06 33.21 26.31 24.75 24.53 24.47 25.39 26.61 32.35 32.39 31.96 31.36 24.03 25.03 26.22
36.03 35.49 34.73 35.16 35.89 36.53 36.26 35.44 35.01 36.11 36.42 36.34 36.00 35.19 34.65 34.72 33.67 31.77 29.05 25.31 23.55 23.29 23.59 22.97 22.50 22.50 22.10 30.56 31.66 33.01 32.15 30.55 25.68 25.54 25.58 25.83 31.56 31.49 31.04 27.73 29.91 30.17 26.82
35.95 35.91 35.47 35.24 35.53 36.03 35.98 35.20 34.57 35.27 35.58 35.38 34.67 32.12 33.70 33.40 32.03 28.13 25.53 24.74 23.20 22.05 21.87 23.11 21.05 20.61 22.96 22.48 30.92 32.02 32.08 31.20 26.91 26.03 28.44 30.24 30.14 30.74 26.98 27.89 29.00 26.12 20.07
36.24 36.15 35.82 35.24 35.21 35.82 35.53 35.55 35.47 35.97 35.86 34.73 31.93 30.51 29.50 30.15 27.59 28.51 27.00 24.46 22.67 21.14 21.90 21.78 21.11 19.60 20.80 22.23 23.93 25.69 24.16 28.37 27.81 28.37 23.67 26.75 26.38 26.63 25.28 23.30 22.50 21.34 20.52
38.94 37.78 37.00 36.78 36.80 37.27 35.99 35.17 35.21 34.53 32.26 31.10 30.31 29.39 28.84 29.42 24.09 23.62 22.64 23.28 21.50 22.42 21.53 21.24 21.33 20.09 20.10 24.06 27.70 27.90 26.01 24.53 27.59 26.99 22.74 20.17 19.11 18.40 19.07 19.67 20.17 20.23 21.13
39.97 38.93 38.76 38.73 38.46 38.03 37.29 36.41 35.46 34.30 31.88 30.28 29.18 26.16 23.81 23.44 23.25 23.65 24.07 30.09 29.88 32.70 32.34 30.07 25.21 24.54 28.60 30.63 31.24 30.92 30.83 30.97 30.95 24.34 20.78 18.06 16.53 16.43 17.51 18.00 18.32 18.71 19.70

GFSMW_sfc_wetblb_054.txt.gz
Wetbulb
47.75 45.45 45.20 45.25 46.01 47.83 51.44 55.87 60.35 59.38 62.70 62.19 61.71 61.37 61.74 61.97 62.03 63.16 63.98 64.29 62.80 61.52 60.84 61.22 60.59 60.66 60.40 60.62 59.76 58.63 58.32 56.52 53.09 52.41 51.79 49.06 48.76 48.12 48.31 46.48 48.60 51.18 54.08
43.11 44.41 43.76 44.40 46.63 46.40 46.98 47.49 48.45 48.34 52.14 57.48 59.06 61.50 61.30 61.66 62.20 62.63 62.98 63.73 63.85 63.97 62.85 60.75 60.36 59.99 60.39 59.75 59.45 58.47 56.14 56.21 52.63 54.39 48.53 51.93 51.78 46.50 46.99 45.54 46.18 46.36 51.49
42.65 42.90 43.41 44.88 45.80 46.64 47.30 48.40 48.49 48.28 48.20 48.01 48.14 48.36 48.97 51.65 57.97 59.80 60.77 61.81 62.91 63.48 63.28 63.27 62.50 60.69 59.58 59.49 59.18 58.61 58.21 58.09 52.36 51.59 56.34 49.13 48.77 47.03 47.48 44.12 43.40 44.23 45.75
41.49 42.73 43.64 44.66 45.98 47.12 48.24 48.35 48.31 48.20 48.28 48.03 47.15 46.12 45.94 45.94 46.96 48.54 50.31 50.04 52.45 56.14 60.13 61.51 61.88 61.63 60.50 59.26 59.54 59.38 59.13 56.99 58.55 51.51 52.66 52.80 50.05 50.16 49.33 48.52 45.56 42.93 43.04
42.11 42.45 44.02 45.67 46.33 47.43 46.68 46.64 47.60 47.90 47.84 47.82 47.26 46.55 45.87 46.15 46.77 47.16 47.62 48.07 49.21 51.29 54.45 55.39 56.83 59.33 60.58 61.15 59.24 58.03 57.01 57.43 58.60 55.99 51.90 51.78 49.63 47.64 48.12 50.53 51.25 48.09 47.08
41.31 42.49 44.41 46.42 46.23 45.46 45.51 45.95 46.32 46.25 46.81 46.84 46.60 46.37 46.22 46.39 46.87 47.09 47.31 48.40 49.46 52.14 52.03 53.03 53.62 57.30 59.03 59.71 60.39 59.53 57.79 57.14 58.17 58.36 54.76 52.44 51.13 49.27 47.66 46.86 47.78 49.13 48.44
39.01 41.94 44.39 45.31 44.62 44.45 44.71 45.25 45.11 44.14 44.47 44.66 44.96 45.16 45.28 45.61 46.31 46.96 47.32 48.33 49.66 50.30 50.24 50.74 50.98 51.96 54.26 58.21 59.97 59.51 58.76 57.55 57.46 57.08 56.77 55.56 54.89 53.83 51.13 50.02 49.63 47.96 47.51
39.68 43.27 45.00 44.30 44.08 44.26 44.10 44.02 43.36 42.60 42.87 43.04 43.62 44.54 45.28 45.86 47.29 48.06 48.37 48.02 48.12 48.70 49.09 48.80 49.13 49.72 51.38 52.99 57.52 57.82 57.76 57.45 57.19 57.11 56.01 55.24 52.40 53.01 50.10 50.20 46.66 46.59 45.15
41.60 42.78 43.47 43.40 43.10 42.82 42.72 42.59 41.87 41.31 41.41 41.81 42.94 43.45 45.09 45.83 46.61 46.08 46.43 46.39 45.43 47.43 45.77 46.11 46.31 46.92 47.85 49.66 54.60 55.37 54.75 55.80 54.89 54.62 54.88 54.13 52.99 51.52 51.43 50.97 50.50 49.05 44.20
42.31 42.43 42.10 42.21 41.80 41.81 41.16 40.85 40.80 40.20 40.06 40.81 41.66 42.40 42.79 43.72 43.84 44.29 43.22 41.77 41.16 41.28 41.44 42.08 42.56 42.73 43.48 45.52 47.40 49.59 50.76 50.42 49.21 49.83 48.01 47.04 47.64 47.13 46.63 46.95 47.19 47.24 46.39
42.09 41.72 41.38 40.93 40.54 40.12 39.62 39.26 39.29 39.23 39.05 39.66 40.21 40.30 40.89 40.99 40.80 40.26 39.61 39.26 38.94 39.13 39.28 39.70 39.83 39.82 39.68 40.62 42.32 42.60 43.76 45.64 44.26 43.61 43.07 43.04 43.52 42.70 42.48 42.96 43.04 42.73 43.07
42.21 41.10 40.76 39.40 39.06 38.55 38.30 38.08 38.30 38.31 38.31 38.91 39.16 39.14 39.37 39.38 38.94 38.47 38.29 38.32 37.68 37.96 37.97 38.04 37.71 37.58 37.70 37.45 38.02 38.56 38.78 38.81 38.43 39.05 40.66 39.73 41.53 40.00 40.09 40.14 39.45 39.45 39.94
40.58 40.20 39.92 39.49 38.79 38.03 37.63 37.72 37.79 37.31 37.90 38.68 38.06 37.58 37.32 37.11 36.69 36.93 37.34 37.66 37.37 37.11 37.52 37.16 36.24 35.72 35.77 35.41 35.29 35.30 35.76 36.35 36.00 35.59 35.06 34.95 35.20 34.45 36.06 37.11 36.64 36.66 37.20
40.61 39.14 39.13 39.07 38.94 38.31 37.76 37.63 37.41 37.61 37.68 38.26 37.42 36.60 36.36 36.66 36.48 36.96 37.15 37.50 37.03 36.33 36.17 36.68 38.18 36.81 34.69 34.97 35.55 35.90 36.20 36.64 37.04 37.84 38.51 37.63 34.94 33.54 32.91 34.49 34.59 33.77 34.66
39.45 39.01 38.55 38.15 37.34 36.88 37.37 37.75 37.84 38.49 38.58 38.33 37.59 37.07 37.55 37.56 37.93 39.30 39.07 37.83 36.82 36.33 38.11 38.30 38.52 38.51 38.55 37.17 35.98 36.35 36.32 36.17 35.31 35.32 36.46 37.48 39.45 40.81 39.05 36.27 34.85 34.79 34.21
41.17 39.39 38.59 37.91 36.90 35.89 36.13 36.88 37.61 38.50 39.83 40.05 39.61 39.69 39.36 39.25 38.87 38.71 38.34 37.99 37.79 38.15 38.60 38.12 37.80 37.78 38.22 39.24 38.49 36.29 34.33 33.39 31.94 31.70 31.60 33.91 33.83 34.58 39.11 38.70 38.94 37.43 32.50
41.54 40.28 38.70 37.66 36.48 35.73 35.74 36.04 37.07 38.43 38.78 38.63 38.60 38.57 38.39 37.97 37.84 37.56 36.94 36.29 36.23 36.71 36.55 37.03 37.34 36.30 37.16 38.33 37.37 35.67 31.20 25.78 23.78 24.05 24.21 28.61 30.49 28.79 25.99 32.00 33.28 33.02 35.00
40.71 39.58 38.17 36.91 36.48 35.96 36.18 36.75 37.27 36.91 37.81 37.46 37.67 37.97 37.72 37.28 37.09 36.27 35.29 34.97 35.19 34.88 34.78 33.61 31.06 32.02 35.48 37.15 35.79 32.53 20.57 24.39 24.91 19.29 16.50 18.13 20.29 25.77 27.01 25.70 25.92 25.98 25.95
40.25 38.95 37.62 36.20 35.69 35.67 36.82 36.55 35.98 36.24 37.03 36.43 36.92 37.36 37.33 36.63 35.95 34.56 33.76 33.93 33.60 33.21 32.33 30.18 25.99 24.25 24.63 34.99 33.65 26.04 18.17 21.35 21.09 23.62 25.00 26.04 26.86 34.31 33.44 26.86 24.99 24.19 25.21
38.37 36.93 35.82 35.20 35.41 35.17 36.34 35.69 35.61 36.16 35.85 36.13 36.53 37.16 37.21 36.12 34.36 33.56 32.88 33.29 33.00 31.54 28.71 23.96 21.67 29.90 19.76 34.21 32.68 27.45 24.70 21.88 23.06 23.48 25.41 31.68 30.70 33.34 32.97 25.63 23.90 22.19 23.27
36.18 35.65 35.58 35.15 35.19 35.86 36.22 35.29 35.62 34.99 36.58 36.83 36.82 36.85 36.36 34.83 33.74 32.98 32.88 31.91 29.16 24.13 20.56 20.86 20.75 21.78 25.32 26.51 33.97 32.88 26.00 25.07 24.69 24.79 25.33 26.51 32.36 32.21 31.99 30.60 23.23 24.40 25.50
35.37 34.88 34.72 35.01 35.83 36.53 35.95 35.30 35.02 35.87 36.63 36.63 36.34 35.66 34.86 34.84 33.63 32.06 29.81 29.00 27.86 27.06 26.34 23.28 22.79 22.80 21.33 29.57 31.66 33.23 32.57 30.75 25.81 25.32 25.40 25.90 31.44 32.01 31.65 27.48 29.76 30.00 24.94
34.91 35.17 34.74 34.89 35.70 36.77 36.29 34.61 34.76 35.17 36.00 35.71 34.95 34.16 33.97 33.52 32.35 29.31 27.40 25.21 23.11 22.95 22.61 23.35 21.30 20.86 22.91 22.00 30.35 32.11 31.98 31.00 26.89 25.93 28.15 30.31 29.60 29.22 25.99 27.85 28.46 25.62 19.70
35.37 35.60 35.13 34.83 34.65 35.18 35.30 35.45 35.11 35.27 35.11 34.55 33.50 32.57 32.40 32.09 30.59 28.02 26.70 25.55 24.11 21.87 22.28 22.31 21.34 19.66 20.72 21.36 23.54 25.44 24.16 28.25 27.90 28.42 23.53 27.14 26.19 26.24 24.94 22.79 22.18 21.13 20.74
37.66 37.06 36.61 36.17 36.24 36.18 35.84 35.71 35.33 35.03 33.34 33.15 32.37 30.71 31.77 32.47 28.26 27.60 26.24 26.08 22.99 23.18 22.25 21.56 21.48 19.91 19.78 23.46 26.77 27.03 26.10 24.31 27.43 27.74 23.16 20.86 19.20 18.49 19.12 19.53 20.09 19.77 20.36
39.08 38.28 38.30 38.32 38.11 37.63 36.93 35.92 35.55 35.14 33.56 31.48 30.46 30.19 29.28 27.73 26.24 23.81 22.98 30.05 30.25 31.31 31.78 31.03 25.05 24.39 28.15 30.15 31.37 31.59 31.21 31.18 31.50 24.39 21.16 18.56 16.87 17.12 17.49 17.68 17.76 18.00 18.80

GFSMW_sfc_wetblb_057.txt.gz
Wetbulb
52.07 50.99 50.55 49.90 50.59 53.29 58.32 63.65 64.29 64.99 65.62 65.15 64.65 64.34 64.10 64.77 64.97 65.41 65.77 65.59 65.32 65.06 65.06 65.30 65.27 64.91 64.18 64.40 64.05 63.15 61.75 61.57 60.62 59.54 60.94 60.23 59.59 59.68 59.96 59.37 56.83 56.66 56.53
48.08 48.23 48.84 49.15 49.60 50.55 52.33 54.54 60.79 61.13 63.53 64.49 64.60 65.16 65.21 65.62 66.01 66.19 66.07 66.22 66.40 66.49 65.75 64.66 64.12 63.82 63.43 63.30 63.24 62.48 61.53 61.27 59.48 60.69 57.05 56.78 58.52 56.47 55.89 55.61 54.43 54.31 54.16
47.94 47.36 47.83 48.07 49.23 49.56 50.12 50.80 51.29 51.71 52.62 54.84 54.04 54.04 54.63 56.20 61.25 63.48 64.36 63.22 61.83 65.01 65.50 65.93 65.54 64.68 63.15 62.88 63.18 62.67 61.56 60.98 59.30 59.18 60.07 53.58 53.56 53.52 55.24 53.29 51.81 52.15 52.18
45.95 46.67 47.05 47.39 48.53 49.87 51.22 51.12 50.92 50.80 50.93 51.36 51.15 51.18 51.58 51.50 51.25 52.06 52.82 52.96 53.48 54.81 58.01 62.35 63.60 64.02 63.60 62.32 62.45 62.52 61.94 61.14 59.82 56.07 55.95 57.08 53.78 53.05 51.49 53.79 53.29 48.70 50.07
47.37 46.36 46.99 48.27 48.76 50.16 49.95 50.11 50.21 50.29 50.50 50.79 50.79 50.62 50.01 50.44 50.92 51.29 51.54 52.63 53.43 56.00 56.48 56.98 57.90 59.15 59.42 60.22 60.65 60.67 60.69 60.63 60.69 58.42 56.69 56.40 53.66 51.44 51.43 51.29 55.38 53.29 53.37
48.23 47.57 47.45 48.33 49.35 49.01 48.76 49.26 49.27 48.75 49.63 49.99 50.02 50.36 50.41 50.14 50.81 51.03 51.50 52.04 52.97 55.01 54.09 54.41 55.13 56.39 58.30 58.86 59.49 59.89 60.58 59.96 59.71 60.58 59.06 55.67 53.81 53.80 49.53 49.07 49.65 50.75 53.29
44.04 44.62 45.47 47.48 47.93 47.35 47.86 48.39 48.24 46.82 47.58 48.33 48.50 48.80 48.91 49.18 49.62 50.14 50.67 51.33 52.58 53.07 52.72 52.37 52.46 53.40 54.43 56.50 58.84 60.12 60.36 59.88 58.68 58.92 58.28 57.18 56.80 55.58 53.60 53.48 52.59 50.40 51.34
41.52 43.07 46.01 47.81 47.41 47.12 47.15 47.26 46.46 45.47 46.11 46.81 47.23 47.84 48.28 49.07 49.85 51.08 51.54 51.05 50.96 51.20 50.35 50.48 50.85 51.21 51.90 53.83 57.26 58.78 59.04 58.61 58.06 57.98 57.76 57.17 56.13 54.78 53.93 54.71 51.62 48.04 47.63
41.52 42.69 45.87 46.59 46.02 46.04 46.08 46.27 45.52 44.83 45.14 45.73 46.67 47.37 49.06 49.15 49.98 49.20 49.71 48.80 47.42 47.69 47.20 47.44 47.86 47.93 49.15 51.14 54.82 55.25 55.22 53.90 53.62 54.32 54.64 54.26 52.19 52.93 52.31 52.65 52.43 50.22 46.73
42.16 44.09 45.17 45.06 45.17 45.41 44.87 44.77 44.71 44.14 43.98 44.71 45.56 45.93 46.19 46.78 47.22 47.69 45.72 44.48 43.97 43.85 44.29 44.79 44.77 44.89 45.83 47.78 50.42 51.27 51.49 50.22 49.92 50.34 50.26 49.68 49.04 47.44 47.29 48.30 48.64 48.90 48.38
42.90 43.84 44.03 43.84 43.67 43.23 43.02 42.62 42.68 42.51 42.56 43.42 43.89 44.40 44.23 43.90 43.77 43.24 42.63 42.25 42.07 42.13 42.07 42.18 42.19 42.20 42.64 44.15 45.97 46.15 46.34 45.73 45.29 45.39 45.92 44.61 44.43 43.70 44.40 45.37 45.53 45.74 45.91
43.43 43.45 43.11 42.18 41.80 41.49 41.35 41.66 41.46 41.72 41.82 42.23 42.57 42.44 42.58 42.43 41.97 41.33 41.09 41.21 40.90 41.00 40.69 40.37 40.28 40.26 40.40 41.06 42.28 41.93 41.94 41.99 41.41 41.78 41.99 41.13 41.98 41.68 42.14 43.07 42.12 41.55 41.30
42.54 42.19 41.56 41.37 41.33 40.77 40.53 40.35 40.47 40.82 40.93 41.48 41.33 40.92 40.59 40.59 40.32 40.12 40.19 40.49 40.34 40.10 39.98 39.54 38.73 38.30 38.37 38.56 38.87 39.20 39.24 39.16 39.28 39.23 39.21 38.80 39.42 38.97 39.55 39.63 39.53 38.93 39.25
42.44 41.98 41.28 41.30 41.07 40.40 40.20 40.10 39.91 40.11 40.32 40.62 40.01 39.52 39.57 39.53 39.62 39.65 39.71 39.63 39.45 39.07 39.32 39.93 39.27 37.76 37.10 37.66 37.79 38.01 38.12 38.37 38.79 39.36 40.00 39.16 38.32 38.11 38.30 37.98 37.81 37.69 38.01
40.99 41.54 41.51 40.97 40.50 39.69 39.81 39.85 39.80 39.93 40.20 39.69 39.31 39.12 39.31 39.44 40.33 39.98 39.32 38.95 38.81 39.26 39.44 39.08 39.01 39.34 38.49 37.69 37.54 37.77 37.42 36.95 36.41 36.57 37.50 37.90 40.25 40.44 39.70 38.04 36.99 36.86 36.43
42.04 42.05 41.63 40.53 39.65 39.34 39.13 39.03 39.39 39.97 40.36 39.98 39.79 40.23 40.07 40.13 40.09 39.61 39.04 38.82 38.73 38.81 38.93 38.37 38.43 38.26 38.73 39.50 39.47 37.01 35.50 34.70 34.33 34.25 34.03 34.50 33.67 35.51 38.27 38.24 38.72 37.56 35.16
42.37 41.82 41.37 41.14 40.28 39.07 38.95 38.21 38.92 39.63 39.88 40.13 40.12 39.71 39.42 38.86 38.62 38.26 37.63 37.28 37.38 37.89 37.63 37.40 37.33 37.54 38.12 38.65 37.77 35.22 31.52 30.09 30.15 30.96 32.13 31.91 31.86 31.00 30.58 33.32 33.10 34.22 35.15
41.59 42.14 41.42 40.23 39.57 38.54 38.02 38.57 38.79 38.64 38.87 38.73 38.88 38.84 38.59 38.00 37.55 36.85 36.19 36.20 36.49 35.98 35.48 34.36 34.66 36.21 37.10 37.46 35.65 32.11 28.46 27.90 27.65 27.92 27.34 30.55 30.63 32.60 30.63 30.28 30.02 30.06 32.20
43.01 43.52 42.11 40.40 38.76 38.08 38.18 38.08 37.67 37.83 37.89 37.78 38.01 38.19 38.06 37.29 36.44 35.33 34.93 35.17 34.98 34.26 32.89 31.43 31.17 31.08 33.21 35.13 33.68 29.29 27.97 27.72 27.78 29.09 30.52 31.90 32.24 34.33 32.56 29.83 28.04 27.89 29.20
40.91 40.24 39.16 37.70 37.53 37.16 37.75 37.13 36.59 36.76 36.77 37.41 37.80 38.05 37.89 36.95 35.37 34.70 33.91 34.52 34.18 32.79 31.13 28.97 27.51 32.08 29.37 34.47 33.11 29.73 28.53 27.20 27.57 28.52 29.41 32.21 32.85 32.95 32.85 29.64 27.98 26.67 27.92
37.89 37.12 37.52 37.30 37.22 37.07 37.17 36.25 36.10 35.47 37.45 37.95 37.62 37.54 37.34 35.94 34.69 34.00 33.85 33.26 31.97 29.97 28.09 28.47 26.91 27.89 30.31 30.96 34.95 32.54 28.87 28.54 27.82 28.20 28.55 29.84 32.38 32.15 31.80 29.96 28.01 27.89 29.17
36.10 36.22 36.28 36.17 36.50 37.16 36.92 36.09 35.95 37.43 37.70 37.27 36.88 36.59 35.83 35.55 34.35 33.26 31.96 31.33 29.81 28.44 28.53 28.24 27.72 27.99 27.15 29.95 32.53 34.08 32.83 31.97 28.96 28.00 28.80 29.56 31.02 30.94 31.83 29.16 29.72 29.98 26.11
35.57 36.01 36.14 35.61 36.20 37.00 37.36 36.12 36.65 36.62 36.91 36.52 35.89 35.00 34.82 34.18 33.52 31.58 30.10 28.70 27.24 26.83 26.76 27.08 26.10 25.79 25.93 26.04 30.66 33.16 32.87 32.19 29.73 29.18 29.46 30.51 29.37 28.49 26.75 28.01 28.33 25.62 24.45
35.60 35.89 35.60 35.12 35.29 36.64 36.97 37.08 36.39 36.44 36.19 35.59 34.62 34.15 33.43 32.63 31.72 30.86 29.49 27.60 26.15 25.56 25.81 25.78 25.50 25.00 24.68 25.00 26.16 28.24 29.17 29.74 29.89 29.68 28.85 29.01 27.58 26.47 26.37 24.77 24.43 24.46 24.62
37.07 36.85 36.48 36.39 36.05 36.28 36.46 36.50 36.13 35.93 34.97 35.05 33.98 33.41 33.31 33.39 30.99 29.93 28.38 28.03 27.87 27.57 26.20 25.80 25.75 24.27 23.68 25.71 27.60 28.07 27.93 28.70 29.23 29.70 27.01 25.58 24.14 23.22 22.90 22.96 23.25 23.71 23.87
38.65 37.92 38.08 38.24 38.11 37.28 36.97 36.60 36.56 36.07 34.93 33.93 33.38 32.82 32.76 32.38 31.35 29.22 28.54 32.55 32.47 32.23 32.63 31.34 27.25 26.27 28.68 30.39 31.78 32.65 32.83 32.04 31.81 27.55 25.34 24.36 22.80 21.95 21.77 21.25 21.50 22.03 22.37

GFSMW_sfc_wetblb_060.txt.gz
Wetbulb
57.45 56.26 57.11 56.70 56.40 57.92 66.19 67.47 67.55 67.92 68.09 68.05 67.37 67.15 67.49 68.45 68.98 69.41 69.17 68.82 68.83 68.71 68.46 68.49 68.59 68.74 67.95 67.68 67.67 67.35 66.38 65.94 66.60 64.24 64.11 65.09 65.44 64.81 64.90 65.15 65.12 63.72 62.72
56.03 55.26 54.67 54.81 55.18 56.23 59.15 64.49 66.24 67.77 68.36 69.00 68.96 68.88 68.66 68.76 68.92 69.17 68.75 68.71 68.63 68.80 68.54 68.42 68.29 68.34 67.67 67.48 67.22 66.84 65.27 64.99 65.81 62.92 62.00 59.18 60.94 62.56 62.79 63.33 62.19 61.83 61.51
55.61 55.76 53.04 53.00 53.94 53.93 55.09 57.23 60.74 64.73 66.57 68.12 67.25 66.00 65.35 65.60 66.73 67.50 68.01 67.81 66.18 67.38 67.17 67.40 67.39 67.38 67.07 65.64 66.38 66.07 64.61 62.69 64.48 63.86 61.96 58.01 55.87 58.94 61.09 60.84 59.79 59.35 59.36
53.10 53.10 52.38 52.25 52.71 53.91 54.94 55.35 55.65 56.82 58.12 61.01 63.15 63.98 64.54 64.14 62.23 60.47 58.84 58.20 56.91 57.50 58.57 62.33 64.57 65.12 64.89 63.45 63.86 64.17 63.60 62.98 60.88 60.36 60.74 61.37 58.96 55.63 54.47 59.38 59.64 57.65 56.84
53.26 53.22 53.44 53.65 53.04 53.81 54.64 54.96 55.15 54.89 54.88 55.28 56.38 56.91 56.14 56.11 56.20 56.28 55.73 56.56 57.30 58.56 58.52 58.86 59.41 59.93 61.02 61.40 61.17 61.31 61.00 61.99 61.48 60.91 58.51 58.57 58.89 57.79 55.31 53.15 56.57 58.59 55.28
53.42 54.24 55.47 53.91 53.46 54.54 54.22 54.44 54.42 54.31 54.82 55.27 55.61 55.82 55.66 55.17 55.26 55.42 55.62 56.22 56.89 58.24 57.56 57.09 58.14 58.68 59.63 60.25 60.45 60.26 59.62 59.64 59.68 61.22 60.52 57.99 56.35 56.53 54.95 53.24 54.38 53.80 58.04
53.02 52.95 54.08 52.50 53.05 52.91 53.28 53.28 53.50 53.02 54.20 54.62 54.63 54.48 54.65 54.60 54.32 54.61 55.08 54.79 55.76 56.44 56.72 55.72 56.07 56.48 56.93 57.85 59.31 59.34 59.28 59.89 59.92 59.84 60.08 59.12 58.50 57.01 54.33 53.37 53.01 52.94 55.77
48.86 48.99 51.13 52.75 53.20 52.48 52.96 52.73 52.94 51.94 52.51 53.22 53.08 53.42 53.16 54.37 54.30 54.31 55.23 55.53 55.42 55.20 54.12 53.93 54.09 54.33 54.59 55.53 57.26 58.33 59.46 60.01 60.25 59.38 59.51 58.69 58.14 56.79 55.41 54.52 53.23 51.22 52.48
48.16 48.75 47.71 50.48 52.66 52.77 52.32 52.64 52.16 51.81 51.77 52.10 52.41 52.43 53.52 53.18 53.30 53.46 54.23 54.01 52.63 51.40 51.31 51.46 51.49 51.61 52.30 53.65 55.69 57.11 57.34 56.50 55.49 54.53 54.09 52.77 51.45 53.07 53.86 54.98 54.06 52.29 48.61
46.60 47.34 47.98 49.16 50.90 52.21 52.31 52.54 52.05 50.96 50.78 51.10 51.71 51.74 52.01 52.46 52.76 52.96 51.90 50.73 50.07 49.32 49.41 49.55 49.52 49.54 50.19 51.60 53.24 53.37 52.60 52.94 52.51 52.76 51.17 50.27 50.13 50.32 50.66 51.87 52.61 50.91 50.50
46.78 47.16 47.89 49.11 49.69 49.46 50.02 50.37 50.11 49.35 49.40 49.60 49.83 50.10 50.03 50.07 50.65 50.91 49.92 49.05 48.09 47.63 47.32 47.14 47.40 47.34 47.88 49.49 51.19 49.18 48.80 48.53 48.12 48.23 47.98 47.33 48.98 49.05 48.85 49.77 48.26 48.17 49.21
47.23 47.71 48.45 48.81 48.26 48.02 48.00 47.48 48.49 48.47 48.64 48.27 48.34 48.49 48.53 48.41 48.55 48.34 47.51 47.15 46.90 46.22 45.77 45.56 45.44 45.68 45.91 47.20 48.12 47.21 47.38 47.49 46.68 46.43 46.67 45.41 45.94 46.44 47.00 47.42 46.79 46.45 46.27
47.72 48.36 48.64 48.63 48.62 48.18 47.42 47.23 46.67 46.81 47.08 46.90 46.98 46.66 46.72 46.84 46.91 46.41 46.08 45.83 45.62 45.32 44.70 44.33 43.82 43.44 43.65 44.45 44.62 44.75 44.35 44.28 43.90 43.91 43.68 42.94 44.05 43.94 44.30 44.27 43.90 43.87 43.12
48.07 48.84 48.88 48.97 48.96 48.41 47.84 47.00 46.13 46.06 45.28 45.06 45.44 45.32 45.37 45.36 45.46 45.23 44.82 44.58 44.52 44.27 44.16 43.61 42.41 41.32 40.93 41.05 41.04 41.47 41.67 41.43 41.49 41.78 41.79 41.74 41.88 41.52 41.30 41.02 40.92 40.92 41.64
47.13 48.46 48.79 49.16 48.79 47.66 46.96 46.93 46.71 45.68 45.47 44.65 43.98 43.28 44.07 43.98 43.42 42.87 43.02 43.10 43.20 42.90 42.12 41.04 40.89 40.64 40.22 39.90 39.97 39.99 39.80 39.53 38.90 39.34 39.41 39.77 40.98 40.68 40.57 40.31 39.73 39.92 39.93
46.17 47.69 48.70 49.00 48.35 47.82 46.94 46.24 45.75 45.11 45.00 44.41 43.75 44.05 43.30 43.25 42.91 42.54 41.16 40.45 40.51 40.30 40.28 40.15 39.94 39.52 39.98 40.49 40.04 39.49 38.95 38.87 38.43 37.58 37.25 37.60 36.79 38.61 38.77 38.68 38.29 37.99 37.82
47.45 47.50 48.09 48.49 48.59 48.18 47.26 45.66 45.28 45.32 44.19 44.00 43.84 43.23 42.80 41.66 41.13 40.59 39.41 38.98 39.10 39.44 38.77 38.75 39.38 38.76 39.14 39.41 38.46 37.11 36.78 35.56 34.53 35.11 35.40 34.39 34.16 33.73 33.91 34.29 34.07 35.19 35.74
47.04 47.40 48.59 48.90 49.24 48.57 46.31 45.52 44.50 43.51 43.26 43.18 43.00 42.70 41.41 40.17 39.63 38.40 37.66 37.66 37.99 37.75 37.36 37.38 38.57 38.11 37.82 37.76 35.60 33.86 33.22 32.71 32.54 32.81 33.55 34.72 34.50 34.48 32.92 32.82 32.78 33.43 34.65
48.54 47.65 49.04 49.47 48.96 46.26 44.75 43.57 42.43 42.32 41.68 41.53 41.77 41.45 40.43 39.07 37.88 36.80 36.52 36.67 36.50 35.71 35.62 35.82 35.86 36.21 36.49 35.68 33.79 32.96 33.80 32.25 32.07 32.79 33.91 34.63 35.10 34.63 32.47 32.20 30.21 30.98 32.17
46.49 46.22 47.39 47.89 46.59 45.30 44.37 42.70 41.60 41.20 40.40 40.92 41.02 41.05 40.26 38.63 37.16 36.44 35.33 36.03 35.55 34.19 34.51 33.39 34.07 34.71 35.98 34.93 33.54 32.48 32.02 30.38 30.86 31.58 32.65 32.95 34.07 33.29 33.45 32.54 30.99 29.12 30.80
43.76 43.78 44.76 44.88 45.12 43.59 42.89 41.59 41.10 39.60 41.09 41.35 40.94 40.08 39.37 38.10 36.52 35.57 35.18 34.97 34.20 33.54 33.52 32.86 32.37 32.73 34.30 34.95 33.94 32.18 31.30 31.26 30.63 31.05 31.04 32.04 32.68 32.59 32.19 31.79 30.88 30.24 31.80
41.10 41.78 42.72 42.30 42.17 42.42 42.08 40.88 39.76 40.80 40.58 40.49 39.54 38.82 38.31 37.14 35.91 34.66 33.71 33.58 32.84 32.56 32.40 32.12 32.25 33.03 33.31 33.45 35.35 35.15 33.27 32.56 31.30 30.16 30.93 31.63 31.38 30.97 32.06 32.02 30.11 30.53 28.34
40.54 41.39 42.09 41.05 41.27 41.53 41.89 40.29 40.54 40.09 39.85 38.53 37.77 37.46 36.69 35.81 35.09 33.96 32.83 31.84 32.38 32.98 31.65 30.74 31.03 31.05 30.53 31.39 33.74 35.03 35.23 34.34 31.30 31.51 30.83 31.39 30.12 28.85 28.68 28.79 29.23 27.92 28.03
40.38 40.49 40.59 40.42 39.81 40.42 40.58 41.04 40.49 40.15 38.63 38.26 37.44 36.42 35.26 34.32 34.05 33.79 32.84 32.73 31.44 31.18 30.93 30.44 30.07 30.35 29.52 29.17 30.28 32.40 33.50 33.00 31.96 31.09 31.69 30.94 29.71 27.57 28.26 27.48 27.29 27.40 27.68
41.06 40.70 40.54 40.30 40.09 40.12 39.69 40.25 39.73 39.31 38.12 37.77 36.50 35.11 34.67 34.86 33.20 32.98 32.77 33.07 32.80 32.52 30.72 30.57 30.79 29.56 28.52 29.48 30.81 30.67 30.17 30.93 31.15 30.99 30.25 29.61 28.61 27.93 27.04 26.63 26.64 26.99 26.83
40.17 39.61 40.10 40.17 39.69 38.54 38.68 38.39 38.63 37.75 36.99 36.04 35.63 35.25 34.75 35.27 33.66 32.45 32.83 34.37 33.54 33.52 33.53 33.12 31.46 30.24 31.42 31.02 32.02 31.91 31.73 32.97 33.06 31.00 29.12 28.55 28.36 26.69 26.36 25.67 25.60 26.09 25.53

GFSMW_sfc_wetblb_063.txt.gz
Wetbulb
58.07 59.09 58.52 58.96 58.11 64.09 67.58 68.27 68.27 68.58 68.57 68.24 67.79 67.89 67.81 68.83 69.09 69.44 69.65 69.46 69.27 69.17 68.89 68.63 68.25 67.78 66.98 66.88 66.89 66.47 65.15 64.93 66.96 64.77 64.47 64.87 65.66 65.64 65.29 65.14 64.26 64.55 64.70
56.69 57.77 56.75 57.39 57.39 57.73 63.14 67.06 67.94 68.44 68.56 68.55 68.32 68.65 68.52 69.04 69.42 70.23 69.65 69.45 69.15 68.98 68.51 68.22 67.58 67.46 66.98 66.66 66.58 65.68 64.78 64.97 66.01 62.81 62.74 59.30 61.05 62.41 63.74 63.53 62.93 62.82 63.01
55.44 57.27 56.60 56.16 56.66 56.64 57.71 62.77 66.54 67.42 68.48 68.78 69.09 68.66 68.19 67.89 67.65 68.15 68.37 68.62 68.68 68.56 68.21 67.72 67.15 67.23 67.16 66.21 66.13 65.53 64.45 62.75 63.32 63.54 61.10 57.93 56.15 58.88 61.03 61.25 61.60 61.00 60.72
55.07 55.98 56.62 55.46 55.24 56.08 57.46 57.62 60.25 64.11 66.73 67.74 67.39 65.40 64.43 64.57 66.41 66.49 66.48 64.39 60.86 60.86 61.43 63.16 65.13 65.81 65.39 64.22 64.10 64.35 63.95 63.40 61.56 61.89 61.66 62.00 59.46 56.09 54.64 59.64 60.43 60.47 58.19
54.91 55.50 54.96 55.73 56.07 56.61 57.07 57.50 57.36 58.39 59.30 60.48 63.55 64.22 64.09 64.25 60.52 58.27 57.17 57.13 57.62 58.42 58.71 58.66 59.32 59.72 60.33 61.29 61.48 61.62 61.24 61.17 60.64 60.93 60.09 59.86 59.97 59.46 56.22 53.84 55.56 59.74 58.90
54.29 55.75 56.38 56.85 56.18 56.57 56.92 57.02 55.76 55.69 56.59 56.97 57.65 58.24 58.45 56.57 55.83 56.38 56.15 56.51 56.92 57.93 58.09 57.56 58.05 58.49 58.95 59.50 60.42 60.73 60.31 58.96 58.30 58.59 58.98 58.54 57.48 55.40 54.43 53.65 54.88 55.69 56.20
53.17 54.07 54.96 55.80 55.40 55.42 55.42 55.20 54.88 53.95 55.19 55.97 56.32 56.77 57.08 56.79 56.18 56.26 56.10 55.73 55.71 56.50 57.21 56.56 56.50 56.60 57.18 57.23 58.09 58.96 59.23 57.77 57.48 58.07 58.10 58.66 58.63 58.73 55.44 53.69 52.59 52.99 54.54
50.99 50.93 52.78 54.18 55.41 55.31 54.86 54.18 54.17 53.89 54.81 55.21 55.48 55.72 55.70 55.55 55.22 55.18 55.17 55.28 55.40 55.84 55.70 54.70 54.73 54.76 54.72 54.96 55.92 57.00 58.26 58.58 59.62 59.44 59.58 59.33 58.69 57.98 55.48 54.31 53.05 50.44 51.60
49.00 50.59 51.18 50.42 53.91 54.86 54.51 54.05 53.81 53.28 53.47 53.86 54.25 54.24 54.73 54.45 54.27 54.87 55.09 54.90 54.37 53.35 52.40 52.56 52.28 52.65 52.58 53.19 53.96 55.67 56.09 56.97 56.10 54.38 53.79 52.52 51.40 51.71 52.77 54.06 54.09 52.74 48.58
49.22 49.23 49.96 50.31 51.80 54.40 54.52 54.66 54.17 53.11 53.04 53.30 53.51 53.36 53.48 53.56 53.78 53.98 53.59 53.17 52.48 51.08 50.78 50.73 50.69 50.73 50.96 51.75 53.02 53.33 53.41 53.35 52.99 52.93 51.78 50.52 50.40 50.63 51.40 51.18 51.56 51.35 50.82
49.37 49.64 50.10 50.83 51.80 53.28 53.24 53.25 53.03 52.34 51.75 52.29 52.29 52.00 51.67 51.60 52.13 52.26 51.99 51.24 50.33 49.46 48.93 48.54 48.65 48.65 48.86 50.03 51.25 50.59 50.33 49.79 49.02 49.08 48.72 48.16 50.03 50.05 49.94 50.51 50.31 50.10 50.18
49.91 50.04 50.11 50.52 50.64 51.12 51.51 51.00 51.27 50.76 51.16 51.41 51.17 50.94 50.85 50.44 50.28 50.39 49.92 49.37 49.10 48.20 47.53 47.05 46.79 46.92 47.05 47.89 48.76 48.37 48.92 48.95 48.13 48.03 48.18 47.04 47.58 47.44 48.00 48.37 47.59 47.25 46.56
49.67 50.11 49.96 49.64 49.68 49.93 50.03 49.97 49.76 49.92 49.93 49.65 49.45 49.16 48.97 49.00 49.00 48.93 48.38 47.83 47.48 47.13 46.51 45.78 45.31 44.88 44.71 45.48 45.91 46.25 45.97 45.78 45.32 45.21 44.54 44.31 45.37 44.30 44.63 44.69 44.42 43.84 43.27
48.58 50.03 50.27 50.22 50.61 50.56 50.24 49.89 49.14 49.31 48.15 47.20 47.75 47.67 47.74 47.73 47.64 47.56 46.84 46.52 46.48 46.02 45.69 45.13 44.09 43.15 42.81 42.77 42.83 43.44 43.54 42.81 42.42 42.38 42.56 42.08 42.01 41.74 41.64 41.33 41.20 41.40 41.21
48.16 48.58 50.07 50.84 51.09 50.54 50.27 49.90 49.30 48.53 48.00 46.77 46.14 45.77 46.13 45.79 45.59 45.24 45.25 45.05 44.68 44.58 43.96 42.69 42.11 41.98 41.49 41.17 41.16 41.43 41.42 40.86 40.13 40.10 39.55 40.40 41.06 41.01 40.98 40.08 39.51 39.43 38.68
47.39 48.63 49.22 50.80 51.11 50.75 49.83 49.44 49.14 48.19 47.86 46.89 46.21 46.24 45.30 44.70 44.04 43.69 43.09 42.42 42.23 41.78 41.52 41.08 40.93 40.59 40.62 40.64 40.83 40.62 39.78 39.61 39.01 37.76 37.85 37.80 38.36 38.71 38.81 38.62 37.96 36.68 36.58
47.93 48.08 49.49 49.93 51.27 51.37 50.92 49.33 48.64 48.41 46.86 46.52 46.26 45.43 44.76 43.88 43.24 42.94 42.00 40.68 40.11 40.11 39.61 39.63 39.87 39.56 39.53 40.51 39.61 39.66 38.48 36.42 35.98 34.97 35.56 34.53 33.98 34.07 33.38 34.54 34.62 36.16 35.82
46.35 48.60 49.26 50.22 51.26 52.01 51.52 50.46 48.93 47.37 46.18 45.49 45.21 44.74 43.91 42.61 41.85 41.01 39.57 38.93 39.08 38.77 38.29 38.51 39.36 38.85 38.54 38.38 37.11 36.20 34.41 33.21 32.98 33.16 33.06 34.09 34.13 33.47 32.88 32.47 32.07 32.48 33.81
46.66 47.82 50.31 49.58 51.19 51.08 51.05 48.71 46.72 46.06 45.06 44.25 44.19 43.81 42.99 41.53 40.43 39.22 38.25 37.86 37.40 36.76 36.37 37.20 37.79 37.03 36.93 36.58 34.68 33.46 33.41 32.45 32.08 32.98 33.87 34.56 34.94 34.70 33.23 32.05 29.74 29.91 31.30
46.45 47.35 48.29 48.89 49.65 50.78 49.51 46.52 45.01 44.41 43.13 43.55 43.50 43.37 42.47 41.05 39.34 38.14 36.29 36.71 36.25 34.46 35.07 34.10 34.97 36.24 36.19 35.23 34.09 33.31 31.95 30.66 30.35 31.30 32.67 33.54 34.02 33.73 33.74 31.67 29.77 27.61 28.87
45.57 44.94 46.55 47.27 48.20 49.20 47.35 45.38 44.68 42.98 43.81 43.55 43.14 42.37 41.50 40.25 38.96 36.85 36.06 35.66 34.44 33.63 34.04 33.52 33.46 34.14 34.88 34.79 34.70 33.11 30.63 30.33 29.59 29.61 29.78 31.05 33.20 33.05 32.72 32.82 29.58 29.13 30.44
44.63 44.33 44.78 45.11 46.12 45.88 45.18 44.33 43.44 43.97 43.34 42.83 41.77 40.83 40.34 39.30 37.55 35.82 34.56 34.24 33.29 32.57 32.77 32.92 32.41 33.15 33.96 35.28 35.81 34.90 33.59 32.73 30.13 29.23 29.93 30.56 31.75 31.68 32.35 32.66 32.38 30.98 29.80
44.23 43.70 44.01 43.48 43.61 44.05 44.50 43.49 43.59 42.87 41.93 40.94 40.12 39.67 39.04 37.99 36.58 34.91 33.73 32.94 33.09 32.96 33.71 31.77 31.02 31.02 31.48 32.03 35.32 35.93 36.42 35.28 31.63 30.07 30.80 31.56 31.34 30.35 29.87 30.73 30.88 30.45 27.00
44.09 43.60 42.71 42.36 42.17 43.17 43.52 44.07 43.33 42.25 41.16 39.73 39.24 38.41 36.90 36.01 35.26 34.48 33.82 32.86 32.25 32.96 33.15 30.66 30.04 31.07 29.97 29.33 30.08 32.26 33.56 35.32 33.08 31.98 30.56 31.40 31.35 30.48 29.26 27.63 27.79 26.82 26.09
43.93 42.67 42.65 42.63 42.60 42.61 42.31 42.74 42.11 41.23 39.58 39.03 37.96 36.56 36.41 35.86 33.73 33.50 33.16 33.01 34.77 35.32 32.56 31.32 31.07 30.06 28.92 29.20 31.16 30.63 30.54 31.02 31.26 30.75 29.25 28.52 28.14 27.09 26.49 25.87 25.73 25.70 25.57
43.21 41.68 40.89 41.43 41.63 41.56 40.70 40.28 40.62 39.22 38.50 37.70 37.33 35.90 34.76 35.44 33.56 32.66 32.49 36.55 37.06 36.12 35.96 35.22 32.60 30.59 32.94 32.44 33.35 33.11 32.98 32.83 32.92 29.70 28.15 27.70 27.67 26.97 25.99 25.16 24.70 24.93 25.46

GFSMW_sfc_wetblb_066.txt.gz
Wetbulb
55.08 56.69 55.70 55.33 56.16 63.42 65.11 66.00 66.06 66.04 66.00 65.47 64.81 64.77 64.54 65.47 65.37 66.10 66.74 66.97 66.26 66.12 65.49 65.34 66.16 65.69 65.11 64.76 64.81 63.96 63.38 62.85 63.61 62.91 60.83 61.44 62.34 62.31 62.37 62.18 60.80 59.98 60.15
54.01 54.12 54.51 54.47 53.92 55.39 63.05 65.07 65.93 66.11 66.15 66.05 65.94 65.87 65.54 66.07 66.35 66.89 67.34 67.13 67.16 66.83 66.02 65.43 65.41 65.78 65.43 65.23 64.83 64.52 63.22 63.06 63.71 61.16 60.27 57.34 57.68 59.36 59.83 60.15 58.98 57.69 57.46
52.81 53.01 52.58 52.98 53.37 53.23 55.56 62.49 65.21 66.03 66.21 66.35 66.19 65.81 65.24 65.33 65.15 65.70 65.72 66.47 66.77 66.63 66.79 66.45 65.99 65.87 65.90 65.25 65.10 64.22 63.26 62.00 62.40 62.78 60.10 56.22 53.77 54.94 56.71 56.92 57.24 56.57 55.67
50.92 53.04 52.53 51.73 52.28 52.45 53.89 54.46 58.90 64.16 65.68 66.24 65.46 64.20 62.40 62.12 63.64 63.86 64.31 61.76 58.79 57.88 58.18 58.97 62.24 65.02 64.70 63.76 62.13 62.69 62.16 62.22 60.75 61.25 61.59 60.50 59.51 55.72 53.26 55.14 56.10 55.74 54.39
50.33 50.69 52.03 52.67 52.55 53.26 52.81 53.55 54.61 56.26 59.88 62.94 64.37 63.06 62.00 62.32 56.43 54.88 54.64 54.27 54.46 55.52 56.36 56.03 55.96 55.97 56.36 56.89 57.72 57.70 58.03 58.30 57.24 57.55 57.72 56.65 58.14 58.13 56.00 52.87 52.52 55.73 55.69
49.69 51.04 52.80 52.81 52.44 53.18 53.44 52.82 53.26 53.78 54.61 55.70 57.39 59.40 60.06 53.87 52.39 52.14 51.93 52.27 53.11 55.15 55.54 55.66 55.04 55.22 55.67 56.06 56.72 57.24 56.82 56.61 55.62 55.88 56.41 55.92 55.70 54.79 54.35 53.00 52.23 51.80 54.48
48.27 49.88 51.52 51.69 51.74 51.51 52.82 52.62 51.76 51.55 53.21 53.55 53.50 54.03 53.82 52.77 52.64 52.11 51.71 51.43 51.35 52.59 54.00 54.07 53.36 53.36 53.88 54.31 54.53 54.74 55.55 55.95 54.49 55.88 56.24 56.78 56.00 56.27 55.77 54.19 52.54 50.93 53.76
45.17 45.33 46.31 49.40 50.67 52.53 52.39 52.22 51.83 51.07 51.87 52.55 52.87 53.28 53.14 52.49 52.05 52.43 51.95 51.15 51.11 51.62 51.60 51.34 51.36 51.37 51.59 51.63 52.36 52.97 54.03 55.25 55.09 54.31 54.62 55.74 56.02 55.45 54.42 53.49 52.50 50.32 49.80
43.82 43.80 44.82 45.70 46.41 51.38 51.90 51.66 51.29 51.49 51.83 52.27 51.64 51.94 52.06 52.03 51.10 52.17 51.28 50.87 50.11 50.04 48.16 49.07 48.92 49.11 49.33 49.99 50.71 51.66 52.29 53.46 52.91 53.49 52.92 52.41 51.36 51.94 53.14 54.13 53.79 52.40 48.10
44.75 44.83 44.87 45.08 46.35 48.37 51.20 52.05 51.29 49.93 50.39 50.34 50.82 50.92 51.46 51.77 51.45 51.13 50.34 49.90 48.13 47.94 47.29 47.13 47.17 47.39 47.76 48.42 48.93 49.89 51.19 51.62 51.21 51.47 50.95 50.12 50.29 50.27 50.90 51.11 51.51 51.34 50.50
44.51 45.01 45.35 45.81 46.39 48.47 49.47 49.68 50.08 49.62 49.27 49.66 48.63 48.92 48.81 49.73 50.06 50.04 48.88 47.99 46.97 46.35 45.99 45.72 45.52 45.37 45.24 45.84 46.67 49.43 49.28 49.25 48.50 48.29 47.98 47.48 49.03 48.65 47.96 47.43 47.48 46.23 47.90
45.40 45.87 45.71 45.58 45.94 46.82 47.69 47.56 47.39 47.47 48.13 48.77 48.48 48.19 48.04 47.51 47.50 47.53 47.37 46.72 46.14 45.52 44.61 44.33 44.14 44.14 43.98 44.06 44.10 45.15 45.38 47.89 47.22 47.30 46.84 45.76 47.29 45.43 45.06 44.43 42.62 42.72 40.88
44.15 45.48 45.48 45.05 44.98 45.62 46.12 46.10 45.92 46.37 46.74 46.51 46.05 46.20 46.05 46.15 46.06 45.85 45.51 45.45 44.68 44.09 43.72 43.17 42.51 42.04 41.94 41.74 41.70 42.38 42.56 41.88 41.30 41.50 41.14 40.82 41.43 39.72 39.86 40.86 41.37 39.63 41.34
44.49 44.04 45.26 45.07 45.21 45.68 45.62 45.62 45.29 45.13 44.46 44.70 44.41 43.99 44.23 44.81 44.36 44.96 44.61 44.54 44.34 43.48 43.01 42.27 41.45 40.84 40.24 40.39 40.55 41.21 40.39 40.08 40.47 40.45 39.26 39.01 39.03 40.82 40.57 40.47 39.98 40.36 39.32
43.65 43.64 44.26 45.45 45.43 45.46 45.82 45.89 45.29 44.84 44.32 43.55 42.97 42.59 42.74 42.66 43.04 42.90 42.64 43.03 42.41 42.03 41.64 40.70 41.09 41.72 41.17 41.20 40.86 41.36 41.19 40.35 39.54 39.05 39.59 39.71 40.24 41.62 41.08 39.02 38.32 38.24 36.59
44.18 44.87 44.50 45.95 46.38 45.84 45.68 45.96 45.17 44.40 44.39 43.23 42.87 43.37 42.74 42.05 41.29 40.95 40.70 40.10 40.08 39.95 39.94 40.78 40.70 40.26 40.59 41.11 41.67 40.94 39.71 39.54 38.10 36.51 35.18 35.87 36.97 38.06 39.35 38.76 38.00 36.68 34.85
42.73 43.25 43.73 44.11 45.95 46.32 46.87 45.42 45.22 44.77 43.77 43.22 43.52 43.04 42.35 41.41 40.90 42.02 41.55 38.46 37.53 39.62 39.40 39.46 39.62 39.28 39.71 41.59 40.93 41.18 37.65 35.85 34.38 34.02 31.63 32.40 33.81 32.62 30.49 34.39 36.36 35.76 36.17
42.21 42.58 43.27 44.00 44.89 46.99 46.65 46.11 45.58 43.96 43.07 42.76 42.67 42.39 41.59 40.53 40.21 40.87 39.86 37.76 39.06 38.65 38.25 38.28 38.65 38.16 38.52 39.75 38.83 38.13 33.76 32.72 31.51 31.43 31.09 29.21 28.88 30.39 30.90 29.72 29.25 29.56 30.55
42.47 42.43 43.21 43.28 43.37 45.05 46.35 45.57 44.06 43.17 42.41 41.97 41.68 41.56 40.84 39.55 39.11 39.22 37.06 37.37 37.66 37.20 36.72 37.36 37.17 36.13 36.10 37.42 36.66 32.17 29.11 29.74 29.39 29.65 31.16 32.57 31.93 34.68 33.79 29.72 27.42 26.57 28.77
42.73 42.17 41.90 42.80 43.11 43.50 45.22 44.35 42.78 42.04 41.04 41.57 41.41 41.16 40.23 39.16 39.08 38.55 36.08 36.95 36.77 34.85 35.15 33.80 33.84 36.93 33.25 36.79 35.20 32.57 29.59 28.44 28.14 28.58 30.65 34.09 33.05 34.59 34.20 28.95 25.65 24.50 25.35
42.32 42.31 41.37 41.51 42.53 43.69 43.38 42.16 41.24 39.63 41.37 41.89 41.25 40.24 39.44 39.38 38.44 35.34 35.43 35.86 34.73 33.81 33.26 32.88 32.61 31.17 33.02 32.22 35.43 34.64 28.35 27.41 26.60 26.42 26.92 29.02 33.65 33.44 33.06 32.80 27.01 27.25 27.53
42.62 41.31 40.27 41.22 41.67 42.11 42.21 41.08 40.22 41.57 41.77 40.85 39.86 38.93 38.52 39.31 37.96 35.64 34.65 34.40 33.49 32.55 32.53 31.81 30.28 31.10 31.37 35.70 35.96 35.20 33.37 32.38 27.59 26.91 27.36 28.19 32.97 32.54 32.47 31.83 32.78 31.24 30.41
42.39 41.24 39.88 40.48 40.26 40.67 40.98 40.26 40.38 40.32 39.77 38.82 37.76 37.75 38.91 37.82 36.65 35.01 34.17 33.25 33.07 32.23 31.84 31.33 28.65 28.26 29.36 29.77 36.52 37.11 36.18 35.05 30.14 27.13 29.73 32.17 32.67 31.56 29.81 31.40 32.33 31.40 26.46
39.72 41.39 39.74 39.16 38.92 39.72 40.35 40.59 40.18 39.85 38.70 37.13 36.38 37.99 37.31 36.27 35.53 34.66 34.16 33.21 32.22 31.97 32.13 30.35 27.74 27.41 27.51 27.13 28.11 31.05 31.73 35.90 33.81 32.50 27.95 30.30 31.15 31.40 28.90 27.89 27.40 25.87 24.63
39.35 41.35 39.99 41.00 39.93 39.48 39.46 39.53 39.50 38.83 37.49 36.73 35.90 36.59 36.34 36.42 34.02 33.86 33.45 32.93 33.77 34.35 32.83 30.57 28.95 28.13 26.47 27.21 29.74 29.54 29.33 29.54 31.29 29.76 27.25 26.75 26.52 25.85 25.15 24.31 24.16 23.99 23.76
39.27 40.76 40.84 40.23 41.13 41.02 39.75 38.69 39.01 38.44 38.18 36.75 36.09 35.92 35.16 35.32 33.49 32.51 32.44 36.61 36.29 37.49 38.11 36.85 31.97 29.55 32.79 34.48 34.46 33.87 33.50 34.25 34.17 28.76 26.25 25.78 25.82 25.61 25.34 24.52 23.95 23.39 24.25

GFSMW_sfc_wetblb_069.txt.gz
Wetbulb
53.00 54.77 55.33 55.36 60.90 63.62 64.34 65.26 65.18 65.35 65.49 64.35 63.76 64.24 63.19 63.51 63.77 64.57 65.57 65.82 65.79 65.72 64.36 64.11 64.05 65.08 64.44 64.09 64.12 63.73 62.94 62.58 62.82 62.10 59.91 60.46 61.41 61.55 61.79 62.04 61.24 60.11 59.53
51.72 52.90 52.17 52.92 55.10 62.70 63.84 64.24 65.60 64.37 65.23 64.94 64.77 64.87 64.50 64.71 64.91 65.36 66.16 66.67 66.32 66.22 65.16 64.45 64.47 65.02 64.72 64.48 64.36 63.88 63.44 63.16 63.19 60.95 60.00 56.57 56.96 59.00 59.07 58.48 58.99 57.66 56.56
50.54 51.32 51.88 51.74 52.39 54.56 62.31 64.77 65.22 65.45 65.13 65.54 65.20 64.88 64.61 64.72 64.53 64.73 65.10 65.77 65.98 66.26 66.25 66.11 65.87 65.71 65.61 64.80 64.92 64.20 63.41 61.74 61.30 61.72 58.95 54.88 53.00 54.72 56.88 56.72 56.53 56.42 55.74
49.12 51.10 52.75 50.73 50.52 50.87 53.54 61.49 64.32 65.22 66.05 65.38 64.78 63.28 62.86 61.80 62.90 63.07 64.31 59.74 60.22 58.88 58.03 58.68 61.33 63.87 63.88 62.03 61.12 61.55 60.60 59.27 59.06 58.55 60.00 59.46 57.57 55.19 52.69 54.51 55.18 54.76 53.22
48.74 50.04 50.64 51.55 51.92 52.01 51.76 52.39 58.38 63.37 64.96 65.28 65.01 63.78 61.83 61.98 59.74 58.33 57.08 55.92 54.82 55.69 56.21 56.03 55.81 55.66 56.04 56.05 56.70 56.66 56.61 57.13 56.58 55.25 54.34 54.45 55.10 55.35 53.15 50.35 52.16 53.90 54.13
48.11 49.04 50.45 51.18 51.13 51.58 51.56 50.92 51.90 54.48 58.60 60.78 61.94 62.29 61.24 57.61 53.62 53.06 52.51 52.79 53.87 54.78 55.02 55.08 54.25 54.47 54.67 55.01 55.33 55.44 55.30 55.45 55.32 54.68 53.80 52.90 52.03 52.18 52.43 52.07 51.78 51.27 54.06
45.90 47.30 48.98 48.91 49.60 50.53 51.05 51.31 50.93 51.10 52.38 54.98 56.98 57.93 59.08 53.92 53.54 53.23 51.70 51.44 51.18 52.59 53.04 53.40 52.48 51.97 52.30 52.70 52.83 52.69 53.08 53.80 53.85 53.43 53.40 54.27 55.29 55.24 53.32 52.52 51.52 52.14 52.96
41.57 43.49 45.67 47.87 47.88 50.00 50.92 50.93 50.22 50.05 51.26 51.80 51.96 52.34 53.37 52.54 52.48 52.33 51.66 50.76 51.47 51.70 52.22 51.74 51.07 50.22 50.23 50.04 50.42 50.62 51.51 52.53 52.94 52.76 52.89 54.53 54.55 55.77 55.25 54.03 51.37 49.27 50.22
42.09 42.27 42.93 43.63 45.88 48.82 50.20 50.40 49.92 49.75 51.19 51.99 51.58 51.60 51.60 51.36 51.10 51.72 51.92 51.00 50.34 50.22 49.23 49.15 49.19 48.32 48.30 48.62 48.95 49.24 50.29 50.83 51.51 52.63 50.76 52.43 51.77 51.19 52.91 54.49 54.37 52.76 47.83
43.62 44.04 43.97 43.15 43.71 46.07 50.09 50.21 49.84 49.74 50.18 50.42 50.16 50.69 50.88 51.23 51.30 50.34 50.62 50.31 48.57 48.33 47.41 47.24 46.97 46.45 46.51 46.99 47.28 47.95 49.07 48.77 49.04 49.68 50.40 49.92 50.31 50.42 50.53 50.94 51.56 51.65 51.23
43.15 43.64 44.09 44.36 44.49 46.44 47.74 48.49 48.14 48.43 48.48 50.21 49.80 49.64 49.55 50.18 49.77 49.01 49.04 47.68 47.29 46.90 46.37 45.73 45.18 44.75 44.40 44.54 44.77 46.26 46.88 46.99 46.65 46.31 47.66 48.17 49.00 48.54 47.95 47.68 47.72 46.93 47.13
43.23 43.98 44.08 44.18 44.60 45.03 45.95 46.50 46.16 46.78 47.10 47.49 47.82 47.55 47.83 47.85 47.34 47.30 47.17 46.95 45.19 45.36 44.92 44.23 43.83 43.62 43.37 42.82 42.83 44.42 44.15 45.92 46.77 46.75 47.00 45.92 47.07 44.94 44.83 45.24 43.49 42.14 39.86
42.08 43.57 43.50 43.77 43.64 44.54 45.07 44.92 44.85 45.36 45.77 46.12 45.76 45.76 45.50 45.43 45.87 45.54 45.84 45.44 44.15 43.31 43.16 43.24 42.69 42.01 41.54 41.16 41.08 41.65 41.54 40.80 40.79 42.22 42.23 42.53 42.78 40.59 39.95 40.27 41.64 41.16 40.05
42.33 41.61 42.54 43.03 43.51 44.51 44.83 44.56 44.21 44.52 44.18 44.18 43.92 43.66 43.47 43.62 43.20 43.38 43.76 43.48 43.39 42.80 42.05 41.48 40.97 40.49 40.17 40.34 40.39 40.48 39.23 39.09 39.17 38.93 38.71 38.59 38.99 38.87 39.53 40.27 40.16 40.51 39.47
41.73 41.65 41.07 41.72 42.96 43.39 44.40 44.61 44.20 43.58 43.48 43.20 42.74 42.42 42.42 42.16 41.88 41.76 41.64 41.57 41.44 41.10 40.54 39.93 40.18 40.37 40.15 40.71 39.64 41.28 41.18 40.47 39.53 39.64 39.72 39.29 40.42 41.98 41.17 39.15 38.41 38.38 36.91
40.92 41.33 41.56 41.58 42.62 43.42 44.11 44.64 44.08 43.33 43.17 42.49 42.17 42.33 41.67 41.28 40.72 40.30 39.74 39.57 39.34 38.78 38.87 38.91 40.34 40.26 40.69 41.74 42.09 41.67 40.30 39.64 38.26 36.95 36.49 36.93 37.84 39.15 40.06 39.40 39.11 37.48 36.38
40.82 40.88 40.83 40.70 40.91 42.44 45.28 44.64 44.56 43.82 42.82 42.19 42.24 42.01 41.26 40.52 39.90 39.85 38.92 37.56 36.60 36.85 36.88 38.05 39.79 39.36 40.14 42.10 42.15 41.94 38.31 36.63 35.15 33.63 31.88 32.26 34.19 32.31 30.44 35.83 36.25 36.03 37.64
40.91 40.98 40.83 41.19 41.42 41.37 44.30 45.82 44.85 43.86 42.84 41.90 41.96 41.79 40.93 39.94 39.48 38.91 38.16 39.28 35.67 35.62 35.52 37.21 38.85 38.08 39.14 41.24 40.83 39.35 34.64 33.48 33.08 31.36 28.43 27.19 27.82 29.31 29.83 29.22 29.34 29.69 30.07
41.05 41.47 41.11 40.81 40.88 41.36 42.25 44.47 43.85 43.05 42.39 41.81 41.54 41.26 40.62 39.25 38.25 37.47 37.15 37.93 34.97 35.50 36.96 37.90 37.56 36.40 37.12 39.15 39.01 34.30 30.82 28.47 27.28 29.26 31.17 32.10 30.62 34.30 34.29 29.12 27.58 27.40 29.38
38.98 40.75 41.16 40.66 40.26 41.18 42.07 43.24 43.28 42.33 41.72 41.72 41.02 40.68 40.18 39.02 37.14 36.78 37.53 36.15 35.95 35.73 36.12 34.20 34.77 37.23 34.79 38.04 36.63 32.06 28.88 27.07 27.54 28.32 29.66 35.42 33.33 36.21 34.42 28.23 26.19 24.59 25.32
37.90 39.61 40.52 39.46 40.35 40.98 41.87 41.21 40.45 40.16 40.72 41.40 40.90 39.94 39.13 37.78 36.63 36.55 36.79 35.09 34.91 34.72 33.82 33.50 33.40 34.29 34.55 33.77 36.56 35.52 29.14 27.76 27.17 26.92 27.63 29.09 35.44 35.11 34.31 32.90 25.96 26.58 27.14
37.43 38.22 39.76 39.49 40.57 40.66 40.84 40.05 39.75 40.50 40.93 40.45 39.45 38.48 37.96 38.42 37.08 36.83 35.25 34.99 34.46 33.66 33.17 32.71 31.61 32.28 31.52 35.27 36.58 36.00 33.67 31.69 26.80 26.48 26.88 28.16 34.52 34.13 33.95 32.34 32.91 32.17 30.59
37.64 38.46 38.28 39.08 39.39 39.58 39.58 39.17 39.42 39.79 39.41 38.47 37.90 37.39 37.18 37.28 37.32 35.92 34.98 33.99 33.90 33.00 32.23 31.59 30.58 29.46 29.67 29.85 36.83 37.00 35.91 35.00 28.45 27.08 29.50 32.46 33.96 33.12 31.16 32.09 32.83 33.12 26.62
36.49 37.70 37.74 38.59 38.08 38.86 39.16 39.13 39.36 39.29 38.16 36.67 35.82 36.04 35.84 36.53 36.10 35.44 35.03 34.09 33.08 32.50 32.20 31.54 30.46 28.70 27.76 27.76 28.67 32.19 34.31 36.21 33.92 32.41 29.52 30.92 31.67 31.37 29.00 28.57 27.96 26.23 25.68
37.18 37.50 37.80 38.64 41.08 40.57 39.89 39.50 38.95 38.30 36.74 35.93 35.33 34.85 36.00 37.09 34.93 34.84 34.42 33.93 34.72 35.00 32.98 32.78 31.78 28.67 26.15 27.99 30.70 30.23 29.83 30.03 32.66 30.90 27.70 27.14 26.92 26.41 26.09 25.44 24.89 24.67 24.70
39.08 38.85 38.37 40.41 41.76 41.52 40.57 40.37 39.59 38.81 37.99 36.97 36.34 36.54 36.29 36.49 34.67 33.62 33.15 37.63 36.98 37.83 38.08 37.26 33.54 30.76 33.83 34.57 35.06 34.74 34.34 34.92 35.55 30.47 26.19 25.66 26.18 26.02 26.16 25.55 24.77 24.23 25.38

GFSMW_sfc_wetblb_072.txt.gz
Wetbulb
51.35 53.31 54.36 60.80 63.99 63.50 64.49 64.47 65.06 65.72 66.25 64.93 65.15 64.72 63.61 64.51 64.63 64.37 64.39 64.69 64.85 64.53 63.41 63.33 63.42 63.57 64.12 64.13 63.79 63.29 62.81 62.50 62.72 61.68 60.46 59.80 60.74 60.56 60.82 60.92 60.32 60.68 60.11
49.28 51.43 52.93 52.93 60.06 63.42 64.22 64.24 65.08 64.68 65.50 64.92 64.36 64.11 63.41 63.32 63.40 64.75 64.43 64.94 65.99 65.85 63.99 63.39 63.33 63.69 63.94 63.92 63.74 63.58 62.58 61.87 62.44 59.80 58.33 54.51 55.75 57.00 57.82 57.56 58.02 57.32 57.04
49.25 49.29 50.92 51.26 52.16 59.77 62.85 64.69 65.29 65.37 65.48 65.18 64.58 64.28 64.25 63.92 63.62 63.40 63.84 65.54 66.02 65.97 65.32 64.80 64.81 65.31 65.33 64.34 64.45 64.11 63.32 61.55 60.99 60.94 58.05 54.63 51.81 53.41 55.96 55.77 56.04 55.37 54.85
47.83 49.20 50.47 51.44 49.94 53.65 60.84 63.61 64.57 64.73 65.30 64.67 64.21 63.93 63.08 62.24 63.58 62.98 63.58 62.40 63.51 63.93 64.48 64.63 64.94 64.65 63.86 62.47 61.71 61.65 59.97 59.08 57.41 57.93 58.64 57.23 56.32 54.76 52.96 54.12 54.84 54.47 52.73
47.79 49.10 49.83 51.99 51.69 50.59 52.97 58.92 62.44 64.43 65.21 65.14 64.27 63.55 61.46 62.12 61.68 61.76 61.32 58.80 59.30 58.72 57.94 57.30 56.10 56.57 57.40 56.91 56.51 55.66 55.78 56.47 56.40 55.94 54.36 53.02 53.46 54.41 52.70 52.10 51.47 52.79 53.41
46.97 48.20 49.73 50.49 50.10 49.97 49.95 50.57 55.23 59.46 61.04 62.20 63.26 63.35 62.69 61.01 57.91 57.51 57.72 56.18 56.01 57.35 57.63 57.08 56.36 55.46 54.87 54.63 55.12 54.63 53.79 53.85 53.94 54.19 53.56 52.49 50.98 50.28 49.94 49.60 49.70 50.50 51.78
44.84 45.56 47.08 48.39 49.24 49.74 50.18 50.23 50.61 52.71 56.89 59.52 59.92 61.56 61.82 60.38 57.92 56.83 56.65 54.16 54.52 55.29 55.68 54.46 53.19 52.17 52.91 53.03 52.90 52.23 51.76 51.81 52.33 52.72 52.58 52.73 52.62 52.75 51.93 51.63 49.61 49.52 51.01
39.83 42.68 45.29 47.12 47.23 48.41 48.98 49.51 49.52 49.43 50.66 52.22 55.71 56.13 58.00 55.54 55.69 55.48 54.81 54.70 54.25 54.43 54.38 52.95 51.82 51.09 51.29 51.09 50.55 50.24 50.28 50.38 50.81 51.05 51.40 52.39 52.86 53.21 52.72 52.06 52.03 49.57 50.45
41.45 41.62 42.31 42.85 43.80 47.21 48.73 49.38 49.38 49.12 49.72 50.04 50.27 50.49 53.78 53.36 52.85 53.01 51.96 51.88 51.15 51.83 51.84 51.15 50.37 49.10 48.80 48.42 48.44 48.43 48.28 49.71 50.21 50.72 51.58 52.39 50.04 50.27 51.97 53.38 53.14 52.81 48.25
42.52 42.55 42.39 42.72 43.09 43.09 46.02 48.82 48.88 48.85 49.02 49.55 49.46 50.13 49.55 50.26 51.55 51.99 51.38 50.72 49.09 48.45 47.87 47.33 47.03 47.25 47.14 47.15 47.30 46.39 47.52 47.65 48.46 48.64 47.90 47.45 47.61 48.19 49.94 51.03 51.66 51.81 51.54
41.79 42.68 43.00 43.01 43.54 44.24 45.99 46.87 47.65 47.61 47.71 47.87 47.65 48.19 49.14 50.02 49.78 49.33 49.10 48.28 47.28 46.62 46.24 46.03 45.50 45.24 45.12 44.67 44.18 44.55 46.50 46.18 45.94 45.43 45.55 46.46 47.27 48.35 47.72 48.11 48.22 47.52 47.22
41.96 42.68 43.01 43.21 43.35 43.69 44.78 45.33 46.08 46.24 46.74 47.03 47.41 47.81 48.16 48.60 47.71 47.93 48.12 46.58 45.93 45.67 45.58 44.43 44.14 43.52 43.57 42.91 43.08 43.56 45.43 44.81 44.91 45.48 44.82 44.75 46.36 45.48 45.23 45.59 44.43 43.07 42.66
41.13 40.56 42.27 42.95 42.65 43.10 43.92 44.76 44.36 45.13 45.52 45.78 45.90 45.48 45.41 45.34 45.25 45.11 44.77 44.76 44.12 43.72 43.48 43.41 42.60 41.92 41.44 41.46 41.28 41.61 41.96 41.22 41.21 42.06 43.67 43.02 43.73 41.77 41.69 42.43 42.14 41.71 41.20
40.65 40.25 39.79 40.15 41.81 42.75 43.25 44.28 44.11 44.08 44.21 44.35 44.25 43.75 43.39 43.61 43.51 43.52 43.13 42.89 42.77 42.03 41.43 40.96 40.38 40.52 40.02 39.89 39.60 39.75 38.74 38.60 38.50 38.63 38.78 39.73 40.77 40.70 40.43 40.84 40.74 40.75 39.85
39.92 39.79 39.31 38.97 39.60 41.32 42.67 43.79 43.67 43.81 43.47 43.11 42.87 42.88 42.83 42.48 42.24 41.95 41.75 41.56 41.35 41.16 40.38 39.52 39.22 39.18 39.37 39.85 38.39 39.52 39.75 40.36 39.78 39.83 39.41 39.07 40.11 41.96 41.33 39.78 39.01 39.20 37.78
39.93 40.51 40.43 40.33 40.32 39.80 41.24 43.29 43.68 43.14 42.84 42.45 42.34 42.46 41.74 41.16 40.80 40.24 39.67 39.26 38.81 38.47 38.44 38.14 38.45 38.34 40.15 42.46 42.61 41.98 40.74 40.25 39.04 37.69 37.06 37.65 38.28 40.11 40.60 40.19 39.42 38.52 37.14
39.05 39.70 40.19 39.95 39.89 40.22 40.79 41.27 43.73 43.42 42.22 42.05 41.94 41.60 40.98 40.34 39.54 39.23 38.44 37.40 36.59 36.28 36.30 36.57 37.45 37.48 39.59 42.34 42.58 42.99 39.59 37.95 36.55 35.27 33.99 34.29 34.69 33.06 30.81 36.72 36.42 36.95 38.23
36.72 37.61 38.60 40.16 41.15 40.27 40.50 41.14 43.38 42.73 42.38 41.58 41.65 41.33 40.50 39.63 38.89 38.16 37.20 35.87 35.03 34.99 34.78 35.28 36.17 36.66 39.06 42.68 41.89 41.19 35.53 34.11 33.51 33.11 32.01 26.45 26.54 29.69 30.02 29.47 29.37 29.04 29.62
35.86 36.56 36.70 38.89 40.38 40.09 40.56 40.58 41.76 42.15 41.58 41.58 41.46 41.27 40.38 38.88 38.01 37.08 36.13 35.65 34.93 33.93 34.22 35.26 35.67 36.80 37.56 41.43 41.03 37.04 33.48 33.20 32.43 31.58 29.71 29.31 28.64 33.31 34.61 28.96 28.47 28.55 29.84
37.06 36.92 37.05 38.16 39.38 40.40 40.14 40.39 40.98 40.99 41.24 42.05 41.66 40.97 40.21 39.33 37.62 36.58 35.27 35.09 37.07 34.97 35.52 33.95 35.12 37.88 35.92 39.87 39.57 35.07 31.35 29.78 28.41 29.50 30.71 36.19 32.03 36.05 35.19 28.35 27.04 25.48 26.78
36.57 37.70 36.75 36.38 38.44 39.97 39.55 39.44 39.71 39.58 41.69 41.04 40.53 39.77 39.36 38.50 37.41 35.63 34.69 34.65 36.44 35.40 34.58 34.22 34.08 35.19 35.75 36.32 38.26 35.74 28.14 27.45 26.79 27.33 28.90 30.06 36.91 36.86 35.65 32.35 26.24 26.76 27.53
36.23 36.79 36.42 36.77 37.84 39.16 38.71 38.29 38.36 39.99 40.28 40.50 39.80 38.56 37.47 38.24 37.28 35.45 34.23 35.77 35.40 34.58 34.13 33.85 33.38 33.65 34.09 37.49 38.29 36.92 34.07 31.91 26.83 26.47 27.98 29.08 34.77 35.42 34.90 33.09 32.47 33.02 31.09
36.23 36.22 35.71 35.99 37.11 38.16 38.08 37.45 38.49 39.11 39.07 38.09 37.44 36.56 36.35 36.73 36.30 35.12 35.00 34.97 35.02 34.29 33.46 32.76 32.34 31.59 32.09 30.56 37.13 37.61 37.01 34.97 27.64 26.56 29.04 31.69 34.46 34.75 33.18 33.87 34.03 34.48 26.94
37.29 37.88 35.53 35.10 35.88 38.37 38.82 38.04 38.69 38.78 37.66 36.48 35.51 35.08 35.23 35.10 34.54 35.60 35.73 34.91 33.99 33.51 33.12 32.30 31.75 31.41 30.26 29.44 29.23 32.17 33.62 35.84 32.92 31.60 29.52 31.78 32.62 32.41 29.71 29.48 28.93 27.22 26.05
37.27 38.83 38.43 36.29 37.28 39.57 41.75 40.29 39.68 39.10 36.67 35.66 34.62 34.23 34.98 36.59 34.70 35.73 35.32 34.83 35.72 35.79 33.77 33.39 33.29 31.49 29.71 29.33 31.55 31.24 30.59 31.45 32.85 30.62 27.63 26.75 26.85 27.16 26.82 25.96 25.26 24.60 25.35
35.91 34.50 37.41 37.54 36.66 37.89 40.34 41.49 40.36 39.27 38.62 37.33 36.49 36.68 36.78 37.35 35.66 34.63 34.23 38.46 38.01 38.41 38.79 38.12 35.52 33.04 35.69 35.37 35.61 35.56 35.73 36.32 36.58 31.49 26.69 26.06 25.78 25.69 26.19 25.71 25.24 24.86 25.89

GFSMW_sfc_wetblb_075.txt.gz
Wetbulb
50.15 53.15 55.16 61.75 62.73 63.05 63.79 65.22 65.37 65.93 66.19 65.43 65.03 64.70 64.92 64.31 64.08 64.01 65.47 65.74 65.41 64.05 62.77 62.41 62.30 62.08 61.61 61.81 62.23 62.84 62.28 62.23 62.64 61.59 60.44 58.65 59.30 59.66 60.04 59.57 59.47 59.60 60.22
47.90 50.21 51.81 53.64 61.34 62.30 63.03 63.58 64.43 64.98 65.67 65.79 65.81 65.08 63.76 63.35 63.40 64.32 64.59 65.43 65.15 64.62 63.59 62.65 62.39 62.63 62.40 63.01 63.05 62.91 62.34 62.36 62.30 59.87 56.37 53.97 55.39 56.44 56.15 55.74 56.70 56.56 55.96
47.85 48.67 49.26 51.55 52.56 59.93 61.90 63.45 64.40 65.37 65.43 64.39 64.04 63.64 63.43 63.23 62.84 63.46 63.82 64.31 64.89 64.69 64.50 64.11 63.19 62.97 64.06 63.41 63.67 63.50 62.65 61.05 59.79 61.13 59.02 54.83 50.93 53.38 56.21 55.37 55.57 54.40 53.82
47.49 48.08 49.28 49.36 50.92 52.78 60.50 62.35 63.62 64.28 64.37 64.03 63.71 63.51 63.19 62.20 62.43 62.60 62.89 63.28 63.93 64.25 64.86 64.30 64.36 64.64 64.30 63.51 62.94 62.50 62.02 59.80 57.38 56.30 57.63 56.64 57.44 55.18 51.61 53.67 54.00 53.89 52.45
46.54 47.38 47.97 50.16 51.34 51.59 55.45 61.41 62.28 63.10 63.71 63.31 63.18 62.29 60.98 61.99 62.00 61.71 61.93 61.14 60.95 60.96 60.98 60.98 60.65 60.31 59.94 59.63 59.69 59.19 58.29 56.90 56.00 54.63 53.64 52.41 51.67 53.17 53.49 50.30 50.72 52.33 53.00
45.39 46.65 48.02 48.89 48.46 47.80 50.15 53.78 58.33 60.79 62.31 63.03 62.77 62.80 62.39 60.67 59.85 59.95 59.92 58.62 57.87 58.77 59.11 58.38 57.53 57.21 56.71 56.68 56.70 55.75 53.92 52.92 52.62 52.90 52.19 51.86 50.20 48.59 48.33 48.44 48.43 48.85 49.96
44.85 45.39 45.25 47.25 46.90 47.64 48.64 49.39 51.61 56.18 58.36 60.15 60.76 61.79 62.68 61.62 60.39 58.97 59.16 57.29 56.44 55.96 56.71 56.61 55.95 54.55 54.07 54.14 53.73 52.57 51.40 51.47 51.36 51.44 51.81 51.90 51.53 51.28 50.03 48.86 47.96 48.11 48.97
40.50 42.68 42.80 46.10 46.47 46.94 48.16 48.43 48.72 48.90 51.04 55.09 57.73 58.40 59.98 59.88 59.78 58.92 58.50 57.41 56.25 55.33 55.30 54.11 52.60 52.01 51.99 51.76 50.95 50.54 49.79 49.26 49.25 49.07 49.76 50.71 51.30 51.39 51.82 52.33 49.73 49.23 49.59
40.15 40.84 41.42 41.67 42.44 43.84 46.51 47.61 48.24 48.57 48.71 49.48 50.85 53.44 55.56 56.20 54.76 54.97 55.14 53.33 53.32 54.10 53.02 51.70 50.86 49.99 49.44 48.71 48.43 48.12 47.79 47.99 48.59 49.57 49.52 50.17 49.84 50.29 50.63 51.48 52.22 51.29 47.37
40.90 41.56 42.06 42.56 42.88 43.03 44.71 46.18 48.13 48.13 48.18 48.54 48.32 48.96 49.53 51.49 52.78 52.30 50.98 51.13 51.36 51.96 50.75 49.34 48.71 48.11 47.68 46.71 46.35 46.12 47.06 47.91 47.78 48.45 47.51 46.61 46.70 46.83 48.90 49.27 51.20 51.78 51.24
40.18 40.85 41.55 42.06 42.11 42.78 43.81 45.23 46.37 46.82 47.08 47.43 47.39 47.52 47.72 48.53 49.10 49.75 49.51 47.95 47.58 47.46 47.78 47.49 46.83 45.94 45.30 44.36 43.69 44.00 44.63 45.64 45.40 45.18 45.02 45.47 46.18 45.80 46.40 47.35 48.28 48.13 47.24
39.43 39.84 41.15 41.68 42.05 42.20 42.66 43.27 44.51 45.60 46.07 46.24 46.47 47.03 47.65 47.98 48.03 48.28 48.46 47.04 46.87 46.13 46.00 45.64 44.42 43.67 43.25 42.66 42.18 42.34 43.65 44.41 44.07 44.63 44.61 44.82 45.87 44.18 43.83 45.40 45.05 44.10 43.29
39.22 38.84 38.92 38.96 39.52 40.52 41.87 43.02 43.90 44.19 44.75 44.95 45.29 45.20 45.18 45.40 45.45 45.57 45.53 45.88 44.85 44.17 43.04 42.91 42.47 42.09 41.73 41.34 40.78 40.93 41.43 40.90 40.66 40.93 42.62 42.23 42.76 42.61 42.40 42.94 42.74 42.20 41.79
38.91 38.75 38.40 38.33 38.65 39.54 40.65 42.14 43.22 43.30 43.68 43.80 43.96 43.76 43.46 43.74 43.68 43.51 43.31 43.23 42.59 41.67 41.14 41.03 40.75 40.30 39.56 39.16 38.75 38.98 38.30 37.64 37.84 38.01 38.12 40.54 41.30 41.46 41.02 41.26 41.09 41.07 40.33
38.98 38.99 38.53 38.51 38.70 38.99 39.79 40.83 42.30 43.32 43.31 43.07 42.81 43.06 42.60 42.35 42.27 42.04 41.60 41.38 41.07 40.71 40.23 39.18 38.71 38.60 38.69 39.14 37.92 38.27 37.90 38.52 39.74 39.61 39.54 39.74 40.73 42.05 41.59 40.42 39.68 39.84 38.71
37.19 37.38 37.62 38.10 38.76 38.83 39.38 40.11 40.55 42.30 43.05 42.36 42.55 42.76 42.00 41.40 40.90 40.25 39.70 39.33 38.90 38.48 38.19 37.76 37.98 37.50 39.55 42.20 43.52 42.11 40.53 40.82 39.97 38.56 38.24 38.98 40.34 40.88 41.32 40.40 39.94 39.21 37.60
35.32 35.26 35.61 36.01 37.28 39.05 40.14 39.58 40.54 41.51 42.32 41.93 42.01 41.87 41.26 40.45 39.72 39.29 38.44 37.50 36.76 36.30 36.22 36.15 36.71 36.60 36.98 42.09 43.12 43.14 40.56 39.19 37.88 36.58 35.25 35.26 36.10 33.90 32.08 36.82 36.96 37.92 38.80
34.80 35.05 35.16 35.88 36.61 38.80 40.08 40.76 40.96 40.89 41.68 41.26 41.38 41.29 40.46 39.59 38.71 37.90 37.19 35.91 35.01 35.15 34.69 34.79 35.38 35.51 37.08 41.83 43.18 42.60 36.08 34.59 34.03 34.19 33.40 33.06 31.06 29.10 29.81 28.80 28.97 28.50 29.23
35.18 35.85 36.10 36.25 36.68 37.72 39.47 39.92 40.29 40.46 40.44 40.84 41.18 40.98 40.10 38.79 37.78 36.85 35.99 34.83 34.20 33.66 33.70 34.41 34.32 34.03 34.36 40.88 42.19 37.94 33.76 33.67 33.44 32.57 31.94 30.90 27.79 31.76 34.83 29.19 28.86 28.38 29.94
35.95 36.14 36.64 36.44 35.68 36.61 37.56 38.03 38.94 38.94 39.29 40.42 40.97 40.67 40.09 39.25 37.76 36.62 35.09 34.56 34.46 34.23 33.09 33.99 33.34 36.32 35.20 40.68 41.17 38.26 33.93 32.83 32.38 31.54 31.06 34.80 30.25 34.63 35.68 28.29 27.39 26.56 27.15
35.54 36.13 35.74 35.37 36.21 36.84 36.63 36.99 37.51 37.32 39.37 40.35 40.38 39.59 39.38 38.83 37.94 35.64 34.00 34.12 34.02 34.11 35.26 34.76 34.36 34.70 36.83 36.80 40.70 39.72 30.13 30.15 29.64 28.92 27.76 28.97 36.89 36.73 36.14 33.31 26.66 27.14 27.94
34.83 35.24 34.33 35.53 36.53 36.72 36.23 36.36 36.68 38.63 38.90 39.01 38.83 38.42 37.71 38.29 36.82 34.98 34.52 32.87 33.46 34.88 35.15 34.88 34.60 35.04 35.89 38.79 38.85 39.01 35.19 31.90 26.57 26.24 26.99 28.12 35.22 36.98 36.26 34.22 32.22 32.64 30.63
35.16 36.43 37.03 35.79 35.88 35.70 35.79 35.97 38.35 37.79 37.98 37.42 37.06 36.40 35.87 35.83 35.20 34.43 33.46 33.00 33.60 35.17 34.31 33.48 33.45 33.17 33.35 33.59 39.02 39.55 38.29 35.91 28.12 25.51 28.37 31.84 33.66 35.63 34.49 35.31 34.87 34.35 27.35
35.37 36.43 37.00 35.71 37.23 36.72 37.39 38.85 40.33 38.24 37.11 36.36 35.44 34.59 34.27 34.01 33.62 33.37 34.35 34.85 35.00 34.38 33.78 32.97 32.81 33.09 32.07 32.16 32.08 32.70 33.45 36.81 33.22 31.57 27.82 31.14 32.23 34.02 31.24 30.67 30.38 28.45 27.04
34.22 35.67 33.88 33.60 35.62 35.99 35.91 37.75 39.89 40.31 38.21 36.24 34.64 33.77 33.83 35.36 33.80 34.18 35.19 35.56 36.66 36.86 34.47 34.10 34.06 32.78 31.49 31.95 33.98 32.74 30.66 29.32 30.85 28.77 26.29 26.52 26.86 27.30 27.15 26.24 25.44 24.95 26.00
34.00 32.02 32.53 32.68 33.76 34.58 35.30 36.51 38.26 40.02 38.84 37.35 37.28 36.83 36.43 37.17 36.03 35.35 35.00 39.05 38.63 39.28 39.38 38.55 36.19 34.65 37.18 37.38 37.17 36.61 35.74 36.41 36.43 30.16 25.69 24.82 25.54 25.51 26.52 26.76 26.15 24.95 26.01

GFSMW_sfc_wetblb_078.txt.gz
Wetbulb
52.32 55.15 58.63 62.16 62.82 63.59 63.44 65.20 64.88 65.64 65.55 64.93 64.73 65.16 64.97 65.62 65.33 65.08 65.30 64.71 64.76 64.16 62.93 62.25 61.44 60.77 60.63 60.76 60.43 60.12 60.48 61.65 62.39 61.57 59.70 57.46 58.16 58.43 58.85 57.95 57.93 58.43 59.32
48.82 51.29 53.58 55.70 61.38 62.36 62.60 63.67 64.53 65.10 65.05 65.00 64.58 64.43 64.15 64.73 64.94 64.48 64.44 64.79 65.12 65.00 63.90 63.18 62.44 61.74 61.32 61.13 61.50 62.04 61.78 61.98 62.23 60.44 56.46 53.25 55.07 55.36 55.75 55.31 55.60 54.93 55.12
47.85 49.22 49.01 51.55 54.37 59.34 61.60 63.30 63.99 64.44 65.06 65.41 65.08 63.08 62.98 62.73 62.84 63.39 63.20 63.59 64.78 64.76 64.50 63.73 62.80 62.27 62.79 62.60 62.41 62.60 62.29 61.11 60.51 60.14 57.14 52.34 50.06 51.69 55.48 54.49 54.53 53.76 53.05
47.71 48.44 48.79 48.87 50.34 51.97 59.27 62.45 63.22 63.62 64.02 64.33 64.01 63.79 62.85 61.69 62.32 62.68 62.62 62.93 63.28 63.28 63.61 63.51 63.10 63.10 63.90 63.43 62.59 62.09 62.07 61.38 59.50 57.00 57.28 57.70 57.47 54.06 50.58 53.27 53.79 53.82 52.09
46.91 47.47 48.47 49.30 50.47 50.91 52.33 59.69 61.66 62.01 63.33 63.42 63.80 63.04 62.19 62.11 61.99 61.89 60.94 60.28 60.60 60.67 61.40 62.06 61.99 61.83 61.33 60.51 60.00 59.19 58.51 57.91 57.42 56.02 53.72 51.88 50.94 53.21 53.05 48.20 48.75 51.16 51.39
46.61 46.92 47.26 48.85 48.77 48.11 49.96 55.78 59.11 59.92 61.16 61.44 61.59 61.88 62.02 60.88 60.47 59.75 59.78 59.91 60.16 60.06 59.88 59.99 60.71 60.60 59.38 58.44 58.05 57.22 56.32 55.71 54.56 53.26 52.37 51.75 49.55 47.65 47.28 48.90 48.47 47.32 49.32
45.11 45.89 45.64 47.28 47.80 47.50 47.85 49.52 52.38 54.76 56.84 58.78 60.49 61.21 61.15 60.77 60.05 59.47 59.71 59.21 58.03 56.94 57.71 57.78 57.88 56.87 54.99 54.79 54.48 53.91 53.15 52.90 52.40 52.09 51.59 51.45 51.14 50.90 49.69 49.05 47.78 46.92 48.14
41.66 42.15 43.22 44.07 44.81 46.52 47.43 48.13 48.51 48.83 48.97 51.79 55.43 57.92 59.07 59.38 59.35 59.41 59.03 59.49 59.23 58.43 57.65 56.21 54.37 52.90 53.02 52.66 52.01 51.30 50.43 50.18 49.62 49.17 49.14 50.05 50.47 50.35 50.22 51.93 50.06 47.94 49.43
39.68 40.17 40.79 41.05 41.59 42.62 44.16 45.79 47.83 48.60 48.79 48.50 49.03 50.68 53.69 55.97 56.38 56.01 57.35 57.25 56.78 56.58 55.82 53.97 52.19 51.48 50.93 50.14 49.51 48.64 47.78 47.81 47.49 47.87 48.32 48.87 49.73 50.46 49.37 50.41 51.17 49.08 45.13
39.76 40.23 40.86 41.26 41.93 42.37 43.61 45.46 46.40 46.98 47.66 48.03 48.12 48.69 48.86 51.22 54.00 53.74 53.06 53.21 52.25 52.68 51.08 50.17 49.82 48.96 48.60 47.99 47.30 46.37 46.49 46.56 46.87 47.80 47.60 47.21 47.04 46.99 47.19 49.33 49.71 50.06 48.39
38.59 39.52 40.14 40.77 41.05 41.59 42.48 43.31 44.35 45.65 46.37 46.57 46.81 47.13 47.74 48.61 49.92 50.28 49.80 49.45 49.72 50.80 49.26 48.71 47.45 46.79 46.06 45.72 45.53 44.84 44.66 45.18 45.06 44.70 44.60 45.18 45.36 45.53 45.58 47.84 47.37 46.56 47.66
37.43 37.65 37.94 38.37 38.75 39.31 40.50 41.75 43.07 43.96 44.53 44.97 45.28 45.89 46.63 46.99 47.10 47.34 47.50 47.37 47.24 47.13 46.97 46.43 45.49 44.54 44.32 43.04 42.54 42.14 42.33 43.15 43.19 43.43 43.40 43.53 45.36 43.25 43.24 43.35 43.38 44.26 44.12
37.92 37.85 38.34 37.99 38.12 38.60 39.15 39.95 41.49 42.51 43.37 44.24 44.62 44.76 44.97 45.13 45.38 45.66 45.64 45.47 44.70 44.08 44.22 43.78 43.11 42.20 41.94 40.91 40.11 40.24 40.19 39.91 39.30 39.57 40.13 41.30 41.14 40.52 40.97 42.73 43.18 42.68 42.23
37.54 36.99 36.47 36.96 37.94 38.74 39.11 39.71 40.18 41.38 42.44 42.61 43.01 43.30 43.51 43.91 43.79 43.54 43.46 43.31 42.89 42.09 41.47 41.30 40.85 40.33 39.47 39.00 38.65 38.56 37.78 37.08 37.27 37.49 37.57 39.22 41.65 42.11 41.75 41.64 41.73 41.57 40.40
35.30 35.20 34.77 34.78 35.80 37.08 38.95 39.90 40.02 40.27 41.62 42.21 41.99 42.42 42.42 42.06 42.01 42.08 41.78 41.46 41.01 40.52 40.09 39.17 38.62 38.36 38.50 38.89 37.80 38.22 37.71 37.33 38.79 39.93 39.71 40.15 41.01 42.30 42.07 40.89 40.35 40.26 39.42
34.52 34.83 34.87 34.77 34.59 35.15 37.03 39.04 39.50 39.76 40.52 40.86 41.68 42.38 42.02 41.43 41.04 40.64 39.88 39.51 38.99 38.34 38.02 37.66 37.72 37.27 39.47 42.54 43.37 40.92 37.94 38.98 40.38 39.49 38.88 39.99 41.06 41.30 41.89 41.11 40.68 39.81 38.12
33.85 34.28 34.46 34.46 34.90 35.41 36.98 37.70 39.36 40.24 39.76 40.35 41.06 41.73 41.40 40.73 40.03 39.49 38.50 37.71 37.02 36.51 36.44 36.27 36.67 36.37 36.68 42.24 43.19 43.22 38.53 37.18 38.39 37.39 36.29 36.17 37.14 35.01 34.49 37.37 37.39 38.33 38.40
33.93 34.44 34.72 35.60 36.10 36.68 37.06 38.24 39.11 39.63 39.78 40.16 40.65 41.19 40.73 40.07 39.15 38.07 37.37 36.08 35.13 35.43 34.89 34.99 35.40 35.39 36.71 41.90 42.70 42.83 36.72 34.03 34.24 34.92 34.43 34.26 32.70 32.25 31.99 28.95 28.44 27.95 29.51
34.14 34.64 35.12 35.63 35.84 35.45 36.55 36.75 37.54 38.72 39.12 39.57 39.81 40.30 40.27 39.12 37.92 37.16 36.21 34.95 34.33 33.72 33.80 34.27 34.22 33.92 34.17 41.23 42.38 38.83 33.76 34.00 33.90 33.78 33.94 33.42 32.10 33.60 35.62 28.76 27.74 27.60 28.67
34.49 34.43 34.99 35.81 35.42 36.65 36.54 36.04 36.91 37.73 38.19 39.41 40.22 40.16 39.83 39.53 38.28 37.66 35.56 34.31 33.89 34.03 32.78 33.97 33.69 35.77 31.96 39.75 42.06 39.02 34.67 33.51 33.73 33.12 32.20 35.78 30.99 33.72 36.48 27.02 26.11 25.42 26.34
34.02 34.76 34.37 33.96 35.18 36.29 35.67 35.19 36.19 36.49 38.93 39.12 39.47 39.30 39.04 39.16 39.07 35.97 34.21 33.79 33.71 33.14 32.46 34.05 34.74 35.72 34.81 34.73 41.49 41.50 34.04 33.61 31.91 31.96 30.98 30.96 36.77 35.80 36.94 33.00 25.32 26.34 27.93
33.51 34.07 33.64 34.47 35.73 36.26 34.92 35.39 35.37 37.99 38.54 38.18 37.88 37.74 37.65 37.79 37.07 35.25 33.95 32.91 33.80 34.74 34.74 35.63 35.33 35.86 36.53 39.35 40.14 41.58 37.46 34.81 29.65 29.19 28.52 27.84 34.71 37.36 37.68 34.73 32.35 32.63 31.05
32.83 33.61 33.01 34.12 34.02 34.94 34.99 34.51 35.67 37.94 39.53 36.99 36.37 35.95 35.88 35.42 34.92 34.13 35.56 33.84 34.50 35.28 35.15 34.33 34.21 33.86 34.50 35.05 40.37 40.40 40.36 36.68 27.79 26.10 28.53 31.74 34.26 36.61 36.15 36.35 35.60 34.27 25.88
33.11 32.64 33.32 31.35 31.74 33.39 33.87 34.42 35.78 37.03 38.15 38.60 38.12 35.42 33.84 33.93 33.83 35.81 35.90 35.85 35.18 35.17 34.58 33.70 33.51 34.04 33.28 33.40 33.75 36.06 37.97 39.11 34.42 32.40 28.51 31.08 31.84 33.48 32.28 32.04 31.95 29.25 27.18
31.27 32.14 30.42 30.36 30.52 31.62 33.00 34.96 36.13 36.30 36.02 38.48 38.41 36.71 35.57 35.05 33.08 32.30 34.94 35.82 37.16 37.50 35.42 34.83 34.66 33.58 32.70 33.05 35.47 34.67 33.30 32.52 32.09 28.71 26.72 26.47 26.35 27.15 27.04 26.22 26.18 25.20 26.28
30.49 29.99 29.88 30.48 30.19 30.31 31.14 33.18 35.71 36.38 35.52 35.24 37.39 38.61 37.34 36.91 35.87 35.12 35.21 39.23 39.07 39.92 40.12 39.07 36.87 35.18 37.42 37.97 38.01 38.11 37.60 37.16 36.68 29.04 26.30 25.01 25.68 26.34 26.62 26.39 25.94 25.03 25.95

GFSMW_sfc_wetblb_081.txt.gz
Wetbulb
51.90 55.19 57.23 61.39 63.06 63.57 63.71 63.62 64.87 65.16 65.17 64.66 63.90 65.12 64.67 66.12 66.09 66.73 66.09 65.88 66.25 64.64 63.48 63.38 62.86 63.19 62.60 61.61 61.27 61.00 61.20 62.14 63.31 63.04 63.67 63.16 63.45 63.45 63.33 63.27 62.64 62.31 62.41
49.93 51.47 54.12 57.52 61.07 62.29 63.27 63.59 63.91 63.89 65.01 64.02 64.24 63.70 63.95 65.70 66.85 67.05 66.21 65.65 66.11 65.55 64.91 64.17 62.78 63.23 63.58 63.14 62.89 63.08 63.19 63.01 63.67 62.83 59.98 58.79 60.32 61.28 61.58 61.61 60.73 60.51 60.69
48.73 50.18 50.79 54.92 57.53 61.72 61.97 62.75 63.94 64.13 64.37 64.35 64.42 64.12 63.91 63.95 63.55 64.51 65.40 64.71 65.32 65.42 65.00 64.85 64.86 64.04 64.04 63.41 64.14 64.31 63.62 62.28 61.93 62.46 60.93 56.36 55.67 57.47 60.78 60.08 60.09 59.59 59.44
49.28 49.85 51.02 51.06 53.55 56.77 61.68 62.77 63.45 63.98 64.64 64.52 64.39 63.17 62.06 60.81 62.60 63.94 64.42 64.61 64.88 64.16 64.38 64.39 64.20 63.99 63.44 63.46 63.49 64.42 63.98 63.51 62.51 61.55 61.48 62.01 61.05 56.89 55.19 57.91 58.41 58.43 57.51
49.34 48.88 50.07 51.82 52.85 53.03 53.79 60.09 62.34 62.71 63.65 64.46 64.43 63.15 61.31 60.23 62.69 63.05 62.98 62.62 62.37 63.20 63.56 63.85 63.48 62.67 61.95 61.43 61.28 62.36 61.09 61.59 61.07 60.83 59.50 59.00 58.37 57.58 54.82 51.58 54.15 56.73 57.15
49.57 48.76 50.35 51.66 50.74 51.16 52.01 56.79 60.29 61.63 62.29 62.57 62.89 62.59 61.78 61.17 61.31 62.10 61.98 61.49 61.35 61.58 62.59 63.07 62.73 61.74 61.18 60.47 59.75 58.89 58.46 58.81 58.42 57.82 56.67 56.10 54.83 53.45 53.43 51.93 52.55 52.16 54.55
47.78 47.86 47.68 48.03 48.64 49.56 49.98 51.24 53.18 55.27 59.01 61.55 61.53 62.24 61.76 61.84 61.70 61.65 61.65 60.52 61.00 60.61 61.17 61.70 61.88 60.81 60.30 59.95 58.76 57.64 56.83 55.96 54.90 54.61 54.36 55.61 55.42 55.42 54.29 52.78 51.47 50.54 52.81
44.24 43.32 44.01 44.23 45.57 46.77 47.91 49.52 50.75 50.47 50.81 53.09 56.27 58.69 60.14 61.40 61.49 61.21 60.95 61.14 60.83 61.06 61.03 60.54 59.37 57.61 57.34 56.83 55.99 54.73 54.22 54.22 54.50 53.73 53.58 53.69 54.09 54.43 54.58 53.12 51.25 49.01 50.15
41.87 42.82 43.49 44.05 44.78 45.79 46.56 48.26 49.35 49.88 50.66 50.65 51.09 51.37 54.83 58.09 59.13 59.42 60.38 60.25 60.00 58.54 59.26 58.86 57.58 55.54 54.57 52.70 51.89 51.38 51.40 51.69 51.70 51.86 52.20 52.14 52.77 53.40 54.14 53.88 53.66 50.80 45.91
41.68 42.06 42.26 42.61 43.31 44.09 45.29 46.59 47.74 48.48 49.47 49.53 49.82 49.72 50.74 52.05 55.99 56.80 57.20 57.34 57.23 56.98 56.09 53.50 52.47 51.34 50.97 50.89 50.12 49.96 49.77 49.97 50.19 50.78 51.16 51.47 52.03 51.97 51.80 52.08 52.26 51.54 49.33
39.32 39.92 40.56 41.26 41.82 42.84 43.34 44.51 45.74 46.72 47.57 48.10 48.75 49.48 50.10 50.24 52.11 53.76 53.60 53.95 53.81 53.98 52.96 52.09 50.71 49.73 49.07 49.18 49.03 48.44 47.57 47.92 48.48 48.88 48.95 48.86 49.49 49.79 50.06 50.81 50.86 49.97 50.16
39.28 39.95 40.45 41.21 41.65 41.86 42.26 42.52 43.59 44.89 45.70 46.30 47.63 48.28 48.82 50.08 50.47 51.13 51.31 51.28 51.53 52.02 52.28 50.91 49.17 47.95 47.35 46.88 46.83 46.02 46.20 46.84 46.79 46.76 46.91 47.06 47.11 48.08 48.52 48.88 48.22 47.41 48.14
38.88 38.56 38.91 39.06 39.77 40.75 41.60 42.07 42.54 42.86 44.11 45.52 45.98 47.06 47.57 48.23 48.64 48.74 48.61 48.55 48.47 48.56 47.86 47.67 46.67 45.45 44.66 43.63 43.50 43.41 43.10 43.38 43.15 43.38 43.88 45.07 45.77 45.81 45.82 46.17 46.23 46.59 45.13
36.65 36.77 36.57 36.55 37.35 38.15 39.35 40.55 41.65 42.12 42.95 43.64 44.63 45.28 46.06 46.83 47.03 46.72 46.51 46.15 45.65 45.13 44.95 44.85 43.87 43.25 42.52 42.32 42.12 42.01 41.96 41.76 41.72 41.82 42.15 42.82 44.04 44.59 44.41 43.68 43.86 43.57 42.83
35.12 35.58 35.85 36.19 36.65 37.30 38.23 39.26 40.64 41.59 41.97 42.26 43.02 44.08 45.15 45.30 45.42 45.37 45.21 44.68 44.44 44.03 43.61 42.81 42.41 42.15 42.02 41.39 41.67 41.69 41.75 41.75 41.65 41.89 42.05 42.13 42.16 42.62 43.12 42.58 42.37 42.05 41.44
34.78 35.55 35.96 36.17 36.11 36.31 37.08 38.00 39.08 40.20 41.34 41.45 41.92 43.16 44.13 44.52 44.33 44.15 43.45 43.10 42.70 42.19 42.02 41.92 41.71 41.42 41.19 43.09 42.99 42.16 41.81 41.63 41.77 41.80 41.39 41.58 42.29 42.44 42.64 42.04 41.56 41.23 39.81
34.70 35.02 35.29 35.73 36.27 36.87 37.53 37.37 38.60 40.00 40.28 40.90 41.72 42.31 42.88 43.25 43.19 42.98 42.24 41.84 41.48 40.93 41.10 40.78 40.82 40.72 41.72 44.19 44.55 43.94 41.79 40.97 40.75 40.40 39.72 38.21 38.64 37.69 38.18 39.52 39.03 38.99 38.23
34.50 34.97 35.50 36.01 36.81 37.47 37.52 38.14 38.57 38.86 39.57 40.32 41.00 41.85 42.30 42.37 42.63 41.78 41.40 40.78 40.23 40.36 39.94 39.67 39.91 40.34 40.16 43.35 43.93 43.85 41.86 39.03 36.36 36.95 36.86 36.80 34.98 34.69 34.39 32.94 33.01 32.76 34.16
34.98 35.36 35.83 36.00 36.37 36.39 37.14 37.04 37.65 38.44 38.93 39.74 40.35 40.89 41.48 41.43 41.33 40.73 40.44 39.84 39.05 38.74 38.50 38.42 38.40 38.45 38.98 42.56 43.28 40.85 36.46 36.55 36.36 37.42 37.30 36.44 34.97 36.18 36.69 32.48 31.38 31.67 33.06
35.05 34.92 35.47 35.77 35.68 36.87 36.78 36.31 37.11 37.33 37.78 39.28 39.90 40.30 40.81 40.87 40.69 41.37 39.21 38.44 38.20 37.50 37.58 36.35 36.53 38.08 37.83 40.89 42.74 40.77 37.31 35.70 35.56 35.63 35.02 37.42 34.59 36.91 37.80 32.13 31.44 30.07 30.79
34.50 35.67 34.96 34.52 35.41 36.45 36.01 35.86 36.38 36.24 37.74 39.37 39.63 39.59 40.13 40.06 40.35 39.65 38.35 37.89 37.52 37.12 35.68 35.67 35.56 36.45 37.33 37.93 42.06 42.38 37.14 36.59 34.82 34.91 34.15 33.33 38.30 35.96 36.70 34.31 30.93 30.62 31.68
33.37 34.02 33.33 33.72 35.20 34.98 34.97 34.29 33.84 36.11 37.17 37.98 38.93 38.77 39.13 39.04 39.37 38.70 37.38 36.81 37.00 36.35 35.50 35.86 36.56 37.70 38.04 39.58 40.58 42.48 39.97 38.39 34.94 34.22 34.85 33.44 36.93 37.69 37.25 36.24 32.89 32.90 32.13
32.43 33.52 32.38 32.90 32.75 33.20 33.50 32.21 33.92 35.62 36.04 36.42 37.55 39.23 38.14 37.49 37.47 37.15 37.23 36.30 36.68 36.39 35.80 35.84 35.99 35.67 36.19 37.14 40.81 41.67 42.62 39.60 33.52 33.69 33.98 34.15 35.57 36.74 37.73 37.40 36.10 34.40 30.56
31.46 32.38 31.87 30.87 30.41 31.61 31.74 32.15 33.55 35.20 35.29 35.54 36.45 37.59 38.43 38.32 36.71 36.77 37.28 36.72 35.99 35.91 35.75 34.95 35.25 35.73 35.06 35.32 35.96 38.52 40.05 40.34 35.98 32.81 33.08 33.59 34.02 35.23 35.26 35.51 35.65 32.06 30.56
31.10 31.75 31.19 30.23 30.29 31.03 31.00 31.82 32.76 33.41 33.88 33.84 33.85 35.30 37.39 37.88 37.12 35.37 36.35 36.86 38.02 38.34 36.41 36.19 36.40 35.12 34.29 35.11 37.07 36.86 36.15 36.73 35.37 31.90 30.34 30.51 30.30 30.38 31.32 31.15 30.86 30.82 31.24
30.55 29.82 29.73 29.81 30.32 30.79 30.98 31.56 32.29 32.45 32.64 31.32 32.17 32.79 34.68 36.51 37.54 36.42 35.69 39.08 39.42 40.03 40.56 39.84 38.20 36.69 38.79 38.84 39.01 39.04 38.79 39.10 38.45 29.95 28.21 27.91 28.90 29.09 29.36 29.36 28.65 28.40 29.08

GFSMW_sfc_wetblb_084.txt.gz
Wetbulb
53.54 58.52 57.99 59.80 62.26 62.16 62.61 63.13 62.71 63.15 65.82 66.61 65.89 65.67 65.98 66.59 66.65 67.03 66.87 67.02 66.80 66.66 66.95 66.08 66.56 66.43 65.57 65.48 65.15 64.43 63.48 63.53 65.55 64.91 63.44 64.55 65.64 65.38 65.23 65.40 64.79 64.50 64.28
51.15 55.88 56.34 58.35 57.79 60.46 62.35 62.72 63.39 64.25 63.39 63.91 65.29 65.36 65.47 66.43 66.73 67.87 67.99 67.96 67.37 67.08 66.68 66.28 66.24 66.16 64.80 66.35 65.29 64.26 63.93 64.72 65.74 62.82 63.43 59.14 61.57 63.47 63.37 64.36 63.68 63.38 63.82
50.27 51.64 54.83 55.80 58.21 59.89 61.09 62.00 62.90 63.04 63.51 64.34 64.66 64.24 64.28 64.86 64.65 65.67 66.16 67.16 67.19 66.34 66.92 66.84 65.93 65.33 64.91 66.04 65.92 65.67 65.14 64.28 64.47 64.57 62.44 58.44 56.59 60.12 62.46 62.43 62.73 62.05 62.68
51.07 51.15 52.40 52.98 57.10 58.96 61.09 61.33 62.64 62.76 63.00 63.48 62.93 62.49 61.89 60.80 62.72 62.50 65.15 65.75 66.13 66.30 65.87 65.46 64.92 64.24 63.98 63.38 63.62 64.03 64.14 64.70 62.77 63.50 64.04 64.42 62.50 57.60 55.62 59.93 60.52 61.09 59.29
51.23 50.30 51.18 52.55 53.71 58.38 61.37 61.50 62.18 62.91 62.92 63.49 63.60 62.50 61.30 62.01 62.27 61.61 63.17 63.93 63.88 65.08 64.30 64.07 63.81 63.70 63.84 62.99 61.99 62.07 61.39 61.40 60.44 59.78 60.51 62.71 62.44 61.35 58.59 52.50 54.39 57.78 58.88
50.84 49.18 50.39 51.72 51.20 52.32 54.11 56.26 59.21 61.88 63.47 63.49 63.13 62.77 61.40 61.53 59.66 60.05 60.83 61.72 62.91 63.10 63.32 63.75 63.82 63.28 62.11 61.23 60.42 59.87 59.08 59.86 59.57 59.83 59.94 59.73 57.38 55.79 54.89 53.89 54.15 54.23 56.23
46.43 46.79 47.31 48.44 49.20 50.81 52.42 53.82 58.50 58.20 62.03 63.32 63.29 63.46 63.05 62.95 60.80 60.90 61.56 62.31 61.80 62.35 62.39 63.39 62.91 62.70 62.27 61.95 60.92 59.96 58.95 59.37 59.08 59.56 58.67 57.91 57.19 57.39 55.46 54.64 53.81 52.66 54.65
45.90 43.35 44.84 47.09 48.55 49.74 51.24 52.46 53.41 52.64 53.52 55.53 59.12 61.56 63.60 63.46 62.61 63.06 63.33 63.22 62.60 62.68 63.19 62.82 62.74 63.12 62.98 61.49 60.57 59.88 59.67 58.91 58.37 57.33 56.77 56.76 56.72 56.87 56.25 54.40 52.81 50.67 51.76
44.80 43.95 44.91 46.18 48.08 49.38 49.73 51.46 52.40 52.63 52.68 53.12 53.70 53.85 57.43 61.52 62.63 63.17 63.67 63.44 63.59 63.16 62.75 62.36 62.95 61.97 60.49 59.36 58.91 57.01 54.58 54.82 54.60 55.26 54.87 53.78 54.20 54.61 55.16 55.02 54.45 51.83 48.58
42.94 42.88 43.67 45.10 46.73 47.82 49.59 50.73 51.54 51.54 52.09 52.85 52.94 52.62 53.31 54.07 57.51 59.81 60.48 61.74 62.63 62.30 62.16 61.13 61.33 59.45 58.21 57.83 56.63 53.92 52.66 52.62 53.28 53.22 53.15 53.55 54.29 54.26 54.81 54.57 54.04 53.66 51.94
41.20 43.37 43.80 45.33 46.64 47.78 47.76 48.15 49.11 50.36 51.24 51.59 52.49 52.70 52.72 53.18 54.15 56.26 57.70 58.40 59.00 59.23 59.38 58.64 56.55 55.92 55.23 54.81 53.88 52.57 51.36 51.18 51.79 51.69 52.44 52.37 52.80 53.01 53.43 53.18 51.73 51.43 52.12
42.24 43.32 43.97 44.81 45.08 45.83 46.99 47.17 47.50 47.90 48.46 50.35 51.69 52.04 52.44 52.61 53.21 53.60 54.30 55.63 57.02 57.24 56.65 55.66 54.35 53.52 52.94 52.28 51.13 49.70 49.79 50.05 49.60 50.06 50.44 50.53 50.15 50.87 51.85 51.64 50.16 50.54 51.07
40.89 41.82 42.39 42.27 42.65 43.44 43.85 45.52 46.94 46.96 48.22 48.31 49.44 51.03 52.03 52.09 52.35 52.47 52.44 52.46 52.88 54.18 54.56 54.11 52.78 51.28 49.93 49.97 49.61 48.63 48.26 48.58 49.19 48.89 48.34 48.85 49.07 49.27 49.57 49.77 49.49 49.36 48.02
40.80 41.24 41.81 42.08 42.68 42.77 43.10 43.49 44.25 45.29 46.01 47.44 48.31 48.52 49.80 50.78 51.40 51.85 51.31 51.12 51.27 51.25 51.53 51.47 49.81 48.99 48.84 48.13 47.74 47.64 47.09 46.89 46.90 46.22 46.85 47.39 47.81 48.81 49.00 48.05 47.83 47.59 46.83
40.30 40.45 40.57 41.24 41.87 42.27 42.87 43.11 43.56 43.95 44.44 45.42 46.86 47.19 48.19 49.21 50.42 50.52 50.57 50.02 49.83 49.56 49.61 48.69 48.27 46.92 46.52 46.01 46.30 46.06 46.12 45.89 45.46 45.26 45.79 46.36 45.78 44.21 46.36 46.19 46.40 45.35 44.47
39.46 39.97 40.46 40.59 40.82 41.25 41.51 42.26 42.68 42.96 43.60 43.82 45.06 46.31 47.06 47.77 48.45 49.45 49.62 49.12 48.40 48.07 47.95 47.28 46.89 46.36 44.95 44.45 45.30 46.08 45.92 45.66 45.31 44.45 44.60 44.59 42.41 43.45 44.16 43.72 42.64 43.87 43.21
38.75 39.35 39.74 40.13 40.64 41.01 41.32 41.20 42.01 43.10 43.10 43.50 44.72 45.10 45.49 45.87 46.88 47.97 47.78 47.57 47.66 47.27 46.46 46.62 46.49 45.21 45.59 44.58 44.76 44.59 45.03 44.57 44.42 44.10 43.63 43.18 42.75 42.06 43.10 41.86 41.58 41.14 40.10
38.65 39.17 39.74 39.99 40.79 41.34 41.63 41.74 42.21 42.38 42.47 43.25 44.02 44.61 44.28 44.34 45.75 46.36 46.60 46.94 46.95 46.00 45.70 45.47 45.48 45.42 45.13 45.15 45.24 44.45 44.80 43.42 40.04 39.85 40.43 42.22 40.58 39.31 39.14 37.25 36.18 37.71 38.12
38.72 38.98 39.71 39.72 40.24 40.75 40.72 40.64 41.24 41.74 41.70 41.53 42.15 43.09 43.49 43.27 44.40 45.09 45.87 46.85 45.79 45.26 44.90 45.34 44.45 44.27 44.13 44.34 44.90 44.48 42.47 40.12 38.94 38.86 41.57 42.15 40.47 38.96 38.70 35.64 34.64 35.21 35.73
38.82 38.39 39.10 39.22 39.55 39.93 39.26 39.29 39.80 39.54 39.78 40.09 40.78 42.26 42.94 42.89 43.12 44.36 44.90 45.51 44.90 44.21 44.41 42.22 43.67 43.26 43.55 43.20 44.09 43.11 40.65 38.11 37.90 40.50 40.94 39.81 39.45 39.21 39.24 35.67 36.21 33.81 34.45
37.68 38.52 38.57 37.58 38.58 38.27 37.94 37.17 37.20 37.13 38.06 39.32 40.34 41.10 42.57 42.83 43.08 43.59 44.17 43.13 43.09 42.50 41.81 40.64 39.67 41.43 42.30 42.85 43.42 43.22 40.35 39.13 37.47 37.62 38.07 39.04 39.48 39.05 39.86 37.87 35.57 34.24 35.39
35.51 36.37 35.89 35.94 37.33 36.60 36.15 34.96 35.14 37.25 38.09 38.01 38.70 39.73 41.38 41.97 41.77 42.39 43.03 41.36 41.83 40.97 39.92 39.19 38.77 38.96 41.15 41.49 42.06 43.13 41.59 40.76 37.73 37.56 38.82 39.17 38.95 38.53 37.69 38.01 35.84 34.02 33.84
35.10 35.83 35.41 35.19 36.26 35.72 35.31 33.81 35.07 36.19 36.38 36.84 36.47 37.33 38.51 40.16 42.02 40.61 41.21 39.53 39.94 39.94 38.92 37.24 38.03 38.90 39.68 40.46 41.32 42.22 43.50 41.62 38.91 39.78 39.27 38.52 38.31 39.51 37.39 38.16 36.03 34.63 33.47
34.15 34.98 34.61 33.94 34.12 35.48 35.45 35.39 35.65 35.93 35.36 35.37 35.81 36.19 36.44 37.00 39.60 39.68 38.98 38.46 37.42 37.30 37.35 35.83 36.28 37.45 36.65 36.85 37.29 40.36 41.45 42.81 40.15 36.80 36.50 37.26 37.56 37.66 37.82 37.54 37.06 34.89 34.09
33.49 34.02 33.73 33.32 33.48 34.95 34.91 35.64 35.44 35.34 34.22 34.70 34.58 34.81 35.06 34.64 35.61 37.24 38.02 37.61 38.83 38.80 37.53 37.25 37.30 36.66 35.35 36.63 38.36 37.80 38.29 39.45 38.02 34.08 32.59 32.81 33.47 33.22 34.52 35.88 36.37 35.91 34.04
32.66 32.26 32.12 32.37 33.13 34.04 34.20 34.93 35.40 34.84 33.92 33.33 34.04 34.24 34.05 34.57 33.56 33.82 35.79 39.89 39.95 40.53 40.88 40.90 39.35 38.58 40.50 40.44 39.92 39.83 39.92 40.48 39.67 31.25 29.16 29.89 30.72 30.67 32.04 32.32 33.46 34.04 33.96

GFSMW_sfc_wetblb_087.txt.gz
Wetbulb
56.36 59.48 61.13 61.66 62.35 62.00 62.11 62.49 63.26 61.88 61.86 62.28 63.94 64.53 64.04 65.15 66.13 67.45 67.95 68.02 68.30 68.26 68.38 67.29 65.60 66.12 65.94 65.71 65.15 64.55 63.66 63.39 64.33 63.41 63.13 64.45 65.27 64.98 65.19 65.35 64.74 64.22 64.13
54.32 56.86 57.63 58.42 57.47 58.08 60.09 61.64 61.43 62.21 62.56 62.84 63.57 64.76 65.83 66.86 66.99 67.47 67.52 67.30 67.00 66.86 66.72 66.83 65.82 65.89 65.79 65.74 65.47 65.04 63.38 63.39 64.45 63.26 62.40 59.82 61.01 63.08 63.47 63.56 63.41 62.90 63.25
51.63 54.37 55.60 55.83 56.90 56.87 60.27 61.38 62.06 61.91 62.35 63.04 63.11 63.38 63.76 64.93 64.53 65.95 66.32 66.81 67.35 66.86 67.14 67.01 66.50 66.05 65.55 65.11 65.91 64.73 63.79 62.58 64.95 65.39 62.58 58.34 56.52 59.49 61.96 62.61 62.49 61.68 61.41
51.82 53.24 55.29 55.42 56.17 56.96 58.91 60.99 60.66 62.25 62.48 62.55 62.07 61.84 61.32 60.93 62.81 63.99 65.06 66.45 66.32 66.16 66.48 66.07 66.69 65.94 65.29 63.65 63.13 63.89 64.68 64.25 62.68 64.04 63.75 62.85 62.12 57.62 56.15 60.47 59.95 60.46 58.87
51.87 50.70 53.38 55.60 56.69 58.15 58.38 59.74 60.17 60.99 62.68 62.16 62.02 61.61 60.83 61.62 62.30 61.86 62.39 63.31 64.47 64.27 64.92 65.46 65.11 64.33 64.27 63.39 63.33 62.75 62.11 61.53 60.18 59.47 58.72 58.36 59.19 59.61 57.57 54.17 55.52 57.94 58.56
51.47 49.61 51.43 53.85 53.84 53.94 54.53 55.32 57.77 59.27 61.00 61.77 61.93 61.20 61.04 60.45 59.99 61.25 61.01 61.24 62.01 63.00 63.27 63.87 63.93 63.93 62.99 62.69 61.77 60.56 59.87 59.72 59.83 59.54 58.64 57.17 55.57 56.00 55.74 54.10 53.69 54.04 56.31
49.70 47.77 48.18 49.26 50.33 51.16 52.38 53.72 55.58 56.40 58.79 60.85 62.03 61.27 61.37 61.20 59.81 60.70 60.25 60.48 60.57 61.29 61.74 62.94 63.05 63.13 63.06 62.21 61.10 60.01 59.91 59.73 58.51 58.43 58.23 58.79 58.71 58.29 55.75 54.25 53.65 52.52 54.39
45.40 44.98 46.32 47.84 48.84 50.03 51.87 52.82 54.26 52.64 54.38 57.52 60.09 61.94 62.27 62.15 61.21 61.66 61.39 61.39 61.56 61.66 62.62 62.87 62.60 63.17 62.47 61.81 61.34 60.41 59.82 59.63 59.27 59.44 59.61 58.40 57.40 57.16 56.52 54.95 52.85 50.87 51.79
44.64 44.08 44.27 45.64 47.61 48.96 50.05 51.96 52.49 52.58 52.94 53.48 54.50 55.99 60.38 62.60 62.53 62.30 62.61 62.49 62.95 63.36 63.29 63.22 62.83 62.95 62.31 61.44 60.97 59.34 59.12 59.19 59.00 58.41 56.79 55.57 55.45 55.80 55.60 55.45 54.68 51.76 47.81
43.13 43.65 44.60 44.68 45.91 47.99 49.45 50.41 51.25 51.06 51.77 52.97 53.19 53.10 53.79 54.59 57.89 61.30 62.60 62.90 63.06 63.41 62.40 62.19 62.30 62.35 61.49 60.22 59.90 57.67 57.13 56.45 55.65 55.19 53.98 53.33 53.89 53.84 54.58 54.69 54.17 53.57 51.21
41.87 43.39 44.30 45.50 46.54 47.36 48.25 48.70 48.71 48.54 49.51 51.17 52.33 52.93 53.24 53.95 54.48 55.93 58.13 59.50 60.79 61.79 60.86 60.90 61.03 59.57 58.50 58.57 57.99 56.74 55.36 54.70 53.29 53.11 53.04 52.73 53.25 53.17 53.53 53.58 53.15 52.51 52.36
42.10 42.49 43.43 44.36 44.55 45.04 46.69 47.73 48.31 48.27 48.59 49.43 50.70 51.67 53.02 53.42 53.71 53.87 54.68 56.15 57.14 58.50 59.39 59.38 58.44 57.22 56.46 56.80 56.33 54.94 53.06 52.42 51.39 51.24 51.88 51.92 51.72 51.76 52.35 52.08 51.18 50.65 50.65
42.37 42.91 43.11 43.22 43.29 43.83 44.22 44.80 45.32 45.79 47.03 48.93 49.40 49.77 51.04 52.05 52.60 52.97 53.23 53.60 54.41 55.77 56.55 56.39 55.12 54.19 53.94 53.91 53.51 51.60 50.72 50.84 50.71 50.67 50.04 50.19 50.00 49.29 50.15 50.11 50.13 49.54 49.11
41.98 42.33 42.69 43.03 43.61 43.76 43.93 44.24 44.75 45.35 45.40 46.22 47.78 48.38 48.48 49.14 51.01 52.10 52.20 51.82 52.27 52.66 53.82 54.44 53.94 52.15 50.67 50.69 49.42 49.06 49.09 49.32 48.93 48.51 48.59 48.53 48.48 48.63 49.16 48.64 48.94 48.56 47.80
41.62 41.64 41.83 42.46 43.11 43.04 43.42 44.02 44.48 44.83 45.01 45.17 45.76 46.54 47.73 48.76 49.24 50.59 51.33 51.40 50.78 50.98 51.60 51.21 50.29 49.20 48.17 47.39 47.41 47.86 47.46 46.90 46.61 46.43 46.65 47.00 46.73 45.45 47.19 48.15 47.70 46.88 45.49
41.51 41.74 41.99 41.89 41.88 42.18 42.22 43.09 43.19 43.79 44.70 44.60 44.98 46.25 46.83 47.17 47.85 48.60 49.97 50.61 49.95 49.62 49.29 48.92 48.77 47.59 46.70 46.45 47.30 47.25 46.29 46.42 45.84 44.94 45.26 45.15 43.21 43.45 44.38 44.27 43.74 45.74 44.38
40.92 41.06 41.39 41.41 41.74 41.73 42.25 41.74 42.48 43.78 43.69 43.76 44.77 45.28 45.75 45.55 46.16 47.28 48.02 48.93 49.56 49.59 48.38 48.34 47.87 47.27 46.93 45.61 46.37 46.31 46.52 45.70 45.07 43.97 43.88 43.55 43.63 43.78 43.46 43.30 42.74 42.19 41.90
40.63 40.77 40.81 40.90 41.36 42.10 42.24 41.78 42.42 43.00 42.92 42.90 43.14 43.79 44.02 44.21 45.00 45.71 46.65 47.51 48.69 48.90 48.26 47.61 47.43 46.92 46.46 45.42 45.78 45.40 45.14 44.36 42.51 41.98 42.02 42.44 40.95 40.82 41.75 40.15 38.31 37.83 38.11
40.30 40.36 41.11 40.84 41.03 41.43 41.32 40.09 40.86 41.42 40.93 41.36 41.30 41.96 42.65 42.77 43.79 44.15 44.98 46.18 46.86 47.38 47.24 47.22 46.70 45.96 45.93 45.25 45.48 44.36 42.66 39.98 38.93 39.53 40.37 42.02 41.66 41.87 41.89 38.06 35.79 36.28 36.32
40.37 39.70 40.16 40.29 40.09 40.73 39.89 38.82 38.96 38.44 38.54 38.58 39.20 40.92 41.59 41.98 41.81 42.73 42.87 43.67 44.97 45.37 46.10 44.79 45.32 45.50 44.96 44.58 45.33 44.68 42.72 39.61 38.83 40.00 40.64 42.16 42.07 41.96 41.23 37.05 35.55 33.29 33.10
38.42 38.41 38.65 37.73 38.09 39.23 37.44 36.48 36.84 36.44 38.23 38.73 38.88 39.29 40.41 40.86 41.44 41.70 42.37 42.67 43.06 43.56 43.56 43.40 42.84 43.61 44.04 44.31 44.76 45.12 42.28 39.62 38.48 38.99 39.25 40.27 41.21 41.18 41.44 39.16 36.32 35.26 34.78
36.90 37.35 36.65 36.95 37.80 38.23 36.26 35.22 34.97 37.06 37.26 37.42 37.33 37.86 38.43 39.23 39.80 40.60 41.24 41.90 41.38 41.18 41.75 41.56 41.33 41.18 42.84 43.87 44.07 44.82 43.85 42.09 38.45 37.09 38.18 38.72 40.77 40.23 41.00 40.29 37.77 36.13 35.63
36.26 36.88 36.25 36.01 36.81 37.29 36.63 34.55 35.69 36.59 36.29 36.01 35.92 36.82 37.27 37.44 38.30 38.02 39.02 39.09 40.03 39.20 40.13 40.07 39.70 39.30 39.76 41.44 43.43 44.13 44.42 42.93 38.75 39.11 39.60 40.73 39.90 40.27 39.31 39.39 38.45 35.83 31.45
35.32 35.82 35.04 34.30 34.60 36.01 36.14 36.03 36.36 36.53 35.62 34.76 35.08 35.85 35.41 35.92 36.19 36.92 37.85 37.16 38.01 37.63 37.49 37.20 36.78 38.67 38.64 38.97 39.50 40.87 42.76 43.39 40.96 40.03 37.96 38.37 38.43 39.55 37.49 36.49 36.64 32.95 32.07
34.66 34.52 33.61 33.43 33.56 34.68 34.91 36.02 36.12 35.96 34.34 34.33 34.45 34.79 35.46 35.16 35.05 35.45 35.08 35.16 36.56 38.54 37.58 37.70 37.76 37.11 36.17 37.20 39.44 39.78 38.99 40.05 40.22 36.82 34.78 34.90 35.02 35.23 35.07 35.00 34.85 34.03 32.12
33.33 32.83 33.10 32.42 32.79 33.34 33.81 34.71 35.76 35.51 34.37 33.33 33.98 34.45 34.66 34.76 34.64 34.66 34.73 36.36 36.22 37.43 39.64 40.58 40.37 39.23 40.67 41.55 40.91 40.75 41.21 41.38 41.75 33.39 31.67 32.30 33.36 32.95 33.11 33.35 33.93 33.69 33.82

GFSMW_sfc_wetblb_090.txt.gz
Wetbulb
54.53 57.25 58.63 59.13 60.16 60.59 60.93 61.51 61.49 62.12 62.17 61.06 60.93 61.71 62.22 63.55 64.44 65.71 66.11 66.27 66.29 67.45 67.00 65.79 63.19 62.27 63.49 62.61 61.87 61.45 60.52 60.37 60.13 58.36 59.02 60.33 62.58 62.81 61.56 60.93 59.49 59.46 59.23
52.16 55.02 57.19 56.31 56.11 57.65 60.24 60.88 61.63 62.11 61.62 61.25 61.70 62.68 62.90 63.92 63.79 65.02 65.94 66.34 65.75 66.19 65.96 65.32 64.16 62.65 63.60 62.96 63.12 61.65 60.24 60.41 60.47 58.84 59.08 56.32 57.87 59.51 60.19 58.86 58.98 57.37 57.69
50.70 54.77 55.65 54.71 55.22 56.08 57.28 60.21 61.57 61.61 61.76 61.69 62.43 62.30 62.53 63.05 63.45 64.31 63.96 64.28 65.75 65.50 64.95 64.77 64.36 63.70 63.50 63.10 63.08 63.05 62.23 60.32 60.70 61.13 59.09 55.29 53.15 55.37 58.37 57.31 57.22 56.89 55.49
48.50 51.89 55.20 53.98 55.07 55.82 57.45 59.74 60.32 61.67 61.86 62.10 61.63 60.74 59.79 59.66 60.92 62.19 62.86 64.19 65.14 64.69 64.55 64.41 64.36 63.93 63.42 62.22 61.93 62.44 61.86 61.45 60.79 61.60 62.34 60.03 58.19 54.26 52.94 56.09 55.09 55.85 54.83
48.68 50.07 53.73 55.87 56.08 56.38 55.82 58.02 59.99 60.23 61.37 61.44 61.28 60.88 59.69 60.65 61.25 61.04 60.86 60.86 62.75 63.34 63.87 63.75 63.64 63.16 63.05 62.45 61.94 62.13 62.21 61.79 60.28 59.96 58.46 57.81 57.39 57.12 54.84 51.39 51.27 53.78 54.12
48.50 48.10 51.02 53.95 53.54 53.44 53.51 54.85 55.60 57.82 59.68 60.45 61.44 61.07 59.91 59.73 59.86 59.87 59.66 60.41 61.29 61.70 62.38 62.98 63.27 63.79 63.36 62.43 62.04 61.75 61.26 60.87 60.27 59.56 58.91 56.90 55.36 54.93 54.01 53.35 53.83 51.95 52.50
46.59 46.79 47.00 48.37 50.01 50.42 51.41 52.75 54.02 54.95 57.74 58.53 59.20 60.03 59.89 60.15 58.63 57.49 59.61 59.83 59.90 60.33 61.07 61.57 62.49 62.95 62.52 61.93 61.86 60.55 59.73 59.83 59.30 59.13 58.23 57.88 56.95 57.15 56.08 54.27 51.77 50.40 51.40
44.70 45.52 45.91 47.50 48.34 49.39 50.47 51.95 53.08 52.19 52.71 54.85 56.24 59.40 60.61 60.11 60.02 58.98 59.19 60.21 59.83 59.83 60.08 61.43 61.60 62.34 61.74 62.03 61.27 60.23 59.54 59.55 58.64 57.79 58.13 57.78 57.80 58.24 55.78 53.43 51.60 48.61 49.46
42.89 43.53 44.64 45.36 47.26 48.23 48.69 50.03 50.94 50.96 51.34 51.67 52.57 53.98 59.81 59.93 60.36 60.41 60.27 60.28 60.68 61.21 60.70 61.02 60.87 60.59 60.66 61.35 61.15 60.21 59.49 59.02 58.25 58.10 58.26 56.87 55.68 55.33 55.01 54.60 52.91 49.94 45.82
43.24 44.07 44.66 45.34 45.72 46.59 46.92 47.39 47.57 48.34 49.11 50.27 50.85 51.25 51.97 54.27 55.50 58.11 60.34 60.95 61.14 61.08 61.47 60.64 61.40 60.95 60.98 61.40 60.71 60.22 59.34 58.43 57.46 56.66 55.44 53.75 53.66 53.79 53.59 53.17 52.55 51.72 49.43
42.28 43.37 44.41 45.06 44.77 45.39 45.99 46.24 46.31 46.26 46.45 47.45 49.22 49.81 50.57 51.13 51.61 51.93 53.70 56.46 58.12 58.88 60.01 60.41 59.82 60.31 61.18 61.06 59.77 58.37 56.81 56.65 55.00 53.33 53.66 52.46 51.87 51.36 51.47 51.86 51.15 50.16 49.82
41.39 41.92 42.52 42.75 42.26 42.19 42.47 42.64 43.74 44.04 45.26 46.51 46.70 47.89 49.45 49.99 50.11 50.39 51.09 52.11 52.72 55.18 56.65 58.20 59.25 59.22 58.85 58.83 58.24 56.58 55.77 55.21 53.48 52.37 50.91 50.77 51.74 50.61 51.00 50.53 49.32 48.96 49.03
41.07 40.98 40.65 40.43 41.05 40.88 41.32 41.74 41.86 41.87 42.61 44.03 45.57 46.08 45.98 46.35 47.94 49.04 49.90 50.30 50.60 51.53 53.71 55.06 55.81 55.69 55.50 55.98 56.36 55.61 53.53 53.10 50.91 50.07 49.98 49.70 49.28 48.34 48.04 48.36 48.05 47.33 47.87
39.84 39.69 39.44 39.66 40.19 40.79 40.84 41.15 41.28 41.67 41.99 42.57 43.01 43.68 44.31 44.93 45.58 47.31 48.70 49.03 49.11 49.22 50.29 51.95 53.42 52.90 51.72 51.59 51.50 50.18 49.46 48.83 48.11 48.30 48.41 48.35 47.79 47.09 47.11 46.99 46.29 46.31 45.12
38.47 38.66 38.30 38.12 38.82 39.24 39.77 40.52 40.64 41.29 41.74 41.73 41.86 42.55 43.74 44.36 44.97 45.54 46.63 48.32 48.04 47.83 48.46 49.28 48.88 48.88 48.79 48.36 48.20 48.15 47.87 47.44 47.13 47.82 47.53 47.45 47.10 46.90 47.20 46.47 45.52 44.99 45.18
38.75 39.12 39.07 38.80 38.46 38.20 38.59 39.93 39.88 40.28 41.42 41.06 41.69 43.05 43.35 43.57 43.48 44.01 44.64 45.30 46.81 46.76 46.46 46.24 46.52 45.73 46.29 47.52 48.10 47.54 46.70 46.36 45.92 45.12 45.08 44.11 43.84 44.73 46.16 45.64 46.12 45.53 44.10
38.47 38.23 37.54 37.52 37.54 37.65 39.17 38.23 39.11 40.19 40.38 40.37 41.06 41.65 42.18 42.18 42.43 43.03 43.37 43.80 44.14 45.62 45.15 44.85 45.08 44.64 44.30 46.98 47.82 47.49 45.43 44.98 44.40 43.20 43.17 42.62 42.92 42.26 41.24 44.06 43.90 43.38 43.79
37.49 36.98 36.78 36.96 37.03 38.01 38.47 37.92 38.53 38.99 38.93 39.12 39.56 40.13 40.18 40.26 41.09 41.42 41.61 42.00 42.94 43.26 44.17 44.02 44.10 43.54 44.30 46.48 46.76 46.78 42.27 41.63 39.79 39.02 39.45 39.25 38.31 39.14 40.40 39.13 35.90 35.85 36.60
36.23 36.63 36.65 36.79 36.28 36.37 36.78 35.85 36.50 36.76 36.59 37.01 36.88 38.20 38.82 38.64 39.28 40.09 41.21 42.12 42.45 43.37 44.39 44.55 43.87 42.35 42.21 45.64 45.83 44.40 38.65 37.87 38.36 39.34 39.95 39.91 38.75 41.99 43.56 38.45 33.96 34.50 34.31
36.57 35.86 35.84 36.33 35.36 35.10 34.24 33.38 34.00 33.99 34.26 35.42 35.85 36.60 37.35 37.74 38.39 39.99 40.10 40.92 41.62 42.17 43.50 43.61 43.61 43.66 42.53 44.98 45.67 43.54 40.02 38.59 38.80 39.44 39.61 42.16 40.25 42.76 43.05 35.35 34.03 31.93 32.33
34.24 34.26 33.93 32.91 33.44 34.59 33.63 32.17 32.72 32.00 34.29 34.95 35.24 35.31 35.57 35.32 35.77 36.34 37.79 39.98 40.62 41.39 41.62 42.01 42.14 42.71 43.23 43.17 45.79 45.44 41.18 39.69 38.24 37.61 37.58 39.21 43.29 43.07 42.10 39.76 34.43 32.91 33.41
33.55 33.56 32.16 32.46 33.63 34.20 33.06 31.38 30.83 33.18 33.67 33.62 33.58 33.06 33.03 34.24 34.75 32.98 34.27 35.91 38.72 39.00 40.22 40.64 41.46 42.28 42.59 44.30 45.09 45.74 44.54 42.08 37.92 36.90 37.59 38.09 42.30 41.85 41.47 40.81 38.71 39.07 36.87
32.38 32.83 31.29 31.13 31.51 32.14 31.82 30.25 30.75 32.19 32.32 31.57 31.13 31.29 32.27 32.53 32.60 31.03 30.97 32.94 35.77 35.70 36.33 37.80 38.62 40.01 40.34 41.23 44.28 45.05 45.58 43.78 39.01 38.41 38.66 39.42 41.64 41.47 40.45 41.84 39.93 38.13 31.32
31.12 31.42 30.63 29.51 29.12 30.26 30.71 30.22 31.22 32.34 31.52 30.00 29.79 30.39 30.15 31.01 30.81 31.67 31.88 31.27 31.33 32.80 34.11 35.14 35.65 37.52 38.36 38.46 39.02 41.82 43.59 44.67 41.74 39.70 39.12 39.68 39.74 39.99 38.87 39.55 39.41 32.22 30.46
30.91 30.70 29.23 28.83 29.18 29.32 29.16 29.83 30.99 31.11 29.95 29.73 29.58 29.65 30.62 29.90 29.82 30.38 30.50 30.87 31.10 32.37 32.56 32.93 35.51 36.47 36.42 37.58 40.02 40.07 40.17 41.77 41.15 38.13 35.49 35.52 35.05 35.17 35.41 34.47 34.21 32.06 30.98
29.72 28.87 28.75 28.23 28.27 28.74 28.86 29.67 30.70 30.49 29.72 29.46 29.80 30.13 30.35 29.85 29.83 29.58 30.17 34.74 35.38 35.88 35.70 35.67 35.49 36.37 39.83 41.35 41.55 41.31 41.82 42.31 42.87 36.23 34.94 33.88 34.02 34.14 34.60 33.50 33.11 32.52 31.74

GFSMW_sfc_wetblb_093.txt.gz
Wetbulb
45.15 55.18 56.49 58.27 58.59 58.06 58.97 59.54 60.01 61.07 61.59 61.19 60.76 61.13 61.18 62.58 63.31 64.58 64.84 64.58 64.41 63.72 63.20 63.19 62.66 62.62 62.59 61.47 60.91 60.20 59.47 59.19 59.74 58.28 57.89 58.33 60.37 60.49 61.76 60.54 59.54 60.14 58.86
51.04 54.11 54.26 54.28 56.79 57.61 58.40 59.56 60.01 60.51 61.45 61.77 61.30 61.37 61.31 61.93 63.08 64.24 64.51 65.15 64.67 65.12 65.45 64.16 62.93 61.56 62.58 61.78 60.98 60.24 59.44 59.62 59.67 57.68 57.79 55.24 57.60 59.10 60.01 60.49 58.96 57.49 57.46
50.28 52.36 54.00 53.49 52.95 54.62 56.58 58.77 60.32 60.43 61.58 61.70 61.53 61.52 61.60 61.28 61.27 62.23 63.51 64.48 65.57 65.04 65.29 64.39 64.31 62.90 62.82 62.25 61.78 62.52 60.65 58.69 59.59 59.41 59.10 55.28 54.04 55.98 56.76 57.18 56.82 55.69 55.01
48.95 51.11 52.56 54.39 54.16 53.37 55.05 57.93 59.45 61.12 61.61 61.56 60.82 60.06 59.05 58.43 60.50 61.64 62.17 62.71 64.06 64.27 63.72 63.74 63.20 63.21 62.99 62.35 62.17 62.15 61.58 61.26 59.43 61.21 61.85 60.04 58.63 54.80 52.62 56.22 56.28 54.82 53.69
46.80 48.41 50.81 55.64 56.33 55.49 54.08 57.54 58.87 59.71 61.06 61.54 61.29 60.12 59.36 60.04 60.88 60.94 61.09 61.09 61.61 62.87 63.98 63.67 62.95 62.38 62.57 62.37 61.94 61.24 60.95 60.77 59.86 59.68 58.63 57.93 57.45 56.84 54.53 52.39 51.79 54.30 54.11
45.97 46.54 49.91 51.50 52.15 53.35 52.00 54.32 55.25 56.29 59.14 59.54 60.27 60.46 59.95 59.72 59.71 59.77 59.76 59.89 60.61 61.15 61.22 62.28 62.35 62.61 62.36 61.62 61.30 61.19 61.35 61.63 60.80 59.33 58.35 56.82 55.79 55.53 53.95 52.63 53.37 53.11 54.80
45.44 45.44 47.60 48.55 49.81 50.69 50.21 52.77 53.13 54.26 56.64 58.67 58.70 59.68 59.79 60.02 59.71 58.53 59.04 59.39 59.64 59.69 60.66 60.39 60.60 62.17 62.45 61.40 60.93 60.78 60.59 60.61 60.47 59.31 58.73 58.36 57.24 57.52 56.47 54.95 53.35 51.99 51.82
44.90 44.81 46.47 47.31 48.07 48.86 49.80 51.35 51.71 51.97 52.84 53.65 54.32 56.33 59.84 59.95 59.03 57.93 58.65 59.26 59.96 60.30 60.79 60.92 60.74 61.36 62.31 61.66 60.87 60.39 60.06 60.01 59.80 59.41 58.82 58.32 57.87 57.57 56.74 55.26 53.30 49.78 49.41
43.74 44.35 45.12 45.94 46.44 46.68 46.73 47.93 49.12 49.65 51.08 51.81 52.00 52.88 54.61 59.78 58.98 59.25 58.26 58.34 59.87 60.19 60.20 59.99 60.36 60.72 61.56 60.76 60.76 59.78 59.59 59.53 59.37 58.81 58.24 57.93 57.69 57.65 57.31 55.68 53.41 52.27 46.62
43.53 44.25 44.50 44.57 45.96 46.58 46.70 46.66 46.66 46.31 47.38 49.19 50.38 50.95 51.82 54.61 55.37 56.61 58.43 59.62 59.70 60.55 60.55 59.84 60.10 60.23 60.56 60.50 60.37 59.84 59.62 58.96 58.76 58.20 57.53 57.29 56.81 56.77 55.49 54.39 53.16 52.01 49.13
42.39 42.77 42.97 43.28 43.02 43.28 43.54 43.58 43.58 43.55 44.85 46.10 47.31 48.65 49.34 50.37 51.09 51.20 52.62 55.12 57.39 58.01 58.45 59.68 60.10 60.19 59.97 60.07 59.96 59.37 59.27 58.45 58.36 57.53 57.05 56.34 54.94 53.99 53.76 53.34 52.28 51.18 50.27
41.31 42.13 42.43 42.17 41.50 41.04 41.27 41.55 41.65 41.18 42.12 43.61 45.50 45.70 46.19 46.68 47.82 48.89 49.62 50.19 50.20 51.72 54.16 55.58 57.07 58.86 59.49 59.79 59.89 59.30 58.76 57.95 56.58 55.53 55.38 54.64 53.77 52.65 52.72 51.39 50.25 50.03 49.91
41.10 40.45 40.01 39.95 40.19 40.07 40.47 40.54 41.17 41.15 41.76 42.32 42.89 43.54 44.01 44.42 44.66 45.55 47.67 48.87 48.68 49.02 50.45 52.60 53.46 55.26 56.41 56.83 58.08 58.48 57.07 56.77 56.41 55.56 54.89 54.09 52.74 51.59 50.23 50.26 50.04 49.28 48.54
37.76 37.26 37.57 38.15 38.65 39.28 39.66 39.80 40.18 40.64 40.80 41.39 41.61 41.99 42.47 43.00 43.71 44.72 45.37 46.47 47.74 47.29 47.69 49.10 50.74 51.63 52.45 53.47 54.69 54.36 53.18 53.63 52.83 52.32 52.84 52.11 51.45 49.97 48.53 48.56 48.29 46.51 45.42
37.07 36.92 36.43 36.33 36.37 37.37 38.41 39.26 39.37 39.82 40.30 40.34 40.79 41.33 42.17 42.78 43.08 43.29 43.80 44.61 45.29 46.60 46.93 46.95 47.93 47.73 48.08 49.00 49.19 49.79 49.79 49.41 48.91 50.00 50.44 50.19 49.60 48.16 49.31 47.90 46.94 46.04 44.56
36.82 36.83 36.88 36.64 36.30 36.22 37.24 38.18 38.17 38.61 39.60 39.25 39.57 40.69 41.10 41.47 41.49 41.97 42.41 42.88 43.43 44.07 45.19 45.36 45.38 45.55 46.33 47.38 48.35 48.32 47.75 47.92 47.60 47.04 47.10 47.69 46.74 47.47 48.92 49.08 48.56 47.81 44.61
36.28 35.65 34.91 35.31 35.56 35.84 37.51 36.33 36.73 38.08 38.31 37.90 38.88 39.09 39.30 39.21 39.72 40.71 41.05 41.03 41.14 41.83 42.20 43.10 43.82 43.83 44.27 46.77 47.84 48.01 46.56 46.09 45.89 44.85 44.68 44.03 44.65 45.12 45.19 47.01 47.13 46.97 47.18
35.45 35.36 35.00 35.27 35.51 36.02 36.64 35.75 36.34 36.50 35.73 36.37 36.11 36.99 37.49 37.54 38.19 38.59 38.90 39.14 41.22 41.52 42.02 42.26 44.23 44.43 43.64 46.37 47.04 47.16 42.61 42.88 42.93 42.12 42.63 42.14 41.02 40.90 41.85 40.49 38.42 38.85 39.75
34.77 35.25 34.86 35.05 34.55 34.04 34.34 33.49 33.67 34.19 33.93 34.92 34.45 35.23 35.53 35.54 36.40 36.64 36.82 38.06 39.93 40.78 41.57 42.72 43.26 43.92 44.25 45.10 46.14 44.98 39.10 38.34 38.20 38.64 40.96 41.65 40.85 42.69 43.69 38.81 34.91 34.63 34.99
34.95 34.46 33.75 33.62 32.30 31.95 32.43 31.99 31.91 32.43 32.17 33.98 34.16 34.76 34.79 34.41 34.50 34.20 34.76 35.90 37.30 39.23 40.93 41.57 42.54 43.50 43.46 44.95 45.55 45.08 40.68 38.45 39.10 40.20 39.39 42.46 39.60 43.32 44.18 37.45 35.23 33.50 32.17
33.72 34.43 32.88 31.77 32.00 32.73 32.95 31.77 30.86 30.04 32.24 33.56 33.38 33.46 33.43 32.44 32.79 32.93 32.63 33.52 33.80 36.12 36.31 38.29 39.54 41.65 42.93 43.53 45.25 46.01 41.68 40.66 39.27 39.23 38.95 39.75 43.40 43.17 44.02 41.06 35.75 34.66 33.51
32.79 32.85 30.78 30.85 31.84 32.41 31.79 31.18 29.91 32.14 32.42 31.96 31.66 31.11 30.61 31.43 33.04 30.42 30.78 30.64 31.51 32.49 32.62 35.36 36.58 38.81 41.38 43.82 44.49 45.25 45.46 43.24 39.92 38.62 39.01 39.01 41.75 43.05 43.21 42.36 38.90 39.25 36.48
30.56 30.93 29.67 29.58 29.56 29.65 29.45 28.11 28.79 29.64 30.09 29.63 29.52 29.34 29.74 29.94 30.17 28.49 28.64 28.72 30.64 30.60 30.97 31.85 33.30 35.38 37.70 39.80 42.26 43.67 44.79 45.61 41.50 40.44 39.82 40.18 41.60 42.95 42.67 42.67 40.41 40.18 32.41
29.58 29.95 29.07 27.91 27.38 28.02 28.52 27.87 28.22 29.36 28.99 27.95 27.92 28.34 27.89 28.81 28.91 29.58 29.81 28.40 28.68 28.73 29.84 29.84 29.53 31.03 33.61 36.37 38.69 39.62 40.71 43.29 44.10 40.89 39.43 40.24 40.99 41.87 40.57 40.37 40.09 35.44 32.36
29.19 29.11 27.66 26.85 26.93 27.40 27.14 27.37 28.15 28.15 27.47 27.39 27.93 28.12 28.82 27.99 27.94 28.50 28.61 29.07 29.47 30.11 31.05 31.61 31.54 30.73 30.95 33.47 37.83 39.67 39.12 39.55 41.45 38.64 36.48 36.99 36.53 36.62 36.64 36.60 37.76 33.58 31.75
27.90 27.24 27.20 26.34 26.56 26.78 26.81 27.34 28.06 27.70 26.92 27.28 27.86 28.61 28.49 28.59 28.29 27.78 27.81 32.30 33.69 34.82 35.30 35.48 33.65 32.80 34.70 35.99 37.13 38.05 39.46 41.60 41.33 38.61 35.55 35.51 35.56 34.77 35.00 34.87 34.61 33.69 33.06

GFSMW_sfc_wetblb_096.txt.gz
Wetbulb
42.35 43.82 48.82 55.79 57.07 56.99 58.15 59.69 60.00 60.63 60.26 60.61 60.27 60.41 61.10 61.44 62.12 63.71 64.16 64.34 62.27 63.26 62.83 62.02 60.62 60.95 60.42 60.12 60.02 58.22 57.27 57.63 57.60 57.18 57.06 57.40 58.28 59.80 60.30 61.25 60.15 60.18 59.81
39.71 49.67 53.30 54.18 55.93 56.74 58.05 58.13 59.22 60.08 60.43 60.39 59.58 60.08 61.43 61.65 62.53 63.08 63.39 64.17 63.83 62.87 62.41 61.94 60.77 60.88 60.79 60.43 60.20 59.87 58.26 58.21 58.70 56.52 56.58 54.51 56.86 58.56 59.96 59.44 58.82 58.89 58.53
42.18 49.88 52.43 52.18 53.27 54.73 56.00 57.62 58.46 58.81 59.44 60.07 59.70 59.54 60.62 61.00 60.66 61.56 62.21 63.32 64.10 63.84 62.94 62.50 62.36 61.57 61.97 61.09 60.57 60.03 59.15 58.06 58.83 59.17 57.93 54.65 53.57 55.82 56.65 56.79 57.14 56.73 56.92
45.92 49.03 51.01 51.94 52.49 52.46 55.08 57.99 58.56 59.63 59.36 59.72 59.26 58.72 58.63 58.14 59.42 59.85 61.74 62.59 63.59 63.34 63.44 63.67 63.42 62.58 62.43 62.29 61.58 61.36 60.75 59.90 58.27 59.41 60.28 58.98 56.96 53.32 52.25 55.48 55.27 55.36 54.77
46.92 50.09 52.25 52.39 55.39 55.29 54.61 55.90 56.62 58.47 60.16 61.20 60.83 59.85 59.06 59.34 60.35 60.72 60.99 61.42 61.82 62.73 62.89 63.41 62.78 61.56 61.04 61.28 61.02 60.67 60.71 60.79 59.83 59.09 58.65 58.05 57.77 56.90 54.80 52.01 53.27 55.02 54.55
46.79 47.64 50.28 51.45 51.66 53.68 53.78 54.69 55.78 56.14 58.07 59.66 59.76 60.30 58.74 58.74 59.41 59.84 59.53 59.96 60.73 61.07 62.24 62.67 62.73 62.34 61.70 61.60 61.02 60.54 60.10 60.42 59.58 60.43 59.85 58.42 57.07 56.04 54.38 52.64 53.09 53.95 55.63
45.54 46.83 47.33 48.12 49.33 50.32 52.01 53.19 52.59 52.92 54.95 55.45 56.91 58.52 59.57 59.43 59.46 59.69 59.44 59.22 59.51 59.49 60.08 61.03 61.26 61.19 61.54 61.34 61.47 60.37 60.31 60.61 60.60 60.02 59.76 58.56 57.88 56.77 57.33 55.60 53.11 52.62 53.61
44.77 45.23 45.83 46.08 46.76 47.72 49.75 51.41 51.03 50.95 52.50 52.91 53.26 54.29 55.55 59.78 58.96 59.00 59.44 59.40 59.44 59.57 60.40 60.67 60.63 60.57 61.09 61.14 61.18 60.67 60.63 60.61 60.53 60.23 58.62 58.27 57.64 56.55 56.70 56.29 54.03 50.90 51.23
43.74 44.43 45.13 45.77 46.00 46.19 46.57 46.42 47.53 48.23 49.44 51.22 52.00 51.98 53.23 56.54 58.54 58.58 58.36 58.29 59.50 60.17 59.84 59.91 60.02 60.58 60.68 60.96 61.28 60.53 59.68 59.43 59.69 59.78 59.63 58.24 57.93 57.50 57.08 56.53 56.50 53.89 48.20
43.08 43.25 43.37 43.17 43.64 43.97 44.24 44.23 44.54 45.11 46.76 48.20 49.73 50.65 51.02 52.02 53.56 55.24 56.00 57.76 58.75 59.26 59.61 59.66 59.75 59.75 59.88 60.24 60.44 59.72 59.31 58.98 59.05 58.81 58.28 58.53 58.14 57.32 56.57 55.48 54.37 53.80 50.66
42.16 42.36 42.04 42.85 42.90 43.11 43.13 42.76 42.85 42.84 43.20 45.77 46.29 46.33 46.86 48.37 50.20 50.49 50.75 51.21 53.53 55.22 56.70 57.76 58.73 59.41 59.51 59.72 59.65 59.65 59.27 58.61 58.39 57.94 57.49 57.19 56.86 56.91 56.10 55.03 53.07 51.42 49.73
40.93 41.55 41.73 41.58 41.60 41.63 41.72 41.39 41.63 41.77 42.05 42.66 43.70 44.01 44.72 45.18 45.25 45.76 47.15 48.87 48.72 49.64 50.09 52.60 54.76 57.24 58.91 59.33 59.20 58.96 59.10 58.46 57.83 57.78 57.00 56.52 55.52 55.77 55.18 54.03 53.08 52.58 50.78
40.46 39.82 39.88 39.27 39.15 39.50 39.92 40.25 40.61 40.16 41.13 41.88 42.01 41.88 42.81 42.98 43.16 43.86 44.75 45.76 46.64 47.50 47.99 49.24 50.85 52.24 53.73 56.27 57.95 59.06 58.97 58.55 58.31 58.01 56.66 56.78 55.05 54.83 53.99 53.42 52.39 51.07 49.51
37.46 36.89 36.59 36.49 36.70 37.92 38.63 38.79 39.28 39.87 40.10 40.54 40.92 41.06 41.12 41.79 42.23 42.82 43.22 43.80 44.57 45.05 45.98 46.75 47.81 48.97 49.79 51.13 52.39 54.68 54.95 55.60 56.49 56.44 56.12 56.25 55.00 55.20 53.33 52.35 51.42 48.94 47.80
35.29 35.20 34.92 34.60 34.82 35.50 36.74 37.55 37.45 38.19 39.00 38.89 38.89 39.06 39.73 40.29 40.76 41.30 41.88 42.54 42.75 43.06 43.97 44.75 45.36 45.85 46.49 47.52 48.08 49.93 51.34 52.01 52.13 51.53 52.34 52.72 51.89 50.54 52.37 51.53 49.37 48.00 47.03
35.22 35.20 35.28 35.13 34.75 34.73 35.94 35.82 35.78 36.82 37.62 37.18 37.42 37.98 38.27 38.73 38.75 39.16 39.77 40.31 40.60 40.93 41.63 42.02 42.91 43.32 45.07 47.03 47.86 47.65 48.01 48.66 49.16 49.20 49.49 50.00 47.68 48.92 50.09 50.28 49.02 49.23 47.03
34.68 34.08 33.57 34.01 33.82 34.01 36.02 34.27 34.58 36.20 34.98 35.80 35.81 35.88 36.20 36.16 36.68 37.66 38.13 38.12 37.99 38.66 38.78 39.88 41.05 42.03 42.93 46.46 47.44 47.51 45.63 46.35 46.88 46.45 46.16 45.82 46.58 47.01 47.69 49.17 49.16 48.96 48.91
34.23 34.02 33.78 33.99 34.08 33.78 34.42 33.86 34.08 33.76 33.66 33.48 34.33 34.36 34.53 34.33 34.77 35.26 34.95 35.40 36.80 37.55 38.48 38.93 40.11 41.82 43.62 46.10 46.63 46.78 43.28 41.91 42.27 43.20 43.97 43.90 42.78 43.36 44.24 43.85 43.14 44.24 45.28
33.99 34.20 33.69 33.50 32.85 32.16 32.99 32.11 32.06 32.00 32.02 31.89 32.99 33.11 33.20 32.70 32.71 32.86 33.00 33.61 34.48 35.16 36.64 38.32 38.68 40.08 41.76 44.30 45.41 45.42 42.05 39.79 38.63 38.95 41.43 43.58 42.69 43.93 45.01 41.25 38.86 38.88 38.72
34.15 33.41 32.71 32.37 31.22 31.03 31.71 31.08 30.96 30.67 30.43 31.34 32.22 33.01 32.67 32.11 31.29 31.35 31.79 32.62 32.72 33.85 35.40 36.71 36.27 39.64 39.79 42.60 44.19 44.83 42.80 40.33 39.91 40.23 38.58 43.11 42.79 44.30 45.09 40.25 38.68 36.91 36.30
32.59 32.91 31.19 30.31 30.29 30.45 30.47 29.81 29.75 28.89 30.90 31.76 31.95 31.62 31.57 30.46 30.09 29.90 30.72 30.18 30.53 31.12 31.06 32.68 33.00 34.38 38.34 39.67 42.57 43.87 43.32 41.80 40.53 40.15 39.91 40.18 43.45 43.88 45.12 42.24 38.65 38.66 34.80
31.77 31.74 30.01 29.75 30.06 30.17 29.08 28.55 28.20 30.07 29.79 29.98 29.82 29.25 29.18 30.02 30.87 28.28 27.97 28.13 27.85 28.51 28.92 29.47 30.60 32.72 34.37 38.57 39.83 41.57 42.31 43.09 41.50 39.68 40.38 40.60 42.16 43.46 44.08 43.28 40.62 40.29 37.69
29.62 29.66 28.60 28.48 28.52 28.25 27.50 26.55 27.61 27.95 27.61 27.10 27.54 28.81 29.55 29.34 28.08 26.74 26.76 26.88 27.54 27.87 28.10 28.96 28.99 29.95 31.44 32.56 36.85 38.90 40.35 41.26 40.27 41.93 41.57 41.29 41.41 42.13 43.22 43.80 41.61 41.04 33.63
28.22 28.51 27.80 26.66 25.92 26.26 26.34 26.13 26.51 26.84 26.14 25.16 25.74 26.94 26.90 28.24 28.16 27.98 28.18 27.45 26.87 26.55 28.42 28.46 28.16 28.26 28.79 30.93 31.41 34.04 36.44 39.46 40.12 40.23 41.03 41.22 40.96 41.75 42.04 42.03 41.29 38.12 33.13
27.51 27.53 26.41 25.99 25.72 25.97 25.73 25.88 26.36 25.98 24.83 24.91 25.59 26.06 27.19 27.03 27.20 27.30 27.42 28.27 28.04 28.56 28.67 29.73 30.16 30.04 29.25 30.88 34.06 34.13 33.53 35.35 37.62 39.84 35.78 36.44 36.42 36.62 37.39 37.38 38.57 36.45 34.29
26.54 25.65 25.81 25.34 25.01 25.34 25.44 26.12 26.75 26.12 25.07 25.58 26.24 26.49 27.35 27.48 28.01 27.85 27.49 31.88 33.11 33.58 33.93 34.12 33.14 33.05 34.21 34.36 34.17 34.61 35.15 35.92 37.62 37.06 34.25 34.71 35.61 35.97 36.15 35.58 35.79 35.16 34.88

GFSMW_sfc_wetblb_099.txt.gz
Wetbulb
40.52 42.22 43.75 45.67 46.90 51.66 56.28 58.80 59.76 59.35 59.38 58.73 59.87 61.10 60.17 59.91 60.24 62.19 63.22 62.78 63.14 63.02 63.79 63.79 63.32 63.09 61.81 61.10 60.44 59.42 57.19 56.78 56.20 56.16 56.53 57.06 57.85 57.96 59.07 60.02 60.07 59.60 60.12
38.33 41.10 44.43 48.79 52.84 54.53 56.15 58.17 59.73 59.81 59.50 59.41 59.65 60.05 60.28 61.09 60.64 61.21 62.64 63.71 63.76 62.45 63.12 62.68 61.96 61.89 61.09 60.31 59.92 59.16 57.31 57.42 57.43 55.38 55.50 53.82 55.55 57.85 58.81 59.53 59.40 58.70 58.88
38.36 40.01 45.39 51.40 54.35 55.49 56.16 56.85 58.20 59.13 59.43 59.26 59.48 58.87 59.02 59.16 59.80 60.80 61.61 62.53 63.18 63.47 62.10 62.35 61.94 60.96 61.04 60.09 59.91 59.56 58.84 57.38 57.81 58.04 56.72 53.49 52.57 54.92 56.74 56.93 57.49 57.16 56.83
40.64 47.35 50.52 51.69 53.29 55.06 56.98 58.17 59.25 58.93 59.15 59.61 59.70 58.47 57.53 57.61 58.38 60.24 61.23 61.83 62.77 63.23 63.60 62.57 62.14 61.00 60.70 60.12 60.10 60.21 59.56 59.21 57.42 57.29 59.25 58.25 56.90 54.16 52.65 54.63 54.52 54.83 54.66
46.54 49.39 51.12 53.48 54.17 53.19 53.09 54.81 56.27 58.13 59.20 60.53 58.84 59.45 58.65 59.03 58.29 58.39 58.97 60.75 61.64 62.39 63.02 62.95 62.19 61.57 60.61 60.48 60.42 59.83 59.77 59.81 58.07 58.02 57.60 56.94 56.67 56.08 54.11 52.47 53.04 54.94 54.48
46.29 47.90 49.26 50.92 52.21 53.11 51.55 54.13 53.87 54.84 55.99 56.98 57.80 59.43 59.96 59.21 58.96 59.25 59.47 59.57 60.57 61.11 61.63 62.18 62.24 61.58 60.82 59.65 59.48 59.30 59.38 59.93 58.99 58.94 58.08 57.18 56.26 55.79 54.38 53.66 53.60 53.73 54.90
45.96 45.95 45.91 46.81 48.32 50.64 51.17 53.26 51.82 50.59 52.78 53.83 54.71 54.93 55.78 57.96 59.41 59.42 59.47 59.52 59.66 59.92 60.60 61.64 61.57 61.53 61.33 60.59 60.20 59.71 60.03 59.88 59.78 59.14 59.25 59.16 58.37 57.41 57.53 56.56 54.63 52.51 53.34
44.81 44.97 45.30 45.34 45.55 46.03 46.85 49.13 49.66 49.62 49.88 51.41 52.75 53.24 54.20 56.56 59.39 59.06 59.57 59.96 59.73 59.95 60.61 61.15 61.53 61.37 61.24 61.12 60.29 59.60 59.80 59.58 59.96 59.54 59.53 59.47 59.30 58.05 57.70 57.48 54.74 50.90 49.79
43.28 42.42 42.73 42.71 42.70 43.25 44.01 44.43 46.01 47.01 47.93 49.83 51.34 51.07 52.02 52.49 53.34 54.52 57.11 57.82 58.13 59.88 59.71 59.54 59.42 59.96 60.45 60.45 59.82 59.45 59.46 59.81 59.59 59.68 59.78 59.16 59.19 58.85 58.84 58.28 57.49 55.69 51.81
41.67 42.04 42.13 42.40 42.81 43.30 43.64 44.17 44.95 44.22 45.73 46.90 47.43 48.48 48.79 49.62 50.37 51.08 50.87 51.60 53.19 55.27 58.17 58.60 58.88 59.13 59.47 59.74 59.91 59.58 59.75 59.63 59.59 59.61 59.13 59.20 59.33 58.24 57.90 57.40 56.69 55.53 54.83
41.06 41.25 42.04 42.69 42.92 42.96 42.90 42.77 42.96 42.88 43.13 44.20 44.74 45.00 45.89 46.73 46.85 46.95 47.89 49.10 50.23 50.84 52.14 54.36 56.20 57.39 58.78 59.41 59.30 59.38 59.30 58.65 58.64 58.39 58.26 58.13 58.38 57.95 57.43 57.41 55.85 54.19 52.75
41.18 41.48 41.69 42.05 41.87 41.50 42.13 41.73 41.69 41.43 41.91 42.74 42.99 43.14 43.56 43.94 43.91 43.91 44.32 45.52 45.83 47.69 48.26 49.31 50.97 52.93 54.55 57.33 58.63 58.61 58.71 58.32 57.89 57.87 57.31 57.11 57.05 56.83 56.53 55.43 54.19 53.00 50.55
40.59 40.73 40.54 39.84 39.99 39.86 40.12 40.20 40.52 40.58 40.89 41.63 41.46 41.10 41.04 41.45 41.66 42.15 42.87 43.89 44.09 44.60 45.49 46.52 47.07 48.16 49.66 50.95 52.99 55.18 57.29 58.24 58.32 58.22 57.61 57.46 56.93 56.10 56.48 55.60 54.93 54.22 51.58
37.14 36.63 35.98 36.10 36.18 37.65 37.63 38.04 37.64 39.10 39.48 39.83 39.27 38.68 38.77 39.49 39.94 40.98 41.53 42.11 42.54 42.38 42.66 43.63 44.65 45.50 46.19 47.09 48.28 49.70 51.31 53.39 54.81 56.42 57.41 57.40 56.79 56.06 55.66 54.95 54.69 53.43 51.76
34.21 34.39 33.93 33.28 33.32 34.50 35.55 35.11 36.21 37.24 37.70 37.93 37.15 36.82 37.39 38.09 38.15 38.51 39.48 40.33 40.52 40.55 41.27 41.56 41.77 42.44 44.02 45.65 45.85 46.19 46.63 48.15 50.43 52.62 53.11 53.95 54.00 52.11 54.94 54.45 53.97 52.33 50.74
34.52 34.26 33.79 33.90 33.20 33.11 34.41 33.76 33.76 35.26 34.78 35.31 34.91 35.45 35.38 35.54 35.64 36.23 36.80 37.26 37.72 38.56 39.35 39.53 40.02 40.37 42.57 45.31 47.00 46.81 45.07 45.31 47.04 48.27 50.00 51.04 48.76 49.75 50.80 51.47 51.29 51.73 50.32
34.40 33.23 32.64 32.84 32.65 32.55 34.02 32.55 32.56 33.09 32.63 32.44 33.80 33.51 33.52 33.29 33.61 34.24 34.43 33.79 34.40 35.61 35.94 37.25 38.35 38.93 40.36 44.53 45.21 46.10 45.24 43.59 43.91 45.38 46.14 46.83 47.53 47.62 48.70 49.97 49.88 49.48 50.25
33.48 33.42 32.72 32.66 32.43 32.17 32.80 32.31 32.36 31.18 31.34 31.10 31.66 32.63 32.30 31.84 32.04 31.81 31.56 31.55 32.78 33.20 34.18 34.88 36.51 37.35 38.91 41.95 43.33 44.26 42.86 43.48 42.29 40.73 42.19 44.05 44.62 44.51 45.69 45.99 44.76 46.28 47.56
32.90 33.30 32.79 32.38 31.09 30.19 31.15 30.95 31.02 30.60 30.36 30.28 30.38 31.39 31.66 30.99 30.81 30.35 29.84 30.39 31.67 31.19 32.04 34.23 34.90 34.43 35.51 40.46 40.66 42.03 41.62 40.91 40.70 41.77 41.52 42.36 43.57 45.07 46.38 43.50 41.46 42.12 41.41
33.42 32.39 31.53 30.83 29.46 29.38 29.45 29.60 29.43 29.25 28.97 29.81 30.27 30.87 30.93 30.22 29.41 29.22 28.94 30.04 29.89 31.07 31.84 32.20 32.29 34.44 33.02 38.12 39.96 40.57 40.82 40.90 41.34 42.37 41.32 42.56 42.75 44.42 45.63 43.11 41.38 39.46 39.26
30.02 31.02 29.58 28.80 28.73 28.54 28.24 27.42 27.23 27.04 28.86 29.18 28.99 29.14 29.31 28.90 28.48 28.05 28.17 27.75 27.49 28.09 27.92 29.17 29.60 30.18 32.54 33.35 37.92 38.92 38.61 39.59 40.06 41.05 41.12 41.07 42.93 43.99 44.59 45.54 41.19 40.85 37.89
29.33 29.03 28.18 28.14 28.31 28.24 27.01 25.79 25.24 27.51 27.49 27.03 26.81 26.62 26.74 27.46 28.12 25.84 25.91 25.97 25.78 25.95 26.45 27.08 28.38 30.24 30.40 34.55 35.15 36.83 37.54 39.08 38.45 38.64 40.40 41.43 42.72 43.00 43.76 44.64 42.87 43.07 39.65
28.26 28.11 26.94 26.75 26.60 26.06 25.08 24.21 25.54 26.16 25.73 25.12 24.90 25.24 26.10 26.93 27.22 25.89 25.45 25.85 25.91 25.71 26.44 27.77 27.78 28.81 29.76 29.25 34.47 35.24 36.03 36.70 35.85 38.04 40.25 41.24 42.33 42.85 43.17 43.78 43.61 42.09 34.86
26.51 26.54 25.97 25.22 24.79 25.34 24.90 24.16 24.65 25.01 24.22 22.98 22.94 23.50 23.26 26.24 26.63 26.88 27.10 26.44 26.23 25.20 27.57 27.60 27.38 27.94 28.88 28.16 28.74 30.88 32.88 34.32 33.86 35.48 36.04 38.32 40.80 42.28 41.76 41.85 43.00 39.37 35.15
26.13 26.05 24.64 24.46 24.35 24.63 24.08 24.26 24.69 24.28 23.67 23.37 23.80 23.83 24.97 24.39 25.22 26.31 26.40 27.08 27.72 27.36 27.26 28.62 28.65 29.44 28.74 30.85 33.73 33.70 32.13 32.49 33.75 34.38 33.59 34.80 35.49 36.34 37.08 37.18 38.85 37.72 35.19
24.07 23.62 24.14 23.82 23.35 23.23 23.56 24.29 25.11 24.53 23.62 24.42 24.85 25.02 26.01 25.70 26.17 26.04 26.45 31.58 33.20 34.64 34.46 34.03 32.31 30.92 33.44 34.81 34.18 34.11 34.08 34.37 35.27 32.49 31.47 33.03 34.78 34.76 35.70 35.52 36.13 35.74 35.65

GFSMW_sfc_wetblb_102.txt.gz
Wetbulb
39.99 40.75 42.17 43.50 44.10 46.04 48.72 53.58 57.59 58.59 58.85 59.52 59.45 59.68 58.97 58.52 58.50 60.11 61.25 61.90 61.83 62.39 63.55 63.25 61.60 62.54 60.56 60.40 61.51 61.57 60.38 57.51 57.16 55.26 55.41 56.40 56.78 57.22 57.99 58.90 59.10 59.46 59.92
36.79 39.97 41.54 42.19 43.45 44.67 49.10 53.94 57.81 59.06 58.94 58.73 58.35 58.89 58.79 59.39 59.33 59.99 61.42 62.33 62.23 61.93 61.93 63.09 62.95 62.68 61.85 61.41 61.09 60.99 59.59 59.42 57.89 55.08 54.79 52.68 54.91 57.03 58.44 58.86 59.38 59.37 59.50
37.02 38.68 40.67 43.02 47.09 51.11 53.44 55.36 57.61 58.81 59.18 58.62 58.96 58.46 58.50 59.31 59.20 60.13 60.17 60.63 62.02 62.81 62.56 62.81 62.74 62.13 62.03 61.16 61.05 60.67 60.05 57.81 57.18 58.01 55.17 52.14 51.20 53.51 56.60 57.29 58.73 58.38 57.62
38.70 39.87 46.70 49.24 51.52 54.21 56.70 57.11 57.16 58.47 58.42 59.94 59.73 58.21 56.99 57.29 57.57 58.37 59.37 60.34 61.44 62.24 62.76 62.26 62.31 62.08 61.44 61.19 60.93 60.54 59.88 58.60 56.24 55.98 57.17 56.67 55.91 53.49 52.45 54.86 54.91 56.11 56.28
46.45 46.21 50.35 51.94 52.62 53.73 54.06 56.01 58.34 57.81 59.11 59.78 59.52 58.94 58.36 58.69 58.98 58.12 57.53 58.35 59.66 60.88 61.64 62.49 62.27 61.64 61.32 60.91 60.91 60.08 59.35 59.41 58.75 57.04 56.31 55.82 55.83 55.65 53.75 52.29 53.11 54.13 54.05
46.68 46.70 47.95 49.30 50.42 52.54 52.69 52.06 54.18 54.37 54.68 57.64 57.12 56.55 56.67 57.76 58.34 58.35 58.45 59.27 59.18 59.99 60.94 61.72 62.12 62.24 61.95 61.31 60.78 60.43 59.80 59.43 59.24 58.21 57.57 56.86 56.46 55.73 54.04 52.33 52.55 52.83 53.80
44.83 44.80 44.86 45.30 46.04 47.04 49.40 51.74 50.43 50.39 52.28 52.13 53.44 53.82 53.80 55.12 57.28 58.90 59.05 59.33 59.54 59.66 60.06 60.81 60.75 60.87 61.29 61.22 60.81 60.03 59.71 59.16 58.73 58.36 57.93 57.80 57.71 57.04 56.68 55.47 53.89 53.11 54.53
42.84 42.57 42.58 43.57 43.92 44.81 45.74 46.62 47.72 47.69 50.06 51.76 51.58 51.98 52.65 53.25 54.18 54.31 57.77 58.35 57.86 59.14 60.52 60.82 61.05 61.09 61.41 61.24 60.73 60.07 59.99 59.95 59.89 59.81 59.58 59.37 58.98 58.39 57.65 56.75 55.53 52.79 51.86
41.60 41.64 42.15 42.36 42.87 43.48 43.68 44.41 45.24 46.00 46.69 47.51 49.32 49.00 49.75 50.11 50.86 51.37 52.04 52.25 52.85 53.77 55.47 58.91 59.32 59.73 60.74 60.93 60.72 60.02 59.09 59.47 59.26 59.27 59.24 59.10 59.08 58.91 59.05 58.53 58.11 56.04 52.71
41.12 41.83 41.95 42.11 42.34 42.78 43.10 43.55 43.89 43.75 44.67 45.50 45.79 46.43 46.89 47.56 47.51 47.83 47.62 48.56 50.10 50.84 51.41 52.57 54.64 56.77 58.29 59.28 59.54 59.30 59.38 58.90 58.81 58.82 58.43 58.82 59.23 59.07 58.97 58.63 58.31 57.92 56.21
41.06 41.56 42.09 42.25 42.31 42.63 42.62 42.40 42.18 42.58 43.25 43.83 43.74 43.47 43.87 44.72 44.93 44.46 44.81 45.48 46.70 47.40 48.27 49.32 50.76 52.09 53.62 55.36 57.63 58.74 58.77 58.48 58.28 58.34 58.25 58.23 58.90 58.71 58.30 58.05 57.76 56.87 56.35
41.13 41.40 41.68 41.88 41.16 41.02 41.34 41.21 41.57 41.16 41.62 42.13 41.58 41.18 41.57 41.87 42.15 42.47 42.92 43.63 43.34 44.38 44.78 45.88 46.77 47.62 48.66 50.05 51.77 52.71 55.34 58.04 57.68 57.88 57.67 57.58 57.88 57.71 58.06 57.44 56.60 56.08 55.49
40.80 40.93 40.50 39.50 39.43 39.41 39.37 39.55 40.27 40.28 40.89 40.84 39.68 38.82 38.83 38.82 39.10 40.33 41.26 41.87 41.83 41.83 42.39 42.99 43.07 44.02 45.05 46.27 47.27 48.27 49.31 51.69 52.93 56.37 57.30 57.45 57.30 56.63 56.74 56.37 55.56 54.37 52.46
38.80 37.87 36.48 36.07 36.25 37.44 37.13 36.91 37.75 38.27 38.79 38.63 37.08 36.16 35.97 36.72 37.10 37.77 38.29 39.07 39.84 39.36 40.21 40.83 40.98 41.62 42.44 44.39 44.95 45.73 45.87 46.34 47.80 50.16 52.49 53.97 56.10 56.76 56.44 56.06 55.79 54.98 53.09
33.29 33.46 33.12 32.62 32.71 33.52 34.13 34.53 34.46 35.11 35.65 35.98 35.28 33.74 35.06 35.29 35.08 35.24 35.53 35.90 36.21 36.84 38.02 38.50 38.88 39.79 40.45 42.23 43.76 44.22 44.63 44.49 44.98 46.24 48.27 50.79 50.88 49.17 51.56 54.88 55.22 54.80 53.79
33.79 33.54 32.78 32.10 31.99 31.74 32.80 32.48 31.82 32.13 32.20 31.88 32.76 33.60 33.47 33.29 32.39 33.07 33.65 33.45 33.77 34.16 35.02 34.98 36.24 37.57 39.50 41.84 42.21 43.40 42.67 43.40 43.65 43.75 45.12 46.45 47.04 48.74 50.17 50.58 50.49 52.93 53.05
34.08 33.29 31.87 32.32 31.77 31.35 32.46 31.10 30.86 30.81 30.54 30.10 30.90 31.43 31.45 31.19 31.12 31.25 30.96 30.48 30.77 32.32 32.17 32.89 34.10 35.48 36.54 40.34 40.99 41.10 41.42 41.60 42.04 41.76 42.22 43.19 44.94 45.57 46.70 48.29 49.23 49.86 50.54
33.63 32.93 32.25 31.95 31.41 30.97 31.18 30.95 30.95 29.66 29.76 29.49 29.51 30.33 30.60 30.28 30.54 30.22 29.56 28.99 29.72 30.33 30.34 31.11 32.54 33.46 34.52 38.53 39.35 40.56 38.74 40.02 40.56 39.60 40.46 41.65 42.69 43.86 44.62 44.82 44.78 46.53 48.62
33.13 32.81 32.20 31.29 29.53 28.73 29.20 29.70 29.64 29.28 29.10 28.90 28.56 29.04 29.23 28.84 28.87 28.33 28.17 28.37 29.03 28.76 28.94 30.66 31.04 30.40 31.27 36.64 37.99 37.73 35.85 37.36 38.14 39.67 40.51 40.62 41.02 43.84 45.42 44.04 42.39 43.41 44.20
32.86 31.71 30.41 29.77 28.62 28.21 28.45 28.26 27.73 27.46 27.14 27.64 27.88 28.35 28.38 27.62 26.60 26.29 26.09 26.72 27.81 28.26 29.00 29.14 29.63 32.19 30.17 34.72 37.05 36.22 33.86 33.72 35.96 39.00 39.40 41.99 42.04 44.25 44.80 43.16 42.94 41.13 41.55
30.33 30.42 28.50 27.96 27.71 27.42 26.92 25.99 25.97 24.99 27.06 27.75 27.05 26.63 26.31 25.26 25.57 25.28 25.81 25.48 26.43 26.97 25.80 27.08 27.45 28.04 29.39 30.48 36.12 36.28 32.96 32.75 33.00 34.60 37.60 39.41 41.78 42.58 43.39 44.61 43.19 42.18 41.73
28.83 27.92 26.98 26.60 26.80 26.34 24.84 24.05 23.10 24.95 25.31 25.03 25.43 24.82 24.44 25.37 26.65 23.57 23.54 23.83 23.59 23.76 24.81 25.27 26.41 27.84 28.53 33.13 34.34 35.72 35.67 35.11 32.47 32.54 34.48 37.30 39.22 40.12 41.54 42.70 44.12 44.62 42.44
27.11 26.69 25.74 25.15 24.88 24.46 23.52 22.30 22.94 23.62 23.65 23.13 22.89 23.07 23.91 24.81 25.04 23.57 24.07 24.32 24.57 23.74 24.52 26.63 26.44 27.38 28.90 28.81 33.64 34.78 34.86 34.85 32.57 32.52 33.86 35.53 36.68 37.85 39.02 41.55 43.21 44.06 37.81
25.60 25.47 24.30 22.99 22.32 22.50 22.73 22.27 23.14 23.64 23.41 22.28 22.06 22.69 22.34 24.28 24.03 24.75 25.59 24.66 24.45 24.13 26.18 26.89 26.87 26.35 28.05 28.21 28.74 28.85 32.62 34.33 33.21 33.30 32.72 34.25 35.53 36.70 37.60 39.75 41.43 41.20 36.81
25.91 24.90 23.59 23.73 22.90 23.26 23.42 23.87 24.57 24.04 23.39 22.85 23.19 23.20 24.28 23.02 23.87 24.99 24.73 26.19 26.42 26.73 28.40 28.98 29.44 28.94 27.86 28.59 32.83 33.64 31.98 32.32 33.03 33.15 31.92 31.38 30.65 30.62 34.46 36.18 37.38 38.75 36.29
24.48 24.19 24.65 24.66 24.48 24.42 24.16 24.16 24.52 24.19 22.99 23.96 24.62 24.48 25.26 24.50 24.94 24.76 25.08 29.87 31.16 32.75 33.33 33.82 32.96 31.48 33.06 34.17 33.96 34.32 34.62 34.58 34.28 31.06 30.06 29.75 30.71 31.86 32.53 34.09 34.74 36.23 36.21

GFSMW_sfc_wetblb_105.txt.gz
Wetbulb
43.77 44.24 44.07 45.66 46.44 47.25 47.51 49.32 52.21 56.71 60.47 60.76 60.86 60.71 59.83 60.84 61.91 62.75 62.49 63.09 63.29 63.94 64.95 64.58 63.94 64.64 63.60 63.13 63.52 63.88 62.27 60.69 60.05 59.23 58.75 59.10 60.05 60.26 61.11 61.20 61.17 61.52 62.60
41.10 41.90 43.64 44.82 45.69 46.40 47.51 48.61 52.19 58.67 60.64 61.48 60.69 61.47 61.55 62.09 62.04 62.37 62.69 62.91 63.24 63.58 64.01 64.37 63.52 63.35 63.72 62.60 62.12 62.28 61.15 60.80 59.06 57.87 56.32 55.13 57.69 59.06 60.47 61.28 60.56 60.98 62.42
42.10 43.51 42.83 44.23 46.09 46.65 49.14 50.24 53.04 58.13 59.57 61.09 60.96 60.60 61.14 61.35 61.24 61.53 61.99 62.47 63.16 63.86 63.64 63.79 64.49 64.38 63.66 63.41 61.81 61.24 60.04 58.81 59.34 59.36 57.02 54.08 53.93 57.21 59.68 60.39 61.22 61.38 61.81
46.31 47.29 48.48 49.03 50.58 51.76 53.94 56.18 57.31 59.54 60.17 60.43 60.54 59.19 58.44 57.53 59.73 61.07 61.91 62.31 62.86 62.95 63.88 63.91 63.81 64.01 63.84 63.04 61.77 61.54 60.73 59.79 57.17 57.17 58.84 59.15 58.03 55.56 54.78 57.90 58.17 60.07 60.58
46.43 46.55 47.75 49.12 51.52 52.92 54.37 57.78 58.99 59.38 59.86 59.99 59.78 59.26 57.98 58.98 59.83 60.11 60.10 60.55 61.42 62.52 63.02 63.60 63.49 63.54 63.68 63.37 62.86 61.12 60.43 60.53 59.33 58.03 57.01 57.27 57.89 59.43 57.58 56.15 57.52 57.03 58.44
45.36 45.36 46.87 47.30 47.55 49.75 52.31 53.16 54.60 54.58 55.89 56.49 56.25 56.18 56.12 56.27 58.07 59.23 59.07 59.96 60.83 61.32 61.66 62.24 63.01 63.38 63.10 62.61 62.19 61.81 61.35 60.48 59.94 59.51 58.33 57.15 56.22 57.18 57.48 55.89 56.75 56.48 58.64
43.07 42.97 43.67 44.78 45.86 46.20 48.01 49.71 50.49 51.29 53.12 53.19 53.25 53.20 53.80 53.95 54.38 54.32 58.12 59.13 59.73 60.13 60.26 60.87 61.27 61.64 62.53 62.49 62.26 61.55 61.20 60.77 59.67 59.07 58.66 58.69 58.38 60.07 58.95 58.12 57.33 56.27 57.62
42.12 41.90 42.45 43.10 43.82 44.74 45.46 46.48 47.11 47.24 49.13 49.83 50.01 50.42 50.47 50.58 50.17 50.64 51.61 51.88 52.19 53.19 54.51 55.40 59.11 60.38 60.83 60.95 61.07 60.86 60.60 60.66 60.09 59.59 59.23 59.18 58.99 58.73 58.09 58.57 57.42 55.31 54.41
41.36 41.30 41.89 42.06 42.29 42.67 43.08 43.72 44.89 45.59 46.07 45.82 46.63 47.21 47.57 47.33 46.61 47.14 48.04 49.10 50.00 51.12 51.81 52.64 53.47 54.57 55.74 57.39 59.86 60.42 59.95 59.97 59.77 59.76 59.75 59.36 59.87 59.70 59.45 59.11 58.64 57.19 53.10
41.18 41.63 41.58 41.77 42.23 42.62 42.78 43.08 43.45 43.40 44.12 44.43 44.26 44.57 45.03 45.64 45.78 45.55 45.17 45.57 46.55 46.94 47.89 48.98 50.43 51.12 51.83 52.18 54.13 57.09 59.21 58.95 59.63 59.74 59.65 59.53 59.58 59.65 59.92 59.43 59.46 58.94 56.21
40.69 41.33 41.67 41.55 41.74 41.97 42.16 42.18 42.09 42.08 42.22 42.26 41.83 41.51 42.16 43.21 43.69 43.34 43.16 43.18 43.90 43.87 44.48 45.64 46.59 47.13 48.01 49.24 50.08 51.28 52.51 53.31 57.14 58.40 58.28 58.28 58.83 58.55 58.97 59.33 58.92 57.91 57.23
40.88 40.96 40.95 40.68 40.31 39.85 40.32 40.62 40.85 40.82 40.75 39.99 39.17 38.91 38.97 39.30 39.64 40.01 40.42 41.27 40.85 41.60 42.15 42.55 42.84 43.53 44.60 46.66 46.88 47.46 48.43 48.64 50.11 51.54 55.07 57.45 57.54 57.88 58.29 58.10 57.40 57.06 57.60
40.52 40.47 39.98 38.55 38.55 38.69 38.14 39.07 38.88 39.32 39.79 38.90 37.77 37.40 37.32 37.18 37.09 37.89 38.30 38.91 39.16 39.22 40.00 40.63 40.58 41.03 41.73 43.63 44.95 45.55 45.83 46.35 47.11 48.23 49.27 50.93 52.46 55.69 57.28 57.26 56.79 56.79 56.15
39.97 39.31 37.76 37.00 37.22 37.99 36.92 37.25 37.62 37.60 38.30 37.78 36.69 35.82 35.77 36.01 36.15 36.66 36.67 36.88 37.78 37.28 37.70 38.05 38.63 39.61 40.38 41.31 42.45 43.06 43.87 44.60 45.28 46.34 47.28 48.44 50.00 50.64 51.22 53.09 56.19 56.17 54.71
35.39 35.45 35.54 35.36 34.86 35.87 35.75 35.51 35.51 35.49 35.48 35.66 35.28 34.62 35.20 35.50 34.90 34.84 35.12 35.12 35.45 36.25 36.20 36.11 36.52 37.73 38.88 39.53 40.42 40.72 41.06 41.63 42.36 44.01 45.15 46.36 46.41 45.91 48.17 49.31 50.43 53.10 53.80
35.15 35.52 35.36 34.80 34.20 33.85 34.49 33.80 33.19 33.26 33.40 32.90 33.16 33.98 33.93 34.03 33.83 33.85 33.46 33.47 33.60 34.42 34.26 34.36 34.68 35.48 36.28 38.81 39.94 39.95 39.45 39.50 39.89 40.14 42.24 43.82 44.46 45.97 47.09 47.73 48.10 49.16 49.17
35.24 35.02 34.91 34.61 34.08 33.76 34.13 33.31 33.03 32.76 32.36 31.93 32.00 32.00 32.13 31.84 32.12 32.27 32.02 31.42 31.66 32.96 32.94 32.98 33.49 33.92 34.84 37.66 38.66 39.07 38.71 38.20 38.60 38.95 39.71 40.80 42.52 43.65 44.20 45.67 46.54 47.44 48.52
35.48 34.90 34.36 34.05 33.56 33.26 33.07 32.86 32.70 31.62 31.40 31.01 30.60 30.91 30.86 30.56 30.98 30.91 30.52 30.76 31.30 31.42 31.75 32.25 32.92 33.28 34.08 36.70 37.46 37.98 37.20 37.00 37.62 38.94 39.42 40.00 40.16 42.06 42.84 43.10 44.28 45.11 46.43
35.43 34.93 34.58 33.55 31.97 31.03 31.36 31.32 30.66 30.46 30.35 29.95 29.45 29.72 29.89 29.47 29.58 29.29 29.31 29.78 29.88 30.29 30.25 31.20 31.70 31.93 32.79 35.79 36.56 36.78 36.02 35.15 35.15 36.34 37.20 38.52 40.01 41.10 41.68 41.41 41.80 42.90 44.12
34.45 33.86 32.68 31.45 30.43 30.04 29.83 29.61 28.95 28.63 28.65 29.30 29.47 29.53 29.42 29.04 28.35 28.56 28.40 29.20 29.11 28.99 30.14 29.71 30.87 31.80 32.31 33.82 35.73 35.99 35.03 33.27 33.48 34.64 35.41 37.40 38.88 40.56 41.31 40.50 40.37 39.70 41.64
32.56 32.10 30.79 29.96 29.51 29.11 28.71 28.12 27.28 26.98 28.26 28.81 28.52 28.28 28.32 27.32 27.29 27.50 27.46 27.42 27.36 27.81 27.58 28.39 29.83 29.88 31.60 32.79 35.51 35.96 34.48 33.43 32.95 32.78 32.99 34.21 36.19 37.04 38.10 38.96 38.94 39.92 42.18
30.82 29.66 28.86 28.62 28.45 28.21 27.06 26.20 25.12 26.66 26.46 26.61 26.84 26.61 26.62 26.62 27.46 26.06 26.55 26.82 26.19 26.15 26.26 26.66 27.89 30.56 31.23 33.10 34.28 35.02 35.27 35.35 32.33 31.55 32.30 32.58 34.66 35.42 35.81 36.28 38.33 39.71 41.90
28.48 28.09 27.64 26.97 26.47 26.02 25.31 24.71 25.18 25.34 25.48 25.03 24.99 25.47 25.99 26.44 26.86 26.28 25.94 26.01 26.58 25.97 26.19 27.09 27.71 29.03 31.19 31.91 33.94 34.72 34.71 35.01 33.17 33.33 33.54 34.38 34.51 34.82 34.81 35.53 36.66 38.19 38.75
27.18 27.27 26.35 25.28 24.79 24.50 24.79 24.64 25.27 25.73 25.28 24.63 24.73 25.75 25.48 27.64 26.54 27.02 27.19 26.35 26.05 25.84 26.56 27.34 28.26 29.25 30.02 30.93 31.68 31.70 32.68 34.37 34.31 34.06 33.88 34.36 34.41 34.09 33.61 33.88 35.50 37.32 37.80
26.91 26.11 25.04 24.77 23.97 24.45 24.90 25.47 25.65 25.25 24.78 24.83 25.20 25.45 25.85 25.41 25.70 26.42 26.28 26.93 28.16 28.66 28.16 29.01 29.79 29.54 29.58 31.18 33.33 33.63 32.80 33.39 34.05 34.55 32.88 31.91 31.53 30.17 31.18 33.04 34.20 35.62 35.89
25.17 25.08 25.29 24.90 24.68 24.74 24.59 24.89 25.56 25.26 24.54 24.86 25.38 24.98 25.86 25.55 25.48 25.52 25.78 29.83 30.70 31.71 31.61 32.06 31.34 31.20 33.34 34.47 34.59 34.48 34.69 34.40 34.75 32.44 30.16 28.68 28.96 29.19 29.83 30.09 31.44 32.65 34.54

GFSMW_sfc_wetblb_108.txt.gz
Wetbulb
49.88 51.47 51.43 50.27 50.02 50.37 50.62 51.35 51.73 52.82 53.53 57.85 59.63 60.67 60.52 63.29 63.63 64.55 65.44 64.60 63.26 64.09 64.95 65.31 65.41 64.55 63.86 64.66 64.77 64.32 64.03 63.11 64.79 60.93 60.26 60.64 61.74 61.84 62.63 63.31 62.37 63.13 63.74
48.62 50.04 51.93 52.19 50.07 50.10 50.68 51.41 52.07 52.77 53.56 58.95 60.32 62.49 62.72 62.52 64.23 65.82 65.34 65.34 64.36 65.18 64.60 64.48 64.84 65.14 63.85 63.44 63.21 63.46 62.56 62.54 64.38 61.32 60.43 57.01 58.34 59.73 60.75 61.36 60.91 61.91 62.56
46.02 49.20 49.79 52.50 54.22 53.16 51.95 51.71 52.47 53.40 53.82 59.03 61.56 62.03 63.36 63.94 63.25 63.44 64.13 64.42 64.60 64.69 64.96 64.60 64.88 64.64 64.43 62.88 63.77 64.44 63.62 61.67 62.74 62.53 59.67 55.34 54.15 57.41 59.74 59.77 61.05 61.89 62.53
47.22 48.41 48.78 49.40 51.86 53.09 55.47 56.48 55.31 56.15 55.62 60.16 61.22 60.01 61.36 60.61 61.36 62.80 63.93 64.40 64.65 64.53 64.68 64.48 64.01 64.24 64.23 64.02 64.76 65.02 63.88 62.53 59.64 61.13 60.49 59.11 58.95 55.07 54.13 59.02 61.29 62.37 62.27
45.28 45.12 47.48 47.67 49.41 50.37 53.57 57.58 57.81 58.12 59.28 59.21 58.99 60.41 59.44 60.29 60.63 60.47 59.98 62.10 63.20 63.78 64.02 64.24 63.77 63.83 64.06 64.07 64.34 64.11 63.73 63.09 59.57 58.31 58.13 58.24 57.48 57.20 55.69 53.27 57.07 59.44 61.07
43.17 43.59 45.80 46.59 47.13 49.16 50.72 53.68 54.75 55.04 56.55 56.08 56.13 56.72 56.66 57.51 57.33 56.99 58.56 59.82 60.85 62.60 62.39 62.63 62.82 63.43 63.78 63.70 64.16 63.44 62.81 62.73 60.80 60.02 59.05 57.47 55.51 55.07 54.45 54.05 56.38 56.75 61.17
42.26 42.18 42.76 43.06 44.75 45.94 47.25 48.74 49.21 49.62 51.90 52.75 52.92 53.78 53.12 52.68 51.67 52.01 53.06 52.94 53.01 53.74 53.99 55.27 58.25 60.63 61.67 62.79 62.76 62.15 61.53 61.38 61.39 61.28 59.78 60.03 58.90 59.36 57.31 55.58 54.83 55.04 59.55
41.63 41.50 41.86 42.20 42.78 43.95 46.54 46.85 46.66 46.55 47.78 48.70 49.41 50.15 50.26 49.68 48.96 48.88 49.44 49.46 49.84 50.75 51.18 52.21 53.48 54.43 55.75 56.32 57.31 59.21 61.07 61.56 60.97 60.61 60.28 60.15 59.75 59.52 58.56 57.07 55.84 54.35 57.27
41.00 41.14 41.59 42.02 42.12 42.61 43.04 44.52 45.03 44.78 45.40 46.16 46.20 47.20 47.62 46.64 46.10 46.42 46.87 47.29 47.02 47.77 48.25 49.23 50.11 50.92 51.90 51.90 53.45 55.00 55.93 59.16 60.23 60.15 60.20 59.90 59.92 59.58 59.21 58.75 58.24 56.14 53.13
41.17 41.45 41.15 41.38 41.99 42.54 42.72 43.09 43.41 42.67 42.57 42.79 43.06 43.82 44.09 45.11 44.88 44.40 43.66 43.98 44.28 44.60 45.49 45.97 46.54 46.97 47.93 49.50 50.17 50.75 51.57 52.16 53.33 56.05 58.26 59.35 59.44 59.39 59.38 59.08 58.76 58.23 56.17
40.68 41.00 41.08 41.19 40.94 41.48 41.90 42.22 41.85 40.90 40.65 40.15 40.29 40.10 40.35 41.34 41.83 42.33 41.45 41.58 42.29 42.82 42.74 43.15 43.62 43.99 45.02 46.87 47.19 47.79 48.69 48.63 49.08 50.75 51.47 52.02 56.20 58.77 59.14 59.08 58.80 58.20 57.87
41.24 41.23 40.76 40.56 40.05 39.34 40.23 39.79 40.74 39.64 39.07 39.32 38.58 38.09 38.19 38.22 38.40 38.70 38.93 40.03 39.24 39.97 40.19 40.60 41.14 41.67 42.23 43.81 44.49 44.93 46.16 46.15 46.56 47.48 48.47 48.97 50.99 51.48 55.60 58.04 57.72 57.51 57.73
41.62 41.65 41.01 39.12 39.27 38.44 38.09 38.85 38.49 39.13 39.62 39.43 38.91 38.46 38.23 37.99 37.33 37.20 37.75 38.62 39.13 39.00 39.54 39.92 39.84 40.12 41.15 41.81 42.52 42.34 42.87 43.14 44.01 45.26 45.80 46.79 48.31 49.28 50.29 49.96 50.47 55.67 56.79
43.09 42.99 42.13 41.59 41.26 40.68 39.43 39.01 38.56 38.95 39.33 38.70 38.13 37.36 36.99 37.10 37.27 37.68 37.72 37.45 38.05 37.80 37.69 37.95 38.25 38.81 39.25 39.94 40.62 40.86 41.35 41.63 41.82 43.06 44.19 44.95 45.57 45.64 46.16 47.86 48.73 50.18 50.26
41.36 41.40 41.43 41.55 40.84 40.82 40.12 38.81 38.33 38.09 38.05 37.64 37.19 36.62 37.58 37.64 37.46 37.05 36.75 36.59 36.81 36.94 37.10 36.78 37.20 37.58 37.99 38.06 38.72 39.41 39.61 40.00 39.97 40.98 41.62 43.02 43.37 43.68 45.59 45.87 46.88 47.77 47.95
40.95 41.31 41.38 40.74 40.00 39.20 39.51 38.22 37.70 37.54 37.75 36.88 36.15 36.24 36.10 35.68 35.41 35.04 34.67 34.77 34.38 34.68 35.64 35.72 35.48 35.06 36.19 37.18 38.32 38.45 37.89 38.38 38.05 38.17 39.62 40.59 41.30 42.67 43.00 44.26 45.15 45.92 45.71
41.76 41.42 41.27 40.94 40.47 39.31 38.79 37.89 37.62 37.56 36.94 35.98 35.11 34.55 34.54 34.38 34.46 34.83 34.72 34.40 34.24 34.80 34.65 34.85 35.09 35.20 36.28 37.02 37.84 38.12 37.63 37.55 37.56 37.50 37.76 38.09 39.54 41.47 41.19 42.24 42.80 43.51 45.19
41.91 42.11 42.14 41.03 40.33 38.95 37.98 37.74 37.18 36.21 35.42 34.90 34.02 34.04 33.84 33.54 33.98 33.88 33.68 33.77 34.02 33.65 33.65 33.82 34.28 34.60 35.33 36.28 36.99 37.38 37.31 37.36 37.34 37.26 37.32 37.23 37.51 39.12 40.20 39.97 39.92 40.38 41.84
43.53 43.48 42.86 41.38 38.97 37.49 37.09 36.39 35.34 34.71 34.08 33.40 33.30 33.31 33.18 32.67 32.74 32.44 32.53 32.82 32.69 32.59 32.72 33.14 33.08 33.24 34.18 35.49 36.01 36.24 36.16 36.01 35.95 36.45 36.76 36.81 36.84 38.14 38.50 37.33 37.95 37.88 38.86
42.51 41.12 40.50 38.42 37.22 36.30 35.70 34.49 33.79 33.19 32.60 32.29 32.47 32.87 32.74 32.04 31.50 31.65 31.44 31.97 32.14 31.80 32.38 32.21 33.16 33.37 33.48 34.97 35.42 36.09 35.51 34.51 34.93 35.93 36.28 36.28 36.04 36.34 36.62 35.58 34.96 34.05 35.80
39.93 39.41 37.74 36.74 36.33 35.21 34.33 33.33 32.68 31.85 31.94 32.17 32.02 31.97 31.92 31.20 31.19 31.39 31.66 31.36 31.17 31.18 31.42 31.70 32.86 33.48 34.48 34.91 35.39 35.74 34.88 34.23 33.82 34.00 33.95 35.04 35.43 35.43 35.72 35.90 33.41 33.25 35.80
36.72 36.71 35.72 34.62 34.27 33.83 32.99 31.97 30.83 31.34 31.00 30.98 30.52 30.56 30.82 30.70 30.72 30.78 31.15 31.24 30.98 30.47 30.62 30.77 31.59 33.24 34.07 34.62 34.99 35.47 35.24 35.27 33.51 33.16 34.07 34.65 34.92 35.24 35.38 35.09 35.44 35.70 35.60
35.51 34.65 33.97 32.75 32.21 31.44 30.93 29.93 30.56 30.17 30.02 29.80 29.63 29.93 30.42 30.56 31.15 30.17 30.04 30.11 30.40 29.89 29.46 29.72 29.96 31.02 32.81 33.87 34.64 35.04 34.79 34.73 34.20 34.66 35.27 35.81 35.70 35.54 35.27 34.83 34.39 34.62 33.99
32.90 32.62 32.02 31.08 29.86 29.61 29.22 29.36 29.33 29.58 28.75 28.45 28.82 29.54 29.42 29.92 30.38 30.25 30.08 29.22 29.40 28.86 28.61 28.86 28.73 29.74 30.75 31.94 33.42 33.61 34.38 34.81 34.79 34.82 35.77 35.45 35.74 34.90 34.43 33.76 34.46 34.82 35.13
32.10 31.51 30.47 29.92 29.09 28.88 28.53 28.67 28.40 28.28 27.55 27.88 28.32 28.63 28.76 28.94 28.60 28.90 29.12 28.84 29.98 29.66 28.69 29.15 29.24 28.65 29.08 31.20 33.82 33.86 33.88 34.94 34.58 34.77 34.52 33.84 33.14 31.79 31.78 32.11 32.78 33.78 34.19
31.01 30.11 29.84 29.23 28.78 28.32 27.95 27.96 28.52 28.18 27.44 27.14 28.15 27.88 28.09 28.29 27.99 28.20 28.71 31.07 30.82 31.48 31.07 31.20 30.52 30.34 31.96 32.95 33.35 34.21 34.62 34.46 34.67 32.60 31.78 31.55 31.07 30.12 30.26 30.13 30.99 31.92 31.76

GFSMW_sfc_wetblb_111.txt.gz
Wetbulb
51.59 51.93 52.75 53.72 54.20 55.02 52.36 52.00 51.96 52.45 53.47 53.84 53.86 58.49 60.91 62.56 64.86 66.66 66.00 65.62 65.60 65.44 65.39 64.38 64.25 64.86 64.34 64.07 64.85 64.44 63.86 63.84 64.70 63.18 62.61 63.61 64.11 63.47 62.71 62.84 62.67 61.98 61.75
49.20 49.81 51.24 52.24 52.18 53.23 55.22 53.38 52.13 52.57 53.25 54.46 55.04 59.48 60.47 61.50 62.74 64.14 65.01 65.57 65.37 65.04 64.91 64.10 63.88 64.97 64.50 63.84 63.67 63.35 62.53 62.95 63.50 60.47 59.74 57.20 59.10 60.48 62.09 62.83 62.89 61.42 61.08
45.87 48.11 48.56 48.84 50.39 50.74 52.57 53.87 55.03 52.95 53.59 54.58 56.50 60.00 61.73 61.72 61.74 63.01 64.39 64.86 65.01 65.36 65.24 64.77 64.47 63.80 64.49 63.55 63.60 62.96 61.94 60.76 62.80 62.48 60.48 56.20 54.37 58.23 61.65 61.00 61.48 61.35 60.90
46.60 46.88 46.43 46.67 48.92 49.28 52.07 54.29 56.06 56.01 55.17 56.39 55.11 58.36 58.85 59.89 62.50 62.57 63.02 64.16 64.07 63.85 63.88 64.88 64.56 64.05 63.93 63.16 63.30 64.16 63.52 62.71 60.88 62.22 62.68 62.19 60.11 55.20 54.93 59.37 60.52 61.28 60.37
45.00 44.56 45.16 44.93 46.53 48.23 50.09 52.31 56.06 56.46 56.84 56.93 58.13 58.99 58.40 59.26 59.53 60.89 61.28 61.99 62.25 63.11 62.70 63.38 63.69 63.60 63.66 63.24 63.36 63.14 63.41 63.42 62.06 61.21 60.75 60.63 60.52 58.85 55.19 53.46 56.59 60.57 61.02
43.77 44.46 45.34 45.58 44.60 46.75 48.69 50.13 52.10 53.05 55.99 56.38 56.11 55.31 54.92 53.68 53.89 55.66 57.60 57.06 56.32 55.53 55.51 56.85 58.63 61.87 61.87 61.76 62.18 62.68 62.38 62.44 62.33 61.88 61.02 59.03 56.81 55.92 55.10 53.61 54.18 54.57 57.87
42.39 42.45 42.79 43.09 43.08 43.76 46.59 48.21 48.69 49.26 51.42 52.13 51.72 51.68 51.83 52.48 51.64 51.98 52.48 52.91 52.56 52.14 51.88 53.44 54.64 55.47 55.72 55.76 57.12 59.14 61.06 61.71 60.63 60.41 60.25 60.30 58.95 58.58 57.37 55.40 54.11 53.45 56.18
42.11 41.99 41.83 42.21 42.27 42.74 44.03 45.81 46.34 47.04 48.45 49.07 48.69 48.77 48.78 48.64 48.53 48.63 48.96 48.51 48.58 48.94 49.38 50.45 51.32 51.32 51.78 52.43 53.26 55.82 55.48 55.05 59.24 60.39 60.92 60.44 60.23 60.19 59.41 57.54 55.71 53.50 54.14
41.51 41.69 41.68 41.91 41.81 42.37 42.16 43.71 43.42 43.38 44.46 45.53 46.48 46.38 46.87 45.61 44.76 45.04 45.60 45.13 45.33 45.38 46.20 47.18 47.33 47.86 48.63 49.69 50.48 51.29 50.85 51.51 53.22 53.85 53.13 55.97 59.78 60.41 60.12 59.62 58.49 55.78 52.50
41.31 41.55 41.38 41.18 41.33 42.04 42.77 42.30 41.28 41.16 40.75 40.91 41.33 41.83 42.19 43.01 43.43 43.02 41.56 41.72 42.54 43.08 43.72 43.89 44.29 44.78 45.70 47.26 47.75 48.35 48.89 49.00 49.73 50.32 50.29 51.58 52.26 53.38 55.50 58.81 59.05 58.36 56.31
41.01 41.21 41.24 41.49 40.93 40.97 41.02 41.02 40.42 39.27 40.02 39.24 38.71 38.68 39.07 39.49 39.55 39.52 40.08 40.13 40.73 40.59 40.51 41.09 41.51 42.10 42.24 43.65 44.50 44.03 45.34 45.29 46.17 47.40 47.63 48.46 49.77 50.16 51.85 52.14 54.15 57.44 57.26
41.89 41.89 41.19 40.58 40.28 39.57 39.66 38.84 39.50 38.81 38.71 38.44 38.25 38.18 38.73 38.58 38.12 38.17 38.04 39.25 39.43 40.05 39.59 39.66 39.84 39.97 41.00 41.76 41.82 41.27 42.24 42.28 42.28 43.24 44.67 45.54 47.39 48.12 49.24 48.34 48.40 49.82 50.40
42.90 43.39 42.79 41.21 40.92 40.34 39.40 39.89 39.52 39.56 39.52 40.23 39.74 38.88 38.71 38.45 38.02 38.30 37.93 37.93 37.89 38.40 38.40 38.47 38.09 38.33 39.04 39.77 40.07 40.21 40.63 41.40 41.99 42.31 42.70 43.70 44.90 44.66 44.14 45.22 46.92 48.06 49.34
44.61 44.88 44.86 44.05 43.14 42.53 41.03 40.09 39.50 39.54 39.63 39.24 38.69 38.18 38.10 37.99 37.76 37.77 37.38 36.81 36.85 36.60 36.83 36.94 36.96 37.29 37.57 38.21 38.13 38.40 38.71 39.28 40.26 41.05 41.38 41.20 41.98 41.03 42.41 43.55 44.23 45.54 45.46
44.46 44.71 43.97 44.18 43.35 42.28 41.60 40.58 39.79 39.40 39.11 38.26 37.86 37.15 37.32 37.07 36.76 36.12 35.89 35.97 35.77 35.87 36.10 36.12 36.43 36.68 36.64 37.06 36.76 37.25 37.26 37.36 37.77 38.82 39.09 40.05 40.82 41.40 43.05 41.35 42.31 42.32 41.98
44.74 44.21 44.12 43.92 43.00 42.17 41.29 40.14 39.32 38.81 38.93 38.13 37.11 37.00 36.42 36.02 35.74 35.66 35.42 35.49 35.40 35.47 35.47 35.20 35.25 35.24 35.84 38.29 37.76 37.60 36.50 36.65 36.83 36.63 37.47 38.32 39.33 40.09 40.91 42.56 42.94 42.26 40.02
45.21 44.19 44.04 44.01 43.55 42.67 41.25 39.85 39.08 38.68 37.79 37.02 36.53 35.72 35.35 34.95 35.01 35.18 34.97 34.69 34.45 34.79 34.30 34.35 34.57 34.20 35.05 37.21 37.33 37.61 36.27 36.09 36.60 36.83 36.78 36.68 37.45 38.84 37.94 39.60 40.54 41.01 42.10
45.71 45.14 45.00 44.58 43.93 42.45 40.24 39.68 38.68 37.58 36.62 36.15 35.55 35.14 34.61 34.13 34.43 34.22 33.84 33.77 33.78 33.34 33.26 33.62 33.93 33.90 34.44 36.31 36.47 36.97 36.07 35.97 36.32 36.68 36.19 35.91 36.01 36.83 37.20 36.14 35.75 36.57 37.82
46.90 46.19 46.23 45.18 43.65 40.98 39.63 38.44 37.20 36.36 35.77 34.99 34.36 34.24 34.02 33.17 33.06 32.49 32.48 32.73 32.54 32.52 32.80 33.23 33.16 33.13 33.76 35.64 35.75 35.77 35.36 35.40 35.21 36.24 36.51 36.29 35.45 36.94 37.05 34.55 33.54 33.92 34.77
45.66 45.14 44.86 43.22 41.35 39.57 38.53 36.62 35.94 35.09 34.31 33.80 33.29 33.69 33.53 32.55 31.72 31.75 31.71 32.40 32.49 32.23 32.85 32.50 33.59 34.16 33.53 35.77 35.82 35.48 34.54 33.29 33.88 35.00 35.52 37.29 35.76 36.20 36.32 33.96 32.35 30.59 31.66
43.73 43.80 42.52 40.07 39.40 38.20 36.54 34.83 34.69 33.33 33.20 32.90 32.73 32.46 32.29 31.55 31.64 31.66 32.13 31.91 31.79 31.93 32.04 32.27 33.19 33.57 34.39 34.29 35.68 35.90 34.18 33.50 32.86 32.94 33.43 34.81 36.25 36.09 36.03 36.23 33.60 32.95 34.35
41.33 40.91 39.59 37.93 36.80 35.87 34.46 33.63 32.40 32.50 32.11 31.92 31.28 31.10 31.41 31.58 31.49 31.35 31.62 31.74 31.39 30.67 30.72 30.89 31.26 32.94 33.65 35.05 35.27 35.80 35.69 35.47 32.76 32.22 33.69 34.45 36.04 36.12 36.35 35.96 36.14 35.94 35.20
39.45 38.97 37.89 36.07 35.39 34.37 33.17 31.58 32.11 31.48 31.01 30.56 30.09 30.46 30.96 31.06 31.27 30.59 29.94 29.96 30.46 29.88 29.46 29.15 29.45 30.25 31.94 32.51 34.65 35.19 35.57 35.59 33.82 34.02 35.02 36.06 35.94 35.99 35.29 35.88 35.50 34.87 32.15
37.87 36.74 35.85 34.40 33.14 32.71 31.62 31.35 31.10 30.77 29.70 28.99 29.47 30.05 29.68 29.97 30.50 30.53 30.18 29.47 28.96 28.74 28.13 28.08 28.42 29.06 29.60 30.35 31.76 32.62 33.01 34.32 34.17 34.98 34.52 34.96 35.38 35.66 34.89 34.32 33.29 32.50 31.89
36.53 35.35 34.50 33.73 32.88 31.92 31.04 31.27 30.64 30.06 28.81 28.96 29.14 29.37 29.66 29.31 29.37 29.57 29.56 29.30 30.10 29.97 28.48 28.84 28.79 27.72 27.66 29.44 32.04 32.04 31.23 31.84 33.33 33.37 32.59 31.87 31.41 31.16 31.66 31.34 31.35 31.29 30.87
34.98 33.45 33.07 32.34 31.55 30.64 30.37 30.30 30.17 29.59 28.57 27.73 28.53 28.86 28.29 28.77 28.80 28.62 28.87 31.97 31.94 32.08 31.70 31.44 30.52 30.01 31.44 31.98 32.22 32.72 33.20 33.73 33.94 30.67 29.16 29.20 29.74 29.40 29.10 28.72 28.80 29.67 30.13

GFSMW_sfc_wetblb_114.txt.gz
Wetbulb
47.55 48.85 50.21 49.62 49.52 50.02 50.30 51.03 51.96 50.95 49.18 47.99 47.63 47.44 48.87 58.81 60.76 62.27 63.93 63.01 63.58 63.46 62.45 62.82 63.07 61.71 61.46 61.32 62.99 62.76 61.97 62.20 63.30 61.10 61.11 62.31 63.47 62.86 61.63 61.07 61.33 60.96 60.74
44.78 47.13 47.57 47.32 47.57 48.48 49.08 49.72 51.32 52.35 52.24 49.04 49.46 49.63 53.25 57.36 58.70 61.02 62.79 63.00 63.40 64.04 63.22 62.84 61.75 61.83 62.18 61.63 61.95 61.75 61.29 61.74 62.44 59.29 59.26 56.65 58.97 61.90 62.32 62.33 61.77 60.92 60.19
42.60 44.58 45.52 45.60 45.82 46.40 47.29 49.38 50.99 52.75 54.51 50.38 50.26 51.09 53.99 56.54 57.17 59.14 60.83 62.08 63.04 63.20 63.46 62.03 61.72 61.80 61.59 61.19 61.02 61.68 61.56 59.92 60.53 61.53 59.01 55.65 53.96 55.93 58.78 60.37 61.13 60.90 60.88
43.35 44.70 44.94 45.13 44.97 45.87 47.81 49.73 51.17 53.97 55.09 52.71 50.31 49.61 51.66 52.82 55.20 57.19 60.23 61.81 63.16 62.99 63.03 63.18 62.17 61.19 60.83 60.37 60.36 62.06 61.47 60.43 59.22 60.85 61.77 60.45 58.87 53.89 51.60 55.19 58.07 59.90 59.73
42.58 43.22 44.04 45.15 45.48 45.67 46.86 49.10 50.37 51.92 52.05 54.29 52.65 52.05 50.94 52.00 54.61 54.30 56.45 58.42 57.85 58.57 59.10 59.65 61.22 61.15 60.32 59.56 59.82 61.22 60.14 60.90 59.69 59.04 58.41 59.15 59.35 57.79 55.53 53.63 53.79 55.40 58.29
42.73 43.75 44.36 44.84 44.03 44.76 45.61 47.78 47.98 48.91 50.82 51.57 51.57 50.90 51.93 51.91 52.05 51.58 52.40 53.74 53.48 53.83 54.71 56.42 56.71 56.93 56.40 56.52 58.02 59.56 59.74 59.64 59.83 59.75 58.91 58.31 56.75 56.48 56.14 55.17 55.15 54.78 57.05
42.36 42.77 42.22 42.40 42.84 42.70 43.70 46.00 44.80 45.35 48.12 48.54 48.06 48.24 47.33 48.12 48.40 49.06 47.46 48.28 48.61 48.63 49.50 50.97 51.38 51.71 52.50 53.25 53.56 55.89 55.68 54.38 56.35 58.48 59.16 59.45 59.27 59.20 57.90 56.36 55.35 54.60 55.95
41.97 42.25 42.06 42.19 42.29 42.68 42.59 41.76 43.03 42.30 44.35 45.79 46.48 46.44 45.64 45.26 45.15 44.59 44.52 44.49 45.40 45.55 46.67 46.79 47.64 48.33 49.41 50.29 51.48 52.30 51.19 51.57 52.44 52.78 52.71 53.54 56.58 58.76 59.13 57.47 55.97 54.01 54.61
41.58 41.86 41.98 41.94 41.55 42.13 41.98 41.17 40.51 39.91 39.96 40.15 41.86 41.78 43.59 43.34 42.52 42.03 42.53 42.78 42.43 43.28 43.80 44.18 44.71 45.35 46.79 47.59 48.66 49.05 48.53 49.70 49.94 50.63 50.14 50.71 52.05 52.06 52.98 53.19 54.42 55.76 52.54
41.56 42.02 41.77 41.66 41.72 41.69 41.83 41.66 40.47 39.67 39.51 39.04 38.76 38.86 39.33 39.92 40.40 40.74 39.92 40.04 39.32 39.74 40.43 40.89 42.30 42.41 43.54 44.97 45.39 45.39 46.67 46.04 47.45 48.22 47.69 48.18 49.07 49.80 51.16 51.66 50.86 50.76 50.18
41.51 41.86 41.80 41.94 41.45 41.02 40.56 40.29 40.15 39.32 38.83 38.42 38.42 37.82 38.00 38.66 38.11 37.28 37.81 38.17 39.63 39.16 39.32 39.78 40.54 40.59 41.24 42.76 42.83 42.50 42.94 42.69 43.24 44.37 44.37 45.11 47.19 47.29 48.61 47.38 47.80 48.43 48.78
41.87 42.67 42.31 41.69 41.08 39.84 39.96 39.15 39.22 39.05 38.93 38.41 37.64 37.83 38.07 37.89 37.47 36.95 36.74 37.36 36.74 37.28 36.08 35.64 35.97 37.31 38.11 39.27 39.71 39.05 40.00 40.82 40.65 40.90 41.76 42.04 43.97 45.08 44.02 44.58 45.52 46.26 47.72
41.25 41.38 41.15 39.62 38.74 38.61 37.34 37.91 37.06 37.56 37.70 38.11 37.32 36.87 36.77 34.71 34.28 34.97 35.75 35.70 35.35 35.38 35.33 34.87 34.85 34.99 35.81 36.01 37.17 37.26 37.05 37.13 38.54 39.57 39.87 40.33 41.11 40.75 39.84 42.66 41.86 43.93 44.21
41.81 41.69 40.90 40.08 38.68 38.58 36.57 35.75 34.99 35.14 35.49 35.49 34.59 34.00 33.54 33.23 32.82 33.24 32.75 32.72 32.92 33.03 33.18 33.70 34.85 35.48 35.68 36.00 36.45 36.60 36.28 36.34 36.78 37.98 38.16 38.35 38.78 38.31 38.31 40.66 40.40 41.39 40.64
41.29 41.12 40.85 39.86 38.44 37.75 37.33 36.47 35.43 35.24 35.01 34.30 33.38 32.34 32.39 32.42 32.05 31.80 32.13 33.45 33.83 33.57 33.46 33.98 34.15 34.14 34.45 35.89 35.33 35.67 35.33 34.83 34.98 36.28 37.36 37.59 38.62 40.28 39.76 38.14 39.15 39.73 38.57
41.72 42.02 41.75 40.50 39.58 37.66 37.25 36.84 35.68 34.75 35.02 33.40 32.46 32.84 32.05 31.62 30.94 30.83 30.68 30.92 30.90 30.85 31.19 30.97 31.18 30.76 34.07 36.94 37.83 36.80 34.85 34.72 34.23 34.46 35.33 36.31 37.90 38.06 38.89 39.64 39.94 38.55 36.22
42.20 42.11 40.64 40.12 39.48 38.44 37.81 35.92 35.45 35.16 33.82 32.87 32.83 32.19 31.62 31.08 30.72 30.76 30.33 29.56 28.66 29.02 28.82 29.27 30.13 29.95 30.48 36.49 37.30 37.24 34.08 33.48 33.22 33.71 34.12 34.63 35.82 36.34 35.27 36.49 36.75 36.89 37.84
42.69 42.42 40.56 40.34 39.90 38.20 36.71 36.06 35.61 33.77 33.10 32.36 32.02 31.88 31.23 30.42 30.43 29.71 28.93 28.07 28.23 27.88 28.30 28.81 29.41 29.34 31.61 36.12 36.60 36.77 33.28 32.94 32.99 33.37 33.24 32.83 32.52 33.62 34.61 33.18 32.10 32.96 33.72
41.81 41.82 40.99 40.26 38.36 36.63 36.16 35.82 35.08 34.18 33.52 32.58 31.41 31.24 30.80 29.68 29.17 28.03 27.40 27.63 27.63 27.59 27.94 29.47 29.05 28.87 29.58 35.54 36.30 35.06 31.97 32.17 31.30 32.60 32.28 32.81 32.29 35.80 36.81 32.59 30.81 30.57 31.13
40.94 40.42 39.87 39.01 36.60 34.67 34.24 33.21 32.25 31.40 30.77 30.71 31.21 31.70 31.60 30.52 29.27 28.73 27.97 28.93 28.99 29.10 30.28 30.11 30.20 32.24 30.65 34.67 35.92 34.97 32.92 30.92 31.28 31.46 32.34 35.54 34.83 37.07 36.65 33.07 30.28 29.50 29.67
39.41 39.69 37.91 36.05 34.88 33.24 32.68 31.15 30.66 29.15 29.89 30.30 29.99 29.70 29.23 28.17 28.38 28.08 28.58 29.02 29.07 29.55 29.18 29.18 29.07 28.97 30.46 30.27 35.66 35.93 32.25 30.86 30.70 30.47 30.64 31.74 35.88 36.37 36.57 36.69 33.14 32.11 34.45
38.20 38.23 35.74 33.76 32.26 32.25 31.24 30.14 28.91 28.71 29.00 28.66 28.09 27.34 26.94 28.17 28.74 25.83 26.53 26.70 26.46 26.04 26.37 26.72 27.14 29.01 29.25 33.38 33.57 34.83 35.23 34.99 31.75 30.57 31.17 30.98 35.52 36.35 36.56 35.50 36.06 36.25 35.66
36.70 36.47 34.05 31.85 30.85 30.77 29.58 28.06 27.44 27.77 27.41 26.34 25.36 25.37 26.07 26.78 26.82 25.24 24.74 24.38 25.35 25.33 25.47 25.62 25.06 26.30 28.83 28.39 32.66 33.54 33.99 33.92 31.27 31.53 33.01 35.34 36.06 36.26 35.03 35.39 35.70 35.88 28.40
34.96 34.09 32.62 30.51 28.84 28.43 28.06 27.17 27.13 27.41 26.01 24.03 23.87 24.35 24.10 25.81 25.78 26.27 26.33 24.96 24.09 23.48 25.00 25.49 25.43 25.62 26.60 27.11 27.96 29.11 29.65 32.11 31.26 31.98 30.95 33.73 34.12 34.49 33.63 32.96 32.57 29.86 28.28
33.71 32.35 30.95 29.80 28.96 27.92 27.15 26.90 27.01 26.09 24.08 23.80 23.82 23.95 25.13 24.54 24.57 25.73 25.49 25.89 25.95 26.27 25.84 26.61 27.15 26.42 25.61 27.25 31.39 31.21 29.80 30.14 31.21 31.71 30.68 28.24 27.58 27.73 28.55 29.43 29.04 28.57 27.21
31.66 30.28 29.82 28.63 27.81 27.54 26.76 26.60 26.60 25.42 24.41 23.54 24.41 24.69 24.94 23.98 24.42 24.16 24.89 30.90 31.98 32.62 32.58 32.23 30.80 29.84 31.57 32.27 32.39 32.39 32.46 32.42 32.75 29.34 27.11 27.26 26.75 26.33 27.06 27.56 26.21 26.19 27.81

GFSMW_sfc_wetblb_117.txt.gz
Wetbulb
45.15 46.90 47.37 46.89 46.97 46.98 47.79 47.95 48.83 50.23 51.18 51.42 50.16 45.88 45.65 47.67 51.45 58.85 61.12 61.81 61.48 61.29 61.77 61.49 60.98 60.98 60.28 60.29 60.50 60.87 59.67 59.61 62.08 61.07 60.74 61.64 62.87 62.43 62.15 60.76 59.62 59.35 59.57
42.30 45.12 45.67 45.46 44.96 45.26 45.85 47.14 48.91 50.24 52.24 53.67 53.76 48.31 47.30 50.49 55.46 57.48 58.36 59.56 60.88 61.75 62.30 61.91 61.14 60.41 58.97 59.24 60.35 61.43 60.92 61.29 62.36 59.21 58.91 56.65 58.33 61.31 62.51 62.69 62.49 61.03 61.09
40.78 42.19 44.09 43.86 43.95 43.89 44.75 46.85 48.75 50.00 51.30 52.17 53.30 50.74 49.78 52.12 53.88 54.30 55.49 57.19 59.41 60.23 61.59 62.10 62.15 60.79 59.91 60.12 60.17 60.43 60.50 58.41 59.06 60.90 58.22 55.02 53.79 56.29 59.89 61.02 61.60 61.71 61.50
40.77 42.53 43.32 43.33 43.47 43.66 44.77 45.96 48.05 49.82 50.52 51.52 51.01 49.97 47.71 48.52 51.24 52.14 53.85 56.50 56.13 56.20 56.65 60.60 61.83 61.07 61.02 59.02 59.64 59.75 58.71 57.99 56.78 58.30 60.41 60.05 57.44 53.22 52.38 56.31 58.88 60.68 60.44
40.71 41.72 42.10 43.23 44.29 43.48 43.65 44.94 46.20 48.12 49.36 49.94 49.78 50.10 50.54 50.83 51.31 51.46 52.72 53.42 52.95 52.53 52.21 54.11 59.06 60.94 60.69 60.13 59.28 59.22 59.16 59.04 59.64 58.85 56.66 58.17 58.88 59.00 56.53 54.71 55.51 55.39 57.66
40.59 42.43 43.00 43.11 43.58 43.64 43.97 42.84 43.51 44.28 47.24 48.64 47.99 47.53 48.10 48.38 47.66 48.11 48.31 50.14 49.11 49.08 48.84 50.28 52.75 53.59 55.37 55.59 56.52 57.61 56.48 56.37 58.70 58.94 57.62 57.79 56.47 56.06 56.05 55.23 56.08 55.82 57.15
39.28 42.68 42.07 41.65 42.57 43.09 43.00 42.70 41.82 40.72 42.41 44.45 45.76 45.47 45.68 44.66 43.50 43.51 43.85 44.74 44.47 43.53 44.17 46.41 47.75 49.57 50.51 52.30 53.68 53.10 52.02 52.68 52.63 52.96 53.10 54.34 56.27 56.81 57.71 56.57 55.65 55.12 56.70
38.89 39.99 42.15 41.14 42.08 42.67 42.59 41.90 41.07 39.60 40.14 40.34 41.26 43.15 43.73 42.52 41.70 41.68 42.14 41.01 42.17 42.09 43.28 44.19 44.54 46.34 47.37 48.49 50.14 49.29 49.97 50.54 50.29 49.33 49.80 50.91 51.43 51.40 51.95 52.19 51.35 53.00 54.79
41.13 41.76 39.83 40.23 41.59 39.73 41.94 41.24 40.02 40.01 39.53 38.95 39.24 39.04 39.63 40.43 40.49 41.01 41.33 40.75 40.46 40.89 41.42 42.34 42.77 43.20 43.73 44.91 44.93 46.39 45.74 47.67 48.56 48.19 48.01 47.86 48.50 49.50 50.26 51.13 49.46 48.46 47.83
39.84 41.03 40.36 41.26 40.84 41.65 41.29 41.80 40.73 39.32 39.27 38.97 38.36 38.30 38.57 38.85 38.54 38.31 37.55 38.14 38.68 39.44 39.61 39.77 40.11 40.68 41.63 42.93 42.62 41.97 42.16 42.01 44.13 44.95 44.88 46.22 47.18 47.50 48.42 46.17 46.92 47.89 46.66
39.66 40.32 41.93 41.63 41.04 41.51 41.08 39.97 40.14 39.36 38.87 38.44 38.06 37.74 37.66 38.00 37.71 36.90 36.65 35.00 36.05 37.09 36.77 36.73 37.10 37.17 37.65 38.89 39.04 39.30 39.80 40.61 41.67 41.52 42.61 42.30 43.43 45.71 43.19 43.67 45.90 45.21 45.68
39.96 40.76 40.61 40.70 40.47 39.61 40.53 37.91 36.46 36.98 36.71 37.62 35.64 35.07 35.34 36.15 35.99 35.55 35.21 35.49 35.12 35.91 35.88 35.92 34.51 34.68 34.76 34.71 35.08 35.22 36.80 36.31 36.19 38.29 40.22 39.88 40.81 41.31 40.18 41.45 41.98 42.37 43.68
39.64 40.44 40.39 39.82 38.91 38.13 36.71 36.26 36.27 35.14 34.63 34.32 33.05 32.11 31.51 30.99 30.18 30.21 30.64 31.18 31.09 31.46 32.19 33.44 32.91 32.75 33.38 34.16 34.33 34.73 35.26 35.26 35.71 36.62 36.86 37.34 38.12 37.18 37.77 39.70 39.54 40.78 40.80
40.43 40.61 40.43 40.59 39.93 38.49 37.19 35.08 33.84 33.96 34.19 33.85 32.46 31.09 30.05 29.59 29.43 29.87 30.03 30.35 30.57 30.11 30.55 31.13 31.65 32.22 32.58 33.93 34.37 34.44 33.84 34.03 34.80 36.08 37.19 37.21 36.35 35.81 36.59 37.99 38.31 40.05 39.36
39.76 40.63 40.75 40.38 39.04 37.93 35.75 34.61 33.87 33.64 33.51 32.71 31.70 30.78 30.47 30.23 29.65 29.39 29.45 29.87 29.98 29.71 29.94 30.24 30.54 30.82 31.96 34.24 33.68 34.28 34.58 34.33 34.20 34.99 35.70 36.08 37.48 39.16 37.87 37.04 36.82 35.88 34.63
40.68 41.27 41.30 39.90 37.46 36.31 35.61 35.21 34.20 33.93 34.32 32.76 31.88 31.99 30.86 30.49 29.62 29.25 28.80 28.70 28.25 28.07 28.52 28.52 28.94 28.67 32.58 36.03 37.28 35.99 32.86 33.28 32.92 32.88 34.03 35.34 37.15 36.95 37.46 37.77 37.46 35.87 33.46
41.16 41.10 40.76 40.13 38.20 36.42 36.79 34.33 34.11 33.89 32.86 31.94 31.68 31.05 30.85 30.68 30.59 30.29 29.50 28.33 27.32 27.11 26.91 27.31 28.09 27.94 28.86 36.30 37.00 37.14 32.54 31.99 31.96 32.39 32.64 33.10 34.74 35.57 33.79 35.43 35.31 35.14 35.86
40.57 40.80 40.46 38.89 38.33 37.02 35.48 34.94 34.12 32.72 32.06 31.34 30.97 30.69 30.14 29.20 29.17 28.36 27.43 27.05 28.36 28.44 28.27 28.13 28.40 27.95 29.96 35.77 36.54 37.02 31.69 31.47 31.65 31.77 31.29 30.72 31.22 32.45 33.91 32.61 31.32 31.58 32.17
40.22 40.57 39.90 38.41 36.74 34.98 34.61 34.12 33.29 32.02 31.46 30.94 29.93 29.94 29.45 28.44 27.85 26.49 25.71 26.39 26.71 26.70 27.02 28.90 29.42 29.52 30.23 35.30 36.30 34.85 31.17 31.12 30.66 31.55 31.19 32.26 31.55 35.18 37.23 32.00 30.33 30.01 30.69
39.40 38.80 37.94 36.78 34.82 33.09 33.42 32.70 31.85 30.82 30.02 29.69 29.55 29.30 28.93 27.69 25.99 25.57 25.03 25.86 26.46 27.16 28.13 28.26 28.53 31.23 28.28 33.94 35.72 34.82 31.55 30.87 31.30 32.16 32.30 35.10 34.04 36.06 36.77 32.85 31.24 28.63 29.52
38.27 37.36 36.03 35.49 33.77 32.26 32.36 31.10 29.95 28.79 29.74 29.49 28.99 28.35 27.46 26.10 25.87 25.04 24.97 25.08 25.13 25.24 24.83 25.74 25.88 26.83 28.81 28.78 34.44 34.63 31.06 30.07 30.34 31.25 30.91 31.45 34.95 35.83 36.45 36.73 33.97 31.66 32.43
37.76 36.52 34.34 32.97 31.37 31.42 30.94 29.49 28.30 28.60 28.29 27.86 27.51 26.21 25.10 26.32 27.19 23.69 23.76 23.86 23.48 23.18 23.31 23.75 24.43 25.82 26.64 31.73 32.05 33.42 33.68 33.40 30.10 28.49 29.73 30.29 34.18 35.20 35.76 35.60 36.24 36.27 35.50
36.54 35.67 33.08 30.19 29.46 29.61 29.57 28.11 27.47 26.76 26.41 25.55 24.44 23.96 24.54 25.05 25.17 23.39 23.26 23.20 23.15 22.95 23.20 24.52 23.67 24.34 26.75 26.25 31.44 32.42 32.74 33.01 30.91 30.93 31.84 33.60 33.92 34.45 33.59 34.06 34.36 34.66 28.90
35.19 34.24 31.41 29.36 28.13 28.16 27.51 26.95 26.06 26.58 25.26 23.08 22.51 23.17 22.98 24.08 23.62 24.60 25.04 23.39 22.78 22.30 24.44 24.53 24.69 24.46 25.49 25.59 26.37 27.56 29.26 31.69 30.50 31.03 29.68 32.13 33.12 33.44 32.43 31.35 30.41 29.81 28.87
34.13 32.58 30.76 29.27 28.39 27.07 26.33 25.73 25.98 25.41 23.52 22.87 23.09 23.09 23.90 22.58 22.83 23.87 23.52 24.94 24.28 24.98 24.94 26.30 27.27 26.02 25.96 27.95 31.75 31.41 30.04 30.18 30.75 30.99 29.00 27.33 26.35 26.57 27.09 27.76 28.42 29.00 26.91
32.10 30.50 29.80 29.03 28.24 26.55 25.97 25.72 25.88 24.35 23.19 23.04 23.60 23.67 24.15 22.83 23.41 22.81 22.86 29.04 30.89 31.81 32.04 32.22 30.64 29.76 31.62 32.26 32.23 31.94 31.65 31.89 32.16 28.55 26.28 24.85 25.73 26.91 26.61 26.29 26.73 26.43 27.55